# Wetter Temperatur Luftdruck Luftfeuchtigkeit Sichtweite Windgeschwindigkeit Windrichtung Zeit
1 Clouds 14 1026 62 10000 1 0 09:42 08.04.2020
2 Clear 13 1026 62 10000 1 0 09:20 08.04.2020
3 Clear 13 1026 66 10000 2.1 40 08:58 08.04.2020
4 Clear 13 1026 66 10000 2.1 40 08:58 08.04.2020
5 Clear 12 1026 66 10000 2.1 360 08:40 08.04.2020
6 Clear 12 1026 66 10000 2.6 340 08:21 08.04.2020
7 Clear 11 1026 71 10000 1 350 07:43 08.04.2020
8 Clear 11 1026 71 10000 2.1 350 07:22 08.04.2020
9 Clear 12 1026 66 10000 0.5 0 06:43 08.04.2020
10 Clear 12 1026 71 10000 2.1 350 05:49 08.04.2020
11 Clouds 12 1027 76 10000 2.1 340 03:22 08.04.2020
12 Clouds 12 1027 81 10000 1 340 02:38 08.04.2020
13 Clouds 13 1028 82 10000 1 0 02:18 08.04.2020
14 Clouds 13 1028 82 10000 1.5 340 01:30 08.04.2020
15 Clouds 13 1028 67 10000 2.1 350 00:57 08.04.2020
16 Clouds 14 1028 58 10000 2.1 40 00:39 08.04.2020
17 Clouds 14 1028 67 10000 1.5 30 00:19 08.04.2020
18 Clouds 15 1028 67 10000 1 0 23:39 07.04.2020
19 Clouds 15 1028 62 10000 0.5 0 23:20 07.04.2020
20 Clouds 15 1028 62 10000 0.5 0 22:56 07.04.2020
21 Clouds 15 1027 62 10000 1 210 22:38 07.04.2020
22 Clouds 15 1027 59 10000 1 200 22:19 07.04.2020
23 Clouds 16 1027 59 10000 1 200 21:55 07.04.2020
24 Clouds 15 1027 62 10000 1.5 210 21:37 07.04.2020
25 Clouds 16 1027 63 10000 2.6 200 21:18 07.04.2020
26 Clouds 16 1027 63 10000 2.6 200 20:55 07.04.2020
27 Clouds 16 1027 63 10000 2.6 200 20:55 07.04.2020
28 Clouds 16 1027 63 10000 2.6 200 20:36 07.04.2020
29 Clouds 16 1027 63 10000 2.6 200 20:18 07.04.2020
30 Clouds 16 1026 63 10000 3.6 200 19:55 07.04.2020
31 Clouds 17 1026 63 10000 4.1 210 19:36 07.04.2020
32 Clouds 17 1026 63 10000 4.1 210 19:18 07.04.2020
33 Clouds 18 1026 55 10000 5.7 230 18:41 07.04.2020
34 Clouds 18 1026 48 10000 6.7 230 18:21 07.04.2020
35 Clouds 18 1026 52 10000 6.2 220 17:57 07.04.2020
36 Clouds 19 1026 52 10000 6.2 220 17:38 07.04.2020
37 Clouds 19 1026 45 10000 6.2 220 17:20 07.04.2020
38 Clouds 19 1027 48 10000 6.2 210 16:45 07.04.2020
39 Clouds 19 1027 48 10000 6.2 220 16:26 07.04.2020
40 Clouds 19 1027 52 10000 6.2 220 15:46 07.04.2020
41 Clouds 19 1027 52 10000 6.2 220 15:27 07.04.2020
42 Clouds 19 1027 52 10000 6.2 220 14:58 07.04.2020
43 Clouds 19 1027 49 10000 3.6 190 14:39 07.04.2020
44 Clouds 19 1027 49 10000 3.6 190 14:20 07.04.2020
45 Clouds 19 1027 42 10000 3.1 130 13:54 07.04.2020
46 Clouds 19 1027 42 10000 3.6 130 13:36 07.04.2020
47 Clouds 19 1028 45 10000 2.6 0 13:18 07.04.2020
48 Clouds 18 1028 45 10000 3.6 60 12:40 07.04.2020
49 Clouds 18 1028 45 10000 3.6 40 12:22 07.04.2020
50 Clouds 17 1028 45 10000 3.6 40 11:59 07.04.2020
51 Clouds 17 1028 51 10000 3.6 70 11:41 07.04.2020
52 Clouds 16 1028 51 10000 2.6 80 11:21 07.04.2020
53 Clouds 16 1027 55 10000 2.6 80 10:56 07.04.2020
54 Clouds 16 1027 55 10000 2.6 80 10:37 07.04.2020
55 Clouds 14 1027 54 10000 1.5 30 10:18 07.04.2020
56 Clouds 12 1027 54 10000 2.1 340 09:44 07.04.2020
57 Clouds 11 1027 57 10000 2.1 340 09:18 07.04.2020
58 Clouds 10 1027 57 10000 1.5 10 08:42 07.04.2020
59 Clouds 10 1027 57 10000 1.5 10 08:24 07.04.2020
60 Clouds 9 1027 61 10000 2.6 360 07:59 07.04.2020
61 Clouds 10 1027 61 10000 2.6 10 07:40 07.04.2020
62 Clouds 9 1026 57 10000 2.1 350 07:21 07.04.2020
63 Clouds 10 1026 61 10000 2.1 310 06:49 07.04.2020
64 Clouds 10 1026 61 10000 1 0 06:21 07.04.2020
65 Clouds 11 1026 53 10000 2.6 350 05:38 07.04.2020
66 Clouds 11 1027 53 10000 2.1 350 04:40 07.04.2020
67 Clouds 11 1027 57 10000 2.1 360 03:25 07.04.2020
68 Clouds 11 1027 57 10000 2.6 350 02:48 07.04.2020
69 Clouds 11 1027 71 10000 1.5 330 01:48 07.04.2020
70 Clouds 12 1027 76 10000 1 350 01:25 07.04.2020
71 Clouds 12 1027 71 10000 1.5 350 00:29 07.04.2020
72 Clouds 13 1027 66 10000 1 0 23:55 06.04.2020
73 Clouds 12 1027 66 10000 2.1 350 23:36 06.04.2020
74 Clouds 13 1027 62 10000 1.5 360 23:18 06.04.2020
75 Clouds 14 1027 62 10000 1.5 350 22:39 06.04.2020
76 Clouds 14 1027 62 10000 0.5 0 22:21 06.04.2020
77 Clouds 14 1027 62 10000 0.5 0 21:57 06.04.2020
78 Clouds 15 1026 67 10000 1.5 200 21:39 06.04.2020
79 Clouds 15 1026 62 10000 2.1 210 21:19 06.04.2020
80 Clouds 15 1026 62 10000 2.1 210 20:55 06.04.2020
81 Clouds 16 1025 55 10000 2.6 210 20:37 06.04.2020
82 Clouds 16 1025 51 10000 3.6 210 20:18 06.04.2020
83 Clouds 17 1025 51 10000 4.1 220 19:41 06.04.2020
84 Clouds 17 1025 45 10000 4.1 210 19:23 06.04.2020
85 Clouds 17 1025 45 10000 4.1 210 18:59 06.04.2020
86 Clouds 18 1025 42 10000 5.7 210 18:40 06.04.2020
87 Clouds 18 1025 39 10000 5.7 220 18:22 06.04.2020
88 Clouds 18 1025 36 10000 5.7 210 17:55 06.04.2020
89 Clouds 18 1025 36 10000 5.7 210 17:36 06.04.2020
90 Clouds 18 1025 34 10000 5.7 220 17:18 06.04.2020
91 Clouds 19 1025 32 10000 6.2 230 16:44 06.04.2020
92 Clouds 19 1025 42 10000 5.7 210 16:26 06.04.2020
93 Clouds 19 1026 37 10000 6.2 220 14:45 06.04.2020
94 Clouds 19 1025 37 10000 5.1 210 14:45 06.04.2020
95 Clouds 19 1026 37 10000 6.2 220 14:45 06.04.2020
96 Clouds 19 1026 37 10000 6.2 220 14:45 06.04.2020
97 Clouds 19 1026 37 10000 6.2 220 14:45 06.04.2020
98 Clouds 18 1026 45 10000 5.7 220 13:44 06.04.2020
99 Clouds 19 1025 48 10000 5.7 220 13:44 06.04.2020
100 Clouds 19 1025 48 10000 5.7 220 13:44 06.04.2020
101 Clouds 19 1025 48 10000 5.7 220 13:44 06.04.2020
102 Clouds 18 1025 48 10000 5.7 220 13:20 06.04.2020
103 Clouds 18 1025 48 10000 3.6 180 13:20 06.04.2020
104 Clouds 18 1025 48 10000 3.6 180 13:20 06.04.2020
105 Clouds 18 1025 48 10000 1.5 180 12:26 06.04.2020
106 Clouds 18 1025 48 10000 1.5 180 12:26 06.04.2020
107 Clouds 18 1025 48 10000 1.5 180 12:26 06.04.2020
108 Clouds 18 1025 48 10000 2.6 180 12:01 06.04.2020
109 Clouds 17 1025 48 10000 2.1 150 11:40 06.04.2020
110 Clouds 17 1025 48 10000 2.1 150 11:38 06.04.2020
111 Clouds 17 1025 48 10000 2.1 150 11:36 06.04.2020
112 Clouds 17 1025 48 10000 2.1 150 11:36 06.04.2020
113 Clouds 17 1025 48 10000 2.1 150 11:36 06.04.2020
114 Clouds 16 1024 63 10000 2.6 50 10:52 06.04.2020
115 Clouds 16 1025 63 10000 1.5 70 10:52 06.04.2020
116 Clouds 16 1025 63 10000 1.5 70 10:52 06.04.2020
117 Clouds 16 1025 63 10000 1.5 70 10:52 06.04.2020
118 Clouds 16 1025 63 10000 1.5 70 10:52 06.04.2020
119 Clouds 16 1024 63 10000 2.6 50 10:23 06.04.2020
120 Clouds 16 1024 63 10000 2.6 50 10:23 06.04.2020
121 Clouds 16 1024 63 10000 2.6 50 10:23 06.04.2020
122 Clouds 15 1024 67 10000 3.1 60 09:53 06.04.2020
123 Clouds 15 1024 67 10000 3.1 60 09:53 06.04.2020
124 Clouds 15 1024 67 10000 3.1 60 09:53 06.04.2020
125 Clouds 15 1024 67 10000 3.1 60 09:53 06.04.2020
126 Clouds 15 1024 67 10000 3.1 60 09:53 06.04.2020
127 Clouds 12 1024 66 10000 2.1 10 09:24 06.04.2020
128 Clouds 10 1024 76 10000 2.1 10 08:55 06.04.2020
129 Clouds 10 1024 76 10000 2.1 10 08:55 06.04.2020
130 Clouds 9 1023 75 10000 2.1 10 08:36 06.04.2020
131 Clouds 9 1023 75 10000 2.1 10 08:36 06.04.2020
132 Clouds 9 1023 75 10000 2.1 10 08:36 06.04.2020
133 Clouds 8 1023 75 10000 2.1 330 07:55 06.04.2020
134 Clouds 8 1023 70 10000 3.1 10 07:19 06.04.2020
135 Clouds 9 1023 70 10000 2.6 340 06:26 06.04.2020
136 Clear 9 1022 76 10000 2.6 350 05:39 06.04.2020
137 Clear 9 1022 76 10000 2.6 350 05:35 06.04.2020
138 Clear 9 1022 76 10000 2.6 350 05:26 06.04.2020
139 Clear 11 1022 71 10000 2.1 360 03:29 06.04.2020
140 Clouds 11 1023 71 10000 1.5 330 02:48 06.04.2020
141 Clouds 11 1023 71 10000 1.5 330 01:52 06.04.2020
142 Clouds 11 1023 71 10000 2.6 350 00:51 06.04.2020
143 Clouds 11 1022 76 10000 2.6 340 00:27 06.04.2020
144 Clouds 11 1022 76 10000 2.6 340 00:27 06.04.2020
145 Clouds 11 1022 76 10000 2.1 340 23:49 05.04.2020
146 Clouds 11 1022 76 10000 2.1 340 23:30 05.04.2020
147 Clouds 12 1022 76 10000 2.1 340 23:30 05.04.2020
148 Clouds 12 1022 81 10000 1 0 22:56 05.04.2020
149 Clouds 12 1022 76 10000 0.5 0 22:38 05.04.2020
150 Clouds 12 1022 76 10000 0.5 0 22:38 05.04.2020
151 Clouds 13 1022 76 10000 0.5 0 22:19 05.04.2020
152 Clouds 13 1021 71 10000 1 100 21:58 05.04.2020
153 Clouds 14 1021 71 10000 1 160 21:39 05.04.2020
154 Clouds 15 1021 71 10000 1 160 21:21 05.04.2020
155 Clouds 16 1021 62 10000 2.1 210 20:21 05.04.2020
156 Clouds 16 1021 59 10000 4.1 210 19:41 05.04.2020
157 Clouds 16 1021 59 10000 4.1 210 19:22 05.04.2020
158 Clouds 17 1021 63 10000 4.1 210 18:47 05.04.2020
159 Clouds 17 1021 63 10000 4.6 220 17:59 05.04.2020
160 Clouds 17 1021 63 10000 4.6 220 17:59 05.04.2020
161 Clouds 17 1021 63 10000 4.6 220 17:59 05.04.2020
162 Clouds 17 1021 63 10000 5.1 220 17:40 05.04.2020
163 Clouds 17 1021 63 10000 5.1 220 17:40 05.04.2020
164 Clouds 17 1021 63 10000 5.1 220 17:40 05.04.2020
165 Clouds 17 1021 63 10000 5.1 220 17:40 05.04.2020
166 Clouds 17 1021 63 10000 5.1 220 17:40 05.04.2020
167 Clouds 17 1021 63 10000 5.1 220 17:20 05.04.2020
168 Clouds 18 1021 45 10000 5.7 220 16:46 05.04.2020
169 Clouds 17 1021 59 10000 5.7 210 16:46 05.04.2020
170 Clouds 17 1021 59 10000 5.7 210 16:46 05.04.2020
171 Clouds 17 1021 59 10000 5.7 210 16:46 05.04.2020
172 Clouds 18 1021 45 10000 5.7 220 16:46 05.04.2020
173 Clouds 18 1021 45 10000 5.7 220 16:18 05.04.2020
174 Clouds 18 1021 48 10000 5.7 220 15:45 05.04.2020
175 Clouds 18 1021 52 10000 5.1 210 15:25 05.04.2020
176 Clouds 18 1021 52 10000 4.1 210 14:48 05.04.2020
177 Clouds 18 1021 52 10000 4.1 210 14:48 05.04.2020
178 Clouds 18 1021 52 10000 4.1 210 14:48 05.04.2020
179 Clouds 18 1021 52 10000 4.1 210 14:48 05.04.2020
180 Clouds 19 1022 42 10000 4.1 110 13:47 05.04.2020
181 Clouds 19 1022 42 10000 4.1 110 13:47 05.04.2020
182 Clouds 18 1022 39 10000 2.1 0 13:01 05.04.2020
183 Clouds 17 1022 36 10000 2.6 0 11:58 05.04.2020
184 Clouds 16 1022 51 10000 2.1 70 11:39 05.04.2020
185 Clouds 16 1022 51 10000 2.1 70 11:19 05.04.2020
186 Clouds 15 1022 58 10000 0.5 20 10:45 05.04.2020
187 Clouds 14 1022 58 10000 0.5 20 10:21 05.04.2020
188 Clouds 13 1022 58 10000 0.5 0 09:52 05.04.2020
189 Clouds 13 1022 58 10000 0.5 0 09:52 05.04.2020
190 Clouds 11 1022 71 10000 1.5 340 09:25 05.04.2020
191 Clouds 11 1022 71 10000 1.5 340 09:25 05.04.2020
192 Clouds 11 1022 71 10000 1.5 340 09:25 05.04.2020
193 Clouds 11 1022 71 10000 1.5 340 09:25 05.04.2020
194 Clouds 11 1022 71 10000 1.5 340 09:25 05.04.2020
195 Clouds 7 1021 75 10000 2.6 350 07:58 05.04.2020
196 Clear 8 1021 87 10000 2.6 10 05:12 05.04.2020
197 Clear 8 1021 93 10000 2.1 10 03:58 05.04.2020
198 Clear 9 1022 87 10000 2.6 350 03:24 05.04.2020
199 Clear 10 1022 87 10000 2.1 350 01:57 05.04.2020
200 Clear 10 1022 87 10000 2.1 360 01:39 05.04.2020
201 Clear 10 1022 81 10000 2.1 330 00:52 05.04.2020
202 Clear 11 1022 81 10000 2.1 310 00:23 05.04.2020
203 Clear 11 1022 81 10000 2.1 310 23:58 04.04.2020
204 Clear 12 1022 81 10000 1 80 23:39 04.04.2020
205 Clear 12 1022 81 10000 1 80 23:21 04.04.2020
206 Clear 12 1022 76 10000 2.1 340 22:56 04.04.2020
207 Clear 13 1022 71 10000 1 120 22:38 04.04.2020
208 Clear 13 1022 71 10000 1 120 22:19 04.04.2020
209 Clear 13 1022 71 10000 1 180 21:56 04.04.2020
210 Clear 14 1021 76 10000 1.5 190 21:38 04.04.2020
211 Clouds 14 1021 76 10000 1.5 190 21:18 04.04.2020
212 Clouds 15 1021 72 10000 2.1 200 20:54 04.04.2020
213 Clouds 15 1021 67 10000 2.6 200 20:36 04.04.2020
214 Clouds 16 1021 67 10000 2.6 200 20:18 04.04.2020
215 Clouds 16 1021 63 10000 4.1 200 19:41 04.04.2020
216 Clouds 16 1021 59 10000 5.1 210 19:20 04.04.2020
217 Clouds 17 1021 59 10000 5.1 210 18:59 04.04.2020
218 Clouds 17 1020 59 10000 4.6 200 18:39 04.04.2020
219 Clouds 17 1020 59 10000 4.6 200 18:21 04.04.2020
220 Clouds 17 1020 59 10000 4.6 200 18:21 04.04.2020
221 Clouds 18 1020 48 10000 5.1 210 17:59 04.04.2020
222 Clouds 18 1020 48 10000 5.7 210 17:39 04.04.2020
223 Clouds 18 1020 48 10000 5.7 210 17:39 04.04.2020
224 Clouds 18 1020 48 10000 5.7 210 17:19 04.04.2020
225 Clouds 18 1021 52 10000 6.2 200 16:46 04.04.2020
226 Clouds 18 1021 52 10000 6.2 200 16:27 04.04.2020
227 Clouds 18 1021 48 10000 6.2 200 15:59 04.04.2020
228 Clouds 19 1021 45 10000 5.1 220 15:39 04.04.2020
229 Clear 18 1021 45 10000 5.1 220 15:20 04.04.2020
230 Clear 18 1021 55 10000 6.2 210 14:56 04.04.2020
231 Clear 19 1021 48 10000 4.1 210 14:37 04.04.2020
232 Clear 19 1021 48 10000 4.1 210 14:18 04.04.2020
233 Clear 18 1021 52 10000 3.6 230 13:54 04.04.2020
234 Clear 18 1021 48 10000 3.6 220 13:36 04.04.2020
235 Clear 18 1021 48 10000 3.6 220 13:18 04.04.2020
236 Clear 18 1022 59 10000 3.6 210 12:42 04.04.2020
237 Clear 17 1022 59 10000 3.6 210 12:23 04.04.2020
238 Clear 17 1022 55 10000 2.6 160 11:54 04.04.2020
239 Clear 16 1022 59 10000 1.5 160 11:36 04.04.2020
240 Clear 16 1022 59 10000 1.5 160 11:18 04.04.2020
241 Clear 16 1021 72 10000 1 0 10:55 04.04.2020
242 Clear 15 1021 71 10000 0.5 220 10:37 04.04.2020
243 Clear 14 1021 71 10000 0.5 220 10:18 04.04.2020
244 Clear 12 1021 81 10000 0.5 0 09:42 04.04.2020
245 Clear 10 1021 81 10000 0.5 0 09:24 04.04.2020
246 Clear 9 1021 81 10000 1.5 10 08:58 04.04.2020
247 Clear 8 1020 87 10000 1.5 360 08:38 04.04.2020
248 Clear 8 1020 87 10000 1.5 360 08:19 04.04.2020
249 Clear 7 1020 81 10000 1 50 07:40 04.04.2020
250 Clear 7 1020 81 10000 1 50 07:22 04.04.2020
251 Clear 7 1019 81 10000 0.5 30 06:46 04.04.2020
252 Clear 7 1020 81 10000 1 30 06:18 04.04.2020
253 Clear 8 1020 81 10000 2.6 340 05:40 04.04.2020
254 Clear 8 1020 81 10000 2.6 340 05:22 04.04.2020
255 Clear 8 1020 81 10000 1.5 350 04:25 04.04.2020
256 Clear 8 1020 81 10000 2.1 340 03:47 04.04.2020
257 Clear 8 1020 81 10000 2.1 350 02:49 04.04.2020
258 Clear 8 1020 81 10000 2.1 360 02:30 04.04.2020
259 Clear 8 1020 87 10000 2.6 350 01:51 04.04.2020
260 Clear 9 1020 81 10000 2.1 350 01:22 04.04.2020
261 Clear 9 1020 76 10000 1.5 360 00:47 04.04.2020
262 Clear 9 1020 76 10000 1.5 360 00:27 04.04.2020
263 Clear 10 1019 76 10000 1.5 330 23:39 03.04.2020
264 Clear 11 1019 58 10000 1 350 23:21 03.04.2020
265 Clear 11 1019 58 10000 1 350 22:57 03.04.2020
266 Clear 12 1019 58 10000 1.5 20 22:39 03.04.2020
267 Clear 11 1019 58 10000 1.5 20 22:18 03.04.2020
268 Clear 13 1018 58 10000 2.1 30 21:43 03.04.2020
269 Clear 13 1018 50 10000 1.5 60 21:24 03.04.2020
270 Clear 14 1018 50 10000 1 0 20:57 03.04.2020
271 Clear 14 1018 50 10000 1 0 20:57 03.04.2020
272 Clear 14 1017 47 10000 2.6 70 20:37 03.04.2020
273 Clear 15 1017 47 10000 2.6 70 20:19 03.04.2020
274 Clear 16 1017 41 10000 3.6 80 19:57 03.04.2020
275 Clear 16 1017 39 10000 5.1 80 19:38 03.04.2020
276 Clear 17 1017 39 10000 5.1 80 19:20 03.04.2020
277 Clear 17 1017 39 10000 5.1 80 18:59 03.04.2020
278 Clear 17 1016 42 10000 4.6 90 18:41 03.04.2020
279 Clouds 17 1016 42 10000 6.2 80 18:22 03.04.2020
280 Clouds 17 1016 48 10000 6.2 70 17:55 03.04.2020
281 Clouds 17 1016 48 10000 6.2 70 17:37 03.04.2020
282 Clouds 17 1016 51 10000 6.7 80 17:18 03.04.2020
283 Clouds 17 1016 55 10000 6.2 80 16:44 03.04.2020
284 Clouds 17 1016 55 10000 6.2 80 16:22 03.04.2020
285 Clouds 17 1016 55 10000 5.1 70 15:58 03.04.2020
286 Clouds 17 1016 55 10000 5.1 70 15:40 03.04.2020
287 Clouds 17 1016 55 10000 5.7 60 15:21 03.04.2020
288 Clouds 16 1017 60 0 3.58 51 14:56 03.04.2020
289 Clouds 16 1016 51 10000 5.1 20 14:38 03.04.2020
290 Clouds 16 1016 51 10000 5.1 20 14:20 03.04.2020
291 Clouds 16 1016 51 10000 5.1 20 13:43 03.04.2020
292 Clouds 16 1016 51 10000 5.1 20 13:25 03.04.2020
293 Clouds 16 1016 48 10000 5.1 30 12:56 03.04.2020
294 Clouds 16 1016 51 10000 5.7 40 12:37 03.04.2020
295 Clouds 16 1016 51 10000 5.7 40 12:18 03.04.2020
296 Clouds 16 1016 48 10000 5.7 40 11:54 03.04.2020
297 Clouds 15 1015 51 10000 7.2 20 11:36 03.04.2020
298 Clouds 16 1015 51 10000 7.2 20 11:18 03.04.2020
299 Clouds 15 1015 51 10000 6.2 30 10:54 03.04.2020
300 Clouds 15 1015 51 10000 6.2 30 10:36 03.04.2020
301 Clouds 15 1014 54 10000 4.6 50 10:18 03.04.2020
302 Clouds 14 1014 62 10000 5.1 30 09:40 03.04.2020
303 Rain 13 1014 62 10000 5.1 30 09:22 03.04.2020
304 Clouds 14 1014 62 10000 5.1 30 09:22 03.04.2020
305 Clouds 14 1014 58 10000 4.1 40 08:57 03.04.2020
306 Clouds 13 1013 62 10000 3.1 40 08:39 03.04.2020
307 Clouds 13 1013 62 10000 3.6 40 08:20 03.04.2020
308 Clouds 13 1012 62 10000 4.6 30 07:50 03.04.2020
309 Clouds 13 1012 62 10000 4.6 30 07:31 03.04.2020
310 Clouds 13 1012 62 10000 3.1 30 06:49 03.04.2020
311 Clouds 13 1012 62 10000 3.1 30 06:24 03.04.2020
312 Clouds 13 1012 76 10000 3.1 30 05:40 03.04.2020
313 Clouds 12 1012 87 10000 2.6 50 03:45 03.04.2020
314 Rain 12 1012 81 10000 1.5 350 02:56 03.04.2020
315 Rain 12 1012 81 10000 2.1 350 02:27 03.04.2020
316 Rain 12 1012 87 10000 1.5 20 01:23 03.04.2020
317 Rain 13 1012 87 10000 3.6 50 00:40 03.04.2020
318 Rain 13 1012 87 10000 3.6 50 00:20 03.04.2020
319 Rain 13 1012 87 10000 3.1 50 23:42 02.04.2020
320 Rain 13 1012 87 10000 3.1 50 23:23 02.04.2020
321 Rain 13 1012 87 10000 3.1 50 22:58 02.04.2020
322 Rain 13 1012 87 10000 2.1 50 22:39 02.04.2020
323 Rain 13 1012 87 10000 2.1 50 22:20 02.04.2020
324 Rain 13 1011 87 10000 2.1 60 21:54 02.04.2020
325 Rain 13 1011 87 10000 2.6 60 21:36 02.04.2020
326 Rain 13 1011 87 10000 2.6 60 21:18 02.04.2020
327 Rain 14 1010 82 10000 6.2 50 20:42 02.04.2020
328 Rain 14 1010 82 10000 6.2 50 20:22 02.04.2020
329 Rain 14 1010 87 10000 6.7 60 19:55 02.04.2020
330 Rain 14 1010 87 10000 6.7 60 19:37 02.04.2020
331 Rain 14 1009 76 10000 6.2 60 19:18 02.04.2020
332 Rain 15 1009 72 10000 7.2 70 18:41 02.04.2020
333 Rain 16 1009 67 10000 5.1 70 18:21 02.04.2020
334 Rain 16 1009 67 10000 5.1 70 18:21 02.04.2020
335 Rain 15 1009 67 10000 5.1 70 17:57 02.04.2020
336 Rain 16 1009 67 10000 1.5 70 17:39 02.04.2020
337 Rain 17 1009 67 10000 1.5 70 17:20 02.04.2020
338 Rain 15 1009 72 10000 2.6 60 16:56 02.04.2020
339 Rain 16 1009 72 10000 1.5 360 16:38 02.04.2020
340 Thunderstorm 15 1009 72 10000 1 40 16:20 02.04.2020
341 Thunderstorm 15 1009 72 10000 1 40 15:55 02.04.2020
342 Thunderstorm 15 1010 72 10000 3.1 130 15:37 02.04.2020
343 Thunderstorm 16 1010 72 10000 3.1 130 15:18 02.04.2020
344 Thunderstorm 17 1009 63 10000 6.7 70 14:40 02.04.2020
345 Thunderstorm 16 1009 63 10000 6.7 70 14:21 02.04.2020
346 Thunderstorm 17 1009 63 10000 2.1 340 13:59 02.04.2020
347 Thunderstorm 17 1009 68 10000 1 300 13:40 02.04.2020
348 Thunderstorm 17 1009 68 10000 1 300 13:21 02.04.2020
349 Clouds 17 1009 77 10000 1.5 120 12:57 02.04.2020
350 Thunderstorm 16 1009 77 10000 1.5 170 12:39 02.04.2020
351 Rain 16 1009 77 10000 3.6 140 12:19 02.04.2020
352 Rain 16 1009 77 10000 3.6 140 12:19 02.04.2020
353 Rain 16 1009 77 10000 3.6 140 12:19 02.04.2020
354 Rain 16 1009 77 10000 3.6 140 12:19 02.04.2020
355 Rain 16 1009 77 10000 3.6 140 12:19 02.04.2020
356 Rain 16 1009 77 10000 3.6 140 11:57 02.04.2020
357 Rain 16 1009 82 10000 1.5 100 11:38 02.04.2020
358 Rain 16 1009 82 10000 1.5 100 11:19 02.04.2020
359 Rain 16 1009 82 10000 1.5 100 11:19 02.04.2020
360 Rain 16 1009 87 10000 1 0 10:55 02.04.2020
361 Rain 16 1009 87 10000 1.5 40 10:37 02.04.2020
362 Rain 15 1009 100 10000 1.5 30 10:19 02.04.2020
363 Rain 15 1009 100 10000 1.5 30 09:56 02.04.2020
364 Rain 14 1009 93 10000 1 0 09:38 02.04.2020
365 Rain 14 1009 93 10000 1 0 09:19 02.04.2020
366 Rain 13 1009 93 10000 1.5 350 08:46 02.04.2020
367 Rain 13 1009 93 10000 1 0 08:26 02.04.2020
368 Rain 13 1009 93 10000 1.5 150 07:45 02.04.2020
369 Rain 13 1009 87 3700 1.5 0 07:21 02.04.2020
370 Rain 13 1009 87 3700 1.5 0 06:58 02.04.2020
371 Thunderstorm 13 1009 93 5000 2.6 350 06:22 02.04.2020
372 Rain 13 1009 93 10000 1.5 70 05:45 02.04.2020
373 Rain 14 1010 87 10000 1.5 180 04:35 02.04.2020
374 Rain 15 1012 87 10000 2.1 200 01:54 02.04.2020
375 Rain 15 1012 87 10000 2.6 200 00:51 02.04.2020
376 Rain 15 1012 87 10000 2.1 210 00:29 02.04.2020
377 Rain 15 1012 93 10000 2.6 200 23:59 01.04.2020
378 Rain 15 1012 87 10000 2.6 200 23:37 01.04.2020
379 Rain 15 1012 87 10000 2.6 200 23:18 01.04.2020
380 Rain 15 1012 93 10000 3.6 210 22:41 01.04.2020
381 Rain 15 1012 93 10000 3.1 210 22:22 01.04.2020
382 Rain 15 1012 93 10000 3.1 200 21:58 01.04.2020
383 Rain 15 1012 87 10000 3.6 210 21:39 01.04.2020
384 Rain 15 1012 87 10000 3.6 200 21:19 01.04.2020
385 Rain 15 1012 87 10000 3.6 200 20:56 01.04.2020
386 Rain 16 1011 82 10000 4.6 210 20:38 01.04.2020
387 Rain 16 1011 82 10000 5.7 210 20:19 01.04.2020
388 Rain 16 1011 82 10000 5.7 210 19:57 01.04.2020
389 Rain 16 1011 82 10000 5.1 210 19:37 01.04.2020
390 Rain 16 1011 82 10000 5.1 210 19:37 01.04.2020
391 Rain 16 1011 82 10000 6.2 210 19:19 01.04.2020
392 Rain 17 1011 82 10000 5.1 220 18:41 01.04.2020
393 Rain 17 1011 82 10000 5.1 220 18:21 01.04.2020
394 Rain 17 1011 82 10000 6.7 210 17:57 01.04.2020
395 Rain 17 1011 77 10000 7.2 220 17:37 01.04.2020
396 Rain 18 1011 77 10000 7.2 220 17:18 01.04.2020
397 Rain 18 1011 72 10000 6.7 210 16:56 01.04.2020
398 Rain 18 1011 72 10000 7.2 210 16:38 01.04.2020
399 Rain 18 1011 72 10000 7.2 210 16:20 01.04.2020
400 Rain 18 1011 68 10000 5.1 190 15:43 01.04.2020
401 Rain 18 1011 68 10000 5.1 190 15:24 01.04.2020
402 Rain 17 1012 72 10000 6.2 200 14:59 01.04.2020
403 Clouds 17 1012 82 10000 5.7 210 14:40 01.04.2020
404 Clouds 17 1012 82 10000 5.7 210 14:40 01.04.2020
405 Clouds 17 1012 82 10000 5.7 210 14:21 01.04.2020
406 Thunderstorm 17 1012 72 10000 6.2 220 13:59 01.04.2020
407 Thunderstorm 17 1012 82 10000 8.2 220 13:39 01.04.2020
408 Rain 17 1012 82 10000 6.7 190 13:20 01.04.2020
409 Rain 17 1012 82 10000 6.7 190 12:58 01.04.2020
410 Rain 18 1012 72 10000 3.1 130 12:40 01.04.2020
411 Rain 18 1012 72 10000 3.1 130 12:21 01.04.2020
412 Rain 17 1012 72 10000 3.1 110 11:57 01.04.2020
413 Rain 17 1013 77 10000 4.6 100 11:37 01.04.2020
414 Rain 17 1013 77 10000 4.6 100 11:37 01.04.2020
415 Rain 16 1013 77 10000 4.6 100 11:19 01.04.2020
416 Rain 16 1013 82 10000 4.6 70 10:40 01.04.2020
417 Rain 15 1013 82 10000 4.6 70 10:21 01.04.2020
418 Rain 15 1012 82 10000 4.1 60 09:59 01.04.2020
419 Rain 15 1012 82 10000 4.1 60 09:59 01.04.2020
420 Rain 15 1012 82 10000 4.1 70 09:40 01.04.2020
421 Clouds 15 1012 82 10000 4.1 70 09:20 01.04.2020
422 Clouds 15 1012 87 10000 5.1 70 08:56 01.04.2020
423 Clouds 14 1012 87 10000 4.6 70 08:37 01.04.2020
424 Clouds 14 1012 82 10000 4.6 60 08:18 01.04.2020
425 Clouds 14 1011 82 10000 6.2 60 07:41 01.04.2020
426 Clouds 14 1012 82 10000 5.7 60 07:19 01.04.2020
427 Clouds 14 1012 82 10000 5.1 60 06:43 01.04.2020
428 Clouds 14 1012 82 10000 5.1 60 06:21 01.04.2020
429 Clouds 14 1012 82 10000 5.1 60 05:50 01.04.2020
430 Clouds 14 1013 87 10000 5.7 60 04:29 01.04.2020
431 Clouds 15 1013 82 10000 5.7 70 03:20 01.04.2020
432 Clouds 15 1013 82 10000 5.7 60 02:41 01.04.2020
433 Rain 15 1013 82 10000 5.1 60 01:53 01.04.2020
434 Rain 15 1013 82 10000 5.7 60 01:27 01.04.2020
435 Rain 15 1013 87 10000 5.7 60 00:47 01.04.2020
436 Clear 15 1013 82 10000 5.1 60 00:25 01.04.2020
437 Clear 15 1013 82 10000 5.1 60 23:59 31.03.2020
438 Clear 15 1013 82 10000 5.7 60 23:41 31.03.2020
439 Clear 15 1013 82 10000 5.7 60 23:22 31.03.2020
440 Clear 15 1013 82 10000 4.6 80 22:41 31.03.2020
441 Clear 15 1012 87 10000 6.2 60 22:22 31.03.2020
442 Clear 15 1012 87 10000 7.2 60 21:59 31.03.2020
443 Clear 15 1012 87 10000 7.2 60 21:40 31.03.2020
444 Rain 15 1011 87 10000 7.2 60 21:22 31.03.2020
445 Rain 15 1011 87 10000 7.2 60 20:58 31.03.2020
446 Rain 15 1011 87 10000 7.2 60 20:38 31.03.2020
447 Rain 15 1011 87 10000 7.2 60 20:20 31.03.2020
448 Rain 15 1011 87 10000 7.2 60 19:59 31.03.2020
449 Rain 15 1011 87 10000 7.2 60 19:40 31.03.2020
450 Rain 15 1010 82 10000 6.2 70 19:21 31.03.2020
451 Rain 16 1010 82 10000 6.2 70 18:55 31.03.2020
452 Rain 16 1010 82 10000 6.2 70 18:37 31.03.2020
453 Rain 16 1010 82 10000 7.7 70 18:18 31.03.2020
454 Rain 15 1010 87 10000 7.7 60 17:54 31.03.2020
455 Rain 15 1010 87 10000 7.7 60 17:36 31.03.2020
456 Rain 15 1011 93 10000 6.7 60 17:18 31.03.2020
457 Drizzle 15 1011 87 5000 5.7 80 16:38 31.03.2020
458 Rain 15 1011 82 10000 4.6 90 16:19 31.03.2020
459 Rain 16 1011 82 10000 4.6 90 15:57 31.03.2020
460 Rain 16 1011 77 10000 6.2 70 15:38 31.03.2020
461 Rain 16 1011 72 10000 6.7 80 15:19 31.03.2020
462 Rain 16 1011 72 10000 6.7 80 14:56 31.03.2020
463 Rain 17 1011 67 10000 7.2 70 14:38 31.03.2020
464 Rain 17 1011 67 10000 7.2 70 14:20 31.03.2020
465 Rain 16 1011 72 10000 6.7 70 13:42 31.03.2020
466 Rain 16 1012 72 10000 7.2 80 13:19 31.03.2020
467 Rain 16 1012 72 10000 7.2 80 12:55 31.03.2020
468 Rain 16 1012 72 10000 8.2 80 12:37 31.03.2020
469 Clouds 16 1012 72 10000 8.7 80 12:18 31.03.2020
470 Clouds 16 1012 72 10000 8.7 70 11:38 31.03.2020
471 Clouds 15 1012 72 10000 8.7 70 11:20 31.03.2020
472 Clouds 15 1012 77 10000 7.7 70 10:58 31.03.2020
473 Clouds 15 1011 77 10000 8.2 70 10:39 31.03.2020
474 Clouds 15 1011 77 10000 8.7 70 10:21 31.03.2020
475 Rain 15 1011 77 10000 8.7 70 09:56 31.03.2020
476 Clouds 14 1011 82 10000 8.7 60 09:37 31.03.2020
477 Clouds 15 1011 82 10000 8.7 60 09:37 31.03.2020
478 Clouds 14 1011 82 10000 8.7 60 09:37 31.03.2020
479 Clouds 14 1011 82 10000 8.7 60 09:37 31.03.2020
480 Clouds 14 1011 82 10000 8.7 60 09:19 31.03.2020
481 Clouds 14 1011 82 10000 7.7 60 08:56 31.03.2020
482 Clouds 14 1011 82 10000 7.7 60 08:56 31.03.2020
483 Clouds 14 1011 82 10000 8.2 60 08:37 31.03.2020
484 Clouds 14 1011 82 10000 8.2 60 08:19 31.03.2020
485 Clouds 14 1011 87 10000 7.2 60 07:55 31.03.2020
486 Clouds 13 1011 87 10000 5.7 70 07:37 31.03.2020
487 Clouds 13 1011 87 10000 5.7 70 07:18 31.03.2020
488 Clouds 14 1011 87 10000 5.7 70 06:42 31.03.2020
489 Clouds 14 1011 82 10000 5.7 60 05:57 31.03.2020
490 Clouds 14 1012 82 10000 4.6 60 05:38 31.03.2020
491 Clouds 13 1013 87 10000 3.6 60 03:27 31.03.2020
492 Clouds 13 1013 87 10000 3.1 50 01:52 31.03.2020
493 Clouds 13 1013 87 10000 3.1 50 01:33 31.03.2020
494 Clouds 13 1013 87 10000 2.6 60 00:46 31.03.2020
495 Clouds 13 1014 87 10000 2.1 80 00:24 31.03.2020
496 Clouds 13 1014 87 10000 2.1 90 23:41 30.03.2020
497 Clouds 13 1014 87 10000 2.1 90 23:20 30.03.2020
498 Clouds 13 1014 87 10000 2.1 60 22:58 30.03.2020
499 Clouds 13 1014 87 10000 1 50 22:39 30.03.2020
500 Clouds 13 1013 82 10000 1 0 22:20 30.03.2020
501 Clouds 13 1013 82 10000 1 0 21:58 30.03.2020
502 Clouds 14 1013 82 10000 1.5 180 21:39 30.03.2020
503 Clouds 14 1013 82 10000 1.5 180 21:39 30.03.2020
504 Clouds 14 1013 82 10000 1.5 180 21:20 30.03.2020
505 Clouds 14 1013 82 10000 1.5 180 21:20 30.03.2020
506 Clouds 14 1013 82 10000 1.5 190 20:59 30.03.2020
507 Clouds 15 1012 77 10000 2.1 200 20:39 30.03.2020
508 Clouds 15 1012 77 10000 2.1 200 20:39 30.03.2020
509 Clouds 15 1012 77 10000 2.1 200 20:20 30.03.2020
510 Clouds 15 1012 77 10000 2.1 200 20:20 30.03.2020
511 Clouds 15 1012 77 10000 2.6 200 19:56 30.03.2020
512 Clouds 16 1012 72 10000 4.1 200 19:38 30.03.2020
513 Clouds 16 1012 72 10000 4.1 200 19:38 30.03.2020
514 Clouds 16 1012 72 10000 4.6 190 19:20 30.03.2020
515 Clouds 17 1012 67 10000 5.1 190 18:43 30.03.2020
516 Rain 17 1012 67 10000 5.1 190 18:25 30.03.2020
517 Rain 17 1012 67 10000 5.7 210 17:58 30.03.2020
518 Rain 17 1012 72 10000 6.2 210 17:39 30.03.2020
519 Rain 17 1012 72 10000 6.2 210 17:21 30.03.2020
520 Rain 17 1012 67 10000 5.7 190 16:59 30.03.2020
521 Rain 18 1013 63 10000 5.1 190 16:40 30.03.2020
522 Rain 18 1013 72 10000 5.7 200 16:20 30.03.2020
523 Rain 18 1013 72 10000 5.7 200 16:20 30.03.2020
524 Rain 18 1013 72 10000 5.7 200 16:20 30.03.2020
525 Rain 17 1013 72 10000 5.7 200 15:56 30.03.2020
526 Clouds 17 1013 68 10000 6.7 190 15:38 30.03.2020
527 Clouds 17 1013 68 10000 6.7 190 15:38 30.03.2020
528 Clouds 18 1013 68 10000 6.7 190 15:20 30.03.2020
529 Rain 17 1013 72 10000 6.2 180 14:56 30.03.2020
530 Rain 17 1013 72 10000 6.7 210 14:37 30.03.2020
531 Rain 17 1013 72 10000 6.7 210 14:18 30.03.2020
532 Rain 17 1013 77 10000 6.7 210 13:55 30.03.2020
533 Clouds 17 1013 77 10000 5.7 210 13:37 30.03.2020
534 Clouds 17 1014 82 10000 4.1 210 13:19 30.03.2020
535 Rain 16 1014 77 10000 4.6 210 12:44 30.03.2020
536 Clouds 16 1014 77 10000 4.1 210 12:21 30.03.2020
537 Clouds 16 1014 77 10000 4.6 210 12:21 30.03.2020
538 Clouds 16 1014 77 10000 4.1 210 11:57 30.03.2020
539 Clouds 15 1014 82 10000 2.1 150 11:39 30.03.2020
540 Clouds 15 1014 82 10000 2.1 150 11:21 30.03.2020
541 Clouds 14 1014 87 10000 1 80 10:42 30.03.2020
542 Clouds 13 1014 87 10000 1 0 10:23 30.03.2020
543 Clouds 12 1014 87 10000 0.5 0 09:59 30.03.2020
544 Clouds 12 1014 87 10000 0.5 0 09:59 30.03.2020
545 Clouds 12 1014 87 10000 1 0 09:40 30.03.2020
546 Clouds 12 1014 87 10000 1 0 09:19 30.03.2020
547 Clouds 11 1014 87 10000 1.5 350 08:54 30.03.2020
548 Clouds 10 1014 87 10000 1.5 350 08:36 30.03.2020
549 Clouds 10 1014 87 10000 1.5 350 08:18 30.03.2020
550 Clouds 10 1013 93 10000 1 0 07:41 30.03.2020
551 Clouds 10 1013 87 10000 1 0 07:20 30.03.2020
552 Clouds 9 1013 87 10000 1 10 06:42 30.03.2020
553 Clouds 9 1014 87 10000 2.1 360 06:23 30.03.2020
554 Clouds 9 1014 87 10000 1.5 340 05:39 30.03.2020
555 Clouds 9 1014 87 10000 1.5 360 04:29 30.03.2020
556 Clouds 10 1015 87 10000 1.5 360 03:54 30.03.2020
557 Clouds 10 1015 87 10000 1 360 02:44 30.03.2020
558 Clouds 11 1015 87 10000 1 360 01:55 30.03.2020
559 Clouds 11 1016 87 10000 0.5 300 00:59 30.03.2020
560 Clouds 12 1016 82 10000 1 0 00:28 30.03.2020
561 Clouds 13 1016 87 10000 2.1 160 23:56 29.03.2020
562 Clouds 12 1016 82 10000 1 0 23:37 29.03.2020
563 Clouds 12 1016 82 10000 1 0 23:18 29.03.2020
564 Clouds 13 1016 82 10000 1.5 160 22:40 29.03.2020
565 Clouds 13 1016 82 10000 1.5 120 22:20 29.03.2020
566 Clouds 14 1016 76 10000 4.1 230 21:59 29.03.2020
567 Clouds 14 1015 67 10000 2.6 220 21:38 29.03.2020
568 Clouds 14 1015 54 10000 3.6 230 21:20 29.03.2020
569 Clouds 15 1015 51 10000 5.1 240 20:55 29.03.2020
570 Clouds 16 1015 51 10000 5.1 240 20:37 29.03.2020
571 Clouds 16 1015 59 10000 4.1 220 20:19 29.03.2020
572 Clouds 16 1015 59 10000 4.1 220 19:57 29.03.2020
573 Clouds 16 1015 59 10000 4.1 220 19:57 29.03.2020
574 Clouds 17 1015 59 10000 4.1 220 19:39 29.03.2020
575 Clouds 18 1014 45 10000 6.7 230 19:21 29.03.2020
576 Clouds 18 1014 45 10000 6.7 230 18:57 29.03.2020
577 Clouds 19 1014 45 10000 6.7 230 18:38 29.03.2020
578 Rain 19 1015 32 10000 3.1 310 18:19 29.03.2020
579 Rain 19 1015 32 10000 3.1 310 17:55 29.03.2020
580 Rain 19 1015 32 10000 4.1 320 17:37 29.03.2020
581 Rain 19 1015 32 10000 4.1 320 17:18 29.03.2020
582 Rain 20 1015 32 10000 4.6 320 16:56 29.03.2020
583 Rain 20 1015 52 10000 5.1 180 16:38 29.03.2020
584 Rain 20 1016 45 10000 6.7 210 16:18 29.03.2020
585 Rain 20 1016 40 10000 3.1 230 15:41 29.03.2020
586 Rain 20 1016 40 10000 3.1 230 15:23 29.03.2020
587 Rain 20 1016 40 10000 3.1 230 15:23 29.03.2020
588 Rain 20 1016 34 10000 3.1 280 14:58 29.03.2020
589 Rain 20 1016 32 10000 1.5 0 14:40 29.03.2020
590 Clouds 20 1017 34 10000 2.1 320 14:20 29.03.2020
591 Clouds 20 1017 34 10000 1.5 260 13:57 29.03.2020
592 Clouds 20 1017 34 10000 1.5 260 13:39 29.03.2020
593 Clouds 19 1017 34 10000 1.5 260 13:20 29.03.2020
594 Clouds 18 1017 39 10000 4.1 320 12:55 29.03.2020
595 Clouds 18 1017 39 10000 4.1 320 12:37 29.03.2020
596 Clouds 17 1017 55 10000 2.6 190 12:19 29.03.2020
597 Clouds 17 1017 55 10000 2.6 190 12:19 29.03.2020
598 Clouds 16 1017 55 10000 2.6 190 11:55 29.03.2020
599 Clouds 16 1017 55 10000 1.5 210 11:37 29.03.2020
600 Clouds 16 1017 55 10000 1.5 210 11:18 29.03.2020
601 Clouds 14 1017 76 10000 1 0 10:38 29.03.2020
602 Clouds 13 1017 81 10000 1 0 10:19 29.03.2020
603 Clouds 11 1017 81 10000 0.5 0 09:41 29.03.2020
604 Clouds 9 1017 81 10000 0.5 0 09:22 29.03.2020
605 Clouds 9 1017 87 10000 1 0 08:56 29.03.2020
606 Clouds 9 1017 87 10000 0.5 0 08:38 29.03.2020
607 Clouds 8 1017 87 10000 0.5 0 08:19 29.03.2020
608 Clouds 9 1017 81 10000 1.5 0 07:42 29.03.2020
609 Clouds 10 1017 87 10000 2.6 330 07:21 29.03.2020
610 Clouds 9 1017 87 10000 1.5 330 05:58 29.03.2020
611 Clouds 10 1017 87 10000 2.1 340 04:55 29.03.2020
612 Clouds 10 1018 87 10000 1 0 03:33 29.03.2020
613 Clouds 11 1018 87 10000 1 10 01:52 29.03.2020
614 Clouds 12 1018 81 10000 1 30 01:24 29.03.2020
615 Clouds 12 1019 81 10000 1 320 00:58 29.03.2020
616 Clouds 12 1019 87 10000 1.5 330 00:33 29.03.2020
617 Clouds 12 1019 87 10000 1 350 23:57 28.03.2020
618 Clouds 12 1019 81 10000 1.5 340 23:39 28.03.2020
619 Clouds 12 1019 87 10000 1 330 23:20 28.03.2020
620 Clouds 12 1019 81 10000 0.5 310 22:41 28.03.2020
621 Clouds 12 1019 81 10000 0.5 310 22:22 28.03.2020
622 Clouds 12 1018 76 10000 1 330 21:57 28.03.2020
623 Clouds 13 1018 76 10000 1 0 21:39 28.03.2020
624 Clouds 13 1018 76 10000 2.19 29 21:19 28.03.2020
625 Clouds 13 1018 76 10000 2.19 29 20:55 28.03.2020
626 Clouds 13 1018 76 10000 1.5 330 20:37 28.03.2020
627 Rain 13 1018 76 10000 1.5 330 20:18 28.03.2020
628 Rain 13 1018 76 10000 1.5 290 19:55 28.03.2020
629 Rain 14 1017 71 10000 1.5 280 19:36 28.03.2020
630 Rain 14 1017 71 10000 2.1 300 19:18 28.03.2020
631 Rain 15 1017 67 10000 2.1 280 18:39 28.03.2020
632 Rain 15 1017 62 10000 2.6 270 18:20 28.03.2020
633 Rain 15 1017 67 10000 3.1 240 17:41 28.03.2020
634 Rain 15 1017 67 10000 4.1 230 17:22 28.03.2020
635 Rain 15 1017 67 10000 4.1 230 16:59 28.03.2020
636 Rain 15 1017 67 10000 4.6 210 16:38 28.03.2020
637 Rain 15 1017 67 10000 4.6 210 16:18 28.03.2020
638 Rain 16 1017 62 10000 3.6 350 15:40 28.03.2020
639 Rain 16 1017 62 10000 3.6 350 15:40 28.03.2020
640 Rain 16 1017 62 10000 3.6 350 15:20 28.03.2020
641 Rain 17 1017 48 10000 4.1 90 14:59 28.03.2020
642 Rain 17 1017 48 10000 3.6 80 14:40 28.03.2020
643 Rain 17 1017 48 10000 3.6 80 14:21 28.03.2020
644 Rain 16 1017 51 10000 3.1 90 13:43 28.03.2020
645 Rain 16 1017 51 10000 3.1 90 13:24 28.03.2020
646 Rain 15 1017 67 10000 2.1 340 12:43 28.03.2020
647 Rain 15 1017 67 10000 2.1 340 12:24 28.03.2020
648 Rain 14 1018 67 10000 2.6 310 11:59 28.03.2020
649 Rain 13 1018 67 10000 2.6 310 11:41 28.03.2020
650 Drizzle 12 1018 81 10000 2.6 40 11:20 28.03.2020
651 Rain 12 1018 81 10000 3.6 50 10:40 28.03.2020
652 Rain 11 1018 81 10000 3.6 50 10:22 28.03.2020
653 Rain 11 1017 81 10000 2.1 90 09:56 28.03.2020
654 Rain 10 1017 81 10000 2.1 110 09:37 28.03.2020
655 Rain 10 1017 81 10000 2.1 110 09:19 28.03.2020
656 Rain 9 1016 87 10000 1 0 08:42 28.03.2020
657 Rain 8 1016 87 10000 1 0 08:22 28.03.2020
658 Rain 8 1016 87 10000 0.5 90 07:46 28.03.2020
659 Rain 9 1016 87 10000 1 0 07:28 28.03.2020
660 Rain 8 1016 87 10000 1.5 10 06:41 28.03.2020
661 Rain 8 1016 87 10000 2.1 350 06:18 28.03.2020
662 Rain 8 1016 87 10000 0.5 0 05:23 28.03.2020
663 Rain 8 1016 87 10000 1.5 60 04:43 28.03.2020
664 Rain 8 1016 87 10000 1.5 60 04:20 28.03.2020
665 Rain 7 1016 87 10000 2.1 350 02:46 28.03.2020
666 Clouds 8 1016 81 10000 1.5 10 01:46 28.03.2020
667 Clear 8 1016 81 10000 1.5 40 01:20 28.03.2020
668 Clear 8 1016 81 10000 1.5 360 00:47 28.03.2020
669 Clear 8 1016 81 10000 2.1 350 00:21 28.03.2020
670 Clear 9 1016 81 10000 1.5 330 23:43 27.03.2020
671 Clear 9 1016 81 10000 1.5 330 23:24 27.03.2020
672 Clear 9 1016 81 10000 2.1 30 22:57 27.03.2020
673 Clear 9 1016 76 10000 2.6 20 22:39 27.03.2020
674 Clear 9 1016 76 10000 2.6 20 22:20 27.03.2020
675 Clear 9 1016 76 10000 1.5 360 21:57 27.03.2020
676 Clear 10 1016 66 10000 1 40 21:38 27.03.2020
677 Clear 10 1016 66 10000 1 40 21:20 27.03.2020
678 Clear 10 1015 61 10000 1 0 20:55 27.03.2020
679 Clear 11 1015 57 10000 1.5 360 20:37 27.03.2020
680 Clouds 11 1015 57 10000 1.5 360 20:18 27.03.2020
681 Clouds 12 1014 50 10000 3.6 120 19:42 27.03.2020
682 Clouds 13 1014 54 10000 3.1 280 19:23 27.03.2020
683 Clouds 13 1014 54 10000 3.1 280 18:57 27.03.2020
684 Clouds 13 1014 50 10000 3.6 240 18:38 27.03.2020
685 Clouds 14 1014 50 10000 3.1 190 18:19 27.03.2020
686 Clouds 14 1013 50 10000 2.1 170 17:40 27.03.2020
687 Clouds 14 1014 50 10000 3.6 190 17:20 27.03.2020
688 Clouds 15 1014 50 10000 3.6 190 16:55 27.03.2020
689 Clouds 15 1014 44 10000 4.6 210 16:37 27.03.2020
690 Clouds 15 1014 44 10000 5.1 210 16:19 27.03.2020
691 Clouds 15 1014 44 10000 6.7 210 15:42 27.03.2020
692 Clouds 15 1014 44 10000 6.7 210 15:24 27.03.2020
693 Clouds 15 1014 41 10000 2.6 230 14:48 27.03.2020
694 Clouds 15 1014 44 10000 5.1 230 14:27 27.03.2020
695 Clear 14 1014 44 10000 2.1 220 13:58 27.03.2020
696 Clear 15 1013 41 10000 2.6 310 13:40 27.03.2020
697 Clear 15 1014 41 10000 2.1 80 13:21 27.03.2020
698 Clear 15 1014 41 10000 2.1 80 12:58 27.03.2020
699 Clear 15 1014 41 10000 1.5 0 12:39 27.03.2020
700 Clear 14 1014 41 10000 1.5 0 12:19 27.03.2020
701 Clear 14 1014 47 10000 1.5 160 11:42 27.03.2020
702 Clear 14 1014 43 10000 1 0 11:24 27.03.2020
703 Clear 13 1014 51 10000 1.5 0 10:55 27.03.2020
704 Clear 13 1014 51 10000 1.5 0 10:37 27.03.2020
705 Clear 13 1014 51 10000 1.5 0 10:19 27.03.2020
706 Clear 12 1014 51 10000 1.5 0 09:57 27.03.2020
707 Clear 11 1014 71 10000 1 0 09:38 27.03.2020
708 Clear 11 1014 71 10000 1 0 09:19 27.03.2020
709 Clear 8 1013 81 10000 1.5 350 08:56 27.03.2020
710 Clear 7 1013 87 10000 1.5 330 08:38 27.03.2020
711 Clouds 7 1013 86 10000 2.1 350 08:20 27.03.2020
712 Clouds 6 1013 86 10000 2.1 350 07:52 27.03.2020
713 Clouds 6 1013 93 10000 2.6 350 07:25 27.03.2020
714 Clouds 4 1013 93 10000 2.6 360 06:53 27.03.2020
715 Clouds 5 1013 93 10000 2.6 360 06:35 27.03.2020
716 Clouds 7 1012 86 10000 2.6 340 04:59 27.03.2020
717 Clouds 8 1012 87 10000 2.1 350 02:36 27.03.2020
718 Rain 8 1012 87 10000 1 10 01:23 27.03.2020
719 Drizzle 8 1012 87 10000 3.6 20 00:51 27.03.2020
720 Drizzle 8 1012 87 10000 3.6 20 00:31 27.03.2020
721 Rain 9 1012 93 10000 3.1 40 23:44 26.03.2020
722 Rain 9 1012 87 10000 3.1 60 23:23 26.03.2020
723 Rain 9 1012 87 10000 3.1 60 22:59 26.03.2020
724 Drizzle 9 1011 87 7000 5.7 50 22:39 26.03.2020
725 Drizzle 9 1011 87 7000 5.7 50 22:20 26.03.2020
726 Rain 9 1011 81 10000 1.5 50 21:57 26.03.2020
727 Rain 9 1011 76 10000 2.6 70 21:39 26.03.2020
728 Rain 9 1011 76 10000 2.6 70 21:20 26.03.2020
729 Rain 9 1010 76 10000 1.5 360 20:58 26.03.2020
730 Rain 9 1010 71 10000 1.5 340 20:38 26.03.2020
731 Rain 10 1010 71 10000 1.5 340 20:20 26.03.2020
732 Rain 10 1010 66 10000 1.5 350 19:56 26.03.2020
733 Rain 10 1009 66 10000 1.5 20 19:38 26.03.2020
734 Rain 10 1009 66 10000 2.6 50 19:20 26.03.2020
735 Clouds 10 1008 76 10000 3.1 30 18:55 26.03.2020
736 Clouds 10 1008 76 10000 3.1 30 18:55 26.03.2020
737 Clouds 9 1008 76 10000 3.1 20 18:36 26.03.2020
738 Rain 10 1009 76 10000 3.6 50 18:18 26.03.2020
739 Rain 10 1009 76 10000 4.6 60 17:42 26.03.2020
740 Rain 11 1008 71 10000 6.2 60 17:19 26.03.2020
741 Rain 10 1008 71 10000 8.2 60 16:45 26.03.2020
742 Rain 10 1008 71 10000 8.2 60 16:27 26.03.2020
743 Rain 10 1008 76 10000 8.7 70 15:59 26.03.2020
744 Rain 10 1008 71 10000 8.2 70 15:40 26.03.2020
745 Rain 10 1008 76 10000 7.2 80 15:22 26.03.2020
746 Rain 10 1008 76 10000 7.2 80 14:58 26.03.2020
747 Rain 11 1008 81 10000 5.7 60 14:39 26.03.2020
748 Rain 10 1008 81 10000 7.2 70 14:19 26.03.2020
749 Rain 11 1008 71 10000 5.1 70 13:44 26.03.2020
750 Rain 11 1008 71 10000 5.1 70 13:23 26.03.2020
751 Rain 11 1008 71 10000 3.6 60 12:57 26.03.2020
752 Rain 11 1008 71 10000 3.6 60 12:38 26.03.2020
753 Rain 10 1008 81 10000 3.1 360 12:19 26.03.2020
754 Rain 9 1008 81 10000 2.6 60 11:45 26.03.2020
755 Rain 8 1008 93 7000 1.5 0 11:22 26.03.2020
756 Rain 8 1008 93 7000 1.5 0 10:56 26.03.2020
757 Rain 8 1009 93 5000 2.1 300 10:37 26.03.2020
758 Rain 8 1009 93 5000 2.1 300 10:19 26.03.2020
759 Rain 8 1009 87 4700 2.1 300 09:44 26.03.2020
760 Rain 8 1009 87 4700 2.1 300 09:20 26.03.2020
761 Drizzle 9 1009 76 10000 1.5 300 08:55 26.03.2020
762 Rain 9 1009 76 10000 0.5 0 08:37 26.03.2020
763 Rain 9 1009 76 10000 0.5 0 08:18 26.03.2020
764 Rain 8 1009 81 10000 1.5 50 07:43 26.03.2020
765 Rain 8 1009 81 10000 1.5 50 07:21 26.03.2020
766 Rain 8 1010 81 10000 0.5 0 06:48 26.03.2020
767 Rain 8 1010 81 10000 1 20 05:59 26.03.2020
768 Clouds 8 1011 75 10000 1.5 210 04:33 26.03.2020
769 Clouds 9 1013 70 10000 1.5 250 03:44 26.03.2020
770 Clouds 8 1013 75 10000 1.5 360 02:55 26.03.2020
771 Clouds 8 1014 70 10000 1 0 01:50 26.03.2020
772 Clouds 7 1015 70 10000 1.5 10 00:52 26.03.2020
773 Clouds 7 1015 75 10000 2.6 350 00:20 26.03.2020
774 Clouds 7 1016 75 10000 1 0 23:40 25.03.2020
775 Clouds 7 1016 70 10000 2.6 10 23:20 25.03.2020
776 Clouds 8 1016 70 10000 2.6 10 22:40 25.03.2020
777 Clouds 7 1016 70 10000 2.6 10 22:21 25.03.2020
778 Clouds 8 1016 65 10000 0.5 0 21:56 25.03.2020
779 Clouds 8 1016 61 10000 1 0 21:38 25.03.2020
780 Clouds 8 1016 57 10000 1.5 40 21:19 25.03.2020
781 Clouds 9 1016 57 10000 1.5 40 20:55 25.03.2020
782 Clouds 10 1016 57 10000 1.5 70 20:37 25.03.2020
783 Clouds 10 1016 53 10000 2.1 90 20:18 25.03.2020
784 Clouds 11 1016 55 10000 3.6 80 19:43 25.03.2020
785 Clouds 11 1016 58 10000 4.1 90 19:23 25.03.2020
786 Clouds 12 1016 58 10000 4.1 90 18:58 25.03.2020
787 Clouds 12 1016 58 10000 4.1 90 18:40 25.03.2020
788 Clouds 13 1016 55 10000 4.1 90 18:21 25.03.2020
789 Clouds 13 1015 43 10000 4.6 80 17:56 25.03.2020
790 Clouds 13 1016 58 10000 4.1 90 17:37 25.03.2020
791 Clouds 13 1015 37 10000 6.2 90 17:19 25.03.2020
792 Clouds 13 1015 37 10000 6.2 80 16:44 25.03.2020
793 Clouds 14 1015 37 10000 6.2 80 16:24 25.03.2020
794 Clouds 14 1015 46 10000 5.7 70 15:59 25.03.2020
795 Clouds 14 1015 43 10000 6.7 80 15:41 25.03.2020
796 Clouds 14 1015 43 10000 6.7 80 15:41 25.03.2020
797 Clouds 14 1015 43 10000 6.7 80 15:20 25.03.2020
798 Clouds 14 1015 33 10000 6.2 60 14:55 25.03.2020
799 Clouds 14 1016 30 10000 6.7 70 14:37 25.03.2020
800 Clouds 14 1016 33 10000 6.2 80 14:18 25.03.2020
801 Clouds 14 1016 35 10000 5.7 60 13:42 25.03.2020
802 Clouds 13 1016 35 10000 6.2 70 13:22 25.03.2020
803 Clouds 13 1017 46 10000 4.6 60 12:38 25.03.2020
804 Clouds 12 1017 49 10000 6.7 70 12:20 25.03.2020
805 Clouds 12 1017 46 10000 6.7 70 11:56 25.03.2020
806 Clouds 13 1017 46 10000 5.7 60 11:38 25.03.2020
807 Clouds 12 1017 50 10000 6.2 60 11:20 25.03.2020
808 Clouds 12 1017 50 10000 6.2 60 10:57 25.03.2020
809 Clouds 11 1017 53 10000 3.6 30 10:39 25.03.2020
810 Clouds 11 1017 61 10000 6.2 60 10:18 25.03.2020
811 Clouds 10 1017 76 10000 7.2 70 09:43 25.03.2020
812 Rain 10 1017 76 10000 7.2 70 09:24 25.03.2020
813 Rain 10 1017 70 10000 5.1 60 08:57 25.03.2020
814 Clouds 10 1017 70 10000 2.6 10 08:39 25.03.2020
815 Clouds 8 1017 70 10000 2.6 10 08:19 25.03.2020
816 Clouds 8 1016 70 10000 1.5 10 07:41 25.03.2020
817 Clouds 8 1016 70 10000 1.5 10 07:22 25.03.2020
818 Clouds 8 1016 70 10000 1.5 10 06:50 25.03.2020
819 Clouds 8 1016 70 10000 2.1 10 06:28 25.03.2020
820 Clouds 8 1016 70 10000 2.1 10 05:57 25.03.2020
821 Clouds 8 1016 70 10000 2.1 10 05:37 25.03.2020
822 Clouds 9 1016 81 10000 2.1 50 04:41 25.03.2020
823 Clouds 9 1016 76 10000 2.6 30 03:52 25.03.2020
824 Clouds 9 1017 76 10000 3.1 50 03:29 25.03.2020
825 Rain 10 1017 81 10000 3.1 30 01:31 25.03.2020
826 Rain 9 1017 81 10000 4.1 50 00:49 25.03.2020
827 Drizzle 10 1018 71 10000 3.1 70 00:26 25.03.2020
828 Clear 11 1018 66 10000 3.6 60 23:50 24.03.2020
829 Clear 11 1018 66 10000 3.1 60 23:28 24.03.2020
830 Clear 11 1018 62 10000 3.6 70 22:57 24.03.2020
831 Clear 11 1018 62 10000 3.6 70 22:38 24.03.2020
832 Clear 11 1018 62 10000 3.6 70 22:38 24.03.2020
833 Clear 11 1018 62 10000 3.6 70 22:19 24.03.2020
834 Clear 11 1018 62 10000 3.1 80 21:57 24.03.2020
835 Clear 11 1018 62 10000 3.1 80 21:57 24.03.2020
836 Clear 11 1018 57 10000 3.6 70 21:38 24.03.2020
837 Clear 11 1018 57 10000 3.6 70 21:18 24.03.2020
838 Clear 11 1018 57 10000 3.6 70 20:57 24.03.2020
839 Rain 12 1017 57 10000 4.1 70 20:39 24.03.2020
840 Rain 12 1017 57 10000 4.1 70 20:21 24.03.2020
841 Rain 12 1017 54 10000 8.2 60 19:45 24.03.2020
842 Rain 13 1016 50 10000 9.3 60 19:20 24.03.2020
843 Rain 13 1016 50 10000 9.3 60 18:56 24.03.2020
844 Rain 14 1016 50 10000 9.3 60 18:37 24.03.2020
845 Rain 14 1016 50 10000 10.3 70 18:19 24.03.2020
846 Rain 14 1016 50 10000 10.8 60 17:56 24.03.2020
847 Rain 15 1016 51 10000 10.3 70 17:37 24.03.2020
848 Rain 14 1016 51 10000 10.3 70 17:19 24.03.2020
849 Rain 14 1016 51 10000 10.3 70 16:56 24.03.2020
850 Rain 14 1016 58 10000 10.3 60 16:37 24.03.2020
851 Clouds 14 1016 58 10000 10.3 60 16:19 24.03.2020
852 Clouds 14 1016 55 10000 9.8 70 15:42 24.03.2020
853 Clouds 15 1016 55 10000 9.8 70 15:23 24.03.2020
854 Clouds 15 1017 59 10000 8.2 90 14:44 24.03.2020
855 Rain 16 1017 59 10000 8.2 90 14:22 24.03.2020
856 Rain 15 1017 62 10000 9.8 80 13:59 24.03.2020
857 Rain 15 1018 67 10000 9.3 70 13:40 24.03.2020
858 Rain 15 1018 67 10000 9.3 70 13:22 24.03.2020
859 Rain 16 1018 63 10000 10.8 60 12:42 24.03.2020
860 Rain 15 1018 63 10000 10.8 60 12:24 24.03.2020
861 Rain 15 1018 67 10000 9.8 60 11:42 24.03.2020
862 Rain 15 1018 67 10000 9.8 60 11:22 24.03.2020
863 Rain 15 1018 67 10000 9.8 60 10:59 24.03.2020
864 Rain 15 1018 71 10000 11.3 70 10:41 24.03.2020
865 Rain 15 1018 71 10000 11.3 70 10:19 24.03.2020
866 Rain 15 1018 71 10000 11.3 70 10:19 24.03.2020
867 Rain 15 1018 67 10000 10.3 60 09:47 24.03.2020
868 Clouds 15 1017 71 10000 9.3 60 09:27 24.03.2020
869 Rain 14 1017 71 10000 9.8 60 08:58 24.03.2020
870 Rain 14 1017 71 10000 8.2 60 08:38 24.03.2020
871 Rain 14 1017 76 10000 8.7 60 08:20 24.03.2020
872 Clouds 13 1017 76 10000 7.7 60 07:44 24.03.2020
873 Clouds 13 1017 76 10000 7.7 60 07:22 24.03.2020
874 Rain 13 1017 82 10000 7.2 50 06:42 24.03.2020
875 Clouds 13 1017 82 10000 7.7 50 06:23 24.03.2020
876 Clouds 13 1017 93 10000 2.6 70 04:53 24.03.2020
877 Clouds 13 1017 82 10000 7.2 60 03:43 24.03.2020
878 Clouds 14 1018 82 10000 5.7 60 02:45 24.03.2020
879 Clouds 14 1018 82 10000 6.2 50 01:38 24.03.2020
880 Clouds 13 1018 87 10000 5.1 60 00:42 24.03.2020
881 Clouds 13 1017 87 10000 4.6 60 00:22 24.03.2020
882 Clouds 13 1019 82 10000 5.7 60 23:39 23.03.2020
883 Clouds 14 1019 82 10000 5.7 70 23:21 23.03.2020
884 Clouds 14 1019 82 10000 5.7 70 22:55 23.03.2020
885 Clouds 14 1019 82 10000 5.1 70 22:36 23.03.2020
886 Clouds 14 1019 82 10000 5.1 70 22:18 23.03.2020
887 Clouds 14 1019 82 10000 5.7 70 21:42 23.03.2020
888 Clouds 14 1019 82 10000 5.7 70 21:20 23.03.2020
889 Clouds 14 1018 82 10000 5.7 70 20:57 23.03.2020
890 Clouds 15 1018 77 10000 5.7 80 20:38 23.03.2020
891 Rain 15 1018 77 10000 5.7 80 20:19 23.03.2020
892 Clouds 15 1017 82 10000 6.2 60 19:45 23.03.2020
893 Clouds 15 1018 77 10000 6.7 70 19:27 23.03.2020
894 Clouds 16 1018 72 10000 5.7 70 18:59 23.03.2020
895 Clouds 16 1018 72 10000 5.7 70 18:40 23.03.2020
896 Clouds 17 1017 67 10000 8.2 70 18:21 23.03.2020
897 Clouds 18 1017 67 10000 7.7 70 17:43 23.03.2020
898 Rain 19 1017 59 10000 7.7 60 17:21 23.03.2020
899 Rain 19 1017 59 10000 7.7 60 16:59 23.03.2020
900 Rain 19 1017 45 10000 5.7 90 16:41 23.03.2020
901 Rain 19 1017 45 10000 5.7 90 16:23 23.03.2020
902 Rain 19 1017 49 10000 5.1 80 15:42 23.03.2020
903 Rain 19 1017 49 10000 5.1 80 15:20 23.03.2020
904 Rain 19 1017 49 10000 5.1 120 14:55 23.03.2020
905 Rain 19 1018 49 10000 5.7 100 14:36 23.03.2020
906 Rain 19 1018 52 10000 5.1 100 14:18 23.03.2020
907 Rain 18 1018 48 10000 4.6 120 13:40 23.03.2020
908 Rain 18 1018 48 10000 4.6 120 13:40 23.03.2020
909 Rain 18 1018 52 10000 4.6 110 13:21 23.03.2020
910 Clouds 18 1017 63 10000 4.1 80 12:46 23.03.2020
911 Rain 18 1018 55 10000 5.1 100 12:26 23.03.2020
912 Rain 18 1018 63 10000 4.6 80 11:59 23.03.2020
913 Rain 18 1018 63 10000 4.6 80 11:40 23.03.2020
914 Clear 17 1019 67 10000 4.1 80 11:21 23.03.2020
915 Clear 17 1019 67 10000 4.1 80 10:58 23.03.2020
916 Clear 16 1019 77 10000 4.1 100 10:39 23.03.2020
917 Clear 16 1019 77 10000 4.1 100 10:21 23.03.2020
918 Clear 15 1018 82 10000 4.1 70 09:57 23.03.2020
919 Clear 15 1018 87 10000 3.6 60 09:37 23.03.2020
920 Clear 15 1018 87 10000 2.6 60 09:18 23.03.2020
921 Clear 14 1018 87 10000 2.6 60 08:37 23.03.2020
922 Clouds 13 1018 87 10000 2.6 60 08:19 23.03.2020
923 Clear 12 1018 93 10000 2.6 40 07:50 23.03.2020
924 Clear 11 1017 93 10000 1.5 40 07:31 23.03.2020
925 Clear 11 1017 93 10000 2.1 50 06:53 23.03.2020
926 Clear 11 1017 93 10000 2.1 50 06:25 23.03.2020
927 Clear 11 1017 93 10000 1.5 40 05:42 23.03.2020
928 Clear 12 1016 93 10000 1.5 50 03:45 23.03.2020
929 Clear 12 1016 93 10000 3.1 40 02:40 23.03.2020
930 Clear 13 1016 87 10000 2.6 50 01:38 23.03.2020
931 Clear 12 1016 93 10000 2.6 50 00:43 23.03.2020
932 Clouds 13 1015 93 10000 2.6 70 23:54 22.03.2020
933 Clear 13 1016 93 10000 2.6 60 23:36 22.03.2020
934 Clear 12 1016 93 10000 2.6 50 23:18 22.03.2020
935 Clear 13 1016 93 10000 2.1 60 22:40 22.03.2020
936 Clear 13 1016 93 10000 2.1 60 22:19 22.03.2020
937 Clear 13 1016 87 10000 1.5 80 21:40 22.03.2020
938 Clear 14 1016 87 10000 1.5 80 21:21 22.03.2020
939 Clear 14 1015 93 10000 2.6 80 20:58 22.03.2020
940 Clear 14 1015 87 10000 2.6 60 20:39 22.03.2020
941 Clouds 15 1015 87 10000 2.6 60 20:21 22.03.2020
942 Clouds 15 1015 87 10000 2.6 90 19:55 22.03.2020
943 Clouds 15 1014 77 10000 1 0 19:37 22.03.2020
944 Clouds 16 1014 77 10000 2.6 100 19:19 22.03.2020
945 Haze 16 1013 72 2000 2.6 100 18:57 22.03.2020
946 Haze 16 1013 72 2000 2.6 100 18:38 22.03.2020
947 Haze 16 1013 72 4500 3.1 80 18:18 22.03.2020
948 Haze 16 1013 72 4500 3.1 80 17:56 22.03.2020
949 Clouds 16 1013 77 10000 3.6 80 17:37 22.03.2020
950 Clouds 17 1012 82 10000 3.1 60 17:19 22.03.2020
951 Rain 17 1013 63 10000 1 0 16:55 22.03.2020
952 Rain 17 1013 67 10000 5.1 210 16:37 22.03.2020
953 Rain 17 1013 67 10000 5.1 210 16:19 22.03.2020
954 Rain 18 1013 59 10000 1 30 15:39 22.03.2020
955 Rain 18 1013 59 10000 1 30 15:19 22.03.2020
956 Rain 16 1013 72 10000 1.5 50 14:46 22.03.2020
957 Rain 15 1013 72 10000 1.5 50 14:18 22.03.2020
958 Rain 15 1013 87 10000 3.1 40 13:41 22.03.2020
959 Rain 15 1013 87 10000 3.1 40 13:20 22.03.2020
960 Rain 14 1012 93 8000 2.1 20 12:47 22.03.2020
961 Rain 14 1012 93 8000 2.1 20 12:23 22.03.2020
962 Rain 14 1012 93 8000 2.1 20 12:23 22.03.2020
963 Thunderstorm 15 1012 77 10000 6.2 60 11:59 22.03.2020
964 Thunderstorm 16 1013 77 10000 5.1 70 11:41 22.03.2020
965 Thunderstorm 16 1011 77 10000 3.6 50 11:23 22.03.2020
966 Thunderstorm 17 1012 82 10000 3.6 60 10:57 22.03.2020
967 Clouds 16 1013 77 10000 4.6 60 10:39 22.03.2020
968 Clouds 16 1013 77 10000 4.6 60 10:21 22.03.2020
969 Clouds 15 1012 72 10000 0.5 0 09:43 22.03.2020
970 Clouds 15 1012 72 10000 0.5 0 09:23 22.03.2020
971 Clouds 14 1012 71 10000 1.5 350 08:44 22.03.2020
972 Clouds 13 1012 71 10000 2.1 40 08:25 22.03.2020
973 Clouds 12 1012 81 10000 2.1 20 07:53 22.03.2020
974 Clouds 12 1012 87 10000 1 0 07:32 22.03.2020
975 Clouds 12 1012 87 10000 1.5 20 06:40 22.03.2020
976 Clouds 12 1012 87 10000 2.6 10 05:37 22.03.2020
977 Clouds 13 1012 82 10000 1.5 30 03:47 22.03.2020
978 Clouds 14 1013 82 10000 1 180 01:35 22.03.2020
979 Clouds 14 1013 76 10000 1 0 00:49 22.03.2020
980 Clouds 14 1013 76 10000 0.5 0 00:29 22.03.2020
981 Clouds 14 1013 76 10000 1 0 23:45 21.03.2020
982 Rain 14 1013 82 10000 1.5 40 23:21 21.03.2020
983 Rain 14 1013 82 10000 1.5 40 22:58 21.03.2020
984 Rain 14 1013 82 10000 2.6 50 22:37 21.03.2020
985 Rain 15 1013 77 10000 2.6 50 22:18 21.03.2020
986 Rain 15 1013 77 10000 2.6 50 21:57 21.03.2020
987 Rain 15 1013 77 10000 3.6 60 21:37 21.03.2020
988 Rain 15 1013 77 10000 4.6 60 21:18 21.03.2020
989 Rain 15 1013 77 10000 4.6 70 20:42 21.03.2020
990 Rain 15 1012 77 10000 3.6 80 20:21 21.03.2020
991 Rain 16 1012 77 10000 3.6 80 19:55 21.03.2020
992 Rain 16 1012 72 10000 3.6 80 19:36 21.03.2020
993 Rain 16 1012 77 10000 2.1 220 19:18 21.03.2020
994 Rain 16 1012 77 10000 2.1 220 19:18 21.03.2020
995 Rain 16 1012 77 10000 2.6 230 18:41 21.03.2020
996 Rain 16 1012 77 10000 2.6 230 18:20 21.03.2020
997 Clouds 16 1011 87 10000 2.6 270 17:58 21.03.2020
998 Rain 16 1012 77 10000 3.6 210 17:40 21.03.2020
999 Rain 16 1012 77 10000 4.1 210 17:22 21.03.2020
1000 Rain 16 1012 77 10000 3.6 220 16:42 21.03.2020
1001 Rain 16 1012 77 10000 3.6 220 16:23 21.03.2020
1002 Rain 17 1012 77 10000 4.1 220 15:59 21.03.2020
1003 Rain 17 1012 72 10000 4.1 130 15:40 21.03.2020
1004 Rain 17 1012 72 10000 4.1 130 15:21 21.03.2020
1005 Rain 17 1012 59 10000 4.1 60 14:57 21.03.2020
1006 Rain 18 1012 59 10000 5.1 70 14:38 21.03.2020
1007 Clouds 18 1012 59 10000 5.1 70 14:19 21.03.2020
1008 Clouds 18 1013 59 10000 6.2 60 13:57 21.03.2020
1009 Clouds 18 1013 52 10000 6.2 80 13:39 21.03.2020
1010 Clouds 18 1013 52 10000 6.2 80 13:21 21.03.2020
1011 Clouds 18 1013 59 10000 6.2 60 12:55 21.03.2020
1012 Clouds 18 1013 52 10000 6.7 70 12:36 21.03.2020
1013 Clouds 18 1013 63 10000 6.2 70 12:18 21.03.2020
1014 Clouds 18 1014 68 10000 5.7 50 11:55 21.03.2020
1015 Clouds 18 1014 68 10000 5.7 50 11:37 21.03.2020
1016 Clear 17 1014 72 10000 5.1 50 11:18 21.03.2020
1017 Clear 17 1014 72 10000 5.1 50 10:56 21.03.2020
1018 Clear 16 1014 72 10000 5.7 60 10:37 21.03.2020
1019 Clear 16 1014 72 10000 5.7 60 10:18 21.03.2020
1020 Clear 15 1014 76 10000 1 340 09:40 21.03.2020
1021 Clear 14 1014 76 10000 1 340 09:21 21.03.2020
1022 Clear 13 1014 76 10000 1 0 08:58 21.03.2020
1023 Clear 12 1014 81 10000 1.5 340 08:39 21.03.2020
1024 Clouds 11 1014 81 10000 1.5 340 08:21 21.03.2020
1025 Clouds 11 1014 81 10000 2.6 340 07:39 21.03.2020
1026 Clouds 11 1014 81 10000 3.1 350 07:20 21.03.2020
1027 Clouds 11 1014 81 10000 2.6 350 06:45 21.03.2020
1028 Clouds 11 1014 81 10000 2.6 350 06:45 21.03.2020
1029 Clouds 11 1014 81 10000 2.6 350 06:26 21.03.2020
1030 Clouds 11 1014 81 10000 2.6 340 05:41 21.03.2020
1031 Clouds 12 1014 81 10000 2.6 20 04:37 21.03.2020
1032 Clouds 13 1016 82 10000 2.6 30 02:39 21.03.2020
1033 Clouds 13 1016 82 10000 2.6 30 02:18 21.03.2020
1034 Clouds 13 1016 82 10000 3.6 50 01:31 21.03.2020
1035 Clouds 13 1017 82 10000 3.6 50 00:47 21.03.2020
1036 Clouds 13 1016 87 10000 2.1 80 00:24 21.03.2020
1037 Clouds 13 1017 82 10000 4.6 70 23:48 20.03.2020
1038 Clouds 13 1017 82 10000 4.6 70 23:24 20.03.2020
1039 Clouds 13 1017 76 10000 4.1 50 22:56 20.03.2020
1040 Clouds 13 1017 76 10000 4.1 50 22:37 20.03.2020
1041 Clouds 14 1017 76 10000 4.1 50 22:19 20.03.2020
1042 Clouds 14 1017 76 10000 5.1 60 21:54 20.03.2020
1043 Clouds 14 1017 76 10000 6.7 60 21:36 20.03.2020
1044 Clouds 14 1017 76 10000 6.7 60 21:18 20.03.2020
1045 Clouds 14 1017 82 10000 4.6 50 20:42 20.03.2020
1046 Clouds 14 1017 82 10000 4.6 50 20:21 20.03.2020
1047 Clouds 15 1017 76 10000 4.6 50 19:59 20.03.2020
1048 Clouds 15 1017 72 10000 5.1 60 19:40 20.03.2020
1049 Clouds 15 1017 63 10000 4.6 60 19:18 20.03.2020
1050 Clouds 16 1017 63 10000 6.2 60 18:54 20.03.2020
1051 Clouds 16 1017 63 10000 6.2 60 18:36 20.03.2020
1052 Clouds 17 1016 63 10000 5.1 60 18:18 20.03.2020
1053 Clouds 17 1017 59 10000 5.7 60 18:18 20.03.2020
1054 Clouds 17 1017 59 10000 5.7 60 17:39 20.03.2020
1055 Clouds 17 1018 55 10000 6.7 70 17:21 20.03.2020
1056 Clouds 17 1018 55 10000 6.7 70 16:57 20.03.2020
1057 Clouds 18 1018 55 10000 6.2 70 16:39 20.03.2020
1058 Clouds 18 1018 55 10000 6.2 70 16:18 20.03.2020
1059 Clouds 18 1018 52 10000 5.7 70 15:42 20.03.2020
1060 Clouds 18 1018 52 10000 5.7 70 15:21 20.03.2020
1061 Clouds 18 1018 48 10000 6.2 60 14:55 20.03.2020
1062 Clouds 18 1018 48 10000 5.7 60 14:37 20.03.2020
1063 Clouds 18 1018 48 10000 5.7 60 14:18 20.03.2020
1064 Clouds 19 1019 52 10000 6.7 60 13:42 20.03.2020
1065 Clouds 18 1019 55 10000 7.2 80 13:19 20.03.2020
1066 Clouds 18 1019 52 10000 6.7 60 12:40 20.03.2020
1067 Clouds 18 1019 52 10000 6.7 60 12:22 20.03.2020
1068 Clouds 18 1019 52 10000 6.7 60 11:58 20.03.2020
1069 Clouds 17 1019 59 10000 6.7 60 11:38 20.03.2020
1070 Clouds 17 1019 59 10000 6.7 90 11:19 20.03.2020
1071 Clouds 16 1019 67 9000 6.2 70 10:42 20.03.2020
1072 Clouds 15 1020 72 7000 5.1 70 10:21 20.03.2020
1073 Clouds 15 1020 72 7000 5.1 70 09:59 20.03.2020
1074 Clouds 15 1020 72 7000 5.1 70 09:59 20.03.2020
1075 Clouds 15 1020 72 10000 4.6 60 09:41 20.03.2020
1076 Clouds 14 1020 76 10000 4.1 50 09:19 20.03.2020
1077 Clouds 13 1020 76 10000 4.1 40 08:43 20.03.2020
1078 Clouds 11 1020 81 10000 3.6 50 08:22 20.03.2020
1079 Clouds 11 1020 81 10000 3.6 50 07:57 20.03.2020
1080 Clouds 11 1019 81 10000 2.6 30 07:38 20.03.2020
1081 Clouds 11 1019 87 10000 2.6 30 07:19 20.03.2020
1082 Clouds 10 1019 81 10000 2.1 20 06:41 20.03.2020
1083 Clouds 11 1019 87 10000 3.1 30 04:54 20.03.2020
1084 Clouds 10 1020 87 10000 2.6 20 03:50 20.03.2020
1085 Clouds 11 1021 87 10000 3.1 40 02:27 20.03.2020
1086 Clouds 11 1021 87 10000 3.1 40 01:47 20.03.2020
1087 Clouds 11 1021 87 10000 1.5 30 00:33 20.03.2020
1088 Clouds 11 1022 87 10000 1.5 30 23:55 19.03.2020
1089 Clouds 12 1021 93 10000 2.6 80 23:36 19.03.2020
1090 Clouds 12 1022 81 10000 3.1 50 23:18 19.03.2020
1091 Clouds 12 1022 76 10000 3.1 60 22:38 19.03.2020
1092 Clouds 12 1022 76 10000 3.1 60 22:20 19.03.2020
1093 Clouds 13 1022 82 10000 3.6 50 21:56 19.03.2020
1094 Clouds 12 1022 76 10000 4.1 60 21:38 19.03.2020
1095 Clouds 13 1022 76 10000 2.6 60 21:18 19.03.2020
1096 Clouds 13 1022 76 8000 5.1 70 20:42 19.03.2020
1097 Clouds 13 1022 76 8000 5.1 70 20:42 19.03.2020
1098 Clouds 14 1022 76 8000 5.1 70 20:24 19.03.2020
1099 Clouds 14 1021 71 8000 4.6 70 19:59 19.03.2020
1100 Clouds 15 1021 62 10000 3.6 70 19:38 19.03.2020
1101 Clouds 15 1020 72 10000 3.1 70 19:20 19.03.2020
1102 Clouds 15 1021 62 8000 5.7 70 18:57 19.03.2020
1103 Clouds 16 1021 62 8000 5.7 70 18:38 19.03.2020
1104 Haze 16 1021 59 3900 5.7 70 18:20 19.03.2020
1105 Haze 17 1021 55 2400 4.1 90 17:43 19.03.2020
1106 Clouds 17 1022 59 10000 1.5 270 17:20 19.03.2020
1107 Clouds 18 1022 59 10000 1.5 270 16:58 19.03.2020
1108 Clouds 18 1022 52 10000 3.6 240 16:39 19.03.2020
1109 Clouds 18 1022 52 10000 3.6 240 16:21 19.03.2020
1110 Clouds 18 1022 55 10000 3.6 230 15:42 19.03.2020
1111 Clouds 18 1022 55 10000 3.6 230 15:23 19.03.2020
1112 Clouds 19 1023 45 10000 3.6 120 14:43 19.03.2020
1113 Clear 18 1023 42 10000 2.1 0 14:23 19.03.2020
1114 Clouds 18 1022 55 10000 3.6 50 13:57 19.03.2020
1115 Clouds 18 1022 55 10000 3.6 50 13:57 19.03.2020
1116 Clear 18 1023 42 10000 2.6 60 13:37 19.03.2020
1117 Clouds 18 1022 45 10000 2.6 80 13:18 19.03.2020
1118 Clear 18 1023 48 10000 3.1 80 12:41 19.03.2020
1119 Clear 18 1024 48 10000 2.1 100 12:23 19.03.2020
1120 Clear 17 1024 55 10000 3.1 90 11:58 19.03.2020
1121 Clear 17 1024 55 10000 3.1 90 11:40 19.03.2020
1122 Clear 16 1024 67 10000 4.6 70 11:22 19.03.2020
1123 Clear 16 1024 72 10000 5.1 70 10:42 19.03.2020
1124 Clear 16 1024 72 10000 5.1 70 10:21 19.03.2020
1125 Clear 15 1024 72 10000 4.6 60 09:58 19.03.2020
1126 Clear 14 1024 82 10000 4.1 60 09:39 19.03.2020
1127 Clear 14 1024 87 10000 2.1 40 09:19 19.03.2020
1128 Clear 14 1024 87 10000 2.1 40 08:46 19.03.2020
1129 Clouds 12 1024 87 10000 1.5 40 08:22 19.03.2020
1130 Clouds 11 1024 87 10000 2.1 30 07:47 19.03.2020
1131 Clouds 12 1024 87 10000 2.1 30 07:29 19.03.2020
1132 Clouds 11 1023 93 10000 4.6 60 06:51 19.03.2020
1133 Clouds 11 1024 87 10000 2.1 360 05:52 19.03.2020
1134 Clouds 10 1024 87 10000 1 0 05:19 19.03.2020
1135 Clouds 11 1024 81 10000 0.5 310 04:41 19.03.2020
1136 Clouds 11 1024 81 10000 2.1 10 03:36 19.03.2020
1137 Clouds 12 1025 87 8000 1.5 340 01:27 19.03.2020
1138 Clouds 12 1025 81 10000 2.1 10 00:38 19.03.2020
1139 Clouds 13 1026 82 10000 1.5 360 23:58 18.03.2020
1140 Clouds 13 1026 87 10000 1.5 10 23:39 18.03.2020
1141 Clouds 13 1026 87 10000 1.5 20 23:18 18.03.2020
1142 Clouds 13 1026 82 10000 2.6 50 22:42 18.03.2020
1143 Clouds 13 1026 82 10000 2.6 50 22:22 18.03.2020
1144 Clouds 14 1026 82 10000 2.1 50 21:54 18.03.2020
1145 Clouds 14 1026 82 10000 1.5 70 21:36 18.03.2020
1146 Clouds 14 1026 82 10000 3.1 70 21:18 18.03.2020
1147 Clouds 14 1026 82 10000 3.1 50 20:41 18.03.2020
1148 Clouds 15 1026 82 10000 3.1 50 20:21 18.03.2020
1149 Clouds 15 1025 77 10000 4.1 60 19:59 18.03.2020
1150 Clouds 15 1025 77 10000 4.6 60 19:40 18.03.2020
1151 Clouds 15 1025 77 10000 5.7 70 19:21 18.03.2020
1152 Clouds 16 1025 77 10000 5.7 70 18:56 18.03.2020
1153 Clouds 16 1025 77 10000 5.7 70 18:37 18.03.2020
1154 Clouds 17 1025 72 10000 5.7 60 18:18 18.03.2020
1155 Clouds 17 1025 72 10000 6.2 60 17:41 18.03.2020
1156 Clouds 18 1025 67 10000 6.2 70 17:22 18.03.2020
1157 Clouds 18 1025 67 10000 6.2 70 16:59 18.03.2020
1158 Clouds 18 1025 67 10000 6.2 70 16:59 18.03.2020
1159 Clouds 18 1025 63 10000 6.2 60 16:40 18.03.2020
1160 Clouds 18 1025 63 10000 6.2 60 16:20 18.03.2020
1161 Clouds 18 1025 63 10000 5.1 50 15:56 18.03.2020
1162 Clouds 18 1025 63 10000 6.2 80 15:37 18.03.2020
1163 Clouds 18 1025 63 10000 5.1 80 15:19 18.03.2020
1164 Clouds 18 1026 68 10000 6.7 60 14:42 18.03.2020
1165 Clouds 18 1026 68 10000 6.7 60 14:21 18.03.2020
1166 Clouds 18 1026 68 10000 5.7 60 13:41 18.03.2020
1167 Clouds 18 1026 68 10000 5.7 60 13:19 18.03.2020
1168 Clouds 18 1027 63 10000 6.7 60 12:54 18.03.2020
1169 Clouds 18 1027 63 10000 6.7 60 12:36 18.03.2020
1170 Clouds 17 1027 67 10000 6.7 60 12:18 18.03.2020
1171 Clouds 17 1027 67 10000 6.7 60 12:18 18.03.2020
1172 Clouds 17 1027 63 10000 7.2 60 11:38 18.03.2020
1173 Clouds 17 1027 72 10000 6.7 50 11:19 18.03.2020
1174 Clouds 17 1027 72 10000 6.7 50 10:56 18.03.2020
1175 Clouds 16 1027 72 10000 6.7 50 10:37 18.03.2020
1176 Clouds 16 1027 72 10000 6.7 50 10:18 18.03.2020
1177 Clouds 16 1027 72 10000 6.7 50 10:18 18.03.2020
1178 Clouds 16 1027 72 10000 6.7 50 10:18 18.03.2020
1179 Rain 15 1027 77 10000 5.7 60 09:42 18.03.2020
1180 Rain 15 1027 77 10000 5.1 50 09:23 18.03.2020
1181 Clouds 15 1027 77 10000 5.1 50 08:55 18.03.2020
1182 Clouds 14 1027 82 10000 4.6 50 08:37 18.03.2020
1183 Clouds 13 1027 82 10000 4.6 50 08:19 18.03.2020
1184 Clouds 13 1027 76 10000 4.1 40 07:41 18.03.2020
1185 Clouds 13 1026 93 10000 2.1 80 07:23 18.03.2020
1186 Clouds 13 1027 76 10000 4.1 40 06:43 18.03.2020
1187 Clouds 13 1027 76 10000 4.6 50 05:56 18.03.2020
1188 Clouds 14 1026 87 10000 3.6 60 05:33 18.03.2020
1189 Clouds 14 1027 76 10000 4.6 40 03:56 18.03.2020
1190 Clouds 14 1026 87 10000 2.6 70 02:40 18.03.2020
1191 Clouds 15 1027 67 10000 5.1 40 01:46 18.03.2020
1192 Clouds 15 1027 72 10000 6.7 50 01:21 18.03.2020
1193 Clouds 15 1027 72 10000 5.1 50 00:23 18.03.2020
1194 Clouds 15 1027 72 10000 6.2 50 23:47 17.03.2020
1195 Clouds 15 1028 72 10000 6.2 50 23:26 17.03.2020
1196 Clouds 15 1027 72 10000 6.2 60 22:48 17.03.2020
1197 Clouds 15 1027 77 10000 6.2 50 22:29 17.03.2020
1198 Clouds 15 1027 77 10000 6.2 50 21:59 17.03.2020
1199 Clouds 15 1027 77 10000 6.7 50 21:39 17.03.2020
1200 Clouds 15 1027 77 10000 6.7 50 21:21 17.03.2020
1201 Clouds 15 1026 82 10000 6.7 60 20:40 17.03.2020
1202 Clouds 15 1026 82 10000 6.7 60 20:21 17.03.2020
1203 Clouds 15 1026 77 10000 7.7 50 19:58 17.03.2020
1204 Clouds 15 1026 82 10000 6.2 60 19:39 17.03.2020
1205 Clouds 15 1026 82 10000 6.2 70 19:18 17.03.2020
1206 Clouds 16 1025 77 10000 5.7 80 18:55 17.03.2020
1207 Clouds 16 1025 77 10000 7.7 70 18:37 17.03.2020
1208 Clouds 16 1025 77 10000 7.7 70 18:19 17.03.2020
1209 Clouds 17 1025 63 10000 8.2 80 17:40 17.03.2020
1210 Clouds 17 1025 63 10000 8.7 70 17:21 17.03.2020
1211 Clouds 17 1025 63 10000 8.7 70 16:54 17.03.2020
1212 Clouds 18 1025 63 10000 7.2 80 16:36 17.03.2020
1213 Clouds 18 1025 59 10000 7.2 90 16:18 17.03.2020
1214 Clouds 18 1025 63 10000 8.2 100 15:41 17.03.2020
1215 Clouds 18 1025 68 10000 7.7 70 15:19 17.03.2020
1216 Rain 18 1025 72 10000 8.7 80 14:42 17.03.2020
1217 Rain 18 1025 72 10000 8.7 80 14:21 17.03.2020
1218 Rain 18 1025 77 10000 8.7 70 13:44 17.03.2020
1219 Rain 17 1025 77 10000 8.7 70 13:26 17.03.2020
1220 Clouds 17 1025 77 10000 6.7 80 12:58 17.03.2020
1221 Clouds 17 1025 82 10000 6.7 80 12:40 17.03.2020
1222 Clouds 17 1026 82 10000 7.2 80 12:21 17.03.2020
1223 Clouds 17 1026 82 10000 7.2 80 11:46 17.03.2020
1224 Clouds 16 1024 82 10000 6.7 80 11:27 17.03.2020
1225 Clouds 16 1025 82 10000 6.7 70 10:58 17.03.2020
1226 Clouds 16 1025 82 10000 6.7 70 10:38 17.03.2020
1227 Clouds 16 1025 82 10000 6.7 70 10:20 17.03.2020
1228 Clouds 16 1025 82 10000 4.6 60 09:55 17.03.2020
1229 Clouds 16 1025 82 10000 4.6 60 09:55 17.03.2020
1230 Clouds 16 1024 87 10000 6.2 70 09:36 17.03.2020
1231 Clouds 16 1024 93 9000 5.7 70 09:18 17.03.2020
1232 Clouds 15 1024 93 10000 4.6 70 08:42 17.03.2020
1233 Rain 15 1024 93 10000 4.6 70 08:21 17.03.2020
1234 Rain 15 1023 87 10000 5.7 80 07:50 17.03.2020
1235 Clouds 16 1021 87 10000 6.7 60 07:25 17.03.2020
1236 Rain 15 1022 87 10000 3.6 50 06:56 17.03.2020
1237 Rain 15 1021 87 10000 2.6 40 06:33 17.03.2020
1238 Rain 16 1020 82 10000 5.1 20 05:41 17.03.2020
1239 Rain 16 1021 82 10000 3.6 50 03:36 17.03.2020
1240 Rain 16 1022 82 10000 4.1 60 02:45 17.03.2020
1241 Rain 16 1021 82 10000 3.1 60 01:41 17.03.2020
1242 Rain 16 1021 82 10000 3.1 60 01:19 17.03.2020
1243 Rain 16 1021 87 10000 4.1 70 00:19 17.03.2020
1244 Rain 16 1020 82 7000 3.6 70 23:45 16.03.2020
1245 Rain 16 1019 93 10000 4.1 80 23:23 16.03.2020
1246 Rain 16 1020 82 10000 4.6 80 22:40 16.03.2020
1247 Rain 16 1020 82 10000 4.6 80 22:22 16.03.2020
1248 Rain 16 1019 82 10000 3.6 70 21:55 16.03.2020
1249 Rain 16 1019 82 10000 4.6 80 21:36 16.03.2020
1250 Rain 16 1019 82 10000 4.6 80 21:18 16.03.2020
1251 Rain 16 1018 82 10000 3.6 90 20:43 16.03.2020
1252 Rain 16 1018 82 10000 3.6 90 20:24 16.03.2020
1253 Clouds 17 1017 77 10000 3.6 90 19:56 16.03.2020
1254 Clouds 17 1017 77 10000 3.1 120 19:37 16.03.2020
1255 Clouds 17 1017 77 10000 3.1 120 19:18 16.03.2020
1256 Clouds 17 1016 77 10000 3.6 130 18:41 16.03.2020
1257 Clouds 18 1016 72 10000 4.1 130 18:20 16.03.2020
1258 Clouds 18 1016 72 10000 4.1 130 17:46 16.03.2020
1259 Clouds 18 1014 77 10000 4.6 130 17:26 16.03.2020
1260 Clouds 18 1015 72 10000 5.7 130 16:59 16.03.2020
1261 Clouds 18 1015 68 10000 5.7 140 16:41 16.03.2020
1262 Clouds 18 1015 68 10000 5.7 140 16:22 16.03.2020
1263 Clouds 19 1015 68 10000 4.6 130 15:44 16.03.2020
1264 Clouds 19 1015 68 10000 4.6 130 15:25 16.03.2020
1265 Clouds 18 1015 72 10000 4.6 110 14:49 16.03.2020
1266 Clouds 19 1015 72 10000 5.1 90 14:27 16.03.2020
1267 Clouds 18 1015 72 10000 5.7 90 13:57 16.03.2020
1268 Clouds 19 1015 72 10000 6.2 90 13:38 16.03.2020
1269 Clouds 18 1015 72 10000 6.2 90 13:20 16.03.2020
1270 Clouds 17 1015 82 10000 5.7 90 12:44 16.03.2020
1271 Clouds 17 1014 82 10000 4.1 110 12:23 16.03.2020
1272 Clouds 16 1015 87 10000 5.7 70 11:46 16.03.2020
1273 Rain 16 1015 93 10000 4.6 70 11:27 16.03.2020
1274 Rain 15 1015 93 10000 4.6 70 10:55 16.03.2020
1275 Drizzle 15 1015 87 10000 5.1 70 10:37 16.03.2020
1276 Drizzle 15 1015 87 10000 5.1 70 10:18 16.03.2020
1277 Rain 15 1014 82 10000 4.1 50 09:40 16.03.2020
1278 Rain 15 1014 82 10000 4.6 80 09:20 16.03.2020
1279 Rain 15 1014 82 10000 4.6 80 08:49 16.03.2020
1280 Clouds 14 1014 87 10000 3.1 70 08:25 16.03.2020
1281 Clouds 14 1014 82 10000 4.1 60 07:45 16.03.2020
1282 Clouds 14 1014 82 10000 4.1 60 07:21 16.03.2020
1283 Clouds 14 1014 76 10000 4.1 60 06:51 16.03.2020
1284 Clouds 14 1014 76 10000 4.1 60 06:23 16.03.2020
1285 Clouds 13 1014 82 10000 3.6 40 04:54 16.03.2020
1286 Clouds 13 1015 76 10000 4.6 50 02:41 16.03.2020
1287 Clouds 12 1017 82 10000 5.1 60 00:52 16.03.2020
1288 Clouds 12 1017 87 10000 4.1 60 00:32 16.03.2020
1289 Clouds 12 1018 87 10000 2.1 80 23:46 15.03.2020
1290 Clouds 12 1018 87 10000 2.1 60 23:20 15.03.2020
1291 Clouds 13 1018 82 10000 2.6 50 22:42 15.03.2020
1292 Clouds 13 1018 82 10000 2.6 50 22:22 15.03.2020
1293 Clouds 13 1018 87 10000 2.6 60 21:56 15.03.2020
1294 Clouds 13 1017 76 10000 2.6 60 21:37 15.03.2020
1295 Clouds 13 1017 76 10000 2.6 60 21:18 15.03.2020
1296 Clouds 14 1017 71 10000 3.6 60 20:42 15.03.2020
1297 Clouds 14 1017 71 10000 3.6 60 20:20 15.03.2020
1298 Clouds 15 1017 67 10000 3.6 70 19:58 15.03.2020
1299 Clouds 16 1017 67 10000 3.1 90 19:38 15.03.2020
1300 Clouds 16 1017 67 10000 3.1 90 19:19 15.03.2020
1301 Clouds 17 1016 63 10000 3.6 100 18:55 15.03.2020
1302 Clouds 17 1016 67 10000 2.1 220 18:37 15.03.2020
1303 Clouds 18 1015 59 10000 3.6 140 18:18 15.03.2020
1304 Clouds 18 1017 63 10000 3.6 230 17:41 15.03.2020
1305 Clouds 19 1016 56 10000 2.6 160 17:21 15.03.2020
1306 Clouds 18 1017 63 10000 3.1 230 16:58 15.03.2020
1307 Clouds 18 1018 67 10000 4.6 230 16:38 15.03.2020
1308 Clouds 18 1018 67 10000 4.6 230 16:19 15.03.2020
1309 Clouds 19 1018 67 10000 5.7 220 15:45 15.03.2020
1310 Clouds 19 1018 67 10000 5.7 220 15:27 15.03.2020
1311 Clouds 19 1019 68 10000 5.7 230 14:57 15.03.2020
1312 Clouds 18 1019 63 10000 5.7 230 14:38 15.03.2020
1313 Clear 18 1019 63 10000 5.7 230 14:18 15.03.2020
1314 Clear 18 1019 63 10000 5.7 230 14:18 15.03.2020
1315 Clear 18 1019 68 10000 5.1 220 13:54 15.03.2020
1316 Clear 18 1020 67 10000 5.7 230 13:36 15.03.2020
1317 Clear 18 1020 67 10000 6.2 220 13:18 15.03.2020
1318 Clear 18 1020 67 10000 6.2 220 13:18 15.03.2020
1319 Clear 18 1020 63 10000 3.6 200 12:39 15.03.2020
1320 Clear 18 1021 59 10000 2.6 180 12:21 15.03.2020
1321 Clear 18 1021 59 10000 1 0 11:43 15.03.2020
1322 Clouds 17 1020 68 10000 1 20 11:24 15.03.2020
1323 Clear 17 1021 67 10000 1 0 10:57 15.03.2020
1324 Clear 16 1021 72 10000 0.5 50 10:39 15.03.2020
1325 Clear 16 1021 72 10000 0.5 50 10:39 15.03.2020
1326 Clear 16 1021 72 10000 0.5 50 10:21 15.03.2020
1327 Clear 13 1021 82 10000 1.5 360 09:44 15.03.2020
1328 Clear 13 1021 82 10000 1.5 360 09:25 15.03.2020
1329 Clear 12 1021 87 10000 1.5 340 08:59 15.03.2020
1330 Clear 11 1021 93 10000 1.5 350 08:40 15.03.2020
1331 Clear 10 1021 93 10000 1.5 350 08:19 15.03.2020
1332 Clear 9 1021 87 10000 1.5 10 07:44 15.03.2020
1333 Clear 9 1020 87 10000 1 360 07:18 15.03.2020
1334 Clear 9 1020 93 10000 1.5 350 06:36 15.03.2020
1335 Clear 9 1020 93 10000 1.5 360 05:46 15.03.2020
1336 Clear 10 1020 93 10000 2.1 350 04:55 15.03.2020
1337 Clear 10 1021 87 10000 1.5 360 04:33 15.03.2020
1338 Clear 10 1021 87 10000 1 350 03:59 15.03.2020
1339 Clear 11 1021 81 10000 0.5 40 02:49 15.03.2020
1340 Clear 11 1022 81 10000 1 10 02:21 15.03.2020
1341 Clear 12 1022 87 10000 1 10 00:57 15.03.2020
1342 Clear 11 1022 87 10000 1.5 360 00:39 15.03.2020
1343 Clear 11 1022 81 10000 1 350 00:18 15.03.2020
1344 Clear 11 1022 81 10000 0.5 0 23:38 14.03.2020
1345 Clear 12 1022 81 10000 0.5 10 23:19 14.03.2020
1346 Clear 12 1022 81 10000 0.5 10 22:55 14.03.2020
1347 Clear 12 1022 81 10000 1 10 22:37 14.03.2020
1348 Clear 12 1022 81 10000 1 10 22:19 14.03.2020
1349 Clear 13 1022 81 10000 1 100 21:55 14.03.2020
1350 Clear 13 1022 81 10000 1 100 21:55 14.03.2020
1351 Clear 13 1022 76 10000 1.5 150 21:36 14.03.2020
1352 Clear 13 1022 76 10000 1.5 150 21:18 14.03.2020
1353 Clear 14 1022 76 10000 1.5 180 20:56 14.03.2020
1354 Clear 15 1021 76 10000 1 180 20:38 14.03.2020
1355 Clear 15 1021 76 10000 2.1 210 20:18 14.03.2020
1356 Clear 15 1021 76 10000 2.1 200 19:41 14.03.2020
1357 Clear 15 1021 76 10000 2.1 200 19:20 14.03.2020
1358 Clear 16 1021 72 10000 2.6 200 18:40 14.03.2020
1359 Clear 17 1021 63 10000 2.6 190 18:20 14.03.2020
1360 Clear 17 1021 63 10000 3.1 180 17:43 14.03.2020
1361 Clear 16 1021 63 10000 4.1 200 17:24 14.03.2020
1362 Clear 16 1021 63 10000 4.1 200 16:59 14.03.2020
1363 Clear 17 1021 63 10000 4.1 200 16:38 14.03.2020
1364 Clear 17 1021 63 10000 4.1 200 16:19 14.03.2020
1365 Clear 18 1021 63 10000 4.6 210 15:48 14.03.2020
1366 Clear 19 1021 55 10000 5.7 220 15:25 14.03.2020
1367 Clear 19 1021 55 10000 5.1 220 14:44 14.03.2020
1368 Clouds 19 1021 55 10000 5.1 220 14:22 14.03.2020
1369 Clouds 19 1021 52 10000 4.6 220 13:57 14.03.2020
1370 Clouds 19 1021 52 10000 1 70 13:39 14.03.2020
1371 Clouds 19 1022 55 10000 1.5 210 13:20 14.03.2020
1372 Clouds 18 1022 55 10000 1.5 210 12:45 14.03.2020
1373 Clouds 18 1022 55 10000 1 100 12:26 14.03.2020
1374 Clouds 17 1022 59 10000 2.6 70 11:56 14.03.2020
1375 Clouds 17 1022 59 10000 4.6 70 11:38 14.03.2020
1376 Clouds 17 1022 59 10000 4.6 70 11:19 14.03.2020
1377 Clouds 16 1022 67 10000 6.2 70 10:42 14.03.2020
1378 Clouds 16 1022 77 10000 4.6 60 10:23 14.03.2020
1379 Clouds 15 1022 76 10000 1.5 40 09:46 14.03.2020
1380 Clouds 14 1022 76 10000 1.5 40 09:24 14.03.2020
1381 Clouds 14 1022 76 10000 1.5 40 09:24 14.03.2020
1382 Clouds 13 1021 87 10000 1 30 08:51 14.03.2020
1383 Clouds 12 1021 87 10000 1.5 350 08:29 14.03.2020
1384 Clouds 11 1020 93 10000 2.1 20 07:56 14.03.2020
1385 Clouds 11 1020 87 10000 1.5 10 07:38 14.03.2020
1386 Clouds 11 1020 87 10000 1 0 07:19 14.03.2020
1387 Clouds 12 1020 87 10000 0.5 0 06:40 14.03.2020
1388 Clouds 12 1020 87 10000 0.5 0 06:40 14.03.2020
1389 Clouds 12 1019 81 10000 1 210 05:43 14.03.2020
1390 Rain 13 1020 81 10000 1.5 40 03:49 14.03.2020
1391 Drizzle 12 1020 76 10000 2.6 0 03:24 14.03.2020
1392 Rain 13 1021 71 10000 1.5 310 02:23 14.03.2020
1393 Clouds 13 1020 54 10000 2.6 360 00:49 14.03.2020
1394 Clouds 13 1020 66 10000 1.5 10 23:51 13.03.2020
1395 Clouds 13 1020 66 10000 1.5 10 23:30 13.03.2020
1396 Clouds 13 1020 71 10000 3.6 40 22:52 13.03.2020
1397 Clouds 13 1020 71 10000 3.6 40 22:52 13.03.2020
1398 Clouds 13 1020 67 10000 3.6 50 22:26 13.03.2020
1399 Clouds 13 1020 76 10000 2.6 30 21:44 13.03.2020
1400 Clouds 13 1020 76 10000 2.6 30 21:22 13.03.2020
1401 Clouds 14 1019 71 10000 3.1 30 20:59 13.03.2020
1402 Clouds 14 1019 67 10000 1 250 20:41 13.03.2020
1403 Clouds 14 1019 67 10000 1 250 20:21 13.03.2020
1404 Clouds 15 1019 62 10000 2.6 60 19:49 13.03.2020
1405 Clouds 16 1018 55 10000 6.2 60 19:30 13.03.2020
1406 Clouds 16 1017 63 10000 6.7 70 18:55 13.03.2020
1407 Clouds 17 1018 45 10000 8.2 60 18:36 13.03.2020
1408 Clouds 17 1018 45 10000 8.2 60 18:18 13.03.2020
1409 Clouds 18 1018 48 10000 6.2 70 17:41 13.03.2020
1410 Clouds 18 1018 42 10000 8.2 70 17:21 13.03.2020
1411 Clouds 18 1018 42 10000 8.2 70 16:55 13.03.2020
1412 Clouds 19 1018 52 10000 8.2 70 16:36 13.03.2020
1413 Clouds 19 1019 52 10000 8.2 60 16:18 13.03.2020
1414 Clouds 19 1019 52 10000 8.2 60 15:41 13.03.2020
1415 Clouds 19 1019 49 10000 6.7 60 15:21 13.03.2020
1416 Clouds 19 1019 49 10000 6.7 60 14:44 13.03.2020
1417 Clouds 19 1019 49 10000 6.7 60 14:23 13.03.2020
1418 Clouds 20 1019 45 10000 9.3 60 13:59 13.03.2020
1419 Clouds 19 1020 55 10000 8.7 60 13:40 13.03.2020
1420 Clouds 19 1020 59 10000 9.8 60 13:21 13.03.2020
1421 Clouds 19 1020 59 10000 9.8 60 12:56 13.03.2020
1422 Clouds 19 1020 59 10000 9.8 60 12:38 13.03.2020
1423 Clouds 19 1020 59 10000 9.8 60 12:19 13.03.2020
1424 Clouds 18 1020 59 10000 11.3 60 11:46 13.03.2020
1425 Clouds 18 1020 59 10000 8.2 60 11:26 13.03.2020
1426 Clouds 18 1020 59 10000 8.2 60 10:59 13.03.2020
1427 Clouds 17 1020 63 10000 8.7 60 10:41 13.03.2020
1428 Clouds 17 1020 63 10000 8.7 60 10:23 13.03.2020
1429 Clouds 17 1019 72 10000 8.2 60 09:45 13.03.2020
1430 Clouds 16 1019 72 10000 8.2 60 09:26 13.03.2020
1431 Clouds 16 1019 77 10000 9.3 60 08:56 13.03.2020
1432 Clouds 15 1019 77 10000 8.7 60 08:37 13.03.2020
1433 Clouds 14 1019 82 10000 8.2 60 08:18 13.03.2020
1434 Clouds 13 1019 76 10000 8.7 60 07:43 13.03.2020
1435 Clouds 14 1018 77 10000 6.7 60 07:22 13.03.2020
1436 Clouds 14 1018 72 10000 8.7 60 06:46 13.03.2020
1437 Clouds 13 1018 71 10000 8.7 60 06:20 13.03.2020
1438 Clouds 13 1018 67 10000 8.2 50 05:43 13.03.2020
1439 Clouds 12 1018 66 10000 3.1 340 04:39 13.03.2020
1440 Clouds 12 1018 62 10000 3.6 340 03:50 13.03.2020
1441 Clouds 12 1019 66 10000 2.1 10 01:49 13.03.2020
1442 Clouds 13 1019 62 10000 2.1 350 01:20 13.03.2020
1443 Clouds 12 1019 62 10000 2.1 350 00:59 13.03.2020
1444 Clouds 12 1019 62 10000 2.1 350 00:39 13.03.2020
1445 Clouds 12 1019 62 10000 1.5 360 00:18 13.03.2020
1446 Clouds 13 1019 62 10000 2.6 350 23:38 12.03.2020
1447 Clouds 13 1020 58 10000 2.6 340 23:19 12.03.2020
1448 Clouds 13 1019 54 10000 2.6 350 22:44 12.03.2020
1449 Clouds 13 1019 54 10000 2.6 350 22:25 12.03.2020
1450 Clouds 14 1020 54 10000 2.1 340 21:55 12.03.2020
1451 Clouds 14 1020 51 10000 1 360 21:37 12.03.2020
1452 Clouds 15 1020 51 10000 1 360 21:18 12.03.2020
1453 Clouds 15 1020 48 10000 1 170 20:42 12.03.2020
1454 Clouds 16 1020 48 10000 1 170 20:20 12.03.2020
1455 Clouds 17 1019 36 10000 1 0 19:42 12.03.2020
1456 Clouds 18 1019 34 10000 1.5 210 19:22 12.03.2020
1457 Clouds 18 1019 34 10000 1.5 210 18:59 12.03.2020
1458 Clouds 20 1019 34 10000 1.5 210 18:41 12.03.2020
1459 Clouds 20 1019 30 10000 3.1 200 18:22 12.03.2020
1460 Clouds 20 1018 40 10000 2.1 250 17:56 12.03.2020
1461 Clouds 21 1019 30 10000 2.6 230 17:37 12.03.2020
1462 Clouds 21 1019 32 10000 4.1 220 17:18 12.03.2020
1463 Clouds 21 1020 32 10000 3.6 220 16:41 12.03.2020
1464 Clouds 21 1020 30 10000 4.6 220 16:22 12.03.2020
1465 Clouds 21 1020 26 10000 4.1 220 15:49 12.03.2020
1466 Clouds 21 1020 26 10000 4.1 220 15:28 12.03.2020
1467 Clouds 21 1020 26 10000 4.1 220 15:28 12.03.2020
1468 Clouds 22 1021 62 10000 3.1 220 14:56 12.03.2020
1469 Clouds 21 1021 28 10000 4.1 210 14:56 12.03.2020
1470 Clouds 21 1021 28 10000 4.1 210 14:37 12.03.2020
1471 Clouds 21 1021 28 10000 4.1 210 14:18 12.03.2020
1472 Clouds 20 1022 35 10000 3.6 210 13:40 12.03.2020
1473 Clouds 21 1022 35 10000 3.6 210 13:21 12.03.2020
1474 Clouds 21 1023 32 10000 2.6 230 12:55 12.03.2020
1475 Clouds 21 1023 32 10000 2.6 230 12:55 12.03.2020
1476 Clouds 21 1023 40 10000 2.1 200 12:37 12.03.2020
1477 Clouds 21 1023 32 10000 2.6 220 12:18 12.03.2020
1478 Clouds 21 1022 49 10000 2.6 260 11:55 12.03.2020
1479 Clouds 20 1023 39 10000 3.1 220 11:36 12.03.2020
1480 Clouds 18 1023 52 10000 2.1 190 11:18 12.03.2020
1481 Clouds 18 1023 67 10000 1 170 10:43 12.03.2020
1482 Clouds 18 1023 67 10000 1 170 10:43 12.03.2020
1483 Clouds 18 1023 67 10000 1 170 10:24 12.03.2020
1484 Clouds 16 1023 87 10000 1 0 09:59 12.03.2020
1485 Clouds 15 1023 82 10000 0.5 100 09:40 12.03.2020
1486 Clouds 15 1023 82 10000 0.5 100 09:22 12.03.2020
1487 Clouds 12 1023 93 10000 0.5 340 08:39 12.03.2020
1488 Clouds 11 1023 93 10000 0.5 340 08:19 12.03.2020
1489 Clouds 10 1023 93 10000 1.5 340 07:48 12.03.2020
1490 Fog 10 1022 100 10000 0.5 70 07:22 12.03.2020
1491 Clouds 10 1022 100 10000 1 330 06:33 12.03.2020
1492 Fog 11 1021 100 100 0.5 0 05:36 12.03.2020
1493 Mist 11 1023 100 2200 1 10 03:45 12.03.2020
1494 Fog 12 1024 93 200 1 360 02:21 12.03.2020
1495 Fog 13 1024 93 150 1.5 330 01:29 12.03.2020
1496 Mist 14 1024 93 2100 1 0 00:42 12.03.2020
1497 Mist 14 1024 93 3100 0.5 0 23:59 11.03.2020
1498 Mist 14 1024 93 3100 0.5 0 23:37 11.03.2020
1499 Mist 14 1024 93 5000 1 0 23:18 11.03.2020
1500 Clouds 14 1024 87 7000 0.5 0 22:42 11.03.2020
1501 Clouds 14 1024 87 7000 0.5 0 22:23 11.03.2020
1502 Clouds 14 1024 93 8000 1.5 110 21:58 11.03.2020
1503 Clouds 14 1024 87 9000 0.5 0 21:40 11.03.2020
1504 Clouds 14 1023 93 10000 0.5 0 21:22 11.03.2020
1505 Clouds 15 1024 93 10000 1.5 170 20:57 11.03.2020
1506 Clouds 15 1024 87 10000 1.5 170 20:38 11.03.2020
1507 Clear 16 1024 93 10000 1.5 170 20:19 11.03.2020
1508 Clear 16 1024 87 10000 1.5 180 19:43 11.03.2020
1509 Clear 16 1024 87 10000 1.5 180 19:25 11.03.2020
1510 Clear 18 1023 77 10000 2.6 190 18:57 11.03.2020
1511 Clear 18 1023 77 10000 2.6 190 18:38 11.03.2020
1512 Clear 18 1023 77 10000 3.1 190 18:20 11.03.2020
1513 Clear 18 1023 77 10000 3.1 190 17:56 11.03.2020
1514 Clear 19 1023 77 10000 3.1 190 17:37 11.03.2020
1515 Clear 19 1023 72 10000 5.7 200 17:19 11.03.2020
1516 Clear 18 1023 68 10000 4.6 210 16:45 11.03.2020
1517 Clear 18 1023 72 10000 4.1 200 16:21 11.03.2020
1518 Clear 18 1023 72 10000 4.1 210 15:44 11.03.2020
1519 Clear 18 1023 72 10000 4.1 210 15:24 11.03.2020
1520 Clear 18 1024 72 10000 4.6 210 14:57 11.03.2020
1521 Clear 18 1024 72 10000 4.6 210 14:39 11.03.2020
1522 Clear 18 1024 72 10000 4.6 210 14:21 11.03.2020
1523 Clear 19 1025 72 10000 3.6 210 13:44 11.03.2020
1524 Clear 19 1025 72 10000 4.1 210 13:26 11.03.2020
1525 Clear 19 1025 72 10000 4.1 210 12:58 11.03.2020
1526 Clear 19 1025 72 10000 2.6 220 12:39 11.03.2020
1527 Clouds 19 1024 77 10000 3.6 240 12:19 11.03.2020
1528 Clear 19 1025 72 10000 2.1 190 11:42 11.03.2020
1529 Clear 18 1025 72 10000 2.1 190 11:23 11.03.2020
1530 Clear 17 1025 72 10000 2.1 170 10:57 11.03.2020
1531 Clear 17 1025 72 10000 1.5 140 10:39 11.03.2020
1532 Clear 16 1025 77 10000 0.5 0 10:18 11.03.2020
1533 Clear 15 1025 87 10000 1 0 09:42 11.03.2020
1534 Clear 15 1025 87 10000 1 0 09:24 11.03.2020
1535 Clear 12 1024 87 10000 1 20 08:45 11.03.2020
1536 Clouds 10 1024 87 10000 1 20 08:27 11.03.2020
1537 Clouds 9 1024 87 10000 0.5 350 07:56 11.03.2020
1538 Clouds 9 1024 87 10000 2.1 350 07:37 11.03.2020
1539 Clouds 9 1024 87 10000 2.1 350 07:18 11.03.2020
1540 Clouds 9 1024 81 10000 1.5 340 06:37 11.03.2020
1541 Clouds 10 1024 81 10000 1 360 05:34 11.03.2020
1542 Clouds 11 1024 87 10000 1.5 340 03:59 11.03.2020
1543 Clouds 11 1025 87 10000 1 0 01:59 11.03.2020
1544 Clouds 12 1025 87 10000 1.5 50 01:26 11.03.2020
1545 Clouds 12 1025 87 10000 1 0 00:45 11.03.2020
1546 Clouds 13 1025 93 10000 2.6 220 23:56 10.03.2020
1547 Clouds 13 1025 93 10000 2.6 220 23:55 10.03.2020
1548 Clouds 13 1025 93 10000 2.6 220 23:55 10.03.2020
1549 Clouds 13 1025 93 10000 2.6 220 23:55 10.03.2020
1550 Clouds 13 1026 87 10000 0.5 0 23:37 10.03.2020
1551 Clouds 14 1026 82 10000 4.99 239 23:18 10.03.2020
1552 Clouds 14 1026 82 10000 1.5 240 22:38 10.03.2020
1553 Clouds 14 1026 82 10000 1.5 240 22:19 10.03.2020
1554 Clouds 14 1026 82 10000 1.5 240 22:19 10.03.2020
1555 Clouds 14 1025 82 10000 3.6 230 21:56 10.03.2020
1556 Clouds 13 1025 82 10000 2.6 210 21:38 10.03.2020
1557 Clouds 14 1025 82 10000 2.6 210 21:19 10.03.2020
1558 Clouds 13 1025 76 10000 3.6 230 20:57 10.03.2020
1559 Clouds 14 1025 76 10000 3.6 230 20:38 10.03.2020
1560 Clouds 14 1025 76 10000 3.6 230 20:18 10.03.2020
1561 Clouds 14 1025 76 10000 4.1 240 20:18 10.03.2020
1562 Clouds 14 1025 76 10000 4.1 240 19:56 10.03.2020
1563 Clouds 14 1025 76 10000 5.7 240 19:36 10.03.2020
1564 Clouds 15 1025 67 10000 6.7 240 19:18 10.03.2020
1565 Clouds 15 1025 67 10000 6.2 230 18:43 10.03.2020
1566 Clouds 15 1024 72 10000 6.7 230 18:25 10.03.2020
1567 Clouds 16 1024 72 10000 6.2 240 17:57 10.03.2020
1568 Clouds 16 1025 67 10000 7.7 220 17:38 10.03.2020
1569 Clouds 16 1025 67 10000 7.2 220 17:20 10.03.2020
1570 Clouds 16 1025 63 10000 8.2 220 16:38 10.03.2020
1571 Clouds 16 1025 63 10000 8.2 220 16:18 10.03.2020
1572 Clouds 16 1025 63 10000 8.7 220 15:55 10.03.2020
1573 Clouds 16 1025 63 10000 8.7 220 15:55 10.03.2020
1574 Clouds 16 1025 63 10000 8.7 220 15:37 10.03.2020
1575 Clouds 16 1025 63 10000 8.7 220 15:18 10.03.2020
1576 Clouds 17 1026 59 10000 8.2 210 14:41 10.03.2020
1577 Clouds 17 1026 59 10000 8.2 210 14:20 10.03.2020
1578 Clouds 17 1026 59 10000 9.3 210 13:57 10.03.2020
1579 Clouds 16 1026 59 10000 7.7 210 13:38 10.03.2020
1580 Clouds 16 1026 55 10000 7.7 220 13:19 10.03.2020
1581 Clouds 16 1027 55 10000 6.2 220 12:41 10.03.2020
1582 Clouds 16 1027 58 10000 4.6 210 12:19 10.03.2020
1583 Clouds 16 1027 58 10000 4.6 210 11:57 10.03.2020
1584 Clouds 16 1027 58 10000 2.6 220 11:39 10.03.2020
1585 Clouds 15 1027 58 10000 0.5 240 11:20 10.03.2020
1586 Clouds 14 1027 67 10000 0.5 40 10:41 10.03.2020
1587 Clouds 14 1027 67 10000 0.5 40 10:23 10.03.2020
1588 Clouds 13 1027 71 10000 1 0 09:57 10.03.2020
1589 Clouds 12 1026 76 10000 1 0 09:39 10.03.2020
1590 Clouds 11 1026 81 10000 1.5 360 09:19 10.03.2020
1591 Clouds 10 1025 81 10000 1.5 10 08:46 10.03.2020
1592 Clouds 10 1025 81 10000 1.5 10 08:28 10.03.2020
1593 Clouds 8 1025 87 10000 2.1 360 07:50 10.03.2020
1594 Clouds 9 1025 87 10000 1.5 20 07:31 10.03.2020
1595 Clouds 9 1025 87 10000 1.5 20 06:45 10.03.2020
1596 Clouds 9 1024 93 10000 3.1 350 06:27 10.03.2020
1597 Clouds 9 1024 87 10000 2.1 10 05:41 10.03.2020
1598 Clouds 9 1023 87 10000 2.1 10 04:48 10.03.2020
1599 Clouds 9 1023 87 10000 2.1 10 04:48 10.03.2020
1600 Clouds 10 1024 87 10000 2.1 360 03:55 10.03.2020
1601 Clouds 11 1024 81 10000 0.5 0 02:27 10.03.2020
1602 Clouds 11 1024 81 10000 2.1 70 01:25 10.03.2020
1603 Clouds 11 1024 76 10000 3.1 80 00:42 10.03.2020
1604 Clouds 12 1024 76 10000 3.1 80 00:23 10.03.2020
1605 Clouds 11 1023 81 10000 5.1 40 23:41 09.03.2020
1606 Clouds 11 1023 76 10000 4.1 90 23:21 09.03.2020
1607 Clouds 12 1023 58 10000 3.1 360 22:43 09.03.2020
1608 Clouds 12 1023 58 10000 3.1 360 22:22 09.03.2020
1609 Clouds 12 1022 58 10000 4.1 320 21:59 09.03.2020
1610 Clouds 12 1022 51 10000 5.1 330 21:40 09.03.2020
1611 Clouds 12 1022 54 10000 2.6 330 21:21 09.03.2020
1612 Clouds 12 1022 54 10000 2.6 330 20:58 09.03.2020
1613 Clouds 13 1021 51 10000 4.1 320 20:39 09.03.2020
1614 Clouds 13 1021 51 10000 4.1 320 20:20 09.03.2020
1615 Clouds 14 1021 51 10000 3.6 340 19:45 09.03.2020
1616 Clouds 14 1021 51 10000 3.6 340 19:25 09.03.2020
1617 Clouds 15 1020 51 10000 3.6 330 18:58 09.03.2020
1618 Clouds 16 1020 48 10000 5.1 320 18:39 09.03.2020
1619 Clouds 16 1020 45 10000 2.1 340 18:20 09.03.2020
1620 Clouds 16 1021 44 10000 4.6 320 17:58 09.03.2020
1621 Clouds 16 1021 44 10000 4.6 320 17:38 09.03.2020
1622 Clouds 16 1020 41 10000 6.2 330 17:20 09.03.2020
1623 Clouds 16 1019 45 10000 6.2 330 16:58 09.03.2020
1624 Clouds 16 1019 45 10000 6.2 330 16:40 09.03.2020
1625 Clouds 16 1019 45 10000 6.2 330 16:22 09.03.2020
1626 Clouds 15 1021 47 10000 6.2 330 15:58 09.03.2020
1627 Clouds 16 1019 51 10000 6.7 320 15:39 09.03.2020
1628 Clouds 16 1021 48 10000 5.7 330 15:21 09.03.2020
1629 Clouds 16 1021 48 10000 4.1 290 14:57 09.03.2020
1630 Clouds 16 1021 48 10000 4.1 320 14:37 09.03.2020
1631 Clouds 16 1021 48 10000 4.1 320 14:19 09.03.2020
1632 Rain 16 1022 51 10000 5.1 320 13:57 09.03.2020
1633 Rain 16 1022 44 10000 5.1 340 13:38 09.03.2020
1634 Rain 16 1022 44 10000 5.1 340 13:18 09.03.2020
1635 Clouds 16 1021 42 10000 8.2 330 12:43 09.03.2020
1636 Clouds 16 1022 48 10000 6.2 320 12:22 09.03.2020
1637 Clouds 16 1021 44 10000 7.7 320 11:58 09.03.2020
1638 Clouds 16 1021 48 10000 5.7 320 11:38 09.03.2020
1639 Clouds 16 1021 48 10000 5.7 320 11:19 09.03.2020
1640 Clouds 16 1021 51 10000 6.2 300 10:55 09.03.2020
1641 Clouds 16 1021 51 10000 5.1 320 10:36 09.03.2020
1642 Clouds 16 1021 51 10000 5.1 320 10:18 09.03.2020
1643 Clouds 16 1019 59 10000 7.7 330 09:41 09.03.2020
1644 Clouds 16 1021 55 10000 4.1 320 09:23 09.03.2020
1645 Clouds 15 1019 55 10000 5.1 340 08:45 09.03.2020
1646 Clouds 15 1021 54 10000 2.6 330 08:27 09.03.2020
1647 Clouds 15 1020 55 10000 5.1 320 07:43 09.03.2020
1648 Clouds 14 1020 58 10000 8.2 330 07:22 09.03.2020
1649 Clouds 12 1020 62 10000 5.1 320 06:59 09.03.2020
1650 Rain 10 1019 100 9000 0.5 170 06:39 09.03.2020
1651 Clouds 10 1020 81 10000 1 70 06:20 09.03.2020
1652 Fog 9 1019 100 9000 1 0 05:41 09.03.2020
1653 Clouds 10 1020 75 10000 2.1 330 04:56 09.03.2020
1654 Clouds 9 1020 75 10000 2.6 360 04:37 09.03.2020
1655 Clouds 9 1020 75 10000 2.6 360 04:18 09.03.2020
1656 Clouds 10 1021 70 10000 2.1 10 02:50 09.03.2020
1657 Clouds 12 1022 71 10000 2.1 10 00:42 09.03.2020
1658 Clouds 12 1022 71 10000 2.1 10 00:24 09.03.2020
1659 Clouds 12 1022 71 10000 1.5 330 23:58 08.03.2020
1660 Clouds 12 1022 71 10000 1 350 23:29 08.03.2020
1661 Clouds 12 1023 71 10000 1.5 340 22:59 08.03.2020
1662 Clouds 12 1022 87 10000 1 80 22:40 08.03.2020
1663 Clouds 11 1023 66 10000 1 0 22:22 08.03.2020
1664 Clouds 11 1023 66 10000 1.5 340 21:59 08.03.2020
1665 Clouds 12 1022 87 10000 3.28 227 21:40 08.03.2020
1666 Clouds 13 1023 71 10000 1.5 200 21:20 08.03.2020
1667 Clouds 13 1023 76 10000 1.5 110 20:57 08.03.2020
1668 Clouds 13 1023 71 10000 2.1 230 20:37 08.03.2020
1669 Clear 13 1022 87 10000 3.6 250 20:19 08.03.2020
1670 Clear 14 1023 71 10000 3.1 210 19:40 08.03.2020
1671 Clear 15 1023 58 10000 2.6 220 19:19 08.03.2020
1672 Clear 15 1022 51 10000 2.1 220 18:55 08.03.2020
1673 Clouds 16 1021 72 10000 5.1 240 18:37 08.03.2020
1674 Clouds 17 1021 59 10000 5.7 240 18:18 08.03.2020
1675 Clouds 18 1021 48 10000 4.1 220 17:39 08.03.2020
1676 Clear 19 1022 37 10000 2.1 0 17:21 08.03.2020
1677 Clear 18 1022 37 10000 2.1 0 16:58 08.03.2020
1678 Clear 19 1022 37 10000 5.7 210 16:40 08.03.2020
1679 Clear 19 1022 37 10000 5.7 210 16:21 08.03.2020
1680 Clear 19 1022 39 10000 6.7 220 15:41 08.03.2020
1681 Clear 19 1022 34 10000 4.6 210 15:22 08.03.2020
1682 Clear 20 1022 32 10000 2.6 0 14:57 08.03.2020
1683 Clear 20 1022 32 10000 2.6 0 14:37 08.03.2020
1684 Clear 20 1023 34 10000 4.6 320 14:19 08.03.2020
1685 Clear 19 1023 34 10000 3.6 300 13:42 08.03.2020
1686 Clouds 19 1024 36 10000 5.7 300 13:21 08.03.2020
1687 Clouds 19 1024 36 10000 5.1 310 12:56 08.03.2020
1688 Clouds 18 1023 45 10000 5.1 230 12:36 08.03.2020
1689 Clouds 18 1024 55 10000 5.7 240 12:18 08.03.2020
1690 Clouds 17 1024 63 10000 4.6 210 11:41 08.03.2020
1691 Clouds 16 1024 63 10000 3.1 230 11:22 08.03.2020
1692 Clear 16 1024 55 10000 2.6 330 10:57 08.03.2020
1693 Clear 16 1025 62 10000 2.1 220 10:39 08.03.2020
1694 Clear 16 1025 62 10000 2.1 220 10:21 08.03.2020
1695 Clear 14 1025 62 10000 2.1 200 09:39 08.03.2020
1696 Clear 13 1024 71 10000 1 0 09:21 08.03.2020
1697 Clear 11 1024 87 10000 0.5 240 08:46 08.03.2020
1698 Clouds 9 1024 87 10000 0.5 240 08:21 08.03.2020
1699 Clouds 9 1024 81 10000 1 320 07:49 08.03.2020
1700 Clouds 8 1024 87 10000 1 0 07:28 08.03.2020
1701 Clouds 9 1023 87 10000 1 0 06:45 08.03.2020
1702 Clouds 9 1023 81 10000 1 0 06:27 08.03.2020
1703 Clouds 10 1022 93 10000 1.9 115 05:43 08.03.2020
1704 Clear 11 1024 71 10000 1 360 03:52 08.03.2020
1705 Clear 11 1025 76 10000 1 0 02:59 08.03.2020
1706 Clouds 11 1025 81 10000 1 0 01:38 08.03.2020
1707 Clouds 10 1025 81 10000 1 0 01:19 08.03.2020
1708 Clouds 10 1025 76 10000 1.5 90 00:41 08.03.2020
1709 Clouds 10 1025 53 10000 2.1 30 23:59 07.03.2020
1710 Clouds 10 1025 70 10000 1.5 330 23:41 07.03.2020
1711 Clouds 10 1024 66 10000 0.5 0 23:19 07.03.2020
1712 Clouds 9 1025 61 10000 2.1 10 22:38 07.03.2020
1713 Clouds 10 1023 75 10000 1 350 22:19 07.03.2020
1714 Clouds 10 1023 70 10000 3.99 177 21:45 07.03.2020
1715 Clouds 10 1024 53 10000 1 0 21:24 07.03.2020
1716 Clouds 11 1023 43 10000 0.5 0 20:41 07.03.2020
1717 Clear 11 1023 43 10000 0.5 0 20:22 07.03.2020
1718 Clear 12 1023 40 10000 1.5 330 19:55 07.03.2020
1719 Clear 12 1022 34 10000 1.5 0 19:37 07.03.2020
1720 Clear 13 1021 35 10000 2.6 310 19:18 07.03.2020
1721 Clear 15 1022 55 10000 2.6 320 18:40 07.03.2020
1722 Clear 15 1022 55 10000 2.6 320 18:21 07.03.2020
1723 Clouds 15 1020 31 10000 3.1 300 17:43 07.03.2020
1724 Clear 15 1021 30 10000 4.1 330 17:22 07.03.2020
1725 Clear 16 1021 24 10000 5.7 330 16:59 07.03.2020
1726 Clouds 16 1020 26 10000 4.6 330 16:41 07.03.2020
1727 Clear 16 1021 26 10000 5.7 330 16:22 07.03.2020
1728 Clear 15 1021 41 10000 5.7 330 15:57 07.03.2020
1729 Clouds 15 1020 38 10000 7.7 320 15:39 07.03.2020
1730 Clear 16 1021 39 10000 6.7 330 15:20 07.03.2020
1731 Clear 16 1021 39 10000 6.2 330 14:56 07.03.2020
1732 Rain 16 1021 38 10000 6.7 320 14:37 07.03.2020
1733 Clear 16 1021 38 10000 6.7 320 14:19 07.03.2020
1734 Clouds 16 1020 48 10000 6.2 330 13:40 07.03.2020
1735 Clouds 16 1020 44 10000 5.1 300 13:20 07.03.2020
1736 Rain 15 1020 51 10000 4.1 300 12:43 07.03.2020
1737 Rain 15 1021 50 10000 5.1 290 12:21 07.03.2020
1738 Rain 15 1021 47 10000 3.6 310 11:58 07.03.2020
1739 Rain 15 1020 51 10000 4.1 310 11:39 07.03.2020
1740 Clear 14 1021 47 10000 3.1 350 11:21 07.03.2020
1741 Clouds 13 1020 54 10000 5.7 320 10:42 07.03.2020
1742 Clear 13 1021 54 10000 3.6 310 10:21 07.03.2020
1743 Clear 12 1021 58 10000 5.7 320 09:58 07.03.2020
1744 Rain 13 1020 58 10000 3.6 330 09:39 07.03.2020
1745 Clouds 12 1019 58 10000 1 0 09:19 07.03.2020
1746 Rain 12 1020 62 10000 7.2 330 08:44 07.03.2020
1747 Clear 11 1019 62 10000 7.2 330 08:21 07.03.2020
1748 Clear 10 1019 66 10000 4.6 330 07:56 07.03.2020
1749 Clouds 10 1018 71 10000 1.5 170 07:37 07.03.2020
1750 Clouds 10 1017 71 10000 7.3 342 07:19 07.03.2020
1751 Clouds 10 1016 62 10000 5.7 340 06:37 07.03.2020
1752 Clouds 10 1016 62 10000 5.7 340 05:57 07.03.2020
1753 Clear 10 1017 66 10000 5.7 320 05:33 07.03.2020
1754 Rain 11 1015 62 10000 9.8 330 02:58 07.03.2020
1755 Rain 11 1015 62 10000 9.8 330 02:35 07.03.2020
1756 Rain 11 1015 57 10000 8.7 340 01:47 07.03.2020
1757 Rain 11 1015 62 10000 10.3 330 00:42 07.03.2020
1758 Rain 11 1016 57 10000 8.7 330 00:23 07.03.2020
1759 Rain 11 1016 53 10000 8.2 320 23:56 06.03.2020
1760 Rain 12 1016 50 10000 8.2 330 23:38 06.03.2020
1761 Rain 12 1016 50 10000 8.2 330 23:20 06.03.2020
1762 Rain 12 1015 46 10000 10.3 310 22:42 06.03.2020
1763 Rain 12 1015 46 10000 10.3 310 22:19 06.03.2020
1764 Rain 12 1015 50 10000 9.3 320 21:45 06.03.2020
1765 Thunderstorm 13 1015 50 10000 10.3 330 21:19 06.03.2020
1766 Rain 13 1013 50 10000 12.3 330 20:42 06.03.2020
1767 Rain 13 1014 43 10000 11.8 320 20:21 06.03.2020
1768 Rain 13 1014 43 10000 11.8 320 20:21 06.03.2020
1769 Rain 13 1013 41 10000 10.8 310 19:55 06.03.2020
1770 Rain 13 1013 43 10000 10.3 310 19:36 06.03.2020
1771 Rain 13 1012 44 10000 13.9 320 19:18 06.03.2020
1772 Rain 13 1012 43 10000 9.8 320 18:42 06.03.2020
1773 Rain 14 1012 41 10000 9.3 310 18:20 06.03.2020
1774 Rain 14 1011 41 10000 9.3 320 17:56 06.03.2020
1775 Rain 14 1011 41 10000 9.3 320 17:38 06.03.2020
1776 Rain 15 1010 47 10000 10.8 310 17:19 06.03.2020
1777 Rain 14 1011 44 10000 9.3 310 16:42 06.03.2020
1778 Rain 14 1010 47 10000 10.3 310 16:21 06.03.2020
1779 Rain 15 1011 47 10000 8.7 300 15:59 06.03.2020
1780 Clouds 14 1010 51 10000 9.3 300 15:40 06.03.2020
1781 Clouds 14 1011 47 10000 7.2 300 15:21 06.03.2020
1782 Rain 15 1011 44 10000 8.2 320 14:40 06.03.2020
1783 Rain 15 1011 44 10000 8.2 320 14:21 06.03.2020
1784 Rain 15 1011 47 10000 8.2 320 13:44 06.03.2020
1785 Rain 15 1011 47 10000 8.2 320 13:23 06.03.2020
1786 Rain 15 1011 47 10000 8.2 320 13:23 06.03.2020
1787 Rain 15 1011 44 10000 8.2 310 12:59 06.03.2020
1788 Clouds 16 1010 44 10000 7.7 290 12:40 06.03.2020
1789 Clouds 16 1010 45 10000 7.7 290 12:20 06.03.2020
1790 Rain 17 1011 48 10000 6.2 310 11:59 06.03.2020
1791 Clouds 16 1010 52 10000 7.2 300 11:40 06.03.2020
1792 Rain 16 1012 51 10000 6.2 310 11:20 06.03.2020
1793 Clouds 16 1011 51 10000 7.2 310 10:42 06.03.2020
1794 Rain 16 1012 44 10000 6.7 300 10:21 06.03.2020
1795 Rain 16 1012 47 10000 6.2 300 09:59 06.03.2020
1796 Clouds 15 1011 48 10000 7.7 300 09:40 06.03.2020
1797 Clouds 15 1011 54 10000 5.1 290 09:22 06.03.2020
1798 Clouds 14 1011 54 10000 3.1 310 08:47 06.03.2020
1799 Rain 14 1011 54 10000 3.6 300 08:28 06.03.2020
1800 Clear 13 1011 54 10000 4.1 290 07:59 06.03.2020
1801 Clear 13 1011 54 10000 6.7 320 07:40 06.03.2020
1802 Clouds 14 1010 54 10000 6.2 320 07:20 06.03.2020
1803 Clouds 14 1010 50 10000 5.7 330 06:41 06.03.2020
1804 Rain 14 1011 44 10000 8.7 320 05:59 06.03.2020
1805 Rain 14 1010 50 10000 6.7 330 05:36 06.03.2020
1806 Rain 14 1010 50 10000 6.7 330 04:59 06.03.2020
1807 Rain 14 1010 50 10000 5.7 320 04:25 06.03.2020
1808 Rain 16 1010 44 10000 9.8 320 01:43 06.03.2020
1809 Rain 16 1010 44 10000 9.8 320 01:25 06.03.2020
1810 Rain 16 1010 48 10000 8.7 320 00:49 06.03.2020
1811 Clouds 16 1010 51 10000 6.7 330 00:30 06.03.2020
1812 Clouds 16 1009 55 10000 4.6 340 23:43 05.03.2020
1813 Clouds 16 1010 51 10000 5.1 320 23:24 05.03.2020
1814 Clouds 17 1010 48 10000 4.6 320 22:55 05.03.2020
1815 Clouds 17 1009 51 10000 5.1 310 22:36 05.03.2020
1816 Clouds 17 1010 48 10000 5.1 320 22:18 05.03.2020
1817 Clouds 18 1009 39 10000 5.1 310 21:54 05.03.2020
1818 Clouds 17 1008 39 10000 4.6 310 21:36 05.03.2020
1819 Clouds 17 1008 39 10000 4.6 310 21:18 05.03.2020
1820 Clouds 18 1008 52 10000 3.6 310 20:42 05.03.2020
1821 Clouds 18 1008 52 10000 3.6 310 20:42 05.03.2020
1822 Clouds 18 1008 52 10000 3.6 310 20:21 05.03.2020
1823 Clouds 18 1008 52 10000 5.7 300 19:59 05.03.2020
1824 Clouds 18 1007 68 10000 6.2 250 19:39 05.03.2020
1825 Clouds 18 1007 55 10000 6.2 260 19:21 05.03.2020
1826 Clouds 18 1007 55 10000 6.7 260 18:58 05.03.2020
1827 Clouds 18 1007 52 10000 7.2 250 18:37 05.03.2020
1828 Clouds 18 1006 72 10000 4.6 220 18:19 05.03.2020
1829 Clouds 19 1007 52 10000 4.6 250 17:57 05.03.2020
1830 Clouds 19 1007 55 10000 7.2 240 17:39 05.03.2020
1831 Clear 19 1007 55 10000 7.2 240 17:21 05.03.2020
1832 Rain 20 1006 68 10000 6.2 240 16:42 05.03.2020
1833 Rain 20 1007 46 10000 4.6 260 16:24 05.03.2020
1834 Clear 20 1007 49 10000 6.2 240 15:58 05.03.2020
1835 Clear 20 1007 52 10000 10.8 250 15:38 05.03.2020
1836 Clouds 20 1006 56 10000 11.3 250 15:20 05.03.2020
1837 Clouds 19 1006 59 10000 10.8 250 14:43 05.03.2020
1838 Clouds 19 1008 52 10000 9.3 250 14:23 05.03.2020
1839 Clouds 19 1008 52 10000 8.7 250 13:59 05.03.2020
1840 Clouds 19 1007 68 10000 8.2 230 13:40 05.03.2020
1841 Clouds 19 1008 72 10000 6.7 230 13:21 05.03.2020
1842 Clouds 19 1009 55 10000 8.2 230 12:56 05.03.2020
1843 Clouds 19 1010 55 10000 8.2 240 12:38 05.03.2020
1844 Clouds 19 1010 55 10000 8.2 240 12:18 05.03.2020
1845 Clouds 19 1010 52 10000 7.2 250 11:56 05.03.2020
1846 Clouds 19 1010 52 10000 7.2 250 11:37 05.03.2020
1847 Clouds 18 1010 52 10000 7.2 250 11:18 05.03.2020
1848 Clouds 18 1011 59 10000 5.7 250 10:55 05.03.2020
1849 Clouds 17 1010 72 10000 7.2 240 10:37 05.03.2020
1850 Clouds 17 1011 67 10000 6.2 240 10:19 05.03.2020
1851 Clouds 15 1010 93 10000 4.6 240 09:41 05.03.2020
1852 Fog 14 1010 100 10000 6.09 244 09:23 05.03.2020
1853 Mist 14 1011 100 5000 0.5 0 08:43 05.03.2020
1854 Clouds 13 1011 100 7000 1 0 08:25 05.03.2020
1855 Fog 12 1012 93 200 1 0 07:46 05.03.2020
1856 Fog 12 1012 93 200 1 0 07:22 05.03.2020
1857 Fog 12 1011 100 100 4.49 221 06:48 05.03.2020
1858 Fog 12 1012 100 200 1.5 360 06:22 05.03.2020
1859 Fog 12 1012 100 500 4.49 221 06:22 05.03.2020
1860 Fog 12 1013 100 250 1 320 05:39 05.03.2020
1861 Fog 13 1013 93 200 1.5 50 04:55 05.03.2020
1862 Fog 12 1014 93 550 1 0 04:22 05.03.2020
1863 Fog 13 1015 93 200 1 20 03:34 05.03.2020
1864 Clouds 13 1016 93 10000 1 0 01:55 05.03.2020
1865 Clouds 12 1016 93 10000 1.5 360 01:20 05.03.2020
1866 Clouds 12 1017 93 10000 1 100 00:26 05.03.2020
1867 Clouds 12 1016 100 10000 1 160 23:43 04.03.2020
1868 Clouds 13 1017 93 10000 0.5 0 23:23 04.03.2020
1869 Clouds 13 1018 87 10000 2.1 10 22:58 04.03.2020
1870 Clouds 13 1018 93 10000 2.6 330 22:39 04.03.2020
1871 Clouds 13 1018 93 10000 2.6 330 22:19 04.03.2020
1872 Clouds 13 1018 93 10000 1.5 290 21:58 04.03.2020
1873 Clouds 13 1016 93 10000 2.61 234 21:40 04.03.2020
1874 Clouds 14 1018 93 10000 0.5 0 21:20 04.03.2020
1875 Clouds 14 1017 87 10000 1.5 90 20:56 04.03.2020
1876 Clouds 14 1018 87 10000 1.5 80 20:36 04.03.2020
1877 Clouds 15 1018 87 10000 1.5 80 20:18 04.03.2020
1878 Clouds 15 1017 82 10000 1.5 160 19:42 04.03.2020
1879 Clouds 16 1016 87 10000 1 0 19:23 04.03.2020
1880 Clouds 16 1017 77 10000 2.1 170 18:56 04.03.2020
1881 Clouds 16 1017 77 10000 2.6 170 18:36 04.03.2020
1882 Clouds 16 1017 77 10000 2.6 170 18:18 04.03.2020
1883 Clouds 17 1017 77 10000 3.1 160 17:55 04.03.2020
1884 Clouds 17 1017 72 10000 4.1 200 17:37 04.03.2020
1885 Clouds 17 1017 72 10000 4.1 200 17:18 04.03.2020
1886 Clouds 17 1017 72 10000 5.7 200 16:42 04.03.2020
1887 Clouds 17 1017 72 10000 5.7 200 16:24 04.03.2020
1888 Clouds 17 1017 67 10000 6.2 210 15:57 04.03.2020
1889 -273 0 0 0 0 0 15:39 04.03.2020
1890 Clouds 17 1018 59 10000 6.7 210 15:21 04.03.2020
1891 Clouds 17 1018 59 10000 5.7 210 14:54 04.03.2020
1892 Clouds 17 1018 55 10000 4.6 210 14:36 04.03.2020
1893 Clouds 17 1018 55 10000 4.6 210 14:18 04.03.2020
1894 Clouds 17 1019 72 10000 5.1 210 13:55 04.03.2020
1895 Clouds 16 1019 77 10000 5.7 210 13:36 04.03.2020
1896 Clouds 16 1019 77 10000 5.7 210 13:18 04.03.2020
1897 Clouds 17 1019 77 10000 5.7 210 12:42 04.03.2020
1898 Clouds 17 1020 77 10000 6.2 190 12:23 04.03.2020
1899 Clouds 17 1020 67 10000 5.7 190 11:55 04.03.2020
1900 Clouds 17 1019 67 10000 5.1 220 11:37 04.03.2020
1901 Clouds 16 1020 72 10000 4.1 190 11:19 04.03.2020
1902 Clouds 14 1020 71 10000 1 0 10:45 04.03.2020
1903 Clouds 14 1020 71 10000 1 0 10:25 04.03.2020
1904 Clouds 13 1020 76 10000 0.5 0 09:58 04.03.2020
1905 Clouds 12 1019 81 10000 1 0 09:39 04.03.2020
1906 Clouds 12 1018 93 10000 0.5 230 09:19 04.03.2020
1907 Clouds 9 1019 93 10000 1 0 08:42 04.03.2020
1908 Clouds 9 1019 93 10000 1 0 08:24 04.03.2020
1909 Clouds 9 1018 93 10000 4.93 352 07:48 04.03.2020
1910 Clouds 9 1018 87 10000 1.5 360 07:29 04.03.2020
1911 Clouds 9 1018 87 10000 3.1 10 06:54 04.03.2020
1912 Clouds 10 1018 81 10000 1.5 360 06:26 04.03.2020
1913 Clouds 11 1017 81 10000 1 0 05:59 04.03.2020
1914 Clouds 11 1017 81 10000 1 0 05:28 04.03.2020
1915 Clouds 13 1016 66 10000 2.1 20 03:57 04.03.2020
1916 Rain 13 1016 62 10000 1.5 300 03:35 04.03.2020
1917 Rain 14 1015 58 10000 2.1 350 02:58 04.03.2020
1918 Rain 14 1015 54 10000 6.2 330 02:30 04.03.2020
1919 Rain 15 1014 51 10000 8.7 340 01:56 04.03.2020
1920 Rain 15 1013 51 10000 7.7 350 01:37 04.03.2020
1921 Rain 16 1012 51 10000 8.7 350 00:42 04.03.2020
1922 Rain 16 1012 51 10000 7.7 330 00:24 04.03.2020
1923 Clouds 17 1011 48 10000 10.8 330 23:44 03.03.2020
1924 Clouds 17 1011 45 10000 12.3 320 23:24 03.03.2020
1925 Rain 17 1010 45 10000 13.4 320 22:56 03.03.2020
1926 Clouds 18 1010 45 10000 12.9 320 22:37 03.03.2020
1927 Rain 18 1010 45 10000 11.8 310 22:19 03.03.2020
1928 Clouds 18 1009 42 10000 12.3 320 21:56 03.03.2020
1929 Clouds 19 1008 45 10000 10.3 310 21:36 03.03.2020
1930 Clouds 19 1008 45 10000 10.3 310 21:18 03.03.2020
1931 Clouds 18 1007 55 10000 7.2 280 20:40 03.03.2020
1932 Clouds 18 1007 48 10000 7.2 290 20:19 03.03.2020
1933 Clouds 17 1007 55 10000 8.2 270 19:58 03.03.2020
1934 Clouds 17 1006 59 10000 11.8 270 19:37 03.03.2020
1935 Clouds 17 1007 55 10000 9.3 270 19:19 03.03.2020
1936 Clouds 16 1007 59 10000 10.3 270 18:58 03.03.2020
1937 Rain 16 1008 55 10000 9.3 270 18:40 03.03.2020
1938 Rain 16 1008 55 10000 9.3 270 18:20 03.03.2020
1939 Rain 17 1008 51 10000 9.3 270 17:55 03.03.2020
1940 Rain 17 1008 51 10000 8.2 270 17:37 03.03.2020
1941 Rain 16 1008 51 10000 8.2 270 17:19 03.03.2020
1942 Rain 16 1008 55 10000 9.3 250 16:56 03.03.2020
1943 Rain 16 1009 51 10000 11.3 240 16:37 03.03.2020
1944 Rain 16 1008 59 10000 11.8 250 16:18 03.03.2020
1945 Rain 16 1008 59 10000 11.8 250 16:18 03.03.2020
1946 Rain 16 1010 51 10000 9.3 250 15:43 03.03.2020
1947 Clouds 15 1009 54 10000 12.3 260 15:21 03.03.2020
1948 Clouds 15 1011 51 10000 9.3 260 14:56 03.03.2020
1949 Rain 15 1012 50 10000 9.3 260 14:37 03.03.2020
1950 Rain 15 1012 50 10000 9.3 260 14:19 03.03.2020
1951 Clouds 15 1012 51 10000 8.7 260 13:55 03.03.2020
1952 Clouds 15 1012 58 10000 11.3 260 13:37 03.03.2020
1953 Clouds 15 1013 54 10000 6.7 260 13:18 03.03.2020
1954 Clouds 15 1013 59 10000 10.3 250 12:43 03.03.2020
1955 Clouds 15 1014 54 10000 7.2 250 12:24 03.03.2020
1956 Clouds 15 1015 58 10000 6.7 240 11:55 03.03.2020
1957 Clouds 14 1015 47 10000 4.6 260 11:37 03.03.2020
1958 Clouds 14 1015 47 10000 4.6 260 11:18 03.03.2020
1959 Clouds 14 1016 47 10000 4.1 250 10:55 03.03.2020
1960 Clouds 14 1016 47 10000 3.6 270 10:36 03.03.2020
1961 Clouds 14 1016 47 10000 3.6 270 10:18 03.03.2020
1962 Clouds 14 1016 47 10000 3.6 270 10:18 03.03.2020
1963 Clouds 14 1016 50 10000 2.6 220 09:42 03.03.2020
1964 Clouds 14 1016 50 10000 2.6 220 09:21 03.03.2020
1965 Clouds 13 1015 58 10000 2.1 230 08:42 03.03.2020
1966 Clouds 12 1015 46 10000 3.6 290 08:24 03.03.2020
1967 Clouds 12 1015 46 10000 3.1 310 07:56 03.03.2020
1968 Clouds 12 1015 50 10000 3.1 200 07:38 03.03.2020
1969 Clouds 12 1014 46 10000 5.1 310 07:19 03.03.2020
1970 Clouds 12 1014 46 10000 5.1 310 07:19 03.03.2020
1971 Clouds 12 1014 50 10000 9.8 310 06:40 03.03.2020
1972 Clouds 12 1015 46 10000 2.6 170 06:21 03.03.2020
1973 Clouds 12 1014 50 10000 3.1 270 05:43 03.03.2020
1974 Rain 12 1013 50 10000 10.3 320 04:56 03.03.2020
1975 Rain 12 1014 50 10000 9.8 320 03:26 03.03.2020
1976 Rain 12 1013 50 10000 10.8 320 01:35 03.03.2020
1977 Rain 12 1013 46 10000 13.4 310 00:46 03.03.2020
1978 Rain 13 1012 49 10000 12.9 320 00:24 03.03.2020
1979 Rain 13 1012 49 10000 13.9 310 23:51 02.03.2020
1980 Rain 13 1011 53 10000 13.9 310 23:23 02.03.2020
1981 Rain 13 1011 43 10000 13.9 310 22:58 02.03.2020
1982 Rain 13 1010 43 10000 11.3 310 22:39 02.03.2020
1983 Rain 13 1010 43 10000 11.3 310 22:20 02.03.2020
1984 Clouds 13 1010 47 10000 9.3 310 21:58 02.03.2020
1985 Clouds 14 1009 44 10000 8.7 310 21:39 02.03.2020
1986 Rain 14 1008 44 10000 11.3 310 21:20 02.03.2020
1987 Rain 14 1009 44 10000 10.3 310 20:57 02.03.2020
1988 Rain 14 1009 44 10000 10.3 310 20:57 02.03.2020
1989 Rain 14 1008 44 10000 10.3 310 20:38 02.03.2020
1990 Clouds 14 1008 44 10000 10.3 310 20:19 02.03.2020
1991 Clouds 14 1008 47 10000 7.7 320 19:54 02.03.2020
1992 Clouds 14 1008 50 10000 8.7 310 19:36 02.03.2020
1993 Clouds 14 1008 50 10000 8.7 310 19:18 02.03.2020
1994 Clouds 15 1006 41 10000 5.7 300 18:44 02.03.2020
1995 Clouds 15 1005 44 10000 5.7 290 18:19 02.03.2020
1996 Clouds 15 1007 41 10000 8.2 290 17:58 02.03.2020
1997 Clouds 15 1006 44 10000 8.2 290 17:39 02.03.2020
1998 Rain 16 1005 44 10000 8.2 300 17:21 02.03.2020
1999 Rain 16 1004 44 10000 7.2 310 16:55 02.03.2020
2000 Clouds 16 1004 42 10000 8.2 320 16:36 02.03.2020
2001 Rain 16 1004 41 10000 7.7 310 16:18 02.03.2020
2002 Clouds 16 1003 48 10000 7.2 310 15:42 02.03.2020
2003 Rain 15 1004 51 10000 8.7 300 15:20 02.03.2020
2004 Rain 16 1003 62 10000 8.2 300 14:42 02.03.2020
2005 Rain 15 1003 62 10000 8.2 300 14:20 02.03.2020
2006 Rain 16 1003 59 10000 8.7 300 13:59 02.03.2020
2007 Rain 16 1002 59 10000 6.2 280 13:39 02.03.2020
2008 Rain 16 1002 51 10000 8.2 280 13:19 02.03.2020
2009 Rain 17 1002 67 8000 10.3 240 12:44 02.03.2020
2010 Rain 18 1002 67 8000 10.3 240 12:21 02.03.2020
2011 Clouds 18 1001 77 10000 13.4 240 11:57 02.03.2020
2012 Rain 18 1002 72 10000 11.3 230 11:37 02.03.2020
2013 Rain 18 1002 72 10000 11.3 230 11:18 02.03.2020
2014 Rain 17 1002 72 10000 8.2 230 10:55 02.03.2020
2015 Rain 17 1002 82 10000 6.7 230 10:36 02.03.2020
2016 Clouds 16 1001 82 9000 8.7 220 10:18 02.03.2020
2017 Rain 16 1003 82 10000 5.7 230 09:44 02.03.2020
2018 Rain 16 1003 82 10000 5.7 230 09:25 02.03.2020
2019 Rain 16 1003 87 10000 5.1 200 08:47 02.03.2020
2020 Drizzle 16 1003 87 9000 6.2 220 08:22 02.03.2020
2021 Clouds 16 1001 87 8000 8.7 220 07:44 02.03.2020
2022 Rain 15 1003 87 10000 6.2 210 07:20 02.03.2020
2023 Rain 15 1004 93 8000 6.2 220 06:49 02.03.2020
2024 Rain 15 1005 93 7000 4.6 200 05:57 02.03.2020
2025 Drizzle 15 1006 87 10000 4.6 220 04:51 02.03.2020
2026 Clouds 15 1008 87 10000 4.6 220 03:23 02.03.2020
2027 Clouds 15 1009 82 10000 3.6 230 02:49 02.03.2020
2028 Clouds 15 1008 87 10000 3.1 230 01:54 02.03.2020
2029 Clouds 15 1009 87 10000 3.6 210 01:33 02.03.2020
2030 Clouds 15 1010 87 10000 2.6 210 00:24 02.03.2020
2031 Clouds 15 1010 87 10000 2.6 210 00:24 02.03.2020
2032 Clear 14 1012 93 10000 1 0 23:59 01.03.2020
2033 Clouds 15 1011 93 10000 1.5 160 23:41 01.03.2020
2034 Clear 15 1012 87 10000 1 0 23:21 01.03.2020
2035 Clouds 15 1012 82 10000 1 0 22:43 01.03.2020
2036 Clear 15 1013 82 10000 2.6 120 22:21 01.03.2020
2037 Clouds 16 1012 77 10000 0.5 130 21:57 01.03.2020
2038 Clouds 16 1012 77 10000 0.5 130 21:39 01.03.2020
2039 Clear 16 1013 72 10000 2.1 260 21:20 01.03.2020
2040 Clouds 16 1012 82 10000 2.1 230 20:44 01.03.2020
2041 Clouds 16 1013 72 10000 5.1 230 20:26 01.03.2020
2042 Clear 16 1013 72 10000 5.1 240 19:59 01.03.2020
2043 Clear 16 1012 67 10000 8.7 240 19:40 01.03.2020
2044 Clear 17 1012 72 10000 5.1 220 19:21 01.03.2020
2045 Clear 17 1012 52 10000 7.2 230 18:54 01.03.2020
2046 Clear 18 1012 52 10000 6.7 240 18:36 01.03.2020
2047 Clear 18 1012 52 10000 6.7 240 18:18 01.03.2020
2048 Clear 18 1012 52 10000 6.7 250 17:54 01.03.2020
2049 Clear 18 1012 52 10000 7.2 250 17:36 01.03.2020
2050 Clouds 18 1011 63 10000 8.2 260 17:18 01.03.2020
2051 Clear 19 1012 48 10000 5.1 260 16:40 01.03.2020
2052 Clouds 18 1011 59 10000 9.8 260 16:40 01.03.2020
2053 Clear 18 1012 48 10000 5.1 260 16:40 01.03.2020
2054 Clear 19 1012 48 10000 5.1 260 16:20 01.03.2020
2055 Clear 19 1012 45 10000 7.7 270 15:59 01.03.2020
2056 Clouds 19 1011 55 10000 10.3 260 15:40 01.03.2020
2057 Clear 19 1012 45 10000 7.2 260 15:22 01.03.2020
2058 Clear 19 1012 42 10000 7.2 270 14:58 01.03.2020
2059 Clouds 19 1011 52 10000 9.3 260 14:39 01.03.2020
2060 Clouds 19 1012 59 10000 9.3 260 14:21 01.03.2020
2061 Clouds 19 1012 59 10000 9.3 260 14:21 01.03.2020
2062 Clouds 20 1013 40 10000 7.7 270 13:59 01.03.2020
2063 Clouds 20 1012 55 10000 9.3 260 13:41 01.03.2020
2064 Clouds 19 1013 42 10000 7.2 270 13:20 01.03.2020
2065 Clouds 19 1013 45 10000 6.7 240 12:56 01.03.2020
2066 Clouds 19 1012 59 10000 10.8 260 12:38 01.03.2020
2067 Clouds 18 1013 48 10000 6.2 260 12:19 01.03.2020
2068 Clouds 19 1013 45 10000 5.7 280 11:40 01.03.2020
2069 Clouds 18 1013 45 10000 5.7 280 11:20 01.03.2020
2070 Clouds 18 1014 48 10000 7.2 270 10:56 01.03.2020
2071 Clouds 17 1014 59 10000 4.6 280 10:37 01.03.2020
2072 Clouds 17 1014 59 10000 4.6 280 10:37 01.03.2020
2073 Clouds 17 1014 59 10000 4.6 280 10:37 01.03.2020
2074 Clouds 17 1014 59 10000 4.6 280 10:37 01.03.2020
2075 Clouds 17 1013 63 10000 5.7 280 10:18 01.03.2020
2076 Rain 16 1013 67 10000 6.2 280 09:46 01.03.2020
2077 Clouds 16 1013 59 10000 5.1 280 09:26 01.03.2020
2078 Clouds 17 1013 63 10000 4.6 280 08:52 01.03.2020
2079 Clouds 17 1012 55 10000 5.7 300 08:29 01.03.2020
2080 Rain 16 1012 63 10000 6.2 280 07:59 01.03.2020
2081 Clouds 16 1011 67 10000 6.2 270 07:40 01.03.2020
2082 Rain 16 1012 63 10000 5.7 300 07:22 01.03.2020
2083 Rain 17 1012 67 10000 5.1 280 06:47 01.03.2020
2084 Rain 17 1012 72 10000 4.6 260 06:28 01.03.2020
2085 Clouds 18 1011 55 10000 3.6 260 03:54 01.03.2020
2086 Clouds 18 1012 48 10000 4.1 290 02:23 01.03.2020
2087 Clouds 18 1012 48 10000 4.1 280 01:48 01.03.2020
2088 Clouds 19 1012 45 10000 5.7 280 01:20 01.03.2020
2089 Clouds 19 1012 45 10000 5.7 260 00:42 01.03.2020
2090 Clouds 18 1012 45 10000 5.7 260 00:21 01.03.2020
2091 Clouds 18 1012 52 10000 5.7 250 23:46 29.02.2020
2092 Clear 17 1012 59 10000 5.7 230 23:28 29.02.2020
2093 Clear 15 1013 82 10000 1.5 170 22:42 29.02.2020
2094 Clear 14 1013 82 10000 1.5 170 22:23 29.02.2020
2095 Clouds 15 1012 93 10000 2.1 160 21:42 29.02.2020
2096 Clear 15 1013 87 10000 2.1 170 21:24 29.02.2020
2097 Clouds 15 1011 93 10000 2.1 140 20:43 29.02.2020
2098 Clouds 15 1012 82 10000 2.6 120 20:22 29.02.2020
2099 Clouds 15 1012 87 10000 2.6 130 19:57 29.02.2020
2100 Clouds 15 1011 87 10000 2.6 160 19:38 29.02.2020
2101 Clouds 16 1012 82 10000 2.6 150 19:19 29.02.2020
2102 Clouds 16 1011 82 10000 3.1 180 18:43 29.02.2020
2103 Clouds 17 1011 77 10000 4.1 190 18:25 29.02.2020
2104 Clouds 17 1011 77 10000 4.6 220 17:58 29.02.2020
2105 Clouds 17 1011 82 10000 3.6 210 17:40 29.02.2020
2106 Clear 18 1012 77 10000 5.1 210 17:21 29.02.2020
2107 Clear 18 1012 77 10000 6.7 210 16:54 29.02.2020
2108 Clear 18 1012 77 10000 5.7 210 16:36 29.02.2020
2109 Clear 19 1011 82 10000 6.7 220 16:18 29.02.2020
2110 Clear 18 1012 77 10000 5.7 210 16:18 29.02.2020
2111 Clear 19 1011 77 10000 6.2 210 15:41 29.02.2020
2112 Clear 19 1013 72 10000 4.6 190 15:23 29.02.2020
2113 Clouds 19 1012 77 10000 6.2 220 14:42 29.02.2020
2114 Clear 19 1013 63 10000 5.7 220 14:24 29.02.2020
2115 Clear 19 1013 63 10000 5.7 220 14:24 29.02.2020
2116 Clouds 19 1013 63 10000 5.7 230 13:58 29.02.2020
2117 Clouds 19 1013 77 10000 6.2 220 13:38 29.02.2020
2118 Clouds 19 1013 77 10000 5.7 230 13:20 29.02.2020
2119 Clouds 18 1013 88 10000 5.1 230 12:43 29.02.2020
2120 Clouds 17 1015 87 10000 5.7 200 12:22 29.02.2020
2121 Clouds 17 1015 82 10000 5.1 210 11:58 29.02.2020
2122 Clouds 17 1015 77 10000 4.6 210 11:39 29.02.2020
2123 Clouds 17 1014 87 8000 3.6 220 11:21 29.02.2020
2124 Clouds 16 1016 77 10000 2.6 220 10:47 29.02.2020
2125 Clouds 15 1016 77 10000 0.5 0 10:28 29.02.2020
2126 Fog 14 1015 93 6000 0.5 0 09:50 29.02.2020
2127 Clouds 14 1016 82 10000 0.5 0 09:27 29.02.2020
2128 Clouds 14 1016 82 10000 0.5 0 09:27 29.02.2020
2129 Fog 12 1015 93 500 4.04 196 08:58 29.02.2020
2130 Clouds 11 1016 93 10000 1.5 360 08:38 29.02.2020
2131 Clouds 11 1016 93 10000 1.5 360 08:19 29.02.2020
2132 Fog 11 1015 100 10000 2.29 157 07:45 29.02.2020
2133 Clouds 11 1016 87 10000 2.1 340 07:19 29.02.2020
2134 Clouds 11 1016 93 10000 1.5 330 06:50 29.02.2020
2135 Clouds 11 1016 87 10000 1.5 350 06:26 29.02.2020
2136 Clouds 12 1016 87 10000 0.5 0 05:48 29.02.2020
2137 Clouds 12 1016 87 10000 1.5 50 05:18 29.02.2020
2138 Clouds 12 1017 87 10000 1 70 03:43 29.02.2020
2139 Clouds 12 1018 81 10000 2.6 20 03:22 29.02.2020
2140 Clouds 13 1019 82 10000 1.5 360 02:42 29.02.2020
2141 Clouds 12 1019 82 10000 1.5 30 01:31 29.02.2020
2142 Clouds 12 1019 93 10000 2.1 50 00:44 29.02.2020
2143 Clouds 11 1020 87 10000 1.5 20 00:25 29.02.2020
2144 Clouds 12 1019 87 10000 2.6 70 23:38 28.02.2020
2145 Clouds 12 1019 87 10000 2.6 70 23:38 28.02.2020
2146 Clouds 12 1021 81 10000 1 350 23:20 28.02.2020
2147 Clouds 13 1020 87 10000 1.5 50 22:42 28.02.2020
2148 Clouds 13 1021 81 10000 2.1 20 22:22 28.02.2020
2149 Clouds 13 1020 81 10000 1 50 21:42 28.02.2020
2150 Clouds 13 1022 76 10000 1.5 30 21:21 28.02.2020
2151 Clouds 14 1022 76 10000 1 40 20:57 28.02.2020
2152 Clouds 14 1021 76 10000 2.1 100 20:38 28.02.2020
2153 Clouds 14 1021 76 10000 2.1 90 20:20 28.02.2020
2154 Clouds 14 1022 71 10000 1 0 19:56 28.02.2020
2155 Clouds 15 1022 67 10000 1.5 140 19:38 28.02.2020
2156 Clouds 15 1021 72 10000 1.5 160 19:19 28.02.2020
2157 Clouds 16 1021 72 10000 2.1 160 18:46 28.02.2020
2158 Clouds 16 1022 63 10000 3.1 190 18:24 28.02.2020
2159 Clouds 17 1022 59 10000 3.6 190 17:56 28.02.2020
2160 Clouds 17 1022 59 10000 3.6 200 17:36 28.02.2020
2161 Clouds 17 1022 59 10000 3.6 200 17:18 28.02.2020
2162 Clouds 18 1021 59 10000 4.6 180 16:38 28.02.2020
2163 Clouds 18 1022 55 10000 5.1 210 16:19 28.02.2020
2164 Clouds 18 1022 55 10000 5.1 210 16:19 28.02.2020
2165 Clouds 18 1022 52 10000 5.7 210 15:56 28.02.2020
2166 Clouds 19 1021 52 10000 3.6 170 15:38 28.02.2020
2167 Clouds 18 1022 52 10000 6.2 210 15:18 28.02.2020
2168 Clouds 18 1022 63 10000 5.7 220 14:45 28.02.2020
2169 Clear 18 1023 55 10000 5.7 220 14:20 28.02.2020
2170 Clear 18 1023 59 10000 5.1 230 13:59 28.02.2020
2171 Clouds 18 1022 59 10000 3.1 250 13:40 28.02.2020
2172 Clouds 18 1022 59 10000 2.1 170 13:20 28.02.2020
2173 Clear 18 1023 59 10000 3.6 110 12:46 28.02.2020
2174 Clear 18 1023 59 10000 3.6 110 12:28 28.02.2020
2175 Clear 17 1023 63 10000 4.1 50 11:59 28.02.2020
2176 Clouds 18 1022 63 10000 2.6 90 11:40 28.02.2020
2177 Clear 17 1023 63 10000 4.6 60 11:21 28.02.2020
2178 Clouds 17 1022 67 10000 3.6 70 10:43 28.02.2020
2179 Clear 16 1023 72 10000 4.6 70 10:24 28.02.2020
2180 Clear 16 1023 72 10000 4.6 80 09:59 28.02.2020
2181 Clear 16 1023 67 10000 4.1 80 09:40 28.02.2020
2182 Clear 15 1023 67 10000 4.1 80 09:18 28.02.2020
2183 Clouds 15 1021 71 10000 1 0 08:42 28.02.2020
2184 Clouds 15 1021 71 10000 1 0 08:42 28.02.2020
2185 Clear 15 1022 62 10000 2.1 30 08:20 28.02.2020
2186 Clear 15 1021 55 10000 3.1 360 07:45 28.02.2020
2187 Clear 16 1021 55 10000 3.1 360 07:25 28.02.2020
2188 Clear 16 1020 55 10000 6.7 330 06:52 28.02.2020
2189 Clear 16 1020 48 10000 5.1 0 06:33 28.02.2020
2190 Clear 17 1019 48 10000 4.1 0 05:30 28.02.2020
2191 Clear 17 1019 55 10000 4.1 310 04:31 28.02.2020
2192 Clear 17 1019 39 10000 4.6 310 02:55 28.02.2020
2193 Clear 16 1019 45 10000 4.6 310 02:34 28.02.2020
2194 Clear 16 1018 72 10000 5.1 280 01:48 28.02.2020
2195 Clear 17 1019 48 10000 2.1 280 00:32 28.02.2020
2196 Clear 16 1018 67 10000 3.6 220 23:47 27.02.2020
2197 Clear 17 1019 51 10000 5.1 270 23:23 27.02.2020
2198 Clear 16 1019 51 10000 5.7 260 22:59 27.02.2020
2199 Clear 17 1018 63 10000 6.7 220 22:40 27.02.2020
2200 Clear 17 1019 51 10000 5.1 250 22:21 27.02.2020
2201 Clear 17 1018 59 10000 6.2 230 21:42 27.02.2020
2202 Clear 16 1018 48 10000 7.7 250 21:24 27.02.2020
2203 Clear 16 1018 45 10000 5.7 250 20:59 27.02.2020
2204 Clear 16 1017 72 10000 4.6 240 20:41 27.02.2020
2205 Clear 16 1018 39 10000 4.1 270 20:23 27.02.2020
2206 Clear 16 1018 39 10000 4.1 270 20:23 27.02.2020
2207 Clear 16 1018 42 10000 4.1 270 19:57 27.02.2020
2208 Clear 16 1018 42 10000 5.7 260 19:39 27.02.2020
2209 Clear 16 1018 42 10000 5.7 260 19:21 27.02.2020
2210 Clear 16 1017 45 10000 6.7 250 18:55 27.02.2020
2211 Clear 16 1017 67 10000 5.1 240 18:37 27.02.2020
2212 Clear 17 1017 45 10000 6.7 250 18:18 27.02.2020
2213 Clear 17 1017 48 10000 6.2 250 17:54 27.02.2020
2214 Clear 17 1017 48 10000 6.7 240 17:36 27.02.2020
2215 Clouds 17 1016 59 10000 8.2 240 17:18 27.02.2020
2216 Clouds 18 1016 59 10000 9.8 250 16:41 27.02.2020
2217 Clear 18 1017 45 10000 7.7 240 16:20 27.02.2020
2218 Clear 18 1017 42 10000 5.1 240 15:59 27.02.2020
2219 Clear 17 1017 51 10000 7.7 220 15:38 27.02.2020
2220 Clear 17 1017 51 10000 7.7 220 15:20 27.02.2020
2221 Clear 18 1018 52 10000 8.7 220 14:59 27.02.2020
2222 Clouds 18 1017 63 10000 7.7 220 14:38 27.02.2020
2223 Clouds 18 1018 51 10000 9.8 220 14:20 27.02.2020
2224 Clouds 18 1018 63 10000 6.7 230 13:43 27.02.2020
2225 Clouds 18 1019 42 10000 8.2 230 13:22 27.02.2020
2226 Clouds 18 1020 39 10000 7.7 230 12:57 27.02.2020
2227 Clouds 18 1020 39 10000 5.7 250 12:39 27.02.2020
2228 Clouds 18 1020 39 10000 5.7 250 12:19 27.02.2020
2229 Clouds 17 1019 55 10000 5.7 250 11:45 27.02.2020
2230 Clouds 16 1020 48 10000 5.1 240 11:22 27.02.2020
2231 Clouds 16 1019 63 10000 5.7 250 10:45 27.02.2020
2232 Clouds 15 1020 54 10000 2.1 0 10:25 27.02.2020
2233 Clouds 14 1020 62 10000 1.5 300 09:59 27.02.2020
2234 Clouds 13 1019 76 10000 2.02 287 09:40 27.02.2020
2235 Clouds 12 1020 76 10000 1 20 09:21 27.02.2020
2236 Clouds 9 1019 87 10000 1 90 08:42 27.02.2020
2237 Clear 9 1020 81 10000 1.5 310 08:22 27.02.2020
2238 Clouds 9 1019 87 10000 0.5 10 07:46 27.02.2020
2239 Clear 9 1020 71 10000 1 0 07:26 27.02.2020
2240 Clear 10 1020 66 10000 1 0 06:54 27.02.2020
2241 Clear 10 1020 66 10000 2.1 0 06:19 27.02.2020
2242 Clear 10 1020 66 10000 2.6 220 04:21 27.02.2020
2243 Clear 12 1020 58 10000 2.6 230 02:54 27.02.2020
2244 Clouds 14 1021 47 10000 4.1 310 00:47 27.02.2020
2245 Clouds 14 1021 47 10000 3.1 330 00:29 27.02.2020
2246 Clouds 14 1019 50 10000 2.1 160 23:41 26.02.2020
2247 Clouds 14 1020 44 10000 5.7 310 23:20 26.02.2020
2248 Clouds 14 1020 44 10000 6.2 330 22:59 26.02.2020
2249 Clouds 14 1019 44 10000 3.1 280 22:40 26.02.2020
2250 Clouds 14 1020 47 10000 4.1 310 22:22 26.02.2020
2251 Clouds 13 1020 47 10000 2.1 280 21:58 26.02.2020
2252 Clouds 14 1020 47 10000 3.1 290 21:38 26.02.2020
2253 Clouds 13 1020 47 10000 3.1 290 21:19 26.02.2020
2254 Clouds 14 1019 47 10000 3.1 330 20:56 26.02.2020
2255 Clouds 14 1018 50 10000 2.1 260 20:38 26.02.2020
2256 Clouds 14 1019 41 10000 4.1 320 20:38 26.02.2020
2257 Clouds 14 1019 41 10000 4.1 320 20:19 26.02.2020
2258 Clouds 15 1019 44 10000 4.1 330 19:55 26.02.2020
2259 Clouds 15 1018 44 10000 7.21 316 19:36 26.02.2020
2260 Clouds 15 1018 47 10000 4.6 330 19:18 26.02.2020
2261 Clouds 15 1017 48 10000 3.1 310 18:41 26.02.2020
2262 Clouds 16 1017 41 10000 4.6 320 18:23 26.02.2020
2263 Clouds 16 1017 38 10000 8.7 320 17:59 26.02.2020
2264 Clouds 16 1016 42 10000 4.6 320 17:39 26.02.2020
2265 Clouds 16 1016 45 10000 3.6 300 17:18 26.02.2020
2266 Clouds 16 1017 41 10000 7.7 320 16:56 26.02.2020
2267 Clouds 17 1017 36 10000 5.1 320 16:37 26.02.2020
2268 Clouds 17 1015 39 10000 7.7 320 16:18 26.02.2020
2269 Clouds 17 1017 39 10000 5.1 310 15:43 26.02.2020
2270 Clouds 17 1017 39 10000 6.2 310 15:25 26.02.2020
2271 Clouds 17 1017 42 10000 9.3 330 14:43 26.02.2020
2272 Clouds 17 1017 42 10000 9.3 330 14:23 26.02.2020
2273 Clouds 16 1017 38 10000 7.2 310 13:44 26.02.2020
2274 Clouds 17 1017 39 10000 6.2 320 13:44 26.02.2020
2275 Clouds 16 1017 38 10000 7.2 310 13:23 26.02.2020
2276 Clouds 16 1017 38 10000 5.1 300 12:59 26.02.2020
2277 Clouds 16 1017 36 10000 4.6 310 12:38 26.02.2020
2278 Clouds 16 1016 39 10000 14.4 320 12:18 26.02.2020
2279 Clouds 16 1017 38 10000 7.7 310 11:43 26.02.2020
2280 Clouds 16 1016 42 10000 11.8 330 11:23 26.02.2020
2281 Clouds 16 1017 44 10000 5.7 310 10:59 26.02.2020
2282 Clouds 16 1017 44 10000 5.7 300 10:39 26.02.2020
2283 Clouds 15 1016 51 10000 8.7 310 10:21 26.02.2020
2284 Clouds 16 1016 55 10000 5.7 330 09:44 26.02.2020
2285 Clouds 15 1017 51 10000 6.7 310 09:24 26.02.2020
2286 Clouds 15 1016 54 10000 6.2 320 08:59 26.02.2020
2287 Clouds 15 1016 58 10000 8.2 330 08:37 26.02.2020
2288 Clouds 15 1016 58 10000 8.2 330 08:19 26.02.2020
2289 Clouds 14 1016 67 10000 7.2 330 07:45 26.02.2020
2290 Clouds 14 1015 67 10000 8.2 330 07:26 26.02.2020
2291 Clouds 15 1015 62 10000 8.7 330 06:53 26.02.2020
2292 Clouds 14 1015 67 10000 4.6 310 06:34 26.02.2020
2293 Clouds 14 1015 62 10000 4.6 320 05:53 26.02.2020
2294 Clouds 15 1015 62 10000 3.1 300 05:25 26.02.2020
2295 Clouds 15 1015 54 10000 2.6 320 04:34 26.02.2020
2296 Clouds 12 1016 76 10000 1.5 300 02:33 26.02.2020
2297 Clouds 12 1016 81 10000 1.5 40 01:48 26.02.2020
2298 Clouds 12 1016 76 10000 1 0 00:50 26.02.2020
2299 Clouds 12 1016 76 10000 1 0 00:25 26.02.2020
2300 Clouds 12 1016 71 10000 2.1 130 23:57 25.02.2020
2301 Clouds 12 1015 81 10000 2.6 180 23:38 25.02.2020
2302 Clouds 13 1015 76 10000 1 110 23:20 25.02.2020
2303 Clouds 13 1015 76 10000 1.5 180 22:42 25.02.2020
2304 Clouds 15 1016 41 10000 2.6 290 22:19 25.02.2020
2305 Clouds 15 1016 38 10000 3.1 300 21:58 25.02.2020
2306 Clouds 16 1015 42 10000 2.1 230 21:37 25.02.2020
2307 Clouds 16 1016 36 10000 3.1 300 21:18 25.02.2020
2308 Clouds 16 1016 38 10000 2.1 310 20:55 25.02.2020
2309 Clouds 16 1016 36 10000 3.1 310 20:36 25.02.2020
2310 Clouds 16 1016 36 10000 3.1 310 20:18 25.02.2020
2311 Clouds 17 1015 39 10000 2.6 290 19:42 25.02.2020
2312 Clouds 17 1015 39 10000 2.6 290 19:20 25.02.2020
2313 Clouds 18 1015 36 10000 2.6 290 18:58 25.02.2020
2314 Clouds 18 1015 34 10000 4.6 310 18:38 25.02.2020
2315 Clouds 19 1014 37 10000 2.1 350 18:19 25.02.2020
2316 Clouds 19 1015 32 10000 4.6 320 17:54 25.02.2020
2317 Clouds 21 1015 69 10000 6.7 320 17:36 25.02.2020
2318 Clouds 21 1014 30 10000 6.2 320 17:18 25.02.2020
2319 Clouds 21 1014 32 10000 6.2 330 16:42 25.02.2020
2320 Clouds 21 1015 28 10000 6.2 330 16:22 25.02.2020
2321 Clouds 21 1015 28 10000 6.7 310 15:59 25.02.2020
2322 Clouds 21 1015 28 10000 6.7 310 15:59 25.02.2020
2323 Clouds 22 1014 33 10000 6.2 320 15:41 25.02.2020
2324 Clouds 22 1014 33 10000 6.2 320 15:41 25.02.2020
2325 Clouds 21 1015 26 10000 6.2 310 15:20 25.02.2020
2326 Clouds 20 1015 30 10000 5.7 310 14:58 25.02.2020
2327 Clouds 20 1015 68 10000 6.2 220 14:38 25.02.2020
2328 Clouds 20 1016 30 10000 5.1 310 14:18 25.02.2020
2329 Clouds 18 1016 72 10000 3.6 210 13:57 25.02.2020
2330 Clouds 18 1017 77 10000 4.1 200 13:38 25.02.2020
2331 Clouds 18 1017 77 10000 4.1 200 13:20 25.02.2020
2332 Clouds 19 1016 77 10000 4.6 220 12:42 25.02.2020
2333 Clouds 18 1018 72 10000 4.6 200 12:23 25.02.2020
2334 Clouds 18 1018 82 10000 3.6 200 11:59 25.02.2020
2335 Clouds 18 1017 82 10000 4.1 220 11:41 25.02.2020
2336 Clear 16 1018 77 10000 3.1 220 11:20 25.02.2020
2337 Clear 16 1018 82 10000 2.1 190 10:59 25.02.2020
2338 Clouds 16 1017 82 10000 1 0 10:40 25.02.2020
2339 Clear 15 1018 76 10000 1.5 170 10:22 25.02.2020
2340 Clouds 13 1017 87 10000 2.16 238 09:42 25.02.2020
2341 Clear 12 1018 81 10000 1.5 350 09:23 25.02.2020
2342 Clear 11 1018 81 10000 2.1 340 08:56 25.02.2020
2343 Clear 11 1018 81 10000 1.5 340 08:37 25.02.2020
2344 Clear 9 1018 81 10000 1.5 340 08:19 25.02.2020
2345 Clouds 10 1017 100 10000 2.51 200 07:41 25.02.2020
2346 Clear 9 1018 81 10000 2.1 350 07:20 25.02.2020
2347 Clouds 10 1017 100 10000 2.51 200 06:41 25.02.2020
2348 Clouds 9 1018 93 10000 0.5 0 05:39 25.02.2020
2349 Clouds 9 1019 93 9000 0.5 0 03:44 25.02.2020
2350 Clear 9 1021 80 10000 1.5 350 02:31 25.02.2020
2351 Clouds 9 1022 75 10000 2.1 10 00:55 25.02.2020
2352 Clouds 9 1022 75 10000 1.5 340 00:29 25.02.2020
2353 Clouds 10 1022 93 10000 0.5 0 23:44 24.02.2020
2354 Clouds 9 1023 81 10000 2.1 350 23:22 24.02.2020
2355 Clouds 9 1023 87 10000 2.1 340 22:43 24.02.2020
2356 Clouds 10 1023 87 10000 1.5 350 22:21 24.02.2020
2357 Clouds 10 1023 87 10000 1.5 340 21:58 24.02.2020
2358 Clouds 11 1023 93 10000 1.5 330 21:39 24.02.2020
2359 Clouds 11 1023 93 10000 1.5 330 21:20 24.02.2020
2360 Clouds 12 1024 87 10000 1 0 20:59 24.02.2020
2361 Clouds 13 1024 87 10000 2.1 180 20:41 24.02.2020
2362 Clouds 13 1024 87 10000 2.1 180 20:19 24.02.2020
2363 Clouds 13 1024 87 10000 2.1 180 19:58 24.02.2020
2364 Clouds 13 1024 93 10000 2.6 200 19:40 24.02.2020
2365 Clouds 14 1023 87 10000 2.1 230 19:21 24.02.2020
2366 Clouds 15 1024 82 10000 2.6 200 18:55 24.02.2020
2367 Clouds 15 1024 77 10000 4.1 200 18:37 24.02.2020
2368 Clouds 16 1024 77 10000 4.1 200 18:19 24.02.2020
2369 Clouds 16 1023 77 10000 4.6 220 17:42 24.02.2020
2370 Clear 18 1024 72 10000 4.6 190 17:21 24.02.2020
2371 Clear 18 1024 72 10000 5.7 190 16:58 24.02.2020
2372 Clear 18 1023 72 10000 5.7 210 16:39 24.02.2020
2373 Clear 18 1024 67 10000 5.7 200 16:21 24.02.2020
2374 Clear 18 1025 67 10000 6.2 200 15:59 24.02.2020
2375 Clear 18 1024 72 10000 5.7 210 15:40 24.02.2020
2376 Clear 18 1025 59 10000 6.7 200 15:21 24.02.2020
2377 Clear 20 1026 59 10000 6.7 210 14:58 24.02.2020
2378 Clear 19 1025 72 10000 5.7 210 14:40 24.02.2020
2379 Clear 19 1026 63 10000 6.7 200 14:19 24.02.2020
2380 Clear 18 1027 68 10000 6.7 200 13:56 24.02.2020
2381 Clear 19 1027 67 10000 6.7 200 13:37 24.02.2020
2382 Clouds 18 1027 72 10000 5.1 210 13:19 24.02.2020
2383 Clouds 18 1028 68 10000 4.6 200 12:56 24.02.2020
2384 Clouds 18 1027 72 10000 4.6 210 12:38 24.02.2020
2385 Clouds 19 1028 67 10000 4.1 210 12:19 24.02.2020
2386 Clouds 18 1029 67 10000 3.1 190 11:44 24.02.2020
2387 Clouds 17 1029 67 10000 3.1 190 11:26 24.02.2020
2388 Clear 15 1028 93 10000 1 0 10:45 24.02.2020
2389 Clear 14 1029 76 10000 1 0 10:26 24.02.2020
2390 Clear 14 1029 62 10000 1.84 245 09:54 24.02.2020
2391 Clear 12 1029 76 6000 1 50 09:36 24.02.2020
2392 Clear 11 1029 76 6000 1 50 09:18 24.02.2020
2393 Fog 8 1028 100 400 1.84 245 08:44 24.02.2020
2394 Clear 8 1029 87 10000 1.5 10 08:24 24.02.2020
2395 Fog 8 1028 100 300 1.25 296 07:44 24.02.2020
2396 Clear 8 1029 93 10000 2.1 20 07:24 24.02.2020
2397 Clear 8 1029 93 10000 1 0 06:36 24.02.2020
2398 Fog 7 1028 100 300 1.25 296 06:18 24.02.2020
2399 Clear 9 1029 86 10000 2.1 360 05:28 24.02.2020
2400 Fog 9 1029 100 250 0.5 40 03:45 24.02.2020
2401 Clear 8 1031 87 10000 2.1 340 02:52 24.02.2020
2402 Fog 8 1030 100 800 0.5 0 01:42 24.02.2020
2403 Clear 9 1031 93 10000 1.5 350 00:52 24.02.2020
2404 Clear 9 1032 93 10000 1.5 70 00:23 24.02.2020
2405 Clear 10 1032 93 10000 2.6 40 23:59 23.02.2020
2406 Clear 10 1032 93 10000 2.1 20 23:40 23.02.2020
2407 Clear 10 1032 93 10000 2.1 20 23:18 23.02.2020
2408 Clear 11 1032 93 10000 2.1 30 22:54 23.02.2020
2409 Clear 11 1032 93 10000 1.5 20 22:36 23.02.2020
2410 Clear 11 1032 93 10000 1.5 20 22:18 23.02.2020
2411 Clear 12 1031 81 10000 2.6 210 21:43 23.02.2020
2412 Clear 12 1031 87 10000 2.6 220 21:19 23.02.2020
2413 Clear 13 1032 93 10000 1 0 20:56 23.02.2020
2414 Clear 13 1032 87 10000 2.6 80 20:37 23.02.2020
2415 Clear 14 1032 87 10000 2.6 80 20:19 23.02.2020
2416 Clear 14 1032 87 10000 1.5 110 19:56 23.02.2020
2417 Clear 14 1032 82 10000 2.1 130 19:37 23.02.2020
2418 Clear 14 1032 82 10000 2.1 130 19:18 23.02.2020
2419 Clear 14 1032 82 10000 2.1 130 19:18 23.02.2020
2420 Clear 15 1032 82 10000 2.1 150 18:54 23.02.2020
2421 Clouds 16 1031 82 10000 2.1 200 18:36 23.02.2020
2422 Clouds 17 1031 77 10000 4.1 210 18:18 23.02.2020
2423 Clear 17 1032 67 10000 3.1 160 17:54 23.02.2020
2424 Clouds 17 1031 82 10000 4.6 210 17:36 23.02.2020
2425 Clear 18 1032 59 10000 2.6 180 17:18 23.02.2020
2426 Clouds 19 1031 72 10000 5.1 210 16:42 23.02.2020
2427 Clear 20 1032 42 10000 3.6 190 16:23 23.02.2020
2428 Clear 19 1032 45 10000 3.6 190 15:57 23.02.2020
2429 Clear 19 1032 45 10000 3.6 210 15:38 23.02.2020
2430 Clear 19 1032 45 10000 3.6 210 15:20 23.02.2020
2431 Clouds 19 1032 63 10000 4.1 220 15:20 23.02.2020
2432 Clear 19 1033 48 10000 4.1 210 14:56 23.02.2020
2433 Clear 19 1033 52 10000 3.1 210 14:38 23.02.2020
2434 Clear 19 1033 52 10000 3.1 210 14:20 23.02.2020
2435 Clear 19 1034 55 10000 3.6 210 13:57 23.02.2020
2436 Clouds 19 1033 59 10000 3.6 240 13:38 23.02.2020
2437 Clouds 19 1033 72 10000 3.6 230 13:20 23.02.2020
2438 Clear 19 1035 55 10000 1.5 150 12:42 23.02.2020
2439 Clear 19 1035 55 10000 1.5 150 12:21 23.02.2020
2440 Clear 18 1035 63 10000 1.5 180 11:55 23.02.2020
2441 Clear 17 1035 72 10000 1 50 11:37 23.02.2020
2442 Clouds 15 1034 82 10000 0.5 0 11:18 23.02.2020
2443 Clouds 14 1034 87 10000 0.5 340 10:42 23.02.2020
2444 Clear 14 1035 82 10000 1 0 10:23 23.02.2020
2445 Clear 13 1035 87 10000 0.5 0 09:59 23.02.2020
2446 Clouds 12 1034 100 9000 0.5 0 09:39 23.02.2020
2447 Clear 11 1035 87 10000 0.5 0 09:20 23.02.2020
2448 Clear 9 1034 93 10000 1 10 08:51 23.02.2020
2449 Clear 8 1034 93 10000 1.5 20 08:30 23.02.2020
2450 Clear 8 1034 93 10000 1 340 07:54 23.02.2020
2451 Clear 7 1034 87 10000 1 30 07:35 23.02.2020
2452 Fog 8 1033 100 900 0.5 40 06:39 23.02.2020
2453 Fog 7 1033 100 7000 2.36 310 05:43 23.02.2020
2454 Clear 7 1034 87 10000 2.1 350 04:26 23.02.2020
2455 Clear 8 1035 87 10000 1.5 350 02:59 23.02.2020
2456 Clouds 8 1035 81 10000 2.6 360 02:25 23.02.2020
2457 Clouds 8 1035 87 10000 1.5 30 01:23 23.02.2020
2458 Clouds 9 1034 100 10000 2.1 40 00:45 23.02.2020
2459 Clouds 9 1035 87 10000 2.6 10 00:24 23.02.2020
2460 Clouds 10 1035 87 10000 2.1 360 23:45 22.02.2020
2461 Clouds 10 1035 87 10000 2.1 360 23:45 22.02.2020
2462 Clouds 11 1035 87 10000 1.5 360 23:26 22.02.2020
2463 Clouds 9 1035 87 10000 1.5 50 22:56 22.02.2020
2464 Clouds 10 1034 93 10000 1 0 22:36 22.02.2020
2465 Clouds 10 1034 93 10000 1 0 22:18 22.02.2020
2466 Clouds 10 1033 93 10000 3.07 59 21:40 22.02.2020
2467 Clouds 11 1034 87 10000 0.5 0 21:21 22.02.2020
2468 Clouds 12 1034 93 10000 2.1 10 20:44 22.02.2020
2469 Clouds 12 1034 87 10000 1.5 50 20:24 22.02.2020
2470 Clouds 13 1034 87 10000 2.6 70 19:55 22.02.2020
2471 Clouds 14 1034 82 10000 1 150 19:37 22.02.2020
2472 Clouds 14 1034 82 10000 1 150 19:18 22.02.2020
2473 Clouds 15 1033 77 10000 2.6 170 18:39 22.02.2020
2474 Clouds 15 1033 77 10000 2.6 170 18:21 22.02.2020
2475 Clouds 16 1033 77 10000 3.1 180 17:57 22.02.2020
2476 Clouds 16 1032 77 10000 3.6 210 17:39 22.02.2020
2477 Clouds 17 1033 67 10000 4.1 190 17:21 22.02.2020
2478 Clouds 17 1033 67 10000 3.6 190 16:57 22.02.2020
2479 Clouds 17 1032 77 10000 4.1 220 16:38 22.02.2020
2480 Clouds 17 1032 72 10000 5.1 230 16:19 22.02.2020
2481 Clouds 17 1032 72 10000 5.1 230 15:43 22.02.2020
2482 Clouds 18 1033 59 10000 5.1 200 15:24 22.02.2020
2483 Clouds 18 1032 72 10000 4.6 220 14:43 22.02.2020
2484 Clouds 18 1033 52 10000 4.6 190 14:23 22.02.2020
2485 Clouds 18 1034 59 10000 4.1 210 13:58 22.02.2020
2486 Clouds 18 1034 63 10000 4.1 190 13:40 22.02.2020
2487 Clouds 18 1034 63 10000 4.1 190 13:18 22.02.2020
2488 Clouds 17 1033 77 10000 3.1 230 12:42 22.02.2020
2489 Clouds 16 1034 67 10000 4.1 210 12:23 22.02.2020
2490 Clouds 17 1033 72 10000 3.1 230 11:48 22.02.2020
2491 Clouds 16 1034 67 10000 2.1 220 11:29 22.02.2020
2492 Clouds 15 1033 71 10000 1 0 10:58 22.02.2020
2493 Clouds 14 1033 76 10000 0.5 0 10:40 22.02.2020
2494 Clouds 14 1033 76 10000 0.5 0 10:19 22.02.2020
2495 Clouds 13 1033 76 10000 1 0 09:57 22.02.2020
2496 Clouds 11 1033 81 10000 0.5 0 09:38 22.02.2020
2497 Clouds 10 1033 81 10000 0.5 0 09:20 22.02.2020
2498 Clouds 9 1033 87 10000 1.5 360 08:46 22.02.2020
2499 Clouds 6 1032 86 10000 1 10 08:27 22.02.2020
2500 Clear 6 1032 86 10000 1.5 10 07:48 22.02.2020
2501 Fog 7 1031 100 9000 1.5 60 07:48 22.02.2020
2502 Clouds 7 1030 100 10000 0.5 0 07:19 22.02.2020
2503 Clear 7 1030 100 10000 1 60 06:47 22.02.2020
2504 Clear 7 1031 93 10000 1.5 350 06:28 22.02.2020
2505 Clear 7 1031 93 10000 1.5 350 04:33 22.02.2020
2506 Clear 8 1031 87 10000 1 0 03:21 22.02.2020
2507 Clear 8 1031 87 10000 1 340 02:29 22.02.2020
2508 Clear 8 1030 100 10000 1.45 305 01:45 22.02.2020
2509 Clear 8 1030 100 10000 1.45 305 01:45 22.02.2020
2510 Clear 9 1031 87 10000 1 0 01:25 22.02.2020
2511 Clear 9 1030 93 10000 0.55 349 00:45 22.02.2020
2512 Clear 9 1031 87 10000 1.5 350 00:26 22.02.2020
2513 Clear 10 1030 93 10000 1 70 23:45 21.02.2020
2514 Clear 9 1030 93 10000 0.77 107 23:22 21.02.2020
2515 Clear 10 1031 81 10000 1.5 10 22:54 21.02.2020
2516 Clear 10 1031 81 10000 2.1 340 22:36 21.02.2020
2517 Clear 10 1031 81 10000 2.1 340 22:18 21.02.2020
2518 Clear 11 1031 76 10000 2.1 350 21:41 21.02.2020
2519 Clear 11 1031 76 10000 2.1 350 21:23 21.02.2020
2520 Clear 11 1031 76 10000 1.5 350 20:48 21.02.2020
2521 Clear 12 1031 81 10000 2.1 70 20:29 21.02.2020
2522 Clear 13 1030 76 10000 1 0 19:44 21.02.2020
2523 Clear 14 1030 76 10000 2.1 190 19:25 21.02.2020
2524 Clear 14 1030 71 10000 1.5 190 18:58 21.02.2020
2525 Clear 15 1029 77 10000 2.1 220 18:39 21.02.2020
2526 Clear 16 1029 72 10000 2.6 220 18:21 21.02.2020
2527 Clear 17 1030 55 10000 3.1 130 17:41 21.02.2020
2528 Clear 17 1030 55 10000 3.1 130 17:23 21.02.2020
2529 Clear 17 1030 48 10000 4.1 120 16:58 21.02.2020
2530 Clear 17 1030 48 10000 4.6 90 16:40 21.02.2020
2531 Clear 18 1030 48 10000 4.6 90 16:20 21.02.2020
2532 Clouds 17 1029 52 10000 4.1 90 15:47 21.02.2020
2533 Clear 18 1030 45 10000 5.7 70 15:19 21.02.2020
2534 Clear 18 1030 48 10000 6.2 80 14:59 21.02.2020
2535 Clouds 18 1029 52 10000 5.1 60 14:41 21.02.2020
2536 Clouds 18 1029 55 10000 5.1 80 14:19 21.02.2020
2537 Clear 18 1031 48 10000 7.2 80 13:44 21.02.2020
2538 Clear 18 1031 48 10000 7.2 80 13:24 21.02.2020
2539 Clear 18 1031 52 10000 7.2 80 12:55 21.02.2020
2540 Clear 18 1031 55 10000 7.2 70 12:36 21.02.2020
2541 Clear 18 1031 55 10000 7.2 70 12:18 21.02.2020
2542 Clouds 17 1030 63 10000 5.7 60 11:42 21.02.2020
2543 Clear 16 1031 59 10000 5.1 80 11:22 21.02.2020
2544 Clear 15 1031 67 10000 1.5 190 10:57 21.02.2020
2545 Clear 14 1030 76 10000 0.5 0 10:39 21.02.2020
2546 Clear 13 1030 81 10000 1.08 34 10:19 21.02.2020
2547 Clear 12 1031 81 10000 1 0 09:57 21.02.2020
2548 Clear 12 1031 81 10000 1 0 09:57 21.02.2020
2549 Clear 12 1030 93 10000 1.08 34 09:38 21.02.2020
2550 Clear 11 1030 87 10000 2.1 0 09:19 21.02.2020
2551 Clouds 8 1029 93 10000 1.5 80 08:43 21.02.2020
2552 Clear 6 1030 93 10000 1.5 10 08:22 21.02.2020
2553 Clouds 7 1029 93 10000 1.5 10 07:59 21.02.2020
2554 Clouds 7 1028 100 10000 0.5 0 07:40 21.02.2020
2555 Clouds 6 1029 93 10000 1.5 20 07:19 21.02.2020
2556 Clouds 7 1029 93 10000 2.1 10 06:52 21.02.2020
2557 Clouds 8 1029 93 10000 1.5 360 06:30 21.02.2020
2558 Clouds 8 1028 93 10000 1 50 05:47 21.02.2020
2559 Clear 9 1029 87 10000 1.5 10 04:38 21.02.2020
2560 Clear 8 1029 87 10000 1.5 10 04:19 21.02.2020
2561 Clear 9 1029 87 10000 1.5 10 04:19 21.02.2020
2562 Clouds 9 1028 93 10000 1 30 03:42 21.02.2020
2563 Clear 8 1029 93 10000 2.6 10 02:58 21.02.2020
2564 Clouds 9 1028 93 10000 2.1 360 01:25 21.02.2020
2565 Clouds 8 1028 93 10000 2.1 360 00:46 21.02.2020
2566 Clouds 8 1028 93 10000 2.6 340 00:23 21.02.2020
2567 Clouds 9 1028 93 10000 2.1 360 23:46 20.02.2020
2568 Clouds 9 1028 93 10000 2.1 10 23:26 20.02.2020
2569 Clouds 9 1028 93 10000 2.1 350 22:59 20.02.2020
2570 Clouds 9 1027 93 10000 1.5 30 22:39 20.02.2020
2571 Clouds 9 1027 87 10000 2.1 340 22:20 20.02.2020
2572 Clouds 10 1027 87 10000 2.1 340 21:56 20.02.2020
2573 Clouds 11 1027 81 10000 1 0 21:37 20.02.2020
2574 Clouds 11 1027 81 10000 1 0 21:19 20.02.2020
2575 Clouds 11 1027 87 10000 2.1 60 20:55 20.02.2020
2576 Clouds 11 1026 87 10000 2.1 80 20:37 20.02.2020
2577 Clear 11 1027 81 10000 2.6 80 20:19 20.02.2020
2578 Clouds 11 1026 87 10000 2.6 70 20:19 20.02.2020
2579 Clear 12 1027 81 10000 2.1 100 19:58 20.02.2020
2580 Clouds 12 1026 81 10000 1.5 120 19:40 20.02.2020
2581 Clear 13 1027 76 10000 1.5 140 19:21 20.02.2020
2582 Clouds 14 1025 76 10000 1 0 18:40 20.02.2020
2583 Clouds 14 1025 72 10000 2.1 220 18:20 20.02.2020
2584 Clouds 15 1025 72 10000 3.1 220 17:56 20.02.2020
2585 Clear 15 1026 67 10000 4.1 200 17:38 20.02.2020
2586 Clouds 15 1025 72 10000 4.1 220 17:18 20.02.2020
2587 Clouds 15 1025 67 10000 4.6 220 16:55 20.02.2020
2588 Haze 16 1026 72 5000 5.1 200 16:37 20.02.2020
2589 Haze 16 1026 72 5000 5.1 200 16:18 20.02.2020
2590 Clouds 16 1025 67 10000 4.6 220 15:42 20.02.2020
2591 Clouds 16 1025 67 10000 4.6 220 15:21 20.02.2020
2592 Haze 16 1026 67 5000 5.1 200 14:57 20.02.2020
2593 Haze 17 1026 63 3800 4.6 200 14:39 20.02.2020
2594 Clouds 16 1025 67 10000 4.1 230 14:20 20.02.2020
2595 Clouds 16 1025 63 10000 3.6 210 13:46 20.02.2020
2596 Clear 16 1027 62 6000 4.1 200 13:20 20.02.2020
2597 Clear 17 1027 62 10000 4.1 210 12:59 20.02.2020
2598 Clouds 17 1026 67 10000 3.6 210 12:40 20.02.2020
2599 Clear 16 1027 58 10000 2.6 220 12:19 20.02.2020
2600 Clear 16 1028 54 10000 1.5 140 11:57 20.02.2020
2601 Clear 16 1028 50 10000 0.5 0 11:39 20.02.2020
2602 Clear 14 1028 50 10000 0.5 0 11:19 20.02.2020
2603 Haze 13 1028 54 1600 0.5 0 10:55 20.02.2020
2604 Haze 12 1028 62 2200 0.5 50 10:36 20.02.2020
2605 Haze 12 1028 62 2200 0.5 50 10:18 20.02.2020
2606 Clear 9 1028 75 10000 2.1 350 09:37 20.02.2020
2607 Clear 9 1028 75 10000 2.1 350 09:19 20.02.2020
2608 Clear 5 1027 80 10000 2.1 340 08:41 20.02.2020
2609 Clouds 5 1026 100 10000 1.5 20 08:23 20.02.2020
2610 Clear 5 1027 86 10000 1 20 07:47 20.02.2020
2611 Clear 5 1027 80 10000 2.1 10 07:27 20.02.2020
2612 Clear 5 1027 80 10000 1.5 30 06:57 20.02.2020
2613 Clear 6 1027 80 10000 3.1 20 06:31 20.02.2020
2614 Clear 5 1027 80 10000 2.1 10 05:47 20.02.2020
2615 Clear 6 1026 93 10000 2.1 50 05:19 20.02.2020
2616 Clear 6 1028 80 10000 1.5 360 04:37 20.02.2020
2617 Clear 6 1027 93 10000 1.5 50 03:46 20.02.2020
2618 Clear 6 1028 93 10000 0.5 0 02:45 20.02.2020
2619 Clear 8 1029 75 10000 1.5 20 01:23 20.02.2020
2620 Clear 9 1030 70 10000 2.1 270 00:42 20.02.2020
2621 Clear 8 1029 93 10000 2.1 70 00:19 20.02.2020
2622 Clear 9 1030 70 10000 1.5 310 23:42 19.02.2020
2623 Clear 9 1029 87 10000 1.58 332 23:18 19.02.2020
2624 Clear 10 1030 66 10000 2.1 310 22:41 19.02.2020
2625 Clear 10 1030 66 10000 2.1 310 22:22 19.02.2020
2626 Clear 10 1030 71 10000 1 290 21:57 19.02.2020
2627 Clear 11 1030 66 10000 2.6 310 21:39 19.02.2020
2628 Clear 11 1030 66 10000 2.6 310 21:19 19.02.2020
2629 Clear 11 1030 66 10000 2.6 310 21:19 19.02.2020
2630 Clear 11 1030 66 10000 1.5 300 20:56 19.02.2020
2631 Clear 11 1029 66 10000 1.5 300 20:37 19.02.2020
2632 Clear 12 1030 66 10000 2.1 300 20:18 19.02.2020
2633 Clear 12 1030 66 10000 2.1 290 19:56 19.02.2020
2634 Clear 12 1030 66 10000 2.1 280 19:37 19.02.2020
2635 Clear 13 1029 66 10000 3.1 290 19:18 19.02.2020
2636 Clear 13 1030 58 10000 3.1 310 18:57 19.02.2020
2637 Clear 14 1029 67 10000 6.2 240 18:39 19.02.2020
2638 Clear 14 1030 58 10000 1.5 310 18:20 19.02.2020
2639 Clouds 15 1029 62 10000 4.6 220 17:43 19.02.2020
2640 Clouds 15 1029 63 10000 4.6 230 17:20 19.02.2020
2641 Clear 16 1030 58 10000 4.6 200 16:56 19.02.2020
2642 Clear 15 1031 58 10000 4.1 210 16:37 19.02.2020
2643 Clear 15 1031 58 10000 4.1 210 16:37 19.02.2020
2644 Clouds 16 1030 59 10000 4.1 230 16:18 19.02.2020
2645 Clouds 16 1030 59 10000 3.6 230 15:41 19.02.2020
2646 Clear 16 1031 44 10000 2.6 310 15:23 19.02.2020
2647 Clear 16 1031 44 10000 4.1 290 14:57 19.02.2020
2648 Clear 16 1032 51 10000 4.1 300 14:39 19.02.2020
2649 Clouds 16 1031 51 10000 3.6 300 14:21 19.02.2020
2650 Clouds 16 1031 51 10000 3.6 290 13:41 19.02.2020
2651 Clouds 16 1032 48 10000 3.6 300 13:22 19.02.2020
2652 Clouds 16 1033 54 10000 2.6 330 12:55 19.02.2020
2653 Clouds 15 1032 51 10000 4.1 310 12:36 19.02.2020
2654 Clouds 15 1033 51 10000 3.1 280 12:18 19.02.2020
2655 Clouds 15 1032 55 10000 4.1 320 11:38 19.02.2020
2656 Clouds 14 1033 54 10000 4.1 320 11:20 19.02.2020
2657 Clouds 14 1033 54 10000 4.1 330 10:58 19.02.2020
2658 Clouds 14 1032 67 10000 1 0 10:38 19.02.2020
2659 Clouds 13 1033 66 10000 2.6 290 10:20 19.02.2020
2660 Clouds 11 1031 93 10000 0.5 0 09:58 19.02.2020
2661 Clouds 11 1031 93 10000 0.5 0 09:38 19.02.2020
2662 Clouds 11 1031 93 10000 2.4 359 09:19 19.02.2020
2663 Clouds 9 1030 93 10000 2.4 359 08:46 19.02.2020
2664 Clouds 8 1031 93 10000 1.5 80 08:24 19.02.2020
2665 Clouds 8 1030 100 10000 1.5 30 07:46 19.02.2020
2666 Rain 8 1031 93 10000 1 0 07:26 19.02.2020
2667 Rain 7 1031 93 10000 1 0 06:57 19.02.2020
2668 Rain 7 1031 93 10000 1 360 06:34 19.02.2020
2669 Clouds 8 1031 87 10000 1 0 04:49 19.02.2020
2670 Clouds 9 1032 87 10000 1 0 03:22 19.02.2020
2671 Clouds 10 1032 93 10000 0.5 0 02:33 19.02.2020
2672 Clouds 10 1032 87 10000 1 60 01:33 19.02.2020
2673 Clouds 10 1032 93 10000 0.5 0 00:59 19.02.2020
2674 Clouds 10 1032 93 10000 1.5 20 00:36 19.02.2020
2675 Clouds 9 1032 93 10000 1 0 23:57 18.02.2020
2676 Clouds 10 1032 81 10000 2.1 20 23:39 18.02.2020
2677 Clouds 10 1032 81 10000 2.1 20 23:19 18.02.2020
2678 Clouds 10 1032 81 10000 2.1 20 23:19 18.02.2020
2679 Clouds 10 1032 81 10000 2.1 20 23:19 18.02.2020
2680 Clouds 10 1032 81 10000 1 0 22:54 18.02.2020
2681 Clouds 10 1032 87 10000 1.5 360 22:36 18.02.2020
2682 Clouds 10 1031 93 10000 1.7 79 22:18 18.02.2020
2683 Clouds 10 1031 93 10000 1.7 79 21:38 18.02.2020
2684 Clouds 11 1032 87 10000 2.1 340 21:20 18.02.2020
2685 Clouds 11 1032 81 10000 1 360 20:59 18.02.2020
2686 Clouds 11 1031 87 10000 0.5 0 20:39 18.02.2020
2687 Clouds 12 1032 76 10000 1 0 20:21 18.02.2020
2688 Clouds 12 1032 76 10000 0.5 0 19:57 18.02.2020
2689 Clouds 12 1032 76 10000 0.5 0 19:57 18.02.2020
2690 Clouds 12 1031 81 10000 0.5 200 19:39 18.02.2020
2691 Clouds 12 1031 76 10000 0.5 0 19:19 18.02.2020
2692 Clouds 13 1030 87 10000 2.6 40 18:42 18.02.2020
2693 Clouds 13 1031 71 10000 2.1 60 18:21 18.02.2020
2694 Clouds 13 1031 71 10000 2.1 60 18:21 18.02.2020
2695 Clouds 14 1031 76 10000 3.1 60 17:57 18.02.2020
2696 Clouds 14 1030 76 10000 3.6 60 17:39 18.02.2020
2697 Clouds 14 1030 76 10000 3.6 60 17:39 18.02.2020
2698 Clouds 14 1031 76 10000 2.6 70 17:19 18.02.2020
2699 Clouds 14 1030 76 10000 3.6 70 16:40 18.02.2020
2700 Clouds 14 1031 71 10000 3.6 70 16:40 18.02.2020
2701 Clouds 14 1031 71 10000 3.6 70 16:21 18.02.2020
2702 Clouds 14 1031 67 10000 4.6 70 15:54 18.02.2020
2703 Clouds 14 1031 71 10000 4.1 70 15:36 18.02.2020
2704 Clouds 15 1031 71 10000 4.1 70 15:18 18.02.2020
2705 Clouds 15 1031 71 10000 4.1 70 15:18 18.02.2020
2706 Clouds 15 1031 67 10000 4.6 90 14:54 18.02.2020
2707 Clouds 15 1032 67 10000 4.6 60 14:36 18.02.2020
2708 Clouds 15 1032 67 10000 4.6 60 14:18 18.02.2020
2709 Clouds 15 1032 67 10000 3.6 90 13:41 18.02.2020
2710 Clouds 15 1032 67 10000 3.6 90 13:41 18.02.2020
2711 Clouds 15 1032 72 10000 3.6 60 13:21 18.02.2020
2712 Clouds 15 1032 72 10000 4.6 70 12:44 18.02.2020
2713 Clouds 15 1033 71 10000 5.1 70 12:25 18.02.2020
2714 Clouds 15 1033 71 10000 5.1 80 11:59 18.02.2020
2715 Clouds 15 1032 67 10000 4.6 60 11:41 18.02.2020
2716 Clouds 15 1033 67 10000 5.7 60 11:22 18.02.2020
2717 Clouds 14 1032 71 10000 5.7 60 10:44 18.02.2020
2718 Clouds 14 1032 71 10000 5.1 60 10:24 18.02.2020
2719 Clouds 14 1033 71 10000 5.1 60 09:57 18.02.2020
2720 Clouds 13 1032 71 10000 4.6 60 09:38 18.02.2020
2721 Clouds 13 1032 71 10000 4.6 60 09:20 18.02.2020
2722 Clouds 13 1032 66 10000 5.1 60 08:57 18.02.2020
2723 Clouds 13 1031 71 10000 4.6 60 08:38 18.02.2020
2724 Clouds 13 1032 66 10000 5.1 50 08:19 18.02.2020
2725 Clouds 13 1032 66 10000 4.6 50 07:48 18.02.2020
2726 Clouds 13 1031 66 10000 4.1 50 07:25 18.02.2020
2727 Clouds 13 1031 66 10000 4.1 40 06:55 18.02.2020
2728 Clouds 13 1031 66 10000 3.6 40 06:29 18.02.2020
2729 Clouds 13 1031 66 10000 3.6 40 06:29 18.02.2020
2730 Clouds 13 1030 76 10000 4.1 50 05:49 18.02.2020
2731 Clouds 13 1030 71 10000 1 360 05:22 18.02.2020
2732 Clouds 13 1030 66 10000 6.2 50 03:54 18.02.2020
2733 Clouds 14 1030 67 10000 6.2 60 02:58 18.02.2020
2734 Clouds 14 1030 76 10000 5.7 50 01:27 18.02.2020
2735 Clear 13 1030 87 10000 2.1 90 00:43 18.02.2020
2736 Clear 13 1030 87 10000 2.1 90 00:18 18.02.2020
2737 Clouds 13 1029 93 10000 1.5 50 23:40 17.02.2020
2738 Clear 13 1030 93 10000 1 0 23:21 17.02.2020
2739 Clear 13 1029 93 8000 2.1 70 22:58 17.02.2020
2740 Clouds 13 1028 100 10000 1 0 22:40 17.02.2020
2741 Clouds 13 1028 93 10000 2.6 70 22:19 17.02.2020
2742 Clouds 12 1028 93 10000 2.6 80 21:39 17.02.2020
2743 Clear 12 1028 93 9000 1 0 21:39 17.02.2020
2744 Clear 12 1028 93 9000 1 0 21:19 17.02.2020
2745 Clear 12 1027 93 10000 2.1 210 20:57 17.02.2020
2746 Clear 13 1027 87 10000 2.6 200 20:38 17.02.2020
2747 Clouds 13 1026 87 10000 0.5 0 20:19 17.02.2020
2748 Clouds 13 1025 87 10000 1.5 210 19:43 17.02.2020
2749 Clear 14 1026 87 10000 2.1 180 19:22 17.02.2020
2750 Clear 14 1026 82 10000 2.1 150 18:59 17.02.2020
2751 Clouds 15 1025 87 10000 2.1 200 18:37 17.02.2020
2752 Clouds 16 1025 87 10000 3.1 230 18:19 17.02.2020
2753 Clear 17 1025 82 10000 3.6 210 17:54 17.02.2020
2754 Clear 17 1025 82 10000 4.6 210 17:36 17.02.2020
2755 Clear 17 1025 82 10000 4.6 210 17:18 17.02.2020
2756 Clouds 17 1024 82 10000 4.6 230 16:43 17.02.2020
2757 Clear 17 1025 77 10000 5.7 210 16:22 17.02.2020
2758 Clear 17 1025 82 10000 6.2 200 15:58 17.02.2020
2759 Clouds 17 1024 87 10000 5.1 230 15:40 17.02.2020
2760 Clouds 17 1024 82 10000 5.1 230 15:21 17.02.2020
2761 Clouds 17 1024 82 9000 4.6 220 14:44 17.02.2020
2762 Clouds 16 1026 82 10000 5.7 210 14:26 17.02.2020
2763 Clouds 15 1026 82 10000 5.7 210 13:58 17.02.2020
2764 Clouds 16 1025 87 9000 5.7 230 13:39 17.02.2020
2765 Clouds 15 1026 87 9000 5.7 240 13:19 17.02.2020
2766 Clouds 16 1027 82 10000 5.1 210 12:47 17.02.2020
2767 Clouds 16 1026 87 9000 5.7 230 12:47 17.02.2020
2768 Clouds 16 1027 82 10000 5.1 210 12:47 17.02.2020
2769 Clouds 16 1027 82 10000 5.7 210 12:26 17.02.2020
2770 Clouds 15 1027 82 10000 5.1 220 11:59 17.02.2020
2771 Clouds 15 1026 82 10000 4.1 230 11:41 17.02.2020
2772 Clouds 15 1027 87 10000 4.6 220 11:22 17.02.2020
2773 Clouds 15 1027 87 10000 3.6 220 10:56 17.02.2020
2774 Clouds 15 1027 82 10000 3.6 220 10:37 17.02.2020
2775 Clouds 14 1026 82 10000 3.1 220 10:19 17.02.2020
2776 Clouds 14 1026 87 10000 3.6 230 09:42 17.02.2020
2777 Clouds 14 1027 82 10000 3.6 220 09:23 17.02.2020
2778 Clouds 14 1027 82 10000 3.1 230 08:59 17.02.2020
2779 Clouds 13 1027 87 10000 3.6 240 08:41 17.02.2020
2780 Clouds 14 1027 87 10000 3.6 240 08:21 17.02.2020
2781 Clouds 13 1027 87 10000 2.6 220 07:54 17.02.2020
2782 Clouds 13 1026 82 10000 1.5 250 07:26 17.02.2020
2783 Clouds 13 1027 82 10000 2.6 260 06:53 17.02.2020
2784 Clouds 14 1027 82 10000 2.1 260 06:33 17.02.2020
2785 Clouds 14 1027 82 10000 3.1 230 05:59 17.02.2020
2786 Clouds 13 1026 87 10000 2.6 210 05:38 17.02.2020
2787 Clouds 14 1027 82 10000 2.1 270 03:24 17.02.2020
2788 Clouds 14 1028 87 10000 1.5 210 02:19 17.02.2020
2789 Clouds 14 1028 76 10000 1.5 230 00:55 17.02.2020
2790 Clouds 14 1028 82 10000 2.1 230 00:25 17.02.2020
2791 Clouds 14 1029 82 10000 1 220 23:56 16.02.2020
2792 Clouds 14 1029 82 10000 1.5 210 23:34 16.02.2020
2793 Clouds 14 1029 82 10000 1 0 22:59 16.02.2020
2794 Clouds 14 1028 82 10000 2.1 190 22:39 16.02.2020
2795 Clouds 14 1028 82 10000 2.1 190 22:39 16.02.2020
2796 Clouds 14 1029 82 10000 2.1 190 22:21 16.02.2020
2797 -273 0 0 0 0 0 21:59 16.02.2020
2798 Clouds 14 1029 82 10000 2.1 200 21:41 16.02.2020
2799 Clouds 14 1029 82 10000 2.1 200 21:23 16.02.2020
2800 Clouds 14 1029 82 10000 1 0 20:58 16.02.2020
2801 Clouds 14 1028 82 10000 1.5 190 20:40 16.02.2020
2802 Clouds 14 1028 82 10000 1.5 190 20:40 16.02.2020
2803 Clouds 14 1028 82 10000 1.5 190 20:40 16.02.2020
2804 Clouds 14 1028 82 10000 1.5 190 20:40 16.02.2020
2805 Clouds 14 1028 82 10000 1.5 190 20:40 16.02.2020
2806 Clear 14 1029 82 10000 2.6 190 20:22 16.02.2020
2807 Clear 14 1029 76 10000 1 0 19:59 16.02.2020
2808 Clear 14 1028 82 10000 2.6 230 19:40 16.02.2020
2809 Clear 14 1028 82 10000 2.6 230 19:19 16.02.2020
2810 Clear 14 1028 82 10000 2.6 230 19:19 16.02.2020
2811 Clear 14 1028 82 10000 2.1 210 18:58 16.02.2020
2812 Clouds 14 1027 82 10000 2.6 180 18:40 16.02.2020
2813 Clouds 14 1027 77 10000 2.1 210 18:21 16.02.2020
2814 Clouds 14 1027 77 10000 3.1 230 17:43 16.02.2020
2815 Clear 15 1028 76 10000 3.1 230 17:20 16.02.2020
2816 Clear 15 1028 76 10000 3.1 230 17:20 16.02.2020
2817 Clear 15 1028 76 10000 2.6 200 16:56 16.02.2020
2818 Clouds 16 1027 77 10000 2.6 240 16:38 16.02.2020
2819 Clouds 16 1027 77 10000 2.6 240 16:38 16.02.2020
2820 Clouds 16 1027 77 10000 2.6 230 16:20 16.02.2020
2821 Clear 16 1028 72 10000 3.1 200 15:56 16.02.2020
2822 Clear 16 1028 72 10000 3.6 200 15:37 16.02.2020
2823 Clear 16 1028 72 10000 3.6 200 15:18 16.02.2020
2824 Clear 16 1029 76 10000 3.6 210 14:38 16.02.2020
2825 Clouds 16 1029 76 10000 3.6 210 14:19 16.02.2020
2826 Clouds 15 1028 77 10000 4.1 220 13:45 16.02.2020
2827 Clear 15 1029 76 10000 3.6 210 13:24 16.02.2020
2828 Clear 15 1030 76 10000 3.6 210 12:55 16.02.2020
2829 Clear 15 1030 76 10000 3.6 210 12:36 16.02.2020
2830 Clouds 15 1029 77 10000 3.1 220 12:18 16.02.2020
2831 Clouds 15 1029 77 10000 3.6 220 11:38 16.02.2020
2832 Clear 15 1030 76 10000 2.6 210 11:18 16.02.2020
2833 Clear 14 1030 76 10000 3.1 220 10:56 16.02.2020
2834 Clear 14 1030 76 10000 3.1 200 10:38 16.02.2020
2835 Clear 14 1030 76 10000 3.1 200 10:19 16.02.2020
2836 Clouds 14 1028 76 10000 3.1 190 09:55 16.02.2020
2837 Clear 14 1029 82 10000 1.5 240 09:36 16.02.2020
2838 Clear 14 1029 82 10000 1.5 240 09:18 16.02.2020
2839 Clouds 14 1028 82 10000 1.5 200 08:44 16.02.2020
2840 Clear 13 1029 82 10000 1.5 200 08:21 16.02.2020
2841 Clear 13 1029 82 10000 1.5 200 08:21 16.02.2020
2842 Clear 13 1029 82 10000 1.5 240 07:52 16.02.2020
2843 Clear 13 1028 82 10000 2.1 210 07:34 16.02.2020
2844 Clear 13 1029 82 10000 1.5 220 06:33 16.02.2020
2845 Clear 13 1029 82 10000 0.5 0 04:44 16.02.2020
2846 Clear 13 1029 82 10000 1 0 03:31 16.02.2020
2847 Clear 13 1029 82 10000 1 0 02:32 16.02.2020
2848 Clear 13 1029 82 10000 2.6 210 01:43 16.02.2020
2849 Clear 13 1029 87 10000 1.5 200 01:23 16.02.2020
2850 Clear 13 1029 82 10000 2.6 230 00:53 16.02.2020
2851 Clear 13 1029 82 10000 1 0 00:33 16.02.2020
2852 Clear 14 1029 82 10000 2.1 200 23:58 15.02.2020
2853 Clouds 13 1029 82 10000 1 240 23:40 15.02.2020
2854 Clouds 14 1029 87 10000 2.6 240 23:22 15.02.2020
2855 Clear 14 1029 82 10000 3.1 210 22:56 15.02.2020
2856 Clear 14 1029 82 10000 1.5 210 22:37 15.02.2020
2857 Clear 14 1029 82 10000 1.5 210 22:18 15.02.2020
2858 Clouds 14 1028 87 10000 1.5 160 21:42 15.02.2020
2859 Clear 14 1029 82 10000 1 0 21:23 15.02.2020
2860 Clouds 14 1027 87 10000 1.5 170 20:42 15.02.2020
2861 Clear 14 1028 82 10000 1.5 170 20:21 15.02.2020
2862 Clear 14 1028 87 10000 2.1 180 19:59 15.02.2020
2863 Clouds 14 1027 87 10000 2.1 150 19:40 15.02.2020
2864 Clear 14 1028 87 10000 2.6 180 19:21 15.02.2020
2865 Clouds 14 1027 82 10000 2.6 210 18:40 15.02.2020
2866 Clear 15 1028 82 10000 3.1 190 18:20 15.02.2020
2867 Clear 16 1028 82 10000 4.1 200 17:55 15.02.2020
2868 Clouds 16 1027 82 10000 3.1 220 17:37 15.02.2020
2869 Clouds 17 1027 77 10000 3.1 220 17:18 15.02.2020
2870 Clear 17 1027 77 10000 4.1 210 16:39 15.02.2020
2871 Clear 17 1027 77 10000 4.1 210 16:20 15.02.2020
2872 Clear 17 1027 72 10000 4.1 210 15:49 15.02.2020
2873 Clear 17 1027 77 10000 5.1 210 15:31 15.02.2020
2874 Clear 17 1027 72 10000 4.6 200 14:57 15.02.2020
2875 Clouds 17 1026 77 10000 4.1 210 14:38 15.02.2020
2876 Clear 17 1027 77 10000 4.1 210 14:18 15.02.2020
2877 Clouds 17 1027 77 10000 3.6 240 13:41 15.02.2020
2878 Clear 17 1028 77 10000 3.6 210 13:22 15.02.2020
2879 Clear 16 1028 82 10000 3.1 200 12:56 15.02.2020
2880 Clouds 17 1027 77 10000 3.6 240 12:38 15.02.2020
2881 Clear 17 1028 77 10000 3.6 230 12:19 15.02.2020
2882 Clouds 16 1027 82 8000 2.1 230 11:45 15.02.2020
2883 Clear 15 1028 77 10000 1 0 11:25 15.02.2020
2884 Clear 15 1028 82 10000 1.5 320 10:47 15.02.2020
2885 Clear 14 1028 87 10000 2.1 330 10:29 15.02.2020
2886 Clear 14 1028 87 10000 3.1 350 09:55 15.02.2020
2887 Clouds 13 1027 87 8000 0.5 340 09:36 15.02.2020
2888 Clear 13 1028 87 10000 2.6 340 09:18 15.02.2020
2889 Clouds 12 1026 93 8000 1.5 340 08:41 15.02.2020
2890 Clear 12 1027 87 10000 3.1 340 08:23 15.02.2020
2891 Clouds 11 1026 93 9000 1.5 330 07:45 15.02.2020
2892 Clear 11 1026 93 9000 2.6 350 07:27 15.02.2020
2893 Clouds 11 1025 93 9000 1 360 06:45 15.02.2020
2894 Mist 12 1025 93 5000 0.5 0 06:26 15.02.2020
2895 Mist 11 1026 93 4200 2.1 350 05:31 15.02.2020
2896 Mist 11 1025 100 5000 1 60 04:45 15.02.2020
2897 Fog 11 1026 100 450 0.5 0 03:23 15.02.2020
2898 Clouds 12 1025 93 9000 1 0 02:42 15.02.2020
2899 Mist 12 1026 93 2000 1 0 02:21 15.02.2020
2900 Mist 13 1027 87 4400 1.5 330 01:39 15.02.2020
2901 Clouds 13 1025 93 10000 1 0 00:41 15.02.2020
2902 Clouds 14 1026 87 10000 0.5 0 00:19 15.02.2020
2903 Clear 14 1026 87 7000 1 0 23:39 14.02.2020
2904 Clear 14 1026 87 8000 1 0 23:19 14.02.2020
2905 Clear 14 1026 87 8000 1 0 22:44 14.02.2020
2906 Clear 14 1026 87 8000 1 0 22:23 14.02.2020
2907 Clear 14 1026 93 8000 1.5 260 21:52 14.02.2020
2908 Clear 14 1026 93 9000 1 140 21:34 14.02.2020
2909 Clear 15 1026 87 9000 1.5 170 20:59 14.02.2020
2910 Clouds 15 1025 93 10000 0.5 0 20:41 14.02.2020
2911 Clear 15 1026 87 10000 1 0 20:19 14.02.2020
2912 Clear 15 1026 87 9000 1 0 19:54 14.02.2020
2913 Clear 15 1025 93 10000 1.5 180 19:36 14.02.2020
2914 Clouds 15 1024 93 10000 0.5 220 19:18 14.02.2020
2915 Clear 15 1025 87 10000 1.5 180 18:54 14.02.2020
2916 Clear 15 1025 87 10000 2.6 190 18:36 14.02.2020
2917 Clear 15 1025 87 10000 2.6 190 18:18 14.02.2020
2918 Clouds 16 1024 87 10000 3.1 230 17:40 14.02.2020
2919 Clouds 16 1024 87 10000 3.6 220 17:19 14.02.2020
2920 Clouds 17 1024 88 10000 3.6 230 16:43 14.02.2020
2921 Clear 18 1025 87 10000 3.6 200 16:25 14.02.2020
2922 Clear 18 1025 82 10000 4.1 200 15:59 14.02.2020
2923 Clouds 18 1024 88 10000 3.6 220 15:41 14.02.2020
2924 Clear 18 1025 82 10000 4.1 210 15:21 14.02.2020
2925 Clear 18 1025 82 10000 3.1 200 14:59 14.02.2020
2926 Clouds 18 1025 82 10000 2.6 240 14:41 14.02.2020
2927 Clear 18 1026 82 10000 2.6 190 14:22 14.02.2020
2928 Clear 18 1026 82 10000 1.5 180 13:58 14.02.2020
2929 Clouds 17 1025 82 10000 1 0 13:39 14.02.2020
2930 Clear 16 1026 82 10000 1.5 210 13:20 14.02.2020
2931 Clear 16 1027 87 9000 1.5 190 12:57 14.02.2020
2932 Fog 16 1026 87 10000 1.5 200 12:38 14.02.2020
2933 Fog 16 1026 87 6000 1 260 12:20 14.02.2020
2934 Mist 16 1027 93 3700 1.5 200 11:57 14.02.2020
2935 Mist 15 1027 100 2000 0.5 0 11:39 14.02.2020
2936 Mist 15 1027 100 2000 0.5 0 11:20 14.02.2020
2937 Mist 14 1026 100 1200 0.5 160 10:44 14.02.2020
2938 Fog 14 1026 100 350 1 0 10:25 14.02.2020
2939 Fog 14 1026 100 150 1 0 09:56 14.02.2020
2940 Fog 13 1026 100 100 0.5 0 09:37 14.02.2020
2941 Fog 13 1026 100 100 0.5 0 09:19 14.02.2020
2942 Fog 13 1025 100 700 1.5 330 08:40 14.02.2020
2943 Fog 11 1024 100 700 1.5 330 08:22 14.02.2020
2944 Fog 12 1025 93 100 0.5 0 07:50 14.02.2020
2945 Fog 11 1025 93 100 1 0 07:31 14.02.2020
2946 Fog 12 1025 93 100 0.5 0 06:54 14.02.2020
2947 Fog 12 1024 100 300 1.5 330 06:22 14.02.2020
2948 Fog 11 1023 100 7000 0.55 4 05:42 14.02.2020
2949 Clear 11 1024 93 8000 1 0 03:52 14.02.2020
2950 Clear 11 1024 93 8000 1 0 03:52 14.02.2020
2951 Clear 11 1024 93 7000 1 0 03:28 14.02.2020
2952 Clouds 10 1023 100 10000 1 0 02:19 14.02.2020
2953 Clouds 11 1023 100 10000 1 0 01:22 14.02.2020
2954 Clouds 12 1023 93 10000 2.1 200 00:42 14.02.2020
2955 Clear 13 1024 93 5000 0.5 0 00:21 14.02.2020
2956 Clouds 13 1023 87 10000 2.1 190 23:42 13.02.2020
2957 Clear 13 1024 93 7000 1 10 23:19 13.02.2020
2958 Clouds 14 1023 87 10000 2.6 210 22:42 13.02.2020
2959 Clear 14 1024 93 10000 1 0 22:20 13.02.2020
2960 Clear 14 1024 87 10000 1 0 21:59 13.02.2020
2961 Clouds 14 1023 93 10000 3.1 230 21:40 13.02.2020
2962 Clear 14 1024 87 10000 2.6 220 21:22 13.02.2020
2963 Clear 14 1023 87 10000 4.1 220 20:56 13.02.2020
2964 Clear 14 1023 87 10000 3.6 220 20:38 13.02.2020
2965 Clouds 14 1023 87 10000 3.6 220 20:19 13.02.2020
2966 Clouds 14 1023 87 10000 4.1 220 19:55 13.02.2020
2967 Clouds 15 1022 87 10000 4.6 240 19:36 13.02.2020
2968 Clouds 15 1022 87 10000 5.1 250 19:18 13.02.2020
2969 Clouds 15 1023 87 10000 4.6 230 19:18 13.02.2020
2970 Clouds 15 1022 82 10000 5.7 220 18:42 13.02.2020
2971 Clouds 16 1022 82 10000 5.7 220 18:23 13.02.2020
2972 Clouds 16 1022 77 10000 5.7 230 17:58 13.02.2020
2973 -273 0 0 0 0 0 17:39 13.02.2020
2974 -273 0 0 0 0 0 17:39 13.02.2020
2975 Clouds 17 1022 77 10000 5.7 220 17:20 13.02.2020
2976 Clouds 17 1022 77 10000 5.7 220 17:20 13.02.2020
2977 Clouds 17 1022 72 10000 6.2 220 16:58 13.02.2020
2978 Clouds 17 1022 72 10000 7.2 210 16:37 13.02.2020
2979 Clouds 17 1021 82 10000 5.7 220 16:19 13.02.2020
2980 Clouds 17 1022 72 10000 7.2 210 16:19 13.02.2020
2981 Clouds 17 1022 72 10000 7.2 210 15:56 13.02.2020
2982 Clouds 17 1022 72 10000 5.7 210 15:37 13.02.2020
2983 Clouds 17 1022 72 10000 5.7 210 15:19 13.02.2020
2984 Clouds 17 1022 72 10000 5.1 190 14:55 13.02.2020
2985 Clouds 18 1023 77 10000 4.6 210 14:37 13.02.2020
2986 Clouds 17 1022 68 10000 3.6 220 14:19 13.02.2020
2987 Clouds 18 1022 68 10000 3.1 220 13:42 13.02.2020
2988 Clouds 18 1024 67 10000 1 200 13:18 13.02.2020
2989 Clouds 18 1024 67 10000 1 200 12:55 13.02.2020
2990 Clouds 18 1024 67 10000 1 230 12:37 13.02.2020
2991 Clouds 17 1023 77 10000 2.1 280 12:18 13.02.2020
2992 Clouds 15 1024 82 10000 1.5 330 11:43 13.02.2020
2993 Clouds 15 1024 82 10000 1.5 330 11:43 13.02.2020
2994 Clouds 15 1023 87 10000 0.5 0 11:43 13.02.2020
2995 Clouds 15 1023 82 10000 1 0 11:20 13.02.2020
2996 Clouds 14 1022 87 10000 0.5 0 10:46 13.02.2020
2997 Clouds 13 1023 82 10000 1.5 350 10:27 13.02.2020
2998 Clouds 12 1022 93 10000 1 350 09:55 13.02.2020
2999 Clouds 12 1023 87 10000 1.5 10 09:36 13.02.2020
3000 Clouds 12 1023 87 10000 1.5 10 09:18 13.02.2020
3001 Clouds 12 1022 93 10000 1 20 09:18 13.02.2020
3002 Clouds 11 1023 93 10000 1 0 08:37 13.02.2020
3003 Clouds 11 1023 93 10000 1 0 08:19 13.02.2020
3004 Clouds 11 1021 100 10000 1 0 07:40 13.02.2020
3005 Clouds 11 1022 93 10000 2.6 350 07:21 13.02.2020
3006 Clouds 11 1022 100 10000 0.5 120 06:44 13.02.2020
3007 Clouds 12 1023 93 10000 2.1 350 06:21 13.02.2020
3008 Clouds 12 1023 93 10000 1 340 05:37 13.02.2020
3009 Clouds 13 1023 87 10000 0.5 0 04:28 13.02.2020
3010 Clouds 13 1023 82 10000 1 0 03:52 13.02.2020
3011 Clouds 13 1023 87 10000 1.5 50 03:26 13.02.2020
3012 Clouds 13 1024 87 10000 1 0 02:53 13.02.2020
3013 Clouds 13 1024 87 10000 2.6 50 02:19 13.02.2020
3014 Clouds 13 1024 87 10000 3.1 50 01:36 13.02.2020
3015 Clouds 14 1023 93 10000 2.6 60 00:43 13.02.2020
3016 Clouds 14 1024 87 10000 3.1 50 00:22 13.02.2020
3017 Clouds 14 1024 93 10000 2.1 70 23:42 12.02.2020
3018 Clouds 14 1025 87 10000 3.1 70 23:23 12.02.2020
3019 Clouds 14 1025 82 10000 2.6 60 22:54 12.02.2020
3020 Clouds 14 1025 87 10000 2.6 60 22:36 12.02.2020
3021 Clouds 14 1025 87 10000 2.6 60 22:18 12.02.2020
3022 Clouds 14 1025 82 10000 2.6 80 21:55 12.02.2020
3023 Clouds 14 1025 82 10000 3.1 60 21:36 12.02.2020
3024 Clouds 14 1025 82 10000 3.1 60 21:18 12.02.2020
3025 Clouds 14 1024 87 10000 1 0 20:42 12.02.2020
3026 Clouds 15 1025 82 10000 2.6 60 20:23 12.02.2020
3027 Clouds 15 1025 82 10000 3.1 70 19:57 12.02.2020
3028 Clouds 15 1024 82 10000 1.5 80 19:38 12.02.2020
3029 Clouds 15 1025 82 10000 3.6 70 19:20 12.02.2020
3030 Clouds 15 1024 77 10000 2.1 60 18:49 12.02.2020
3031 Clouds 15 1023 77 10000 2.1 100 18:20 12.02.2020
3032 Clouds 15 1024 77 10000 3.1 120 17:58 12.02.2020
3033 Clouds 16 1023 77 10000 2.6 120 17:38 12.02.2020
3034 Clouds 16 1024 77 10000 2.6 140 17:19 12.02.2020
3035 Clouds 16 1024 72 10000 3.1 130 16:55 12.02.2020
3036 Clouds 16 1024 72 10000 3.1 120 16:36 12.02.2020
3037 Clouds 16 1024 72 10000 3.1 120 16:18 12.02.2020
3038 Clouds 17 1024 72 10000 4.1 130 15:38 12.02.2020
3039 Clouds 17 1024 72 10000 4.1 130 15:19 12.02.2020
3040 Clouds 17 1024 72 10000 4.6 130 14:42 12.02.2020
3041 Clouds 17 1025 77 10000 5.1 110 14:21 12.02.2020
3042 Clouds 18 1025 72 10000 4.1 90 13:59 12.02.2020
3043 Clouds 17 1025 72 10000 4.6 110 13:40 12.02.2020
3044 Clouds 17 1025 72 10000 4.6 110 13:22 12.02.2020
3045 Clouds 17 1026 72 10000 4.1 70 12:58 12.02.2020
3046 Clouds 18 1026 72 10000 3.1 70 12:39 12.02.2020
3047 Clouds 18 1026 72 10000 3.1 70 12:19 12.02.2020
3048 Clouds 17 1026 77 10000 3.1 60 11:59 12.02.2020
3049 Clouds 17 1026 82 10000 3.6 70 11:40 12.02.2020
3050 Clouds 16 1026 82 10000 3.6 70 11:21 12.02.2020
3051 Clouds 16 1026 82 10000 3.6 60 10:58 12.02.2020
3052 Clouds 15 1026 87 8000 2.6 40 10:40 12.02.2020
3053 Clouds 15 1026 87 8000 2.6 40 10:20 12.02.2020
3054 Clouds 14 1026 87 10000 2.1 20 09:54 12.02.2020
3055 Clouds 14 1025 93 7000 2.1 60 09:36 12.02.2020
3056 Clouds 13 1026 87 10000 2.1 360 09:18 12.02.2020
3057 Clouds 13 1026 87 10000 1.5 350 08:55 12.02.2020
3058 Clouds 12 1025 93 6000 1.5 80 08:36 12.02.2020
3059 Clouds 12 1025 93 10000 2.1 360 08:18 12.02.2020
3060 Clouds 12 1025 93 10000 1.5 250 07:41 12.02.2020
3061 Clouds 12 1025 93 10000 1.5 250 07:20 12.02.2020
3062 Clouds 12 1025 87 10000 0.5 160 06:47 12.02.2020
3063 Clouds 12 1024 87 10000 1 50 06:20 12.02.2020
3064 Clouds 11 1024 93 10000 1.5 50 05:33 12.02.2020
3065 Clouds 10 1023 100 10000 3.26 57 04:43 12.02.2020
3066 Clouds 11 1024 87 10000 2.1 360 04:24 12.02.2020
3067 Clouds 11 1024 87 10000 2.6 360 03:31 12.02.2020
3068 Clouds 11 1023 100 10000 1.5 80 02:54 12.02.2020
3069 Clouds 11 1025 87 10000 1.5 360 02:27 12.02.2020
3070 Clouds 13 1024 100 10000 1.91 132 01:40 12.02.2020
3071 Clouds 12 1024 93 10000 0.5 40 00:44 12.02.2020
3072 Clouds 12 1025 87 10000 1 0 00:25 12.02.2020
3073 Clouds 12 1025 87 10000 1.5 350 23:55 11.02.2020
3074 Clouds 12 1026 87 10000 1.5 360 23:36 11.02.2020
3075 Clouds 12 1025 93 10000 0.5 70 23:18 11.02.2020
3076 Clouds 13 1024 93 10000 1 40 22:42 11.02.2020
3077 Clouds 13 1024 93 10000 2.05 66 22:21 11.02.2020
3078 Clouds 14 1025 81 10000 1 340 21:57 11.02.2020
3079 Clouds 14 1025 76 10000 2.6 340 21:39 11.02.2020
3080 Clouds 14 1025 76 10000 2.6 340 21:19 11.02.2020
3081 Clouds 14 1024 82 10000 1.5 340 20:59 11.02.2020
3082 Clouds 15 1024 77 10000 1.5 360 20:39 11.02.2020
3083 Clouds 15 1024 77 10000 1.5 360 20:20 11.02.2020
3084 Clouds 16 1024 72 10000 2.1 40 19:58 11.02.2020
3085 Clouds 16 1023 82 10000 2.1 130 19:40 11.02.2020
3086 Clouds 16 1024 72 10000 2.6 90 19:22 11.02.2020
3087 Clouds 17 1024 72 10000 3.1 50 18:46 11.02.2020
3088 Clouds 17 1023 82 10000 1 0 18:28 11.02.2020
3089 Clouds 17 1023 82 10000 1.5 100 17:59 11.02.2020
3090 Clouds 18 1023 77 10000 2.1 150 17:40 11.02.2020
3091 Clouds 18 1022 88 10000 2.6 220 17:21 11.02.2020
3092 Clouds 18 1023 72 10000 2.1 160 16:59 11.02.2020
3093 Clouds 19 1023 77 10000 2.6 170 16:40 11.02.2020
3094 Clouds 19 1023 77 10000 2.6 170 16:22 11.02.2020
3095 Clouds 19 1023 77 10000 3.1 180 15:59 11.02.2020
3096 Clouds 20 1023 77 10000 3.1 180 15:41 11.02.2020
3097 Clouds 20 1023 77 10000 3.1 180 15:21 11.02.2020
3098 Clouds 20 1024 82 10000 4.6 200 14:43 11.02.2020
3099 Clouds 20 1024 82 10000 4.6 200 14:43 11.02.2020
3100 Clouds 19 1024 82 10000 4.6 200 14:19 11.02.2020
3101 Clouds 19 1024 68 10000 2.1 170 13:58 11.02.2020
3102 Clouds 19 1025 77 10000 2.1 190 13:39 11.02.2020
3103 Clouds 19 1025 77 10000 2.1 190 13:20 11.02.2020
3104 Clouds 18 1025 77 10000 1.5 180 12:57 11.02.2020
3105 Clouds 18 1025 77 10000 1 0 12:38 11.02.2020
3106 Clouds 17 1024 82 10000 1 0 12:19 11.02.2020
3107 Clouds 17 1026 87 10000 1.5 190 11:41 11.02.2020
3108 Clouds 16 1026 87 10000 1.5 190 11:20 11.02.2020
3109 Clouds 15 1025 93 10000 0.5 0 11:20 11.02.2020
3110 Clouds 15 1025 93 10000 1 0 10:55 11.02.2020
3111 Clouds 15 1025 93 10000 1.5 360 10:37 11.02.2020
3112 Clouds 14 1025 93 10000 1.5 360 10:19 11.02.2020
3113 Clouds 14 1025 100 10000 1 0 09:55 11.02.2020
3114 Clouds 13 1024 100 7000 0.82 258 09:37 11.02.2020
3115 Clouds 13 1025 100 10000 2.1 340 09:18 11.02.2020
3116 Fog 12 1024 100 900 1 60 08:42 11.02.2020
3117 Fog 11 1025 93 500 1 0 08:23 11.02.2020
3118 Fog 10 1025 93 100 1 20 07:48 11.02.2020
3119 Fog 10 1025 100 450 0.5 0 07:26 11.02.2020
3120 Fog 10 1024 100 200 0.9 257 06:44 11.02.2020
3121 Clear 9 1025 100 10000 1.5 360 06:22 11.02.2020
3122 Clear 9 1025 100 10000 1 360 05:56 11.02.2020
3123 Clear 10 1025 93 8000 1 360 05:24 11.02.2020
3124 Fog 10 1024 100 250 1.76 273 04:40 11.02.2020
3125 Fog 11 1025 100 1300 1.76 273 03:21 11.02.2020
3126 Clear 11 1027 93 10000 2.1 360 02:32 11.02.2020
3127 Clear 10 1027 93 10000 1.5 350 01:38 11.02.2020
3128 Clear 11 1028 93 10000 1.5 350 00:41 11.02.2020
3129 Clear 11 1028 93 10000 1.5 350 00:20 11.02.2020
3130 Clouds 11 1027 100 8000 2.48 257 23:39 10.02.2020
3131 Clear 12 1028 100 8000 1 60 23:20 10.02.2020
3132 Clouds 13 1027 93 10000 3.96 239 22:42 10.02.2020
3133 Clear 14 1028 93 10000 0.5 0 22:21 10.02.2020
3134 Clear 14 1028 100 8000 1 60 21:57 10.02.2020
3135 Clouds 13 1027 87 10000 3.1 180 21:39 10.02.2020
3136 Clear 13 1028 100 9000 1 0 21:20 10.02.2020
3137 Clear 15 1028 93 10000 1.5 180 20:54 10.02.2020
3138 Clear 14 1028 93 10000 1 0 20:36 10.02.2020
3139 Clear 14 1028 87 10000 2.6 190 20:18 10.02.2020
3140 Clear 14 1028 87 10000 2.6 190 19:54 10.02.2020
3141 Clear 14 1028 93 10000 3.1 210 19:36 10.02.2020
3142 Clear 14 1028 93 10000 3.1 210 19:36 10.02.2020
3143 Clear 14 1028 93 10000 3.1 210 19:36 10.02.2020
3144 Clear 15 1028 93 10000 3.1 210 19:18 10.02.2020
3145 Clouds 15 1027 93 10000 3.1 240 18:41 10.02.2020
3146 Clear 16 1027 87 10000 4.6 210 18:22 10.02.2020
3147 Clear 16 1027 82 10000 6.2 220 17:59 10.02.2020
3148 Clouds 16 1026 87 10000 5.7 220 17:39 10.02.2020
3149 Clear 17 1027 82 10000 6.2 220 17:21 10.02.2020
3150 Clear 17 1028 77 10000 6.7 220 16:59 10.02.2020
3151 Clouds 17 1027 82 10000 6.2 210 16:40 10.02.2020
3152 Clear 18 1028 77 10000 6.7 200 16:20 10.02.2020
3153 Clear 18 1028 77 10000 6.7 200 16:20 10.02.2020
3154 Clear 18 1028 77 10000 6.7 200 15:58 10.02.2020
3155 Clear 18 1027 88 10000 6.2 210 15:39 10.02.2020
3156 Clear 19 1028 63 10000 6.7 220 15:21 10.02.2020
3157 Clear 19 1029 59 10000 6.2 220 14:57 10.02.2020
3158 Clear 19 1028 77 10000 5.7 210 14:39 10.02.2020
3159 Clouds 19 1029 52 10000 6.2 240 14:19 10.02.2020
3160 Clouds 18 1029 59 10000 6.2 230 13:44 10.02.2020
3161 Clouds 19 1030 55 10000 6.2 230 13:25 10.02.2020
3162 Clouds 18 1030 68 10000 7.2 210 12:57 10.02.2020
3163 Clouds 18 1029 82 10000 7.2 230 12:39 10.02.2020
3164 Clouds 18 1031 77 10000 6.7 210 12:20 10.02.2020
3165 Clouds 17 1030 82 10000 6.2 240 11:45 10.02.2020
3166 Clouds 17 1030 82 10000 6.7 240 11:21 10.02.2020
3167 Clouds 16 1031 82 10000 4.6 240 10:57 10.02.2020
3168 Clouds 16 1031 87 10000 5.1 230 10:38 10.02.2020
3169 Clouds 16 1031 87 10000 5.1 230 10:20 10.02.2020
3170 Clouds 16 1029 87 10000 5.7 240 09:42 10.02.2020
3171 Clouds 14 1029 93 10000 5.1 230 09:23 10.02.2020
3172 Clouds 13 1029 100 10000 5.96 235 08:41 10.02.2020
3173 Clouds 11 1030 93 10000 1 20 08:22 10.02.2020
3174 Clouds 11 1029 100 10000 1.5 230 07:55 10.02.2020
3175 Clouds 11 1030 93 10000 1 0 07:35 10.02.2020
3176 Clouds 11 1030 93 10000 1.5 360 06:50 10.02.2020
3177 Clouds 12 1030 93 10000 2.1 360 05:40 10.02.2020
3178 Clouds 13 1030 93 10000 0.5 0 03:59 10.02.2020
3179 Clouds 12 1031 93 10000 1 0 03:28 10.02.2020
3180 Clouds 12 1030 93 10000 3.1 230 02:53 10.02.2020
3181 Clouds 13 1032 93 8000 1 0 01:34 10.02.2020
3182 Clouds 14 1032 93 10000 2.1 200 00:46 10.02.2020
3183 Clouds 14 1032 93 10000 1 280 00:27 10.02.2020
3184 Clouds 15 1031 93 10000 3.1 240 23:44 09.02.2020
3185 Clouds 14 1032 87 10000 1 0 23:26 09.02.2020
3186 Clear 14 1032 87 10000 0.5 0 22:57 09.02.2020
3187 Clear 14 1032 93 10000 1.5 280 22:37 09.02.2020
3188 Clear 14 1032 93 10000 1.5 280 22:19 09.02.2020
3189 Clear 14 1032 87 10000 1 0 21:41 09.02.2020
3190 Clouds 15 1031 93 10000 2.6 170 21:22 09.02.2020
3191 Clouds 15 1031 93 10000 1.5 170 20:46 09.02.2020
3192 Clear 14 1032 87 10000 1.5 210 20:23 09.02.2020
3193 Clear 15 1032 87 10000 1 240 19:57 09.02.2020
3194 Clouds 15 1031 93 10000 0.5 0 19:38 09.02.2020
3195 Clear 15 1031 93 10000 2.1 200 19:20 09.02.2020
3196 Clear 15 1031 82 10000 2.1 210 18:42 09.02.2020
3197 Clear 15 1031 82 10000 2.1 210 18:24 09.02.2020
3198 Clear 16 1031 82 10000 3.1 210 17:59 09.02.2020
3199 Clouds 16 1030 87 10000 3.1 230 17:39 09.02.2020
3200 Clear 16 1031 82 10000 2.6 200 17:21 09.02.2020
3201 Clear 16 1030 77 10000 5.1 200 16:43 09.02.2020
3202 Clear 16 1030 77 10000 5.1 200 16:24 09.02.2020
3203 Clear 17 1030 82 10000 4.6 210 15:59 09.02.2020
3204 Clear 17 1030 77 10000 5.1 210 15:41 09.02.2020
3205 Clear 17 1030 77 10000 5.1 210 15:41 09.02.2020
3206 Clear 17 1030 77 10000 5.1 210 15:21 09.02.2020
3207 Clear 17 1031 72 10000 4.1 210 14:57 09.02.2020
3208 Clouds 17 1030 77 10000 3.1 230 14:39 09.02.2020
3209 Clear 17 1031 77 10000 4.6 200 14:20 09.02.2020
3210 Clouds 17 1030 72 10000 3.1 200 13:44 09.02.2020
3211 Clear 17 1031 67 10000 4.1 210 13:26 09.02.2020
3212 Clear 17 1032 59 10000 3.1 210 12:56 09.02.2020
3213 Clear 17 1032 72 10000 2.1 210 12:38 09.02.2020
3214 Clear 17 1032 72 10000 2.1 210 12:18 09.02.2020
3215 Clouds 17 1031 77 10000 3.15 178 11:41 09.02.2020
3216 Clear 15 1032 72 10000 0.5 60 11:22 09.02.2020
3217 Clear 14 1031 71 10000 0.5 0 10:59 09.02.2020
3218 Clouds 13 1030 87 10000 1.49 54 10:40 09.02.2020
3219 Clear 12 1031 81 10000 1 0 10:21 09.02.2020
3220 Clouds 11 1030 100 10000 1.49 54 09:46 09.02.2020
3221 Clear 9 1031 87 10000 2.6 350 09:27 09.02.2020
3222 Clouds 8 1029 100 10000 0.5 0 08:45 09.02.2020
3223 Clear 8 1031 87 10000 1.5 340 08:45 09.02.2020
3224 Clear 7 1030 93 10000 2.1 360 08:27 09.02.2020
3225 Clouds 7 1030 93 10000 2.1 360 07:59 09.02.2020
3226 Clouds 7 1029 93 10000 2.6 360 07:39 09.02.2020
3227 Clouds 7 1028 100 10000 1.5 60 06:48 09.02.2020
3228 Clouds 7 1029 93 10000 2.6 360 06:28 09.02.2020
3229 Clouds 8 1027 93 10000 2.35 62 05:43 09.02.2020
3230 Clouds 8 1028 87 10000 2.6 360 05:18 09.02.2020
3231 Clouds 8 1028 93 10000 2.1 10 03:53 09.02.2020
3232 Clouds 9 1027 93 10000 0.5 0 02:46 09.02.2020
3233 Clouds 8 1028 93 10000 1 0 02:26 09.02.2020
3234 Clouds 9 1028 87 10000 2.6 10 01:35 09.02.2020
3235 Clouds 9 1028 93 10000 1.5 340 00:48 09.02.2020
3236 Clouds 8 1029 87 10000 3.1 330 00:27 09.02.2020
3237 Clouds 9 1027 100 10000 0.5 50 23:44 08.02.2020
3238 Clear 9 1028 87 10000 2.6 350 23:22 08.02.2020
3239 Clear 10 1028 81 10000 2.1 330 22:55 08.02.2020
3240 Clear 9 1028 87 10000 2.6 350 22:36 08.02.2020
3241 Clouds 9 1027 100 10000 1 350 22:18 08.02.2020
3242 Clouds 10 1027 93 10000 0.5 50 21:41 08.02.2020
3243 Clear 11 1027 87 10000 2.1 20 21:23 08.02.2020
3244 Clear 11 1027 81 10000 1 0 20:58 08.02.2020
3245 Clear 12 1027 76 10000 2.1 340 20:39 08.02.2020
3246 Clear 11 1027 76 10000 2.1 340 20:19 08.02.2020
3247 Clear 12 1027 71 10000 1.5 340 19:56 08.02.2020
3248 Clear 12 1026 66 10000 0.5 0 19:38 08.02.2020
3249 Clear 13 1026 66 10000 0.5 0 19:19 08.02.2020
3250 Clouds 13 1025 82 10000 3.1 240 18:43 08.02.2020
3251 Clear 14 1025 58 10000 1.5 310 18:24 08.02.2020
3252 Clear 15 1025 54 10000 3.1 300 17:58 08.02.2020
3253 Clear 15 1025 58 10000 2.6 330 17:40 08.02.2020
3254 Clear 15 1025 58 10000 2.6 330 17:18 08.02.2020
3255 Clouds 15 1024 77 10000 4.1 220 16:40 08.02.2020
3256 Clear 16 1025 51 10000 3.1 290 16:22 08.02.2020
3257 Clear 16 1024 67 10000 3.1 190 15:57 08.02.2020
3258 Clear 16 1025 67 10000 4.1 210 15:39 08.02.2020
3259 Clear 16 1025 67 10000 4.1 210 15:18 08.02.2020
3260 Clear 16 1025 63 10000 4.6 210 14:44 08.02.2020
3261 Clear 16 1025 67 10000 4.6 200 14:20 08.02.2020
3262 Clear 15 1025 67 10000 4.6 210 13:57 08.02.2020
3263 Clear 16 1026 63 10000 4.6 200 13:38 08.02.2020
3264 Clear 16 1026 63 10000 4.6 200 13:20 08.02.2020
3265 Clouds 16 1025 63 10000 3.6 240 12:40 08.02.2020
3266 Clear 16 1026 55 10000 1.5 310 12:21 08.02.2020
3267 Clear 15 1026 62 10000 1 0 11:56 08.02.2020
3268 Clear 14 1027 76 10000 1.5 200 11:38 08.02.2020
3269 Clear 14 1027 76 10000 1.5 200 11:19 08.02.2020
3270 Clear 12 1026 81 10000 0.5 0 10:42 08.02.2020
3271 Clear 12 1026 81 10000 0.5 0 10:22 08.02.2020
3272 Clear 11 1026 87 10000 1 0 09:51 08.02.2020
3273 Clear 10 1026 93 10000 1.5 10 09:27 08.02.2020
3274 Clear 10 1026 93 10000 1.5 350 08:54 08.02.2020
3275 Clouds 10 1025 93 10000 1.5 340 08:36 08.02.2020
3276 Clouds 9 1025 93 10000 1.5 340 08:18 08.02.2020
3277 Clouds 9 1024 100 10000 0.5 0 07:44 08.02.2020
3278 Clouds 9 1025 93 10000 1 0 07:19 08.02.2020
3279 Clouds 9 1025 93 10000 0.5 0 06:28 08.02.2020
3280 Clouds 9 1025 93 10000 1.5 10 05:48 08.02.2020
3281 Clouds 9 1025 93 10000 1.5 10 05:48 08.02.2020
3282 Clouds 8 1025 87 10000 1 360 05:29 08.02.2020
3283 Clouds 7 1025 93 10000 1 0 04:49 08.02.2020
3284 Clouds 8 1024 100 10000 1 60 03:51 08.02.2020
3285 Clouds 9 1025 93 10000 0.5 0 02:51 08.02.2020
3286 Clouds 9 1025 93 10000 1.5 360 01:53 08.02.2020
3287 Clouds 9 1025 93 10000 2.1 360 01:24 08.02.2020
3288 Clouds 9 1024 93 10000 1 0 00:39 08.02.2020
3289 Clouds 10 1025 87 10000 2.1 360 00:21 08.02.2020
3290 Clouds 10 1025 87 10000 2.1 350 23:55 07.02.2020
3291 Clouds 10 1024 93 10000 1 0 23:37 07.02.2020
3292 Clouds 10 1025 87 10000 1.5 320 23:18 07.02.2020
3293 Clouds 11 1025 87 10000 2.1 360 22:39 07.02.2020
3294 Clouds 11 1024 93 10000 2.1 100 22:19 07.02.2020
3295 Clouds 11 1025 81 10000 1.5 30 21:43 07.02.2020
3296 Clouds 11 1024 87 10000 2.6 60 21:22 07.02.2020
3297 Clouds 12 1025 81 10000 1 0 20:57 07.02.2020
3298 Clouds 12 1024 87 10000 1.5 20 20:38 07.02.2020
3299 Clouds 12 1025 81 10000 1.5 40 20:18 07.02.2020
3300 Clouds 13 1024 81 10000 1.5 40 19:40 07.02.2020
3301 Clouds 13 1023 76 10000 1.5 100 19:22 07.02.2020
3302 Clouds 13 1024 71 10000 2.1 80 18:58 07.02.2020
3303 Clouds 14 1023 76 10000 2.1 100 18:40 07.02.2020
3304 Clouds 14 1024 67 10000 2.1 80 18:20 07.02.2020
3305 Clouds 15 1024 62 10000 3.6 60 17:43 07.02.2020
3306 Clouds 16 1024 62 10000 3.6 60 17:22 07.02.2020
3307 Clouds 16 1024 62 10000 3.1 70 16:57 07.02.2020
3308 Clouds 16 1024 59 10000 3.6 60 16:39 07.02.2020
3309 Clouds 16 1024 59 10000 3.6 60 16:20 07.02.2020
3310 Clouds 16 1023 63 10000 2.6 70 15:48 07.02.2020
3311 Clouds 16 1024 59 10000 1.5 20 15:27 07.02.2020
3312 Clouds 16 1023 63 10000 2.6 70 14:46 07.02.2020
3313 Clouds 16 1025 62 10000 2.6 50 14:26 07.02.2020
3314 Clouds 15 1025 62 10000 2.1 40 13:58 07.02.2020
3315 Clouds 15 1024 67 10000 1.5 40 13:39 07.02.2020
3316 Clouds 15 1025 62 10000 3.6 40 13:21 07.02.2020
3317 Clouds 15 1026 67 10000 2.6 70 12:56 07.02.2020
3318 Clouds 15 1026 67 10000 2.6 70 12:38 07.02.2020
3319 Clouds 15 1025 67 10000 2.1 60 12:20 07.02.2020
3320 Clouds 15 1025 67 10000 2.1 70 11:42 07.02.2020
3321 Clouds 14 1025 71 10000 3.1 60 11:21 07.02.2020
3322 Clouds 13 1026 66 10000 3.1 50 10:42 07.02.2020
3323 Clouds 13 1026 66 10000 3.1 50 10:24 07.02.2020
3324 Clouds 13 1026 71 10000 2.6 40 09:58 07.02.2020
3325 Clouds 10 1026 76 10000 3.1 40 09:37 07.02.2020
3326 Clouds 9 1026 76 10000 3.1 40 09:19 07.02.2020
3327 Clouds 9 1025 93 10000 2.1 70 08:43 07.02.2020
3328 Clouds 9 1026 76 10000 2.6 50 08:21 07.02.2020
3329 Clouds 9 1025 93 10000 2.1 60 07:46 07.02.2020
3330 Clouds 10 1026 76 10000 2.1 50 07:28 07.02.2020
3331 Clouds 10 1025 93 10000 2.1 90 06:47 07.02.2020
3332 Clouds 10 1026 76 10000 2.6 40 06:26 07.02.2020
3333 Clouds 10 1026 76 10000 2.6 40 06:26 07.02.2020
3334 Clouds 10 1026 76 10000 3.1 40 05:57 07.02.2020
3335 Clouds 10 1026 76 10000 2.6 30 05:35 07.02.2020
3336 Clouds 8 1026 100 10000 2.6 70 03:19 07.02.2020
3337 Clear 7 1027 81 10000 3.6 30 01:51 07.02.2020
3338 Clear 8 1028 81 10000 3.1 20 00:51 07.02.2020
3339 Clear 8 1028 87 10000 2.6 10 00:25 07.02.2020
3340 Clouds 8 1027 93 10000 1.5 60 23:38 06.02.2020
3341 Clouds 9 1027 87 10000 2.6 70 23:19 06.02.2020
3342 Clouds 9 1027 87 10000 2.6 50 22:46 06.02.2020
3343 Clear 9 1028 81 10000 2.6 40 22:26 06.02.2020
3344 Clear 9 1028 81 10000 3.1 40 21:57 06.02.2020
3345 Clear 9 1028 81 10000 3.1 40 21:36 06.02.2020
3346 Clear 9 1028 81 10000 3.1 40 21:18 06.02.2020
3347 Clear 10 1028 76 10000 3.1 50 20:55 06.02.2020
3348 Clear 9 1028 81 10000 2.6 70 20:36 06.02.2020
3349 Clear 10 1028 81 10000 2.6 70 20:18 06.02.2020
3350 Clear 10 1028 81 10000 3.1 70 19:55 06.02.2020
3351 Clear 11 1028 71 10000 2.1 50 19:37 06.02.2020
3352 Clear 12 1028 71 10000 2.1 50 19:18 06.02.2020
3353 Clear 12 1027 62 10000 1.5 180 18:40 06.02.2020
3354 Clear 13 1027 62 10000 1.5 180 18:22 06.02.2020
3355 Clear 14 1027 62 10000 2.6 180 17:57 06.02.2020
3356 Clear 15 1027 58 10000 2.6 200 17:39 06.02.2020
3357 Clear 15 1027 58 10000 2.6 200 17:20 06.02.2020
3358 Clouds 15 1027 58 10000 3.1 240 16:42 06.02.2020
3359 Clear 15 1027 47 10000 3.6 200 16:24 06.02.2020
3360 Clear 15 1027 47 10000 3.1 250 15:43 06.02.2020
3361 Clear 16 1028 44 10000 3.1 210 15:23 06.02.2020
3362 Clear 16 1028 44 10000 2.6 160 14:58 06.02.2020
3363 Clear 16 1028 44 10000 2.6 160 14:58 06.02.2020
3364 Clear 16 1027 51 10000 0.5 210 14:40 06.02.2020
3365 Clouds 16 1028 41 10000 3.1 190 14:22 06.02.2020
3366 Clouds 15 1029 41 10000 2.6 210 13:43 06.02.2020
3367 Clouds 15 1029 44 10000 2.1 210 13:25 06.02.2020
3368 Clouds 15 1029 51 10000 1 270 12:45 06.02.2020
3369 Clear 15 1030 54 10000 1.5 190 12:20 06.02.2020
3370 Clear 15 1030 58 10000 1.5 170 11:58 06.02.2020
3371 Clear 15 1029 58 10000 1.5 0 11:40 06.02.2020
3372 Clear 14 1029 58 10000 1.5 0 11:21 06.02.2020
3373 Clear 13 1029 58 10000 0.5 0 10:58 06.02.2020
3374 Clear 12 1029 66 10000 1.5 350 10:39 06.02.2020
3375 Clear 11 1029 66 10000 1.5 350 10:21 06.02.2020
3376 Clear 8 1029 70 10000 2.1 350 09:57 06.02.2020
3377 Clouds 9 1028 75 10000 2.22 103 09:38 06.02.2020
3378 Clear 7 1029 75 10000 2.1 360 09:19 06.02.2020
3379 Clear 4 1029 75 10000 2.6 350 08:42 06.02.2020
3380 Clear 5 1029 75 10000 2.6 350 08:22 06.02.2020
3381 Clear 5 1029 75 10000 2.6 350 08:22 06.02.2020
3382 Clear 4 1029 75 10000 3.1 360 07:52 06.02.2020
3383 Clear 4 1029 75 10000 3.1 360 07:52 06.02.2020
3384 Clear 5 1029 75 10000 3.6 340 07:29 06.02.2020
3385 Clear 5 1029 75 10000 3.6 340 07:29 06.02.2020
3386 Clouds 4 1028 100 10000 1 20 06:47 06.02.2020
3387 Clouds 5 1028 100 10000 0.5 0 06:18 06.02.2020
3388 Clouds 5 1028 93 10000 1.5 60 05:22 06.02.2020
3389 Clear 6 1029 86 10000 1.5 360 03:47 06.02.2020
3390 Clear 7 1029 87 10000 2.6 350 02:58 06.02.2020
3391 Clear 7 1029 81 10000 1.5 10 01:45 06.02.2020
3392 Clear 7 1029 75 10000 1 0 00:59 06.02.2020
3393 Clear 8 1029 70 10000 1.5 350 00:28 06.02.2020
3394 Clear 8 1029 75 10000 2.1 350 23:56 05.02.2020
3395 Clear 8 1029 70 10000 1.5 360 23:38 05.02.2020
3396 Clear 9 1029 70 10000 1.5 360 23:19 05.02.2020
3397 Clear 9 1029 70 10000 2.6 350 22:41 05.02.2020
3398 Clear 9 1028 87 10000 3.12 342 22:41 05.02.2020
3399 Clear 9 1028 87 10000 3.12 342 22:23 05.02.2020
3400 Clear 10 1029 71 10000 3.1 340 21:57 05.02.2020
3401 Clear 10 1028 87 10000 3.12 342 21:39 05.02.2020
3402 Clear 10 1028 87 10000 3.12 342 21:39 05.02.2020
3403 Clear 10 1027 76 10000 1.5 30 21:20 05.02.2020
3404 Clear 11 1027 71 10000 1.5 10 20:39 05.02.2020
3405 Clear 12 1028 66 10000 3.6 310 20:21 05.02.2020
3406 Clear 12 1028 62 10000 3.6 320 19:59 05.02.2020
3407 Clear 12 1027 66 10000 2.1 310 19:40 05.02.2020
3408 Clear 12 1028 62 10000 4.1 320 19:19 05.02.2020
3409 Clear 13 1028 58 10000 3.6 310 18:57 05.02.2020
3410 Clear 13 1027 58 10000 3.6 300 18:39 05.02.2020
3411 Clear 14 1027 58 10000 3.6 300 18:19 05.02.2020
3412 Clear 15 1027 54 10000 4.1 310 17:39 05.02.2020
3413 Clouds 15 1026 55 10000 3.6 320 17:20 05.02.2020
3414 Clear 15 1027 54 10000 4.1 310 16:58 05.02.2020
3415 Clear 15 1028 54 10000 5.7 310 16:40 05.02.2020
3416 Clear 15 1028 54 10000 5.7 310 16:22 05.02.2020
3417 Clouds 16 1027 55 10000 4.1 300 15:47 05.02.2020
3418 Clear 16 1028 48 10000 4.1 300 15:20 05.02.2020
3419 Clear 16 1028 51 10000 3.1 350 14:59 05.02.2020
3420 Clouds 16 1027 48 10000 1 0 14:41 05.02.2020
3421 Clouds 16 1027 48 10000 1 0 14:41 05.02.2020
3422 Clear 16 1029 55 10000 2.6 360 14:21 05.02.2020
3423 Clouds 15 1028 55 10000 0.5 110 13:44 05.02.2020
3424 Clear 15 1030 58 10000 5.1 350 13:24 05.02.2020
3425 Clear 15 1030 51 10000 5.1 350 12:59 05.02.2020
3426 Clear 15 1030 54 10000 5.1 350 12:39 05.02.2020
3427 Clouds 14 1029 58 10000 0.5 0 12:21 05.02.2020
3428 Clouds 15 1029 62 10000 2.6 50 11:41 05.02.2020
3429 Clear 14 1030 58 10000 6.2 340 11:23 05.02.2020
3430 Clear 14 1030 58 10000 5.7 350 10:59 05.02.2020
3431 Clear 13 1030 62 10000 5.1 340 10:39 05.02.2020
3432 Clouds 13 1029 67 10000 1 0 10:19 05.02.2020
3433 Clouds 13 1029 76 10000 2.71 30 09:43 05.02.2020
3434 Clear 12 1029 76 10000 1 0 09:22 05.02.2020
3435 Clear 11 1029 71 10000 2.1 40 08:58 05.02.2020
3436 Clouds 11 1028 81 10000 1 0 08:39 05.02.2020
3437 Clouds 11 1029 76 10000 1 0 08:21 05.02.2020
3438 Clouds 11 1028 76 10000 3.6 40 07:43 05.02.2020
3439 Clouds 11 1029 76 10000 0.5 110 07:20 05.02.2020
3440 Clouds 11 1029 76 10000 1.5 130 06:42 05.02.2020
3441 Clouds 12 1028 71 10000 2.1 100 06:21 05.02.2020
3442 Clouds 12 1028 71 10000 2.1 70 05:48 05.02.2020
3443 Clouds 12 1028 71 10000 2.6 50 05:18 05.02.2020
3444 Clouds 12 1029 66 10000 3.1 40 04:41 05.02.2020
3445 Clouds 13 1029 62 10000 7.7 50 03:18 05.02.2020
3446 Clouds 13 1028 62 10000 6.7 50 02:23 05.02.2020
3447 Clouds 13 1028 62 10000 6.2 50 01:35 05.02.2020
3448 Clouds 13 1028 62 10000 5.1 70 00:33 05.02.2020
3449 Clouds 14 1028 62 10000 8.7 70 23:42 04.02.2020
3450 Clouds 14 1027 67 10000 8.7 60 23:23 04.02.2020
3451 Clouds 14 1027 67 10000 8.7 60 23:23 04.02.2020
3452 Clear 13 1027 66 10000 8.2 60 22:58 04.02.2020
3453 Clear 14 1027 66 10000 7.7 70 22:40 04.02.2020
3454 Clear 14 1027 66 10000 7.7 70 22:21 04.02.2020
3455 Clear 14 1027 71 10000 6.2 70 21:59 04.02.2020
3456 Clear 14 1026 76 10000 6.7 70 21:40 04.02.2020
3457 Clear 14 1026 76 10000 6.7 70 21:19 04.02.2020
3458 Clear 14 1026 76 10000 5.7 60 20:57 04.02.2020
3459 Clear 14 1025 76 10000 5.1 50 20:38 04.02.2020
3460 Clouds 14 1024 82 10000 4.1 80 20:19 04.02.2020
3461 Clear 14 1025 76 10000 5.7 70 19:56 04.02.2020
3462 Clear 15 1024 72 10000 5.1 70 19:38 04.02.2020
3463 Clouds 16 1023 82 10000 7.2 70 19:19 04.02.2020
3464 Clear 17 1023 55 10000 4.6 330 18:54 04.02.2020
3465 Clear 17 1023 55 10000 5.1 320 18:36 04.02.2020
3466 Clouds 19 1022 55 10000 1.5 350 18:18 04.02.2020
3467 Clouds 19 1021 59 10000 1.5 10 17:41 04.02.2020
3468 Clouds 19 1021 56 10000 3.1 340 17:20 04.02.2020
3469 Clear 20 1022 49 10000 5.1 320 16:40 04.02.2020
3470 Clear 20 1022 49 10000 5.1 320 16:21 04.02.2020
3471 Clouds 20 1021 49 10000 9.8 330 15:59 04.02.2020
3472 Clouds 21 1021 49 10000 9.8 330 15:41 04.02.2020
3473 Clouds 21 1021 49 10000 5.7 300 15:21 04.02.2020
3474 Clear 21 1022 49 10000 6.7 310 14:58 04.02.2020
3475 Clouds 21 1021 46 10000 6.7 320 14:40 04.02.2020
3476 Clouds 21 1023 52 10000 5.7 320 14:20 04.02.2020
3477 Clouds 22 1023 46 10000 4.1 310 13:55 04.02.2020
3478 Clouds 22 1023 46 10000 5.7 320 13:36 04.02.2020
3479 Clouds 22 1023 46 10000 5.7 320 13:18 04.02.2020
3480 Clouds 22 1022 49 10000 3.6 330 12:42 04.02.2020
3481 Clouds 22 1022 49 10000 3.6 330 12:42 04.02.2020
3482 Clouds 21 1024 46 10000 8.7 330 12:24 04.02.2020
3483 Clouds 21 1024 46 10000 9.3 320 11:57 04.02.2020
3484 Clouds 21 1023 46 10000 5.1 320 11:38 04.02.2020
3485 Clear 20 1024 49 10000 7.2 320 11:19 04.02.2020
3486 Clear 17 1023 82 10000 2.6 220 10:49 04.02.2020
3487 Clear 16 1024 82 10000 2.1 0 10:27 04.02.2020
3488 Clear 13 1024 100 10000 1 0 09:58 04.02.2020
3489 Clear 13 1024 100 10000 1.5 130 09:39 04.02.2020
3490 Clear 13 1024 100 10000 1.5 130 09:21 04.02.2020
3491 Fog 10 1023 100 5000 4.44 291 08:47 04.02.2020
3492 Fog 10 1024 100 100 0.5 240 08:28 04.02.2020
3493 Fog 10 1024 100 150 1 0 07:56 04.02.2020
3494 Fog 11 1024 100 100 2.1 330 07:37 04.02.2020
3495 Fog 10 1024 100 100 2.1 330 07:18 04.02.2020
3496 Fog 11 1024 100 100 1.5 50 06:42 04.02.2020
3497 Fog 11 1023 100 6000 2.1 210 05:37 04.02.2020
3498 Clouds 11 1024 100 10000 0.5 0 04:51 04.02.2020
3499 Rain 10 1024 100 10000 1 0 03:49 04.02.2020
3500 Rain 10 1026 93 10000 1 0 03:30 04.02.2020
3501 Clouds 11 1026 93 10000 1.5 350 02:49 04.02.2020
3502 Clouds 11 1026 93 10000 1 0 02:28 04.02.2020
3503 Clouds 11 1027 93 10000 1 0 01:47 04.02.2020
3504 Clouds 12 1027 93 10000 1 10 01:19 04.02.2020
3505 Clouds 12 1027 100 10000 0.5 60 00:25 04.02.2020
3506 Clear 12 1028 100 10000 1 350 23:56 03.02.2020
3507 Clear 12 1028 93 10000 0.5 0 23:38 03.02.2020
3508 Clear 12 1028 93 10000 0.5 0 23:18 03.02.2020
3509 Clear 13 1028 93 10000 1.5 10 22:39 03.02.2020
3510 Clear 13 1028 93 10000 1.5 10 22:39 03.02.2020
3511 Clear 13 1028 93 10000 1.5 10 22:19 03.02.2020
3512 Clouds 13 1027 100 10000 1.92 257 21:42 03.02.2020
3513 Clouds 13 1027 100 10000 1.92 257 21:42 03.02.2020
3514 Clear 14 1028 93 10000 0.5 0 21:20 03.02.2020
3515 Clear 14 1028 93 10000 1 0 20:57 03.02.2020
3516 Clear 14 1028 93 10000 1 0 20:57 03.02.2020
3517 Clear 15 1028 87 10000 1.5 20 20:39 03.02.2020
3518 Clouds 15 1028 87 10000 1.5 20 20:18 03.02.2020
3519 Clouds 15 1028 93 10000 0.5 0 19:56 03.02.2020
3520 Clouds 16 1028 87 10000 1.5 130 19:37 03.02.2020
3521 Clouds 16 1028 87 10000 1.5 130 19:18 03.02.2020
3522 Clouds 17 1028 87 10000 1.5 110 18:43 03.02.2020
3523 Clouds 17 1028 87 10000 1.5 110 18:24 03.02.2020
3524 Clouds 17 1027 82 10000 2.1 140 17:58 03.02.2020
3525 Clouds 18 1026 88 10000 3.1 210 17:39 03.02.2020
3526 Clouds 20 1026 82 10000 4.1 230 17:20 03.02.2020
3527 Clouds 20 1028 72 10000 2.6 190 16:54 03.02.2020
3528 Clouds 20 1026 82 10000 3.1 230 16:36 03.02.2020
3529 Clouds 21 1027 77 10000 3.1 230 16:18 03.02.2020
3530 Clouds 21 1027 68 10000 2.6 180 15:54 03.02.2020
3531 Clouds 21 1028 68 10000 2.6 190 15:36 03.02.2020
3532 Clouds 21 1028 68 10000 2.6 190 15:36 03.02.2020
3533 Clouds 21 1028 68 10000 2.6 190 15:18 03.02.2020
3534 Clouds 21 1027 77 10000 1.5 250 14:39 03.02.2020
3535 Clouds 21 1028 72 10000 2.1 180 14:21 03.02.2020
3536 Clouds 21 1028 68 10000 2.6 190 13:54 03.02.2020
3537 Clouds 21 1029 72 10000 2.6 200 13:36 03.02.2020
3538 Clouds 21 1028 82 10000 3.1 240 13:18 03.02.2020
3539 Clouds 21 1028 77 10000 0.5 0 12:40 03.02.2020
3540 Clouds 21 1029 68 10000 3.1 160 12:21 03.02.2020
3541 Clouds 20 1029 72 10000 2.1 200 11:58 03.02.2020
3542 Clouds 20 1029 82 10000 1.5 160 11:37 03.02.2020
3543 Clear 19 1029 82 10000 1.5 160 11:18 03.02.2020
3544 Clear 16 1029 93 10000 2.1 120 10:41 03.02.2020
3545 Clouds 15 1028 93 10000 0.5 0 10:23 03.02.2020
3546 Fog 14 1028 100 10000 2.92 308 09:49 03.02.2020
3547 Clear 13 1029 100 10000 0.5 0 09:28 03.02.2020
3548 Clear 12 1029 100 10000 1 0 08:59 03.02.2020
3549 Fog 12 1028 100 10000 1 70 08:40 03.02.2020
3550 Clear 12 1029 100 9000 1 0 08:22 03.02.2020
3551 Fog 11 1028 100 150 0.5 0 07:42 03.02.2020
3552 Fog 11 1028 100 150 0.5 0 07:22 03.02.2020
3553 Fog 11 1028 100 100 1 10 06:55 03.02.2020
3554 Fog 11 1028 100 250 1 0 06:31 03.02.2020
3555 Fog 11 1027 100 150 1 0 05:51 03.02.2020
3556 Fog 11 1028 100 150 1.5 350 05:31 03.02.2020
3557 Fog 12 1028 93 100 1 0 04:44 03.02.2020
3558 Fog 12 1029 93 100 1.5 340 02:48 03.02.2020
3559 Fog 12 1029 100 50 1.5 340 02:27 03.02.2020
3560 Fog 13 1028 100 3000 2.1 239 00:49 03.02.2020
3561 Mist 12 1029 93 4500 0.5 360 00:27 03.02.2020
3562 Clear 12 1029 93 10000 0.5 0 23:56 02.02.2020
3563 Clear 12 1029 100 10000 1.5 360 23:36 02.02.2020
3564 Clear 12 1029 100 10000 1.5 360 23:18 02.02.2020
3565 Clouds 13 1028 93 10000 1.18 232 22:39 02.02.2020
3566 Clouds 13 1028 93 10000 1.18 232 22:39 02.02.2020
3567 Clear 13 1029 87 10000 1.5 10 22:21 02.02.2020
3568 Clear 13 1029 93 10000 1 0 21:58 02.02.2020
3569 Clear 13 1029 93 10000 0.5 0 21:39 02.02.2020
3570 Clear 14 1028 100 10000 1.18 232 21:20 02.02.2020
3571 Clear 14 1029 87 10000 1 0 20:57 02.02.2020
3572 Clear 15 1029 93 10000 1.5 130 20:39 02.02.2020
3573 Clear 15 1028 87 10000 2.1 160 20:20 02.02.2020
3574 Clear 15 1029 87 10000 1 0 19:57 02.02.2020
3575 Clear 15 1029 87 10000 2.1 80 19:39 02.02.2020
3576 Clear 16 1029 87 10000 2.1 80 19:21 02.02.2020
3577 Clear 17 1028 87 10000 1 0 18:56 02.02.2020
3578 Clear 17 1027 82 10000 3.1 210 18:37 02.02.2020
3579 Clear 18 1027 82 10000 3.1 210 18:19 02.02.2020
3580 Clear 18 1028 68 10000 4.1 220 17:57 02.02.2020
3581 Clear 18 1028 68 10000 4.1 220 17:57 02.02.2020
3582 Clear 18 1027 82 10000 3.1 220 17:37 02.02.2020
3583 Clear 18 1027 82 10000 3.1 220 17:37 02.02.2020
3584 Clear 19 1028 68 10000 3.6 220 17:18 02.02.2020
3585 Clear 20 1028 68 10000 4.1 190 16:57 02.02.2020
3586 Clear 19 1027 77 10000 3.6 210 16:38 02.02.2020
3587 Clear 20 1028 68 10000 4.6 200 16:18 02.02.2020
3588 Clear 20 1028 64 10000 4.6 190 15:55 02.02.2020
3589 Clear 20 1028 64 10000 3.6 160 15:36 02.02.2020
3590 Clear 20 1028 64 10000 3.6 160 15:18 02.02.2020
3591 Clear 20 1027 82 10000 4.6 210 14:43 02.02.2020
3592 Clouds 19 1027 82 10000 4.6 220 14:19 02.02.2020
3593 Clouds 19 1028 77 10000 5.7 210 13:59 02.02.2020
3594 Clouds 19 1027 82 10000 4.1 200 13:41 02.02.2020
3595 Clouds 19 1028 77 10000 4.1 200 13:21 02.02.2020
3596 Clouds 19 1029 72 10000 4.1 200 12:56 02.02.2020
3597 Clouds 18 1029 72 8000 3.6 190 12:38 02.02.2020
3598 Clouds 19 1028 72 10000 3.1 220 12:19 02.02.2020
3599 Clouds 18 1028 68 10000 2.6 220 11:42 02.02.2020
3600 Clouds 18 1029 68 10000 1.5 210 11:19 02.02.2020
3601 Clouds 17 1029 77 10000 0.5 0 10:58 02.02.2020
3602 Clouds 16 1029 77 10000 0.5 120 10:39 02.02.2020
3603 Clouds 16 1029 77 10000 0.5 120 10:39 02.02.2020
3604 Clouds 15 1029 77 10000 0.5 120 10:21 02.02.2020
3605 Clouds 14 1029 82 10000 1.5 10 09:59 02.02.2020
3606 Clouds 13 1028 93 10000 2 209 09:39 02.02.2020
3607 Clouds 12 1029 93 10000 1.5 10 09:20 02.02.2020
3608 Clouds 11 1028 93 10000 2.6 360 08:46 02.02.2020
3609 Clear 10 1028 93 10000 2.1 350 08:26 02.02.2020
3610 Clear 10 1027 93 10000 1.5 10 07:48 02.02.2020
3611 Clear 10 1027 93 10000 1.5 20 07:30 02.02.2020
3612 Clear 11 1027 87 10000 2.1 10 06:56 02.02.2020
3613 Clear 11 1027 93 10000 1 0 06:37 02.02.2020
3614 Clear 11 1027 93 10000 1 0 06:18 02.02.2020
3615 Clear 11 1027 93 10000 2.6 10 05:19 02.02.2020
3616 Clouds 10 1026 93 10000 1 0 03:42 02.02.2020
3617 Clear 11 1027 87 10000 1.5 10 03:21 02.02.2020
3618 Clouds 11 1027 87 10000 1.5 360 02:19 02.02.2020
3619 Clouds 11 1027 93 10000 1.5 20 01:49 02.02.2020
3620 Clouds 12 1027 93 10000 2.6 60 00:50 02.02.2020
3621 Clouds 12 1027 87 10000 2.1 360 00:24 02.02.2020
3622 Clouds 12 1027 81 10000 2.1 360 23:55 01.02.2020
3623 Clouds 12 1026 100 10000 1 50 23:37 01.02.2020
3624 Clouds 12 1027 87 10000 2.1 360 23:18 01.02.2020
3625 Clouds 13 1026 100 10000 2.23 50 22:43 01.02.2020
3626 Clouds 13 1027 87 10000 2.6 340 22:18 01.02.2020
3627 Clouds 13 1025 100 10000 0.5 60 21:41 01.02.2020
3628 Clouds 13 1026 87 10000 2.6 30 21:19 01.02.2020
3629 Clouds 14 1026 87 10000 1 0 20:55 01.02.2020
3630 Clouds 14 1025 93 10000 2.1 50 20:37 01.02.2020
3631 Clouds 14 1024 93 10000 1.5 70 20:18 01.02.2020
3632 Clouds 15 1025 87 10000 1 0 19:55 01.02.2020
3633 Clouds 15 1024 93 10000 0.5 0 19:36 01.02.2020
3634 Clouds 15 1024 93 10000 0.5 0 19:18 01.02.2020
3635 Clouds 16 1024 87 10000 3.1 120 18:55 01.02.2020
3636 Clouds 16 1023 82 10000 2.1 280 18:36 01.02.2020
3637 Clouds 17 1023 82 10000 2.1 280 18:18 01.02.2020
3638 Clouds 17 1023 77 10000 1.5 190 17:54 01.02.2020
3639 Clouds 18 1023 72 10000 3.1 140 17:36 01.02.2020
3640 Clouds 19 1022 77 10000 2.6 210 17:18 01.02.2020
3641 Clouds 19 1023 68 10000 3.1 170 16:39 01.02.2020
3642 Clouds 19 1023 68 10000 3.1 170 16:21 01.02.2020
3643 Clouds 19 1023 68 10000 3.1 170 16:21 01.02.2020
3644 Clouds 19 1022 68 10000 3.1 180 15:47 01.02.2020
3645 Clouds 20 1022 56 10000 2.1 300 15:29 01.02.2020
3646 Clouds 19 1022 63 10000 2.6 330 14:58 01.02.2020
3647 Clouds 19 1022 68 10000 1.5 190 14:39 01.02.2020
3648 Clouds 18 1022 68 10000 1.5 190 14:20 01.02.2020
3649 Clouds 17 1022 72 10000 2.6 190 13:45 01.02.2020
3650 Clouds 17 1022 72 10000 4.1 200 13:22 01.02.2020
3651 Clouds 17 1022 82 10000 3.6 220 13:22 01.02.2020
3652 Clouds 17 1022 82 10000 3.1 210 12:46 01.02.2020
3653 Clouds 17 1023 82 10000 3.6 190 12:28 01.02.2020
3654 Clouds 17 1023 77 10000 1.5 200 11:58 01.02.2020
3655 Clouds 17 1023 82 10000 1 0 11:38 01.02.2020
3656 Clouds 16 1022 87 10000 1 0 11:19 01.02.2020
3657 Clear 15 1022 87 10000 1 0 10:57 01.02.2020
3658 Clear 15 1022 87 10000 1 0 10:38 01.02.2020
3659 Clear 14 1022 87 10000 1 0 10:20 01.02.2020
3660 Clear 13 1023 87 10000 1 0 09:57 01.02.2020
3661 Clouds 12 1022 93 10000 1 0 09:38 01.02.2020
3662 Clear 11 1022 93 10000 1 20 09:19 01.02.2020
3663 Clouds 9 1021 100 10000 0.5 20 08:45 01.02.2020
3664 Clear 8 1020 100 10000 1.5 70 07:49 01.02.2020
3665 Clear 9 1021 93 10000 1.5 340 07:26 01.02.2020
3666 Clear 8 1021 93 10000 1 10 06:56 01.02.2020
3667 Clear 8 1021 93 10000 1 340 06:32 01.02.2020
3668 Clouds 8 1020 93 10000 1.92 216 05:52 01.02.2020
3669 Clear 8 1022 93 10000 0.5 20 03:56 01.02.2020
3670 Clouds 9 1021 100 10000 0.5 50 03:21 01.02.2020
3671 Clouds 9 1021 100 10000 1 60 02:46 01.02.2020
3672 Clear 9 1022 87 10000 1 0 02:27 01.02.2020
3673 Clouds 10 1021 100 10000 0.5 0 01:54 01.02.2020
3674 Clear 10 1022 93 10000 1.5 360 01:31 01.02.2020
3675 Clear 11 1022 87 10000 1 0 00:30 01.02.2020
3676 Clear 11 1022 87 10000 2.1 10 23:59 31.01.2020
3677 Clear 11 1023 87 10000 1.5 320 23:37 31.01.2020
3678 Clouds 12 1022 93 10000 2.1 40 23:18 31.01.2020
3679 Clouds 12 1022 93 10000 0.5 40 22:41 31.01.2020
3680 Clear 12 1023 81 10000 1.5 40 22:41 31.01.2020
3681 Clear 12 1023 81 10000 1.5 40 22:22 31.01.2020
3682 Clear 13 1023 76 10000 1.5 340 21:59 31.01.2020
3683 Clouds 13 1022 87 10000 0.83 23 21:39 31.01.2020
3684 Clouds 13 1021 82 10000 0.83 23 21:20 31.01.2020
3685 Clear 13 1022 71 10000 2.6 10 20:57 31.01.2020
3686 Clear 13 1022 71 10000 2.6 10 20:57 31.01.2020
3687 Clear 14 1022 67 10000 2.6 310 20:39 31.01.2020
3688 Clouds 14 1021 71 10000 3.18 334 20:20 31.01.2020
3689 Clear 14 1022 67 10000 2.6 310 19:56 31.01.2020
3690 Clear 15 1022 62 10000 3.1 300 19:38 31.01.2020
3691 Clouds 15 1021 63 10000 1 0 19:19 31.01.2020
3692 Clouds 16 1021 67 10000 1 0 18:45 31.01.2020
3693 Clear 16 1021 59 10000 3.6 310 18:27 31.01.2020
3694 Clear 17 1021 55 10000 3.6 320 17:56 31.01.2020
3695 Clear 18 1021 59 10000 3.1 310 17:38 31.01.2020
3696 Clouds 18 1020 59 10000 3.1 260 17:19 31.01.2020
3697 Clouds 18 1021 52 10000 4.1 320 16:56 31.01.2020
3698 Clouds 18 1021 52 10000 4.1 320 16:37 31.01.2020
3699 Clouds 18 1021 52 10000 4.1 320 16:18 31.01.2020
3700 Clouds 19 1020 52 10000 3.6 320 15:41 31.01.2020
3701 Clouds 19 1021 52 10000 5.1 310 15:21 31.01.2020
3702 Clouds 19 1021 52 10000 4.1 320 14:59 31.01.2020
3703 Clouds 19 1021 55 10000 5.1 300 14:40 31.01.2020
3704 Clouds 19 1021 55 10000 5.1 300 14:20 31.01.2020
3705 Clouds 18 1022 55 10000 4.6 320 13:45 31.01.2020
3706 Clouds 18 1022 55 10000 4.1 280 13:27 31.01.2020
3707 Clouds 18 1023 59 10000 3.6 280 12:54 31.01.2020
3708 Clouds 18 1023 59 10000 4.1 300 12:36 31.01.2020
3709 Clouds 18 1023 59 10000 4.1 300 12:18 31.01.2020
3710 Clouds 17 1023 63 10000 3.6 310 11:41 31.01.2020
3711 Clouds 17 1023 63 10000 3.6 310 11:23 31.01.2020
3712 Clouds 16 1023 63 10000 3.1 310 10:58 31.01.2020
3713 Clouds 15 1023 63 10000 2.6 320 10:37 31.01.2020
3714 Clouds 15 1023 63 10000 2.6 320 10:19 31.01.2020
3715 Clouds 14 1021 100 10000 0.5 0 09:43 31.01.2020
3716 Clouds 14 1022 67 10000 2.1 340 09:22 31.01.2020
3717 Clouds 14 1022 71 10000 3.6 310 08:59 31.01.2020
3718 Clouds 13 1021 100 10000 0.5 0 08:41 31.01.2020
3719 Clouds 13 1022 81 10000 1 0 08:23 31.01.2020
3720 Clouds 13 1022 76 10000 1 0 07:52 31.01.2020
3721 Clouds 13 1020 100 10000 2.12 334 07:20 31.01.2020
3722 Clouds 12 1021 87 10000 2.6 350 06:38 31.01.2020
3723 Clouds 12 1021 93 10000 1 0 05:58 31.01.2020
3724 Clouds 11 1021 93 10000 1 360 05:33 31.01.2020
3725 Fog 11 1020 100 250 1.5 282 04:41 31.01.2020
3726 Clouds 11 1021 93 10000 1 0 02:55 31.01.2020
3727 Clouds 12 1022 93 10000 2.1 350 01:32 31.01.2020
3728 Clouds 13 1022 100 5000 1 340 00:42 31.01.2020
3729 Clouds 13 1022 100 5000 1 340 00:23 31.01.2020
3730 Clouds 14 1021 93 10000 2.1 180 23:45 30.01.2020
3731 Clouds 14 1022 93 8000 2.1 120 23:23 30.01.2020
3732 Clouds 14 1022 93 10000 1.5 170 22:56 30.01.2020
3733 Clouds 14 1022 93 10000 1.5 170 22:56 30.01.2020
3734 Clouds 13 1022 93 10000 1.5 90 22:36 30.01.2020
3735 Clouds 14 1022 93 10000 1.5 90 22:18 30.01.2020
3736 Clouds 14 1021 93 10000 0.5 0 21:43 30.01.2020
3737 Clouds 14 1021 100 10000 1 160 21:19 30.01.2020
3738 Clouds 14 1022 87 10000 2.6 250 20:59 30.01.2020
3739 Clouds 14 1022 93 10000 1.5 230 20:39 30.01.2020
3740 Clouds 14 1022 93 10000 1.5 230 20:21 30.01.2020
3741 Clouds 14 1022 93 10000 3.1 220 19:55 30.01.2020
3742 Clouds 15 1022 87 10000 3.1 220 19:36 30.01.2020
3743 Clouds 15 1022 87 10000 3.1 220 19:18 30.01.2020
3744 Clouds 15 1020 77 10000 3.6 220 18:39 30.01.2020
3745 Clouds 16 1020 77 10000 2.6 210 18:20 30.01.2020
3746 Clouds 17 1021 59 10000 4.1 220 17:55 30.01.2020
3747 Clouds 17 1021 59 10000 4.1 200 17:37 30.01.2020
3748 Clouds 17 1020 72 10000 3.6 230 17:18 30.01.2020
3749 Clouds 18 1021 63 10000 4.6 200 16:56 30.01.2020
3750 Clouds 18 1021 63 10000 4.6 200 16:37 30.01.2020
3751 Clouds 18 1021 63 10000 4.6 200 16:18 30.01.2020
3752 Clouds 19 1021 63 10000 3.6 220 15:42 30.01.2020
3753 Clouds 19 1021 63 10000 3.6 220 15:19 30.01.2020
3754 Clouds 18 1021 72 10000 3.1 210 14:46 30.01.2020
3755 Clouds 18 1022 68 10000 2.1 200 14:26 30.01.2020
3756 Clouds 18 1022 68 10000 2.1 200 14:26 30.01.2020
3757 Clouds 18 1022 68 10000 2.1 200 13:54 30.01.2020
3758 Clouds 17 1022 82 10000 2.1 160 13:36 30.01.2020
3759 Clouds 17 1022 82 10000 2.1 160 13:18 30.01.2020
3760 Clouds 16 1022 93 9000 3.1 220 12:41 30.01.2020
3761 Clouds 15 1023 87 10000 2.1 210 12:22 30.01.2020
3762 Mist 15 1022 93 5000 2.6 230 11:56 30.01.2020
3763 Clouds 15 1023 93 10000 2.1 190 11:38 30.01.2020
3764 Mist 14 1022 100 1700 1.87 312 11:19 30.01.2020
3765 Fog 13 1022 100 900 1.87 312 10:42 30.01.2020
3766 Fog 13 1022 100 1000 1.87 312 10:22 30.01.2020
3767 Fog 12 1023 100 250 1.5 340 09:48 30.01.2020
3768 Clouds 11 1023 100 10000 1.5 360 09:30 30.01.2020
3769 Clouds 11 1023 93 10000 1 0 08:59 30.01.2020
3770 Fog 11 1022 100 700 1.87 312 08:39 30.01.2020
3771 Clouds 11 1023 100 9000 2.1 340 08:20 30.01.2020
3772 Fog 11 1022 93 750 1.5 330 07:49 30.01.2020
3773 Fog 11 1021 100 200 0.5 20 07:22 30.01.2020
3774 Fog 10 1022 100 200 1 320 06:47 30.01.2020
3775 Mist 11 1022 100 2100 1.5 340 06:28 30.01.2020
3776 Mist 11 1021 100 4000 2.33 241 05:44 30.01.2020
3777 Fog 11 1021 100 1000 1.76 214 05:20 30.01.2020
3778 Clouds 10 1023 93 10000 0.5 10 03:54 30.01.2020
3779 Clouds 10 1023 93 10000 0.5 30 03:36 30.01.2020
3780 Fog 10 1023 100 100 1.5 20 02:22 30.01.2020
3781 Fog 11 1022 93 800 2 242 00:43 30.01.2020
3782 Clouds 11 1024 100 10000 2.1 10 00:21 30.01.2020
3783 Clouds 11 1023 100 10000 2 242 23:46 29.01.2020
3784 Clouds 12 1023 100 10000 1.96 255 23:22 29.01.2020
3785 Clouds 12 1023 100 10000 1.96 255 22:57 29.01.2020
3786 Clouds 12 1023 100 10000 1.96 255 22:39 29.01.2020
3787 Clouds 12 1023 100 10000 1.96 255 22:19 29.01.2020
3788 Clouds 13 1023 93 10000 1 90 21:58 29.01.2020
3789 Clouds 13 1023 93 10000 1 90 21:38 29.01.2020
3790 Clouds 13 1023 87 10000 1.5 120 21:19 29.01.2020
3791 Clouds 14 1024 93 10000 1 120 20:58 29.01.2020
3792 Clouds 14 1023 93 10000 1.5 70 20:38 29.01.2020
3793 Clouds 14 1023 93 10000 1.5 70 20:19 29.01.2020
3794 Clouds 15 1023 93 10000 1 0 19:56 29.01.2020
3795 Clouds 15 1023 93 10000 2.1 80 19:37 29.01.2020
3796 Clouds 15 1023 93 10000 2.1 80 19:18 29.01.2020
3797 Clouds 16 1021 87 10000 0.5 0 18:46 29.01.2020
3798 Clouds 16 1021 87 10000 2.6 180 18:19 29.01.2020
3799 Clouds 16 1022 82 10000 2.1 140 17:58 29.01.2020
3800 Clouds 16 1022 82 10000 3.1 160 17:39 29.01.2020
3801 Clouds 17 1021 87 10000 3.1 200 17:21 29.01.2020
3802 Clouds 17 1022 82 10000 3.1 160 17:21 29.01.2020
3803 Clouds 18 1021 82 10000 3.6 210 16:41 29.01.2020
3804 Clouds 18 1021 82 10000 3.1 180 16:23 29.01.2020
3805 Clouds 18 1021 82 10000 4.1 180 15:56 29.01.2020
3806 Clouds 18 1020 88 10000 5.7 220 15:37 29.01.2020
3807 Clouds 19 1020 82 10000 3.6 210 15:19 29.01.2020
3808 Clouds 19 1021 77 10000 2.6 220 14:43 29.01.2020
3809 Clouds 19 1022 72 10000 3.1 170 14:20 29.01.2020
3810 Clouds 19 1022 68 10000 2.1 220 13:55 29.01.2020
3811 Clouds 19 1023 77 10000 2.6 200 13:37 29.01.2020
3812 Clouds 18 1023 77 10000 2.6 200 13:19 29.01.2020
3813 Clouds 18 1023 77 10000 3.6 210 12:55 29.01.2020
3814 Clouds 18 1023 68 10000 2.1 160 12:37 29.01.2020
3815 Clouds 18 1023 68 10000 2.1 160 12:18 29.01.2020
3816 Clouds 18 1022 77 10000 1 0 11:45 29.01.2020
3817 Clouds 17 1023 67 10000 1 0 11:21 29.01.2020
3818 Clouds 16 1022 93 10000 2.58 312 10:47 29.01.2020
3819 Clouds 14 1022 93 10000 2.58 312 10:26 29.01.2020
3820 Clouds 14 1022 93 10000 2.58 312 10:26 29.01.2020
3821 Clouds 12 1022 93 10000 1.5 70 09:58 29.01.2020
3822 Clouds 12 1022 93 10000 1.5 70 09:40 29.01.2020
3823 Clouds 11 1022 93 10000 1.5 70 09:20 29.01.2020
3824 Clouds 10 1022 93 10000 2.6 10 08:56 29.01.2020
3825 Clouds 10 1021 100 10000 2.58 312 08:37 29.01.2020
3826 Clouds 10 1021 93 10000 1 0 08:18 29.01.2020
3827 Clouds 11 1021 100 10000 1.5 140 07:43 29.01.2020
3828 Clouds 11 1021 93 10000 2.1 50 07:23 29.01.2020
3829 Clouds 11 1021 87 10000 2.1 200 06:38 29.01.2020
3830 Clouds 12 1020 93 10000 2.1 160 06:20 29.01.2020
3831 Clouds 12 1020 87 10000 1 0 05:52 29.01.2020
3832 Clouds 12 1020 87 10000 1 0 05:52 29.01.2020
3833 Clouds 12 1020 87 10000 1 0 05:34 29.01.2020
3834 Clouds 11 1021 93 10000 0.5 0 04:39 29.01.2020
3835 Clouds 11 1020 100 10000 1 0 04:18 29.01.2020
3836 Clouds 11 1020 93 10000 2.6 250 02:40 29.01.2020
3837 Clouds 14 1020 82 10000 4.6 240 01:34 29.01.2020
3838 Clouds 14 1020 82 10000 3.1 230 00:39 29.01.2020
3839 Clouds 14 1020 82 10000 3.1 230 00:21 29.01.2020
3840 Clouds 15 1020 82 10000 4.1 220 23:41 28.01.2020
3841 Clouds 14 1021 82 10000 3.6 240 23:20 28.01.2020
3842 Clouds 14 1021 87 10000 3.6 220 22:56 28.01.2020
3843 Clouds 14 1021 87 10000 3.6 220 22:37 28.01.2020
3844 Clouds 14 1021 87 10000 3.6 220 22:18 28.01.2020
3845 Clouds 14 1021 82 10000 3.6 220 21:41 28.01.2020
3846 Clouds 14 1022 82 10000 1.5 0 21:20 28.01.2020
3847 Clouds 14 1022 82 10000 1.5 0 21:20 28.01.2020
3848 Clouds 14 1022 82 10000 2.1 230 20:46 28.01.2020
3849 Clear 14 1021 76 10000 2.1 200 20:28 28.01.2020
3850 Clouds 15 1021 76 10000 2.6 240 19:58 28.01.2020
3851 Clouds 15 1020 82 10000 5.7 250 19:38 28.01.2020
3852 Clouds 15 1021 72 10000 3.6 250 19:19 28.01.2020
3853 Clouds 15 1020 82 10000 4.6 230 18:57 28.01.2020
3854 Clouds 15 1020 82 10000 5.7 250 18:38 28.01.2020
3855 Clouds 15 1020 77 10000 3.6 220 18:20 28.01.2020
3856 Clouds 16 1020 72 10000 3.6 220 17:55 28.01.2020
3857 Clouds 17 1020 59 10000 3.6 230 17:36 28.01.2020
3858 Clouds 17 1020 59 10000 3.6 230 17:18 28.01.2020
3859 Clouds 18 1020 63 10000 3.6 260 16:45 28.01.2020
3860 Clouds 18 1020 63 10000 3.6 260 16:27 28.01.2020
3861 Clouds 18 1020 63 10000 3.6 210 15:59 28.01.2020
3862 Clouds 18 1019 72 10000 8.2 230 15:40 28.01.2020
3863 Clouds 18 1020 63 10000 5.1 240 15:18 28.01.2020
3864 Clouds 18 1020 63 10000 5.1 240 14:44 28.01.2020
3865 Clouds 18 1020 63 10000 6.2 240 14:20 28.01.2020
3866 Clouds 18 1021 63 10000 5.1 210 13:45 28.01.2020
3867 Clouds 18 1021 63 10000 5.1 210 13:25 28.01.2020
3868 Clouds 18 1021 63 10000 5.7 250 12:59 28.01.2020
3869 Clouds 18 1020 72 10000 10.3 250 12:41 28.01.2020
3870 Clouds 18 1021 63 10000 5.7 240 12:22 28.01.2020
3871 Clouds 17 1021 72 10000 11.3 260 11:43 28.01.2020
3872 Clouds 17 1021 63 10000 5.1 250 11:23 28.01.2020
3873 Clouds 16 1021 67 10000 4.1 250 10:56 28.01.2020
3874 Clouds 16 1021 67 10000 4.1 250 10:56 28.01.2020
3875 Clouds 16 1021 72 10000 4.1 240 10:38 28.01.2020
3876 Clouds 15 1020 77 10000 8.7 260 10:18 28.01.2020
3877 Clouds 15 1020 82 10000 7.7 260 09:42 28.01.2020
3878 Clouds 14 1021 71 10000 4.6 240 09:21 28.01.2020
3879 Clouds 14 1021 71 10000 5.1 240 08:56 28.01.2020
3880 Clouds 14 1020 87 10000 5.7 260 08:38 28.01.2020
3881 Clouds 13 1020 82 10000 4.6 240 08:18 28.01.2020
3882 Clouds 13 1020 76 10000 1.5 330 07:36 28.01.2020
3883 Clouds 13 1020 76 10000 3.6 240 06:49 28.01.2020
3884 Clouds 13 1020 76 10000 4.6 230 06:25 28.01.2020
3885 Clouds 13 1019 82 10000 5.1 240 05:53 28.01.2020
3886 Clouds 13 1020 81 10000 4.1 190 05:25 28.01.2020
3887 Clouds 13 1020 81 10000 2.1 220 03:57 28.01.2020
3888 Clouds 13 1021 81 10000 3.1 210 02:58 28.01.2020
3889 Clouds 13 1021 81 10000 3.1 210 02:25 28.01.2020
3890 Clouds 13 1021 81 10000 4.1 220 01:57 28.01.2020
3891 Clouds 13 1021 81 10000 5.7 230 01:23 28.01.2020
3892 Clouds 13 1020 76 10000 3.1 250 00:45 28.01.2020
3893 Clouds 13 1022 81 10000 4.6 240 00:24 28.01.2020
3894 Clouds 13 1022 81 10000 3.6 240 23:48 27.01.2020
3895 Clouds 13 1022 76 10000 4.6 240 23:29 27.01.2020
3896 Clouds 13 1022 81 10000 3.1 250 22:54 27.01.2020
3897 Clouds 13 1022 76 10000 2.6 290 22:36 27.01.2020
3898 Clouds 13 1022 76 10000 2.6 290 22:18 27.01.2020
3899 Clouds 13 1021 82 10000 7.7 240 21:40 27.01.2020
3900 Clouds 13 1022 76 10000 3.1 250 21:19 27.01.2020
3901 Clouds 13 1022 76 10000 2.1 260 20:59 27.01.2020
3902 Clouds 12 1022 76 10000 2.6 290 20:40 27.01.2020
3903 Clouds 12 1021 81 10000 4.1 260 20:21 27.01.2020
3904 Clouds 12 1022 76 10000 2.1 290 19:58 27.01.2020
3905 Clouds 12 1021 76 10000 4.6 260 19:40 27.01.2020
3906 Clouds 12 1021 76 10000 3.6 250 19:21 27.01.2020
3907 Clouds 12 1021 76 10000 3.6 250 19:21 27.01.2020
3908 Clouds 13 1022 76 10000 2.6 240 18:55 27.01.2020
3909 Clouds 13 1021 76 10000 3.1 240 18:37 27.01.2020
3910 Clouds 13 1021 76 10000 3.1 240 18:37 27.01.2020
3911 Clouds 13 1021 76 10000 3.1 240 18:19 27.01.2020
3912 Clouds 13 1021 76 10000 3.1 240 18:19 27.01.2020
3913 Clouds 14 1022 71 10000 5.7 220 17:39 27.01.2020
3914 Clouds 14 1021 76 10000 3.6 240 17:39 27.01.2020
3915 Clouds 14 1022 71 10000 5.7 220 17:19 27.01.2020
3916 Clouds 14 1022 71 10000 5.7 220 16:57 27.01.2020
3917 Clouds 15 1022 67 10000 6.2 230 16:39 27.01.2020
3918 Clouds 15 1022 67 10000 6.2 230 16:21 27.01.2020
3919 Clouds 15 1022 67 10000 6.2 230 15:55 27.01.2020
3920 Clouds 15 1022 67 10000 5.7 220 15:36 27.01.2020
3921 Clouds 15 1022 67 10000 5.7 220 15:18 27.01.2020
3922 Clouds 15 1022 72 10000 6.2 240 14:41 27.01.2020
3923 -273 0 0 0 0 0 14:22 27.01.2020
3924 Clouds 15 1023 67 10000 6.2 220 13:54 27.01.2020
3925 Clouds 15 1024 72 10000 5.1 220 13:36 27.01.2020
3926 Clouds 15 1024 72 10000 5.1 220 13:18 27.01.2020
3927 Clouds 16 1023 77 10000 5.1 240 12:42 27.01.2020
3928 Clouds 15 1025 72 10000 4.1 220 12:22 27.01.2020
3929 Clouds 14 1025 76 10000 2.1 210 11:55 27.01.2020
3930 Clouds 13 1025 76 10000 1.5 200 11:36 27.01.2020
3931 Clouds 13 1024 82 10000 3.89 226 11:18 27.01.2020
3932 Clouds 12 1024 93 10000 3.89 226 10:42 27.01.2020
3933 Clouds 10 1025 87 10000 3.89 226 10:23 27.01.2020
3934 Clouds 9 1024 93 10000 3.89 226 09:40 27.01.2020
3935 Clouds 7 1025 93 10000 0.5 0 09:19 27.01.2020
3936 Clouds 6 1024 93 10000 1.5 360 08:59 27.01.2020
3937 Clouds 6 1024 100 10000 0.5 0 08:40 27.01.2020
3938 Clouds 6 1024 93 10000 1.5 40 08:19 27.01.2020
3939 Clouds 6 1024 93 10000 1 0 07:52 27.01.2020
3940 Clouds 6 1024 93 10000 1 0 07:33 27.01.2020
3941 Clouds 6 1023 100 10000 1.5 60 06:49 27.01.2020
3942 Clouds 7 1024 93 10000 0.5 0 05:59 27.01.2020
3943 Clear 6 1024 87 10000 0.5 0 05:18 27.01.2020
3944 Clear 9 1024 87 10000 2.1 290 03:37 27.01.2020
3945 Clear 9 1024 87 10000 1.5 300 02:27 27.01.2020
3946 Clear 9 1024 87 10000 2.6 290 01:29 27.01.2020
3947 Clouds 9 1023 100 10000 3.77 310 00:42 27.01.2020
3948 Clear 9 1024 81 10000 1 0 00:22 27.01.2020
3949 Clear 10 1024 76 10000 3.1 310 23:59 26.01.2020
3950 Clouds 10 1023 93 10000 0.5 140 23:41 26.01.2020
3951 Clear 11 1024 76 10000 2.6 270 23:18 26.01.2020
3952 Clear 11 1024 76 10000 3.1 290 22:54 26.01.2020
3953 Clear 11 1024 81 10000 3.1 280 22:36 26.01.2020
3954 Clear 11 1024 81 10000 3.1 280 22:18 26.01.2020
3955 Clear 11 1024 81 10000 2.1 250 21:54 26.01.2020
3956 Clear 11 1024 81 10000 2.6 300 21:36 26.01.2020
3957 Clear 12 1024 81 10000 2.6 300 21:18 26.01.2020
3958 Clear 12 1023 81 10000 2.6 280 20:54 26.01.2020
3959 Clear 12 1023 76 10000 3.6 300 20:36 26.01.2020
3960 Clear 12 1023 76 10000 3.6 300 20:18 26.01.2020
3961 Clouds 12 1022 81 10000 0.5 0 19:40 26.01.2020
3962 Clouds 13 1021 76 10000 2.1 320 19:21 26.01.2020
3963 Clouds 13 1021 76 10000 2.1 320 18:59 26.01.2020
3964 Clouds 13 1021 76 10000 2.1 320 18:40 26.01.2020
3965 Clouds 14 1021 71 10000 4.1 320 18:21 26.01.2020
3966 Clear 14 1021 71 10000 3.6 300 17:57 26.01.2020
3967 Clear 14 1021 71 10000 4.1 310 17:38 26.01.2020
3968 Clouds 15 1021 71 10000 4.1 310 17:18 26.01.2020
3969 Clouds 14 1021 71 10000 4.1 310 17:18 26.01.2020
3970 Clouds 15 1021 67 10000 4.1 300 16:57 26.01.2020
3971 Clouds 15 1020 72 10000 5.7 320 16:39 26.01.2020
3972 Clouds 16 1021 63 10000 4.6 310 16:20 26.01.2020
3973 Clouds 16 1020 67 10000 4.1 330 15:55 26.01.2020
3974 Clouds 16 1020 67 10000 4.1 330 15:36 26.01.2020
3975 Clouds 15 1017 63 0 1.79 227 15:18 26.01.2020
3976 Clouds 16 1016 72 0 2.68 296 14:40 26.01.2020
3977 Rain 15 1016 72 0 3.58 282 14:19 26.01.2020
3978 Rain 15 1016 72 0 3.58 282 14:19 26.01.2020
3979 Rain 16 1019 55 0 1.79 40 13:42 26.01.2020
3980 Rain 16 1018 58 0 1.34 36 13:20 26.01.2020
3981 Rain 15 1019 57 0 1.79 36 12:58 26.01.2020
3982 Rain 15 1019 58 0 1.34 46 12:39 26.01.2020
3983 Rain 15 1019 61 0 1.34 37 12:21 26.01.2020
3984 Rain 15 1022 79 0 1.79 296 11:57 26.01.2020
3985 Rain 15 1022 79 0 0.89 289 11:38 26.01.2020
3986 Clouds 14 1020 76 10000 1 0 11:18 26.01.2020
3987 Clouds 13 1020 76 10000 1 0 10:58 26.01.2020
3988 Clouds 13 1020 76 10000 1 0 10:38 26.01.2020
3989 Clouds 12 1020 76 10000 1 0 10:20 26.01.2020
3990 Clouds 11 1020 81 10000 1 0 09:57 26.01.2020
3991 Clouds 10 1019 100 10000 1.61 304 09:39 26.01.2020
3992 Clouds 10 1019 100 10000 1.61 304 09:39 26.01.2020
3993 Clouds 9 1020 93 10000 1 0 09:20 26.01.2020
3994 Clouds 7 1018 100 10000 1.61 304 08:43 26.01.2020
3995 Clouds 7 1019 93 10000 1.5 90 08:22 26.01.2020
3996 Clouds 8 1019 93 10000 1.5 20 07:57 26.01.2020
3997 Fog 8 1018 100 10000 1.06 16 07:39 26.01.2020
3998 Clouds 8 1019 87 10000 1 0 07:20 26.01.2020
3999 Clouds 8 1018 93 10000 1.5 350 06:30 26.01.2020
4000 Clouds 8 1018 93 10000 1.5 30 05:31 26.01.2020
4001 Clouds 8 1017 100 10000 1.76 63 04:45 26.01.2020
4002 Clouds 9 1019 87 10000 2.1 360 02:42 26.01.2020
4003 Clouds 10 1019 87 10000 2.1 360 01:48 26.01.2020
4004 Clouds 10 1019 87 10000 2.1 10 01:24 26.01.2020
4005 Clouds 11 1019 93 10000 1.5 50 00:48 26.01.2020
4006 Clouds 11 1019 87 10000 0.5 0 00:29 26.01.2020
4007 Clouds 11 1019 90 0 0.45 5 23:41 25.01.2020
4008 Clouds 12 1018 10 0 4.78 62 23:23 25.01.2020
4009 Clouds 12 1017 10 0 4.78 62 22:59 25.01.2020
4010 Clouds 12 1017 10 0 4.78 62 22:40 25.01.2020
4011 Clouds 12 1018 10 0 4.78 62 22:19 25.01.2020
4012 Clouds 13 1016 86 0 0.89 45 21:57 25.01.2020
4013 Clouds 13 1016 86 0 0.89 45 21:57 25.01.2020
4014 Clouds 13 1016 84 0 0.45 68 21:38 25.01.2020
4015 Clouds 13 1016 84 0 0.45 68 21:38 25.01.2020
4016 Clouds 13 1016 84 0 0.89 68 21:20 25.01.2020
4017 Clouds 12 1018 80 0 4.78 62 20:44 25.01.2020
4018 Clouds 12 1018 81 0 2.18 66 20:25 25.01.2020
4019 Clouds 14 1018 10 0 3.74 93 19:56 25.01.2020
4020 Clouds 14 1016 78 0 3.37 122 19:37 25.01.2020
4021 Clouds 15 1016 71 0 3.37 122 19:18 25.01.2020
4022 Clouds 15 1017 10 0 3.74 93 18:43 25.01.2020
4023 Clouds 15 1016 71 0 3.37 122 18:23 25.01.2020
4024 Clouds 15 1017 10 0 3.37 122 17:59 25.01.2020
4025 Clouds 16 1017 10 0 3.37 122 17:39 25.01.2020
4026 Clouds 16 1019 80 0 0.89 5 17:19 25.01.2020
4027 Clouds 16 1017 10 0 3.66 114 16:56 25.01.2020
4028 Clouds 16 1016 67 0 0.45 112 16:36 25.01.2020
4029 Clouds 16 1016 65 0 0.89 94 16:18 25.01.2020
4030 Clouds 17 1018 10 0 3.66 114 15:42 25.01.2020
4031 Clouds 17 1016 63 0 1.79 41 15:23 25.01.2020
4032 Clouds 17 1020 79 0 1.34 5 14:46 25.01.2020
4033 Clouds 17 1020 80 0 1.79 5 14:19 25.01.2020
4034 Clouds 17 1018 10 0 4.42 120 13:57 25.01.2020
4035 Clouds 16 1019 10 0 4.42 120 13:39 25.01.2020
4036 Clouds 16 1018 64 0 0.45 158 13:20 25.01.2020
4037 Clouds 16 1022 77 10000 3.1 60 12:42 25.01.2020
4038 Clouds 16 1022 77 10000 3.1 60 12:21 25.01.2020
4039 Clouds 15 1022 76 10000 3.1 50 11:45 25.01.2020
4040 Clouds 14 1022 76 10000 3.1 50 11:21 25.01.2020
4041 Clouds 14 1022 82 10000 3.1 30 10:57 25.01.2020
4042 Clouds 14 1021 93 10000 3.1 60 10:39 25.01.2020
4043 Clouds 13 1022 82 10000 3.6 40 10:20 25.01.2020
4044 Clouds 11 1022 81 10000 2.6 40 09:41 25.01.2020
4045 Clouds 12 1022 81 10000 2.6 40 09:22 25.01.2020
4046 Clouds 11 1022 87 10000 3.1 30 08:44 25.01.2020
4047 Clouds 10 1021 81 10000 3.6 30 08:22 25.01.2020
4048 Clouds 11 1020 93 10000 2.1 80 07:43 25.01.2020
4049 Clouds 11 1021 87 10000 3.1 50 06:51 25.01.2020
4050 Clouds 11 1021 87 10000 3.1 40 06:27 25.01.2020
4051 Clouds 10 1020 100 10000 2.6 60 05:46 25.01.2020
4052 Clouds 10 1021 100 10000 1 100 04:43 25.01.2020
4053 Clouds 10 1022 87 10000 2.6 40 03:51 25.01.2020
4054 Clouds 10 1022 87 10000 2.6 40 03:51 25.01.2020
4055 Clouds 10 1022 87 10000 2.6 20 02:57 25.01.2020
4056 Clouds 10 1022 87 10000 1.5 20 02:18 25.01.2020
4057 Clouds 10 1022 93 10000 2.1 50 01:43 25.01.2020
4058 Clouds 11 1022 93 10000 1.5 40 00:44 25.01.2020
4059 Clouds 11 1023 87 10000 1 20 00:25 25.01.2020
4060 Clouds 11 1023 93 10000 1 340 23:57 24.01.2020
4061 Clouds 11 1023 87 10000 1 360 23:39 24.01.2020
4062 Clouds 11 1022 93 10000 1.5 70 23:21 24.01.2020
4063 Clouds 12 1022 93 10000 2.1 70 22:44 24.01.2020
4064 Clouds 12 1023 87 10000 1.5 20 22:25 24.01.2020
4065 Clouds 12 1022 93 10000 0.5 90 21:43 24.01.2020
4066 Clouds 12 1022 93 10000 2.1 70 21:21 24.01.2020
4067 Clouds 12 1023 93 10000 1.5 50 20:57 24.01.2020
4068 Clouds 12 1023 87 10000 1 50 20:39 24.01.2020
4069 Clouds 12 1023 87 10000 1 50 20:20 24.01.2020
4070 Clouds 12 1023 93 10000 1 0 19:57 24.01.2020
4071 Clouds 13 1022 81 10000 1.5 70 19:38 24.01.2020
4072 Clouds 12 1022 81 10000 1.5 70 19:20 24.01.2020
4073 Clouds 13 1021 82 10000 1.5 230 18:43 24.01.2020
4074 Clouds 14 1022 82 10000 2.6 200 18:23 24.01.2020
4075 Clouds 14 1022 76 10000 2.1 200 17:46 24.01.2020
4076 Clear 15 1021 67 10000 1.5 210 17:23 24.01.2020
4077 Clear 16 1021 72 10000 2.1 210 16:59 24.01.2020
4078 Clouds 16 1020 67 10000 1.5 260 16:39 24.01.2020
4079 Clear 16 1021 67 10000 2.1 200 16:20 24.01.2020
4080 Clouds 16 1021 67 10000 3.1 220 15:43 24.01.2020
4081 Clear 16 1021 63 10000 3.1 230 15:22 24.01.2020
4082 Clear 16 1022 63 10000 4.1 220 14:57 24.01.2020
4083 Clouds 16 1021 67 10000 4.6 230 14:38 24.01.2020
4084 Clear 16 1022 63 10000 3.1 210 14:20 24.01.2020
4085 Clear 16 1022 59 10000 1 0 13:42 24.01.2020
4086 Clear 17 1021 59 10000 0.5 0 13:23 24.01.2020
4087 Clear 16 1023 59 10000 0.5 170 12:44 24.01.2020
4088 Clear 15 1022 77 10000 1.5 80 12:22 24.01.2020
4089 Clear 15 1023 67 10000 1 0 11:57 24.01.2020
4090 Clear 15 1023 71 10000 1 0 11:38 24.01.2020
4091 Clear 13 1022 87 10000 1.5 60 11:18 24.01.2020
4092 Clear 14 1023 71 10000 1 0 11:18 24.01.2020
4093 Clouds 11 1022 93 10000 0.5 0 10:41 24.01.2020
4094 Clear 10 1023 87 10000 1 0 10:20 24.01.2020
4095 Clear 8 1023 87 10000 2.1 20 09:54 24.01.2020
4096 Clear 7 1023 93 10000 2.1 360 09:36 24.01.2020
4097 Clear 9 1023 93 10000 2.1 360 09:18 24.01.2020
4098 Fog 8 1022 100 6000 1.5 40 08:39 24.01.2020
4099 Rain 7 1022 93 10000 2.6 360 08:19 24.01.2020
4100 Clouds 7 1021 100 6000 2.6 60 07:47 24.01.2020
4101 Clouds 7 1022 93 10000 2.1 360 07:22 24.01.2020
4102 Clouds 7 1021 100 6000 2.1 30 06:45 24.01.2020
4103 Clouds 8 1022 93 10000 2.1 360 06:24 24.01.2020
4104 Clouds 8 1022 87 10000 1.5 10 05:33 24.01.2020
4105 Clouds 8 1023 93 10000 1.5 10 03:47 24.01.2020
4106 Clouds 8 1023 93 10000 2.1 360 02:41 24.01.2020
4107 Clouds 8 1023 93 10000 2.1 360 02:22 24.01.2020
4108 Clouds 8 1022 100 8000 1 0 01:39 24.01.2020
4109 Clouds 9 1023 93 10000 1.5 340 00:52 24.01.2020
4110 Clouds 9 1022 100 8000 2.1 20 00:19 24.01.2020
4111 Clouds 10 1024 93 10000 2.6 340 23:42 23.01.2020
4112 Clouds 10 1024 93 10000 2.6 340 23:23 23.01.2020
4113 Clouds 10 1024 87 10000 1 0 22:58 23.01.2020
4114 Clouds 10 1024 93 10000 1.5 0 22:37 23.01.2020
4115 Clouds 10 1024 93 10000 1.5 0 22:37 23.01.2020
4116 Clouds 10 1024 93 10000 1.5 0 22:18 23.01.2020
4117 Clouds 10 1023 87 10000 0.5 320 21:55 23.01.2020
4118 Clouds 10 1023 87 10000 2.6 360 21:37 23.01.2020
4119 Clouds 10 1023 87 10000 2.6 360 21:19 23.01.2020
4120 Clouds 11 1023 93 10000 3.1 350 20:55 23.01.2020
4121 Clouds 11 1022 93 8000 2.62 63 20:37 23.01.2020
4122 Clouds 11 1023 93 10000 1.5 340 20:18 23.01.2020
4123 Clouds 12 1022 93 10000 1 40 19:44 23.01.2020
4124 Clouds 12 1023 87 10000 1 60 19:23 23.01.2020
4125 Clouds 12 1022 87 10000 0.5 0 18:58 23.01.2020
4126 Clouds 13 1022 82 10000 1 200 18:39 23.01.2020
4127 Clouds 13 1022 82 10000 1 200 18:20 23.01.2020
4128 Clouds 14 1022 76 10000 1.5 200 17:56 23.01.2020
4129 Clouds 15 1022 76 10000 2.1 200 17:38 23.01.2020
4130 Clouds 15 1021 82 10000 2.1 250 17:18 23.01.2020
4131 Clouds 16 1022 67 10000 1.5 210 16:39 23.01.2020
4132 Clouds 16 1022 67 10000 1.5 210 16:20 23.01.2020
4133 Clouds 16 1022 72 10000 2.1 220 15:58 23.01.2020
4134 Clouds 16 1021 77 10000 3.1 240 15:40 23.01.2020
4135 Clouds 16 1021 77 10000 2.6 250 15:19 23.01.2020
4136 Clouds 17 1022 63 10000 1.5 220 14:59 23.01.2020
4137 Clouds 16 1021 72 10000 2.1 250 14:41 23.01.2020
4138 Clear 16 1022 63 10000 2.6 220 14:23 23.01.2020
4139 Clear 16 1022 59 10000 1.5 0 13:59 23.01.2020
4140 Clear 16 1023 59 10000 1 0 13:38 23.01.2020
4141 Clear 16 1023 59 10000 1 0 13:19 23.01.2020
4142 Clouds 16 1022 67 10000 0.5 0 12:46 23.01.2020
4143 Clear 16 1023 72 10000 1 160 12:25 23.01.2020
4144 Clear 15 1023 77 10000 0.5 130 11:57 23.01.2020
4145 Clouds 14 1023 93 10000 1 0 11:38 23.01.2020
4146 Clouds 13 1023 93 10000 1 0 11:19 23.01.2020
4147 Clear 12 1022 100 10000 0.5 10 10:44 23.01.2020
4148 Clear 11 1022 100 10000 0.5 10 10:22 23.01.2020
4149 Clear 11 1022 100 9000 1 0 09:57 23.01.2020
4150 Clear 10 1022 100 10000 2.1 340 09:36 23.01.2020
4151 Clear 10 1022 100 10000 2.1 340 09:18 23.01.2020
4152 Rain 10 1022 100 10000 0.5 0 08:41 23.01.2020
4153 Rain 10 1022 100 10000 0.5 0 08:22 23.01.2020
4154 Rain 10 1020 93 10000 1 350 07:45 23.01.2020
4155 Rain 10 1021 93 9000 2.6 310 07:26 23.01.2020
4156 Rain 10 1020 93 10000 1.5 40 06:53 23.01.2020
4157 Rain 10 1020 100 2600 1 0 06:23 23.01.2020
4158 Rain 10 1019 93 6000 1 0 05:57 23.01.2020
4159 Rain 11 1019 93 6000 1 0 04:24 23.01.2020
4160 Rain 13 1019 87 10000 2.6 110 02:34 23.01.2020
4161 Drizzle 13 1019 93 6000 0.5 230 01:41 23.01.2020
4162 Rain 14 1019 87 9000 1 0 00:28 23.01.2020
4163 Drizzle 14 1019 87 8000 2.6 70 23:48 22.01.2020
4164 Rain 14 1019 87 8000 2.1 60 23:30 22.01.2020
4165 Drizzle 14 1019 87 8000 1 0 22:59 22.01.2020
4166 Rain 14 1018 87 10000 1.5 350 22:41 22.01.2020
4167 Rain 14 1018 87 10000 1.5 350 22:23 22.01.2020
4168 Mist 14 1017 87 4500 4.1 40 21:42 22.01.2020
4169 Rain 14 1018 87 10000 2.1 60 21:22 22.01.2020
4170 Rain 14 1018 87 10000 3.1 60 20:59 22.01.2020
4171 Rain 14 1018 87 10000 3.6 60 20:41 22.01.2020
4172 Clouds 14 1018 87 10000 3.6 60 20:23 22.01.2020
4173 Clouds 14 1018 87 10000 3.6 60 19:57 22.01.2020
4174 Mist 14 1017 87 4500 2.6 40 19:39 22.01.2020
4175 Mist 14 1016 87 4500 2.6 40 19:19 22.01.2020
4176 Clouds 15 1017 87 10000 3.1 90 18:57 22.01.2020
4177 Clouds 15 1017 82 10000 3.1 90 18:38 22.01.2020
4178 Clouds 15 1017 82 10000 3.1 90 18:20 22.01.2020
4179 Clouds 15 1017 82 10000 3.6 100 17:55 22.01.2020
4180 Clouds 15 1017 82 10000 2.1 100 17:37 22.01.2020
4181 Mist 16 1016 82 4500 2.1 110 17:19 22.01.2020
4182 Mist 17 1016 72 4500 2.6 120 16:43 22.01.2020
4183 Clouds 17 1017 67 10000 3.6 110 16:23 22.01.2020
4184 Clouds 17 1017 67 10000 4.1 120 15:59 22.01.2020
4185 Clouds 17 1017 72 10000 3.1 110 15:40 22.01.2020
4186 Clouds 17 1017 72 10000 3.1 110 15:22 22.01.2020
4187 Clouds 17 1018 77 10000 2.1 130 14:57 22.01.2020
4188 Clouds 17 1018 82 10000 3.1 60 14:37 22.01.2020
4189 Mist 16 1017 82 4500 3.6 130 14:18 22.01.2020
4190 Clouds 16 1018 82 10000 3.6 60 13:54 22.01.2020
4191 Clouds 16 1019 82 10000 3.1 60 13:36 22.01.2020
4192 Mist 16 1018 87 4500 3.6 70 13:18 22.01.2020
4193 Clouds 16 1019 77 10000 5.1 70 12:55 22.01.2020
4194 Mist 15 1018 87 4500 4.1 60 12:37 22.01.2020
4195 Mist 15 1019 82 4500 3.6 60 12:18 22.01.2020
4196 Clouds 15 1020 82 10000 3.6 60 11:56 22.01.2020
4197 Clouds 15 1020 77 10000 4.6 50 11:37 22.01.2020
4198 Clouds 14 1019 87 6000 4.1 70 11:18 22.01.2020
4199 Clouds 13 1019 87 6000 4.6 60 10:44 22.01.2020
4200 Clouds 12 1020 76 7000 2.6 360 10:20 22.01.2020
4201 Clouds 11 1020 81 7000 1.5 360 09:44 22.01.2020
4202 Clouds 11 1020 81 7000 1.5 360 09:25 22.01.2020
4203 Clouds 10 1020 81 7000 2.6 20 08:59 22.01.2020
4204 Mist 10 1019 93 4500 0.5 0 08:40 22.01.2020
4205 Clouds 10 1019 87 7000 3.1 350 08:21 22.01.2020
4206 Clouds 10 1020 81 7000 2.6 330 07:58 22.01.2020
4207 Clouds 10 1020 81 7000 2.6 330 07:58 22.01.2020
4208 Clouds 9 1019 100 10000 3.1 70 07:40 22.01.2020
4209 Clouds 9 1020 87 8000 1.5 330 07:21 22.01.2020
4210 Fog 9 1019 100 8000 2.1 10 06:31 22.01.2020
4211 Fog 9 1019 93 4000 2.6 50 05:42 22.01.2020
4212 Clear 11 1020 87 10000 3.1 350 04:23 22.01.2020
4213 Clear 11 1020 87 10000 3.1 340 03:26 22.01.2020
4214 Clouds 11 1019 100 7000 2.1 80 02:38 22.01.2020
4215 Clear 12 1020 93 8000 2.6 70 00:46 22.01.2020
4216 Clear 12 1020 93 8000 2.6 70 00:27 22.01.2020
4217 Clear 12 1021 93 8000 3.1 60 23:55 21.01.2020
4218 Thunderstorm 12 1020 93 9000 3.1 60 23:36 21.01.2020
4219 Thunderstorm 12 1020 93 9000 3.1 60 23:18 21.01.2020
4220 Thunderstorm 12 1020 93 9000 3.1 60 23:18 21.01.2020
4221 Thunderstorm 12 1020 93 9000 3.1 60 23:18 21.01.2020
4222 Clouds 12 1019 100 10000 2.6 80 22:40 21.01.2020
4223 Clear 12 1020 93 10000 3.6 70 22:20 21.01.2020
4224 Clear 12 1020 93 10000 3.6 70 21:57 21.01.2020
4225 Clear 13 1020 87 10000 3.6 70 21:38 21.01.2020
4226 Clouds 13 1018 93 10000 2.6 80 21:20 21.01.2020
4227 Clear 13 1019 87 10000 3.1 60 20:56 21.01.2020
4228 Clear 13 1019 82 10000 4.1 80 20:37 21.01.2020
4229 Rain 13 1019 82 10000 4.1 80 20:19 21.01.2020
4230 Rain 14 1019 87 10000 3.1 90 19:56 21.01.2020
4231 Rain 14 1019 87 10000 3.1 90 19:56 21.01.2020
4232 Clouds 14 1018 87 10000 3.1 80 19:38 21.01.2020
4233 Rain 14 1018 82 10000 3.6 110 19:20 21.01.2020
4234 Rain 14 1018 82 10000 3.1 110 18:55 21.01.2020
4235 Rain 14 1017 82 10000 3.6 100 18:37 21.01.2020
4236 Rain 14 1016 82 6000 4.1 110 18:18 21.01.2020
4237 Rain 14 1016 82 6000 4.6 120 17:45 21.01.2020
4238 Thunderstorm 15 1017 82 10000 4.6 110 17:20 21.01.2020
4239 Rain 15 1017 82 1900 5.7 120 16:59 21.01.2020
4240 Rain 14 1016 82 4000 5.7 120 16:37 21.01.2020
4241 Rain 14 1017 76 10000 6.7 100 16:19 21.01.2020
4242 Rain 15 1016 82 2000 8.2 130 15:54 21.01.2020
4243 Rain 15 1017 82 6000 8.2 100 15:36 21.01.2020
4244 Rain 15 1017 82 6000 8.2 100 15:18 21.01.2020
4245 Drizzle 15 1017 77 10000 7.7 100 14:38 21.01.2020
4246 Drizzle 15 1017 77 10000 7.7 100 14:20 21.01.2020
4247 Drizzle 15 1018 82 8000 8.7 90 13:40 21.01.2020
4248 Drizzle 15 1018 82 8000 8.7 90 13:19 21.01.2020
4249 Drizzle 15 1018 77 10000 10.8 90 12:56 21.01.2020
4250 Rain 15 1018 77 10000 8.7 90 12:37 21.01.2020
4251 Rain 15 1018 77 10000 8.7 90 12:19 21.01.2020
4252 Rain 15 1017 82 9000 7.7 110 11:40 21.01.2020
4253 Rain 15 1019 77 10000 8.2 90 11:21 21.01.2020
4254 Rain 15 1019 87 4600 6.7 100 10:57 21.01.2020
4255 Rain 15 1019 87 4600 6.7 100 10:57 21.01.2020
4256 Rain 15 1018 82 10000 7.7 90 10:39 21.01.2020
4257 Rain 15 1018 82 10000 7.7 90 10:20 21.01.2020
4258 Rain 15 1017 82 9000 7.7 90 09:42 21.01.2020
4259 Rain 15 1017 87 9000 6.2 80 09:23 21.01.2020
4260 Rain 15 1018 82 10000 7.2 80 08:54 21.01.2020
4261 Rain 14 1017 87 9000 7.2 80 08:36 21.01.2020
4262 Rain 14 1018 87 6000 6.7 80 08:18 21.01.2020
4263 Rain 14 1019 87 10000 7.2 90 07:41 21.01.2020
4264 Rain 14 1019 87 10000 7.2 90 07:22 21.01.2020
4265 Rain 14 1017 87 10000 6.7 90 06:49 21.01.2020
4266 Rain 14 1018 82 10000 7.7 90 06:30 21.01.2020
4267 Clouds 14 1017 82 10000 6.2 90 05:43 21.01.2020
4268 Clouds 15 1017 82 10000 5.7 90 04:41 21.01.2020
4269 Rain 14 1019 82 10000 9.3 90 02:57 21.01.2020
4270 Clouds 14 1018 82 10000 7.2 90 02:19 21.01.2020
4271 Drizzle 14 1020 87 10000 6.7 70 01:26 21.01.2020
4272 Clouds 14 1019 87 10000 5.1 70 00:38 21.01.2020
4273 Rain 14 1020 87 10000 7.7 60 23:59 20.01.2020
4274 Clouds 14 1019 87 10000 5.7 60 23:41 20.01.2020
4275 Clouds 14 1019 87 10000 6.2 60 23:19 20.01.2020
4276 Thunderstorm 13 1021 82 10000 6.2 50 22:58 20.01.2020
4277 Clouds 13 1020 87 10000 5.7 70 22:38 20.01.2020
4278 Rain 13 1021 82 10000 4.6 60 22:20 20.01.2020
4279 Clouds 13 1020 87 10000 3.1 70 22:20 20.01.2020
4280 Rain 13 1021 82 7000 5.7 60 21:58 20.01.2020
4281 Clouds 13 1020 87 10000 3.1 80 21:37 20.01.2020
4282 Clouds 12 1020 93 10000 3.6 80 21:19 20.01.2020
4283 Rain 12 1021 87 10000 4.6 60 20:57 20.01.2020
4284 Rain 12 1020 87 10000 4.1 70 20:38 20.01.2020
4285 Rain 12 1021 87 10000 5.1 60 20:19 20.01.2020
4286 Rain 12 1021 93 10000 5.1 60 19:56 20.01.2020
4287 Rain 12 1021 93 10000 5.1 60 19:56 20.01.2020
4288 Rain 11 1020 93 10000 4.1 80 19:38 20.01.2020
4289 Rain 11 1020 87 10000 4.1 50 19:18 20.01.2020
4290 Clouds 11 1019 87 10000 3.6 70 18:44 20.01.2020
4291 Rain 12 1020 87 10000 5.1 50 18:23 20.01.2020
4292 Rain 12 1019 93 10000 4.6 60 17:58 20.01.2020
4293 Rain 12 1019 93 10000 4.1 70 17:36 20.01.2020
4294 Rain 12 1019 93 10000 4.1 70 17:36 20.01.2020
4295 Rain 12 1019 93 10000 4.1 70 17:18 20.01.2020
4296 Rain 13 1019 87 10000 3.6 70 16:43 20.01.2020
4297 Rain 12 1019 93 10000 4.1 70 16:25 20.01.2020
4298 Rain 13 1019 93 10000 7.2 60 15:58 20.01.2020
4299 Rain 13 1019 93 10000 7.2 60 15:39 20.01.2020
4300 Rain 13 1019 93 10000 7.2 60 15:21 20.01.2020
4301 Rain 12 1018 93 10000 6.7 60 14:55 20.01.2020
4302 Rain 13 1018 93 4000 2.6 50 14:36 20.01.2020
4303 Rain 13 1018 93 4000 2.6 50 14:18 20.01.2020
4304 Clouds 14 1018 82 10000 6.2 70 13:41 20.01.2020
4305 Rain 14 1019 82 10000 6.7 80 13:22 20.01.2020
4306 Rain 13 1019 82 10000 7.7 50 12:56 20.01.2020
4307 Clouds 13 1018 87 10000 7.2 60 12:38 20.01.2020
4308 Rain 13 1019 82 10000 9.8 60 12:19 20.01.2020
4309 Rain 13 1018 87 10000 9.8 70 11:43 20.01.2020
4310 Rain 12 1019 87 6000 11.3 60 11:24 20.01.2020
4311 Rain 11 1019 93 2400 3.1 50 10:57 20.01.2020
4312 Rain 10 1019 93 4600 3.6 80 10:39 20.01.2020
4313 Rain 11 1018 93 8000 6.2 80 10:19 20.01.2020
4314 Rain 11 1017 93 8000 6.7 60 09:41 20.01.2020
4315 Rain 11 1017 93 8000 6.7 60 09:41 20.01.2020
4316 Drizzle 11 1018 87 10000 9.3 70 09:21 20.01.2020
4317 Rain 11 1017 87 9000 8.7 70 08:49 20.01.2020
4318 Rain 11 1017 87 5000 7.7 60 08:30 20.01.2020
4319 Rain 11 1017 87 3700 10.3 50 07:54 20.01.2020
4320 Rain 11 1017 81 10000 10.3 50 07:30 20.01.2020
4321 Rain 11 1017 81 10000 11.8 50 06:59 20.01.2020
4322 Drizzle 11 1017 93 5000 12.3 60 06:34 20.01.2020
4323 Rain 11 1016 87 10000 13.4 60 05:49 20.01.2020
4324 Rain 11 1016 87 3900 11.8 50 05:30 20.01.2020
4325 Rain 10 1016 87 4400 12.9 50 04:58 20.01.2020
4326 Rain 10 1017 87 3900 10.8 50 03:30 20.01.2020
4327 Rain 10 1016 87 5000 11.3 50 01:58 20.01.2020
4328 Rain 10 1017 87 3200 12.3 50 01:38 20.01.2020
4329 Rain 10 1017 81 8000 12.3 50 00:46 20.01.2020
4330 Rain 10 1017 87 3000 13.9 60 00:26 20.01.2020
4331 Rain 10 1017 87 3600 12.9 50 23:54 19.01.2020
4332 Rain 10 1016 81 5000 11.8 50 23:36 19.01.2020
4333 Rain 10 1016 81 5000 11.8 50 23:18 19.01.2020
4334 Rain 10 1016 81 8000 12.9 50 22:54 19.01.2020
4335 Drizzle 10 1017 81 8000 11.8 40 22:36 19.01.2020
4336 Drizzle 10 1017 81 8000 11.8 40 22:18 19.01.2020
4337 Rain 10 1017 81 10000 9.8 50 21:54 19.01.2020
4338 Drizzle 10 1017 81 10000 11.8 50 21:36 19.01.2020
4339 Drizzle 10 1017 81 10000 11.8 50 21:18 19.01.2020
4340 Rain 10 1017 81 7000 14.9 50 20:54 19.01.2020
4341 Rain 10 1016 81 7000 11.8 50 20:36 19.01.2020
4342 Rain 10 1016 81 7000 11.8 50 20:18 19.01.2020
4343 Drizzle 10 1016 81 8000 11.3 50 19:54 19.01.2020
4344 Drizzle 10 1016 81 10000 9.8 50 19:36 19.01.2020
4345 Drizzle 10 1016 81 10000 9.8 50 19:18 19.01.2020
4346 Rain 10 1016 81 9000 10.8 50 18:54 19.01.2020
4347 Rain 10 1016 87 4600 12.9 60 18:36 19.01.2020
4348 Rain 10 1016 87 4600 12.9 60 18:36 19.01.2020
4349 Rain 11 1015 87 5000 12.9 60 18:18 19.01.2020
4350 Rain 11 1015 81 5000 12.3 50 17:55 19.01.2020
4351 Rain 11 1015 81 8000 11.3 50 17:37 19.01.2020
4352 Rain 11 1015 81 8000 11.3 50 17:18 19.01.2020
4353 Rain 11 1015 87 8000 10.8 50 16:54 19.01.2020
4354 Rain 11 1014 93 5000 11.3 50 16:36 19.01.2020
4355 Rain 11 1015 87 7000 11.8 60 16:18 19.01.2020
4356 Rain 11 1014 87 5000 11.8 50 15:40 19.01.2020
4357 Rain 11 1015 87 6000 9.3 50 15:22 19.01.2020
4358 Rain 11 1015 87 7000 8.7 50 14:59 19.01.2020
4359 Rain 11 1015 87 7000 8.7 50 14:59 19.01.2020
4360 Rain 11 1014 87 6000 10.3 50 14:40 19.01.2020
4361 Rain 11 1014 87 6000 9.8 50 14:19 19.01.2020
4362 Rain 11 1016 93 5000 8.2 50 13:58 19.01.2020
4363 Rain 12 1016 87 10000 7.2 50 13:39 19.01.2020
4364 Rain 12 1016 87 10000 7.2 50 13:21 19.01.2020
4365 Drizzle 12 1016 87 10000 8.2 50 12:58 19.01.2020
4366 Drizzle 12 1016 87 10000 8.2 50 12:58 19.01.2020
4367 Drizzle 12 1017 87 10000 7.7 70 12:40 19.01.2020
4368 Drizzle 12 1017 87 10000 7.7 70 12:21 19.01.2020
4369 Rain 12 1017 93 5000 8.2 60 11:57 19.01.2020
4370 Rain 12 1017 93 7000 5.7 60 11:37 19.01.2020
4371 Rain 12 1017 93 7000 5.7 60 11:18 19.01.2020
4372 Rain 12 1015 100 8000 3.1 70 10:40 19.01.2020
4373 Rain 12 1016 93 10000 4.6 60 10:20 19.01.2020
4374 Drizzle 12 1016 93 10000 4.6 60 09:57 19.01.2020
4375 Rain 12 1015 93 8000 5.7 60 09:38 19.01.2020
4376 Rain 12 1016 93 10000 5.1 60 09:20 19.01.2020
4377 Rain 12 1015 87 6000 4.6 70 08:55 19.01.2020
4378 Drizzle 11 1016 93 10000 5.1 50 08:33 19.01.2020
4379 Rain 11 1016 93 10000 4.1 50 07:58 19.01.2020
4380 Rain 11 1016 93 10000 4.1 50 07:29 19.01.2020
4381 Rain 11 1016 93 10000 3.1 50 06:55 19.01.2020
4382 Drizzle 11 1017 93 10000 2.6 60 06:23 19.01.2020
4383 Rain 11 1017 93 10000 0.5 50 04:19 19.01.2020
4384 Rain 11 1020 93 10000 1 0 02:35 19.01.2020
4385 Clouds 10 1020 93 10000 0.5 40 01:45 19.01.2020
4386 Clouds 10 1021 87 10000 0.5 0 01:22 19.01.2020
4387 Clouds 10 1022 93 10000 1.5 20 00:45 19.01.2020
4388 Clouds 9 1021 100 10000 1.5 360 00:25 19.01.2020
4389 Clouds 9 1022 93 10000 1.5 320 23:55 18.01.2020
4390 Clouds 9 1022 87 10000 1.5 330 23:36 18.01.2020
4391 Clouds 9 1021 100 10000 0.5 70 23:18 18.01.2020
4392 Clouds 9 1023 93 10000 1.5 20 22:54 18.01.2020
4393 Clouds 8 1023 87 10000 2.1 350 22:36 18.01.2020
4394 Clouds 8 1023 87 10000 2.1 350 22:36 18.01.2020
4395 Clouds 9 1023 87 10000 2.1 350 22:18 18.01.2020
4396 Clouds 9 1023 87 10000 2.1 350 21:55 18.01.2020
4397 Clouds 9 1023 87 10000 1.5 360 21:36 18.01.2020
4398 Clouds 9 1022 93 10000 1.5 60 21:18 18.01.2020
4399 Clouds 10 1023 87 10000 2.6 60 20:41 18.01.2020
4400 Clouds 10 1023 87 10000 1.5 50 20:19 18.01.2020
4401 Clouds 11 1024 87 10000 2.1 360 19:54 18.01.2020
4402 Clouds 11 1025 76 10000 1.5 40 19:36 18.01.2020
4403 Clouds 11 1025 76 10000 1.5 40 19:18 18.01.2020
4404 Clouds 12 1024 87 10000 1 0 18:40 18.01.2020
4405 Clouds 12 1025 81 10000 2.6 210 18:21 18.01.2020
4406 Clouds 14 1026 62 10000 2.6 200 17:41 18.01.2020
4407 Clouds 15 1026 62 10000 2.6 200 17:21 18.01.2020
4408 Clouds 15 1026 62 10000 3.6 220 16:59 18.01.2020
4409 Clouds 15 1025 62 10000 1.5 210 16:41 18.01.2020
4410 Clouds 16 1026 62 10000 4.6 210 16:22 18.01.2020
4411 Clouds 15 1027 58 10000 3.6 210 15:58 18.01.2020
4412 Clouds 16 1026 59 10000 2.6 250 15:40 18.01.2020
4413 Clouds 16 1027 58 10000 3.1 210 15:21 18.01.2020
4414 Clouds 15 1026 51 10000 1.5 260 14:44 18.01.2020
4415 Clouds 15 1028 51 10000 1.5 0 14:21 18.01.2020
4416 Clouds 14 1029 62 10000 2.1 230 13:59 18.01.2020
4417 Clouds 14 1028 67 10000 2.3 159 13:41 18.01.2020
4418 Clouds 14 1029 62 10000 1 0 13:21 18.01.2020
4419 Clouds 13 1030 66 10000 1 0 12:55 18.01.2020
4420 Clouds 13 1031 71 10000 1 0 12:37 18.01.2020
4421 Clouds 12 1031 71 10000 1 0 12:19 18.01.2020
4422 Clouds 11 1031 81 10000 1 124 11:44 18.01.2020
4423 Clouds 10 1031 81 10000 0.5 320 11:21 18.01.2020
4424 Clouds 9 1032 81 10000 2.1 340 10:54 18.01.2020
4425 Clouds 8 1032 81 10000 1.5 340 10:36 18.01.2020
4426 Clouds 9 1031 100 10000 2.04 95 10:18 18.01.2020
4427 Clouds 9 1031 93 10000 1 0 09:42 18.01.2020
4428 Clouds 7 1031 100 10000 0.5 0 09:20 18.01.2020
4429 Clouds 7 1032 87 10000 1.5 10 08:55 18.01.2020
4430 Clouds 7 1032 93 10000 2.1 350 08:36 18.01.2020
4431 Clouds 7 1031 100 10000 0.5 0 08:18 18.01.2020
4432 Clouds 6 1031 100 10000 1 20 07:40 18.01.2020
4433 Clouds 6 1031 86 10000 2.1 340 07:20 18.01.2020
4434 Clouds 6 1031 86 10000 1.5 0 06:45 18.01.2020
4435 Clouds 7 1031 87 10000 2.1 20 05:53 18.01.2020
4436 Clouds 7 1032 93 10000 2.6 10 04:28 18.01.2020
4437 Clouds 8 1032 81 10000 1.5 0 02:49 18.01.2020
4438 Clouds 9 1032 76 10000 2.6 130 01:47 18.01.2020
4439 Clouds 9 1031 81 10000 2.6 360 00:40 18.01.2020
4440 Clouds 8 1030 93 10000 2.1 110 00:21 18.01.2020
4441 Clouds 10 1031 81 10000 3.1 350 23:59 17.01.2020
4442 Clouds 9 1030 87 10000 1.5 60 23:40 17.01.2020
4443 Clouds 10 1031 81 10000 1 0 23:19 17.01.2020
4444 Clouds 11 1030 87 10000 0.5 0 22:43 17.01.2020
4445 Clouds 11 1031 76 10000 1 0 22:21 17.01.2020
4446 Clouds 11 1031 76 10000 0.5 0 21:58 17.01.2020
4447 Clouds 11 1030 87 10000 3.81 316 21:40 17.01.2020
4448 Clouds 11 1031 76 10000 1 0 21:22 17.01.2020
4449 Clouds 12 1031 76 10000 0.5 0 20:55 17.01.2020
4450 Clouds 12 1030 71 10000 0.5 0 20:37 17.01.2020
4451 Clear 12 1030 71 10000 0.5 0 20:19 17.01.2020
4452 Clear 12 1030 71 10000 1.5 50 19:54 17.01.2020
4453 Clear 13 1030 66 10000 1.5 330 19:36 17.01.2020
4454 Clouds 13 1028 66 10000 0.5 190 19:18 17.01.2020
4455 Clear 13 1030 66 10000 1.5 330 19:18 17.01.2020
4456 Clouds 14 1028 62 10000 0.5 330 18:45 17.01.2020
4457 Clear 14 1028 54 10000 2.6 320 18:27 17.01.2020
4458 Clear 15 1028 51 10000 3.1 300 17:56 17.01.2020
4459 Clear 16 1027 48 10000 2.6 270 17:38 17.01.2020
4460 Clear 17 1027 48 10000 2.6 270 17:20 17.01.2020
4461 Clear 17 1027 45 10000 4.6 310 16:42 17.01.2020
4462 Clear 17 1026 48 10000 3.6 280 16:42 17.01.2020
4463 Clouds 17 1026 45 10000 5.1 240 16:20 17.01.2020
4464 Clear 17 1027 45 10000 4.6 310 15:49 17.01.2020
4465 Clear 17 1027 45 10000 4.1 300 15:28 17.01.2020
4466 Clear 17 1027 51 10000 5.1 280 14:59 17.01.2020
4467 Clear 17 1027 51 10000 4.6 270 14:40 17.01.2020
4468 Clear 17 1027 51 10000 4.6 270 14:22 17.01.2020
4469 Clouds 17 1026 59 10000 9.3 250 13:42 17.01.2020
4470 Clear 17 1028 51 10000 5.7 250 13:22 17.01.2020
4471 Clouds 17 1027 72 10000 6.2 230 12:46 17.01.2020
4472 Clouds 17 1028 77 10000 6.2 230 12:23 17.01.2020
4473 Clear 17 1029 51 10000 6.7 240 12:23 17.01.2020
4474 Clear 16 1029 87 10000 3.6 210 11:41 17.01.2020
4475 Clear 16 1029 87 10000 3.6 210 11:20 17.01.2020
4476 Clear 15 1029 87 10000 2.6 240 10:56 17.01.2020
4477 Clear 15 1029 93 10000 2.6 250 10:38 17.01.2020
4478 Clear 14 1029 93 10000 2.6 250 10:20 17.01.2020
4479 Clear 14 1029 93 10000 1 0 09:44 17.01.2020
4480 Clear 13 1029 93 10000 1 0 09:21 17.01.2020
4481 Clear 13 1028 93 10000 1.5 320 08:58 17.01.2020
4482 Clouds 13 1028 87 10000 3.1 220 08:40 17.01.2020
4483 Clouds 12 1029 93 10000 0.5 0 08:21 17.01.2020
4484 Clouds 13 1027 87 10000 3.6 230 07:48 17.01.2020
4485 Clouds 11 1028 93 10000 0.5 50 07:29 17.01.2020
4486 Clouds 11 1028 93 10000 1 0 06:56 17.01.2020
4487 Clouds 11 1028 93 10000 1 340 06:36 17.01.2020
4488 Clouds 10 1027 100 10000 1.5 50 05:19 17.01.2020
4489 Clear 12 1027 10 0 4.87 222 03:38 17.01.2020
4490 Clouds 12 1028 93 10000 0.5 50 02:42 17.01.2020
4491 Clear 12 1025 91 0 0.45 76 01:45 17.01.2020
4492 Clear 12 1028 10 0 4.12 216 01:27 17.01.2020
4493 Clear 12 1028 10 0 4.12 216 00:43 17.01.2020
4494 Clear 11 1029 93 8000 0.5 310 00:19 17.01.2020
4495 Clear 11 1029 93 8000 0.5 310 23:41 16.01.2020
4496 Clear 11 1029 93 8000 0.5 310 23:41 16.01.2020
4497 Clear 11 1029 93 8000 0.5 310 23:23 16.01.2020
4498 Clear 11 1029 93 6000 1 0 22:43 16.01.2020
4499 Clouds 11 1028 100 10000 1 0 22:22 16.01.2020
4500 Clear 11 1029 93 7000 1 350 21:57 16.01.2020
4501 Clouds 11 1028 100 10000 1 0 21:39 16.01.2020
4502 Clear 11 1029 93 8000 0.5 10 21:19 16.01.2020
4503 Clear 11 1029 93 9000 1 0 20:59 16.01.2020
4504 Clouds 11 1028 93 10000 1.5 60 20:39 16.01.2020
4505 Clear 12 1029 93 10000 1 30 20:20 16.01.2020
4506 Clear 12 1029 87 10000 1.5 10 19:57 16.01.2020
4507 Clear 13 1029 87 10000 0.5 0 19:39 16.01.2020
4508 Clear 13 1029 87 10000 0.5 0 19:20 16.01.2020
4509 Clear 13 1029 87 10000 0.5 180 18:56 16.01.2020
4510 Clear 14 1028 87 10000 1.5 170 18:37 16.01.2020
4511 Clear 14 1028 87 10000 1.5 170 18:18 16.01.2020
4512 Clear 14 1028 87 10000 1.5 170 18:18 16.01.2020
4513 Clear 14 1028 87 10000 1.5 170 18:18 16.01.2020
4514 Clear 14 1028 82 10000 2.1 190 17:56 16.01.2020
4515 Clear 15 1028 77 10000 3.6 200 17:38 16.01.2020
4516 Clear 15 1028 77 10000 3.6 200 17:19 16.01.2020
4517 Clouds 16 1027 77 10000 3.6 220 16:40 16.01.2020
4518 Clear 16 1028 77 10000 4.6 210 16:21 16.01.2020
4519 Clear 16 1028 72 10000 4.1 210 15:56 16.01.2020
4520 Clouds 16 1027 77 10000 3.6 220 15:38 16.01.2020
4521 Clouds 16 1027 77 10000 3.1 210 15:19 16.01.2020
4522 Clear 16 1028 72 10000 3.6 200 14:42 16.01.2020
4523 Clouds 16 1028 72 10000 3.6 200 14:23 16.01.2020
4524 Clouds 16 1028 77 10000 2.6 210 13:47 16.01.2020
4525 Clouds 16 1029 72 10000 2.6 210 13:29 16.01.2020
4526 Clouds 16 1029 72 10000 1 0 12:59 16.01.2020
4527 Clouds 15 1028 77 10000 1.5 270 12:40 16.01.2020
4528 Clouds 15 1030 72 10000 1 320 12:21 16.01.2020
4529 Clouds 15 1029 72 10000 0.5 0 11:43 16.01.2020
4530 Clouds 14 1030 71 10000 1.5 340 11:24 16.01.2020
4531 Clouds 12 1030 71 10000 1.5 350 10:57 16.01.2020
4532 Clouds 10 1030 81 10000 1.5 340 10:38 16.01.2020
4533 Fog 10 1029 81 10000 2.12 108 10:20 16.01.2020
4534 Clouds 9 1030 81 10000 2.6 350 09:54 16.01.2020
4535 Clouds 7 1030 87 10000 3.1 350 09:36 16.01.2020
4536 Clouds 7 1030 87 10000 3.1 350 09:18 16.01.2020
4537 Clouds 6 1029 100 10000 1 60 08:42 16.01.2020
4538 Clouds 7 1029 100 10000 1 30 08:23 16.01.2020
4539 Clouds 6 1028 100 10000 2.1 360 07:43 16.01.2020
4540 Clouds 6 1029 86 10000 2.6 340 07:25 16.01.2020
4541 Clouds 6 1029 86 10000 2.1 340 06:56 16.01.2020
4542 Clouds 7 1029 86 10000 2.1 360 06:37 16.01.2020
4543 Clouds 7 1029 86 10000 2.1 360 05:56 16.01.2020
4544 Clouds 7 1029 87 10000 2.6 10 05:31 16.01.2020
4545 Clouds 7 1028 93 10000 1 50 04:37 16.01.2020
4546 Clouds 7 1029 81 10000 1.5 340 03:28 16.01.2020
4547 Clouds 7 1028 87 10000 2.6 330 02:29 16.01.2020
4548 Clouds 7 1029 87 10000 2.1 350 00:48 16.01.2020
4549 Clouds 8 1029 87 10000 1 350 00:24 16.01.2020
4550 Clouds 8 1029 87 10000 2.1 340 23:48 15.01.2020
4551 Clouds 8 1028 87 10000 1.5 50 23:23 15.01.2020
4552 Clouds 9 1028 87 10000 2.1 350 22:57 15.01.2020
4553 Clouds 9 1028 87 10000 2.1 350 22:57 15.01.2020
4554 Clouds 9 1028 87 10000 0.5 0 22:39 15.01.2020
4555 Clouds 9 1028 87 10000 0.5 0 22:19 15.01.2020
4556 Clouds 9 1028 87 10000 1.5 20 21:57 15.01.2020
4557 Clouds 9 1028 87 10000 1.5 20 21:57 15.01.2020
4558 Clouds 10 1028 81 10000 1.5 10 21:38 15.01.2020
4559 Clouds 10 1028 81 10000 1.5 10 21:20 15.01.2020
4560 Clouds 10 1028 81 10000 1 0 20:57 15.01.2020
4561 Clouds 10 1028 81 10000 1 0 20:57 15.01.2020
4562 Clouds 10 1028 81 10000 1 0 20:57 15.01.2020
4563 Clouds 10 1027 87 10000 0.5 0 20:39 15.01.2020
4564 Clouds 10 1028 87 10000 2.1 320 20:20 15.01.2020
4565 Clouds 10 1028 87 10000 1.5 340 19:55 15.01.2020
4566 Clouds 11 1027 87 10000 1.5 40 19:37 15.01.2020
4567 Clouds 11 1026 81 10000 2.6 250 19:19 15.01.2020
4568 Clouds 12 1027 76 10000 1.5 270 18:56 15.01.2020
4569 Clouds 12 1027 76 10000 1.5 270 18:56 15.01.2020
4570 Clouds 12 1026 81 10000 3.1 260 18:38 15.01.2020
4571 Clouds 12 1027 76 10000 1.5 200 18:19 15.01.2020
4572 Clouds 13 1026 71 10000 2.1 220 17:58 15.01.2020
4573 Clouds 13 1026 66 10000 2.1 200 17:38 15.01.2020
4574 Clouds 13 1026 66 10000 2.1 200 17:20 15.01.2020
4575 Clouds 14 1025 71 10000 3.1 240 16:42 15.01.2020
4576 Clouds 14 1026 62 10000 3.6 220 16:23 15.01.2020
4577 Clouds 14 1026 58 10000 4.1 210 15:59 15.01.2020
4578 Clouds 14 1025 67 10000 5.1 250 15:41 15.01.2020
4579 Clouds 14 1026 62 10000 4.6 240 15:20 15.01.2020
4580 Clouds 15 1026 58 10000 5.7 230 14:44 15.01.2020
4581 Clouds 15 1026 62 10000 5.1 230 14:21 15.01.2020
4582 Clouds 15 1026 58 10000 5.1 220 13:56 15.01.2020
4583 Clouds 15 1025 63 10000 5.1 250 13:38 15.01.2020
4584 Clouds 15 1026 58 10000 5.1 220 13:20 15.01.2020
4585 Clouds 15 1026 58 10000 5.1 220 12:54 15.01.2020
4586 Clouds 14 1026 67 10000 4.1 230 12:36 15.01.2020
4587 Clouds 14 1026 67 10000 4.1 230 12:18 15.01.2020
4588 Clouds 14 1026 67 10000 3.6 240 11:38 15.01.2020
4589 Clouds 14 1026 72 10000 3.6 240 11:20 15.01.2020
4590 Clouds 13 1025 87 10000 0.5 0 10:47 15.01.2020
4591 Clouds 13 1026 87 10000 0.5 0 10:28 15.01.2020
4592 Clouds 11 1026 87 10000 0.5 0 09:58 15.01.2020
4593 Clouds 11 1025 87 10000 1 0 09:39 15.01.2020
4594 Clouds 11 1025 87 10000 1 0 09:19 15.01.2020
4595 Clouds 10 1024 93 10000 1.5 50 08:44 15.01.2020
4596 Clouds 10 1025 93 10000 1.5 360 08:24 15.01.2020
4597 Clouds 10 1025 93 10000 1.5 360 07:54 15.01.2020
4598 Clouds 10 1024 87 10000 1.5 360 07:33 15.01.2020
4599 Clouds 10 1024 87 10000 1 0 06:53 15.01.2020
4600 Clouds 10 1024 81 10000 1.5 40 06:28 15.01.2020
4601 Clouds 12 1024 76 10000 1.5 220 04:57 15.01.2020
4602 Clouds 13 1024 76 10000 3.1 220 03:20 15.01.2020
4603 Clouds 11 1023 81 10000 2.6 170 01:48 15.01.2020
4604 Clouds 11 1025 76 10000 2.1 100 01:22 15.01.2020
4605 Clouds 10 1025 81 10000 2.1 100 00:37 15.01.2020
4606 Clouds 11 1025 81 10000 2.1 100 00:19 15.01.2020
4607 Clouds 12 1025 76 10000 2.1 120 23:46 14.01.2020
4608 Clouds 12 1025 76 10000 2.1 120 23:28 14.01.2020
4609 Clouds 11 1025 76 10000 2.6 130 22:57 14.01.2020
4610 Clouds 11 1025 76 10000 2.1 130 22:39 14.01.2020
4611 Clouds 10 1025 76 10000 2.1 130 22:18 14.01.2020
4612 Clouds 10 1025 81 10000 2.6 110 21:57 14.01.2020
4613 Clouds 10 1025 81 10000 2.6 100 21:38 14.01.2020
4614 Clouds 11 1025 81 10000 2.6 100 21:19 14.01.2020
4615 Clouds 10 1025 81 10000 2.1 80 20:54 14.01.2020
4616 Clouds 11 1025 76 10000 1.5 100 20:36 14.01.2020
4617 Clear 11 1025 76 10000 1.5 100 20:18 14.01.2020
4618 Clear 12 1025 76 10000 1.5 100 19:54 14.01.2020
4619 Clear 12 1024 71 10000 1 0 19:36 14.01.2020
4620 Clear 13 1024 71 10000 1 0 19:18 14.01.2020
4621 Clouds 13 1023 71 10000 2.1 160 18:40 14.01.2020
4622 Clear 13 1024 71 10000 2.6 180 18:20 14.01.2020
4623 Clear 14 1024 71 10000 2.6 180 17:56 14.01.2020
4624 Clear 14 1024 62 10000 3.6 190 17:36 14.01.2020
4625 Clouds 14 1023 62 10000 3.1 210 17:18 14.01.2020
4626 Clear 15 1023 58 10000 5.7 220 16:42 14.01.2020
4627 Clear 15 1023 58 10000 5.7 220 16:22 14.01.2020
4628 Clear 15 1023 58 10000 5.1 220 15:58 14.01.2020
4629 Clear 15 1023 67 10000 5.7 210 15:40 14.01.2020
4630 Clouds 15 1022 63 10000 4.6 210 15:19 14.01.2020
4631 Clear 15 1023 62 10000 6.7 210 14:44 14.01.2020
4632 Clouds 15 1023 62 10000 6.7 210 14:21 14.01.2020
4633 Clouds 15 1024 62 10000 6.2 210 13:57 14.01.2020
4634 Clouds 15 1023 67 10000 5.7 210 13:38 14.01.2020
4635 Clouds 15 1024 62 10000 6.2 210 13:18 14.01.2020
4636 Clouds 15 1023 63 10000 6.2 200 13:18 14.01.2020
4637 Clouds 15 1024 67 10000 5.1 210 12:42 14.01.2020
4638 Clouds 15 1024 67 10000 6.2 210 12:21 14.01.2020
4639 Clouds 15 1025 58 10000 5.7 220 11:56 14.01.2020
4640 Clouds 14 1025 67 10000 6.2 210 11:36 14.01.2020
4641 Clouds 14 1025 67 10000 6.2 210 11:18 14.01.2020
4642 Clouds 13 1024 67 10000 4.6 210 10:40 14.01.2020
4643 Clouds 14 1025 71 10000 1 0 10:20 14.01.2020
4644 Clouds 12 1024 87 10000 1 0 09:59 14.01.2020
4645 Clouds 12 1024 87 10000 1.5 20 09:40 14.01.2020
4646 Clouds 11 1024 87 10000 1.5 20 09:21 14.01.2020
4647 Clouds 11 1024 87 10000 1 0 08:56 14.01.2020
4648 Clouds 11 1023 76 10000 3.6 230 08:38 14.01.2020
4649 Clouds 11 1023 76 10000 3.6 230 08:19 14.01.2020
4650 Clouds 11 1023 76 10000 3.6 230 07:37 14.01.2020
4651 Clouds 11 1023 87 10000 1.5 350 06:59 14.01.2020
4652 Clouds 12 1023 81 10000 1 0 06:40 14.01.2020
4653 Clouds 11 1023 87 10000 0.5 0 05:35 14.01.2020
4654 Clouds 11 1023 87 10000 1 360 04:23 14.01.2020
4655 Clouds 11 1022 71 10000 4.1 230 03:43 14.01.2020
4656 Clouds 11 1024 87 10000 1.5 340 02:26 14.01.2020
4657 Clouds 10 1023 71 10000 4.6 220 01:18 14.01.2020
4658 Clouds 10 1023 76 10000 3.6 220 00:42 14.01.2020
4659 Clouds 10 1024 87 10000 1 10 00:21 14.01.2020
4660 Clouds 11 1023 71 10000 4.6 230 23:42 13.01.2020
4661 Clouds 11 1024 87 10000 1.5 10 23:18 13.01.2020
4662 Clouds 10 1025 87 10000 1 0 22:56 13.01.2020
4663 Clouds 10 1025 81 10000 1.5 360 22:37 13.01.2020
4664 Clouds 10 1025 81 10000 1.5 360 22:19 13.01.2020
4665 Clouds 10 1025 87 10000 1 30 21:54 13.01.2020
4666 Clouds 10 1024 87 10000 0.5 350 21:36 13.01.2020
4667 Clouds 10 1025 87 10000 1.5 80 21:18 13.01.2020
4668 Clouds 11 1025 81 10000 1 0 20:42 13.01.2020
4669 Clouds 11 1025 81 10000 1 0 20:23 13.01.2020
4670 Clouds 11 1025 76 10000 1 360 19:59 13.01.2020
4671 Clouds 11 1024 76 10000 1 0 19:41 13.01.2020
4672 Clouds 12 1025 71 10000 0.5 0 19:20 13.01.2020
4673 Clouds 12 1025 71 10000 1.5 230 18:58 13.01.2020
4674 Clouds 12 1025 71 10000 1.5 230 18:58 13.01.2020
4675 Clouds 12 1024 71 10000 2.6 230 18:38 13.01.2020
4676 Clouds 12 1024 71 10000 2.6 230 18:38 13.01.2020
4677 Clouds 12 1024 71 10000 3.1 230 18:19 13.01.2020
4678 Clouds 12 1024 71 10000 3.1 230 18:19 13.01.2020
4679 Clouds 13 1025 66 10000 3.1 210 17:58 13.01.2020
4680 Clouds 13 1025 66 10000 4.1 230 17:38 13.01.2020
4681 Clouds 13 1025 66 10000 4.1 230 17:20 13.01.2020
4682 Clouds 14 1024 71 10000 3.1 230 16:42 13.01.2020
4683 Clouds 14 1024 71 10000 3.1 230 16:42 13.01.2020
4684 Clouds 14 1025 72 0 4.02 200 16:23 13.01.2020
4685 Clouds 15 1025 71 0 2.68 211 15:59 13.01.2020
4686 Clouds 15 1024 10 0 4.69 223 15:41 13.01.2020
4687 Clouds 15 1024 10 0 4.69 223 15:21 13.01.2020
4688 Clouds 15 1024 10 0 4.69 223 14:43 13.01.2020
4689 Clear 15 1024 10 0 3.83 222 14:24 13.01.2020
4690 Clear 14 1026 72 0 4.47 205 13:59 13.01.2020
4691 Clear 15 1021 65 0 2.24 171 13:40 13.01.2020
4692 Clear 14 1025 10 0 3.87 222 13:22 13.01.2020
4693 Clear 14 1028 76 10000 2.6 200 12:58 13.01.2020
4694 Clear 13 1028 76 10000 2.6 200 12:40 13.01.2020
4695 Clear 12 1028 76 10000 2.6 200 12:21 13.01.2020
4696 Clouds 13 1027 76 10000 1 0 11:40 13.01.2020
4697 Clouds 11 1027 87 10000 1.03 237 11:20 13.01.2020
4698 Clear 12 1028 71 10000 1 0 11:20 13.01.2020
4699 Clear 11 1028 76 10000 1 0 10:58 13.01.2020
4700 Clear 11 1028 76 10000 1 0 10:58 13.01.2020
4701 Fog 9 1027 87 10000 1.03 237 10:39 13.01.2020
4702 Fog 9 1027 87 10000 1.03 237 10:39 13.01.2020
4703 Fog 9 1027 87 10000 1.03 237 10:39 13.01.2020
4704 Fog 8 1027 93 10000 1.03 237 10:21 13.01.2020
4705 Clear 8 1028 93 10000 0.5 0 09:59 13.01.2020
4706 Fog 7 1027 93 10000 1.03 237 09:40 13.01.2020
4707 Clear 6 1027 93 10000 2.1 10 09:22 13.01.2020
4708 Fog 5 1027 69 10000 1.03 237 08:41 13.01.2020
4709 Clear 5 1027 93 10000 2.1 340 08:21 13.01.2020
4710 Clear 5 1027 70 10000 1.5 350 07:54 13.01.2020
4711 Clear 6 1027 70 10000 1.5 30 07:35 13.01.2020
4712 Clouds 5 1026 70 10000 1.5 80 06:44 13.01.2020
4713 Clouds 5 1026 70 10000 0.5 0 06:22 13.01.2020
4714 Clear 5 1028 93 10000 1 0 05:36 13.01.2020
4715 Clear 4 1028 86 10000 1.5 350 04:25 13.01.2020
4716 Clear 5 1028 86 10000 2.1 10 03:26 13.01.2020
4717 Clouds 5 1028 100 10000 1 0 02:47 13.01.2020
4718 Clear 5 1029 86 10000 1.5 10 02:29 13.01.2020
4719 Clear 5 1029 93 10000 1.5 10 01:22 13.01.2020
4720 Clouds 5 1028 100 10000 1 0 01:22 13.01.2020
4721 Clouds 6 1029 93 10000 1 0 00:42 13.01.2020
4722 Clouds 6 1029 100 10000 1.16 327 00:24 13.01.2020
4723 Clear 6 1030 86 10000 2.1 360 23:55 12.01.2020
4724 Clear 6 1030 87 10000 1.5 20 23:36 12.01.2020
4725 Clouds 6 1029 100 10000 0.37 84 23:18 12.01.2020
4726 Clear 6 1030 87 10000 1.5 20 23:18 12.01.2020
4727 Clear 7 1030 87 10000 2.1 10 22:42 12.01.2020
4728 Clouds 7 1029 93 10000 1.5 60 22:24 12.01.2020
4729 Clear 7 1030 93 10000 2.6 360 21:57 12.01.2020
4730 Clouds 7 1029 100 10000 1 0 21:38 12.01.2020
4731 Clouds 8 1029 93 10000 0.37 84 21:19 12.01.2020
4732 Clear 8 1030 87 10000 2.1 360 20:57 12.01.2020
4733 Clouds 9 1029 93 10000 2.1 340 20:38 12.01.2020
4734 Clear 9 1030 81 10000 3.1 350 20:20 12.01.2020
4735 Clear 9 1030 81 10000 1.5 330 19:56 12.01.2020
4736 Clear 9 1030 81 10000 1.5 360 19:38 12.01.2020
4737 Clear 9 1030 81 10000 1.5 360 19:19 12.01.2020
4738 Clear 10 1030 76 10000 1 0 18:57 12.01.2020
4739 Clouds 11 1029 81 10000 1.5 170 18:39 12.01.2020
4740 Clear 11 1029 71 10000 1.5 120 18:21 12.01.2020
4741 Clear 12 1029 66 10000 2.1 350 17:56 12.01.2020
4742 Clear 13 1029 62 10000 2.6 310 17:37 12.01.2020
4743 Clear 13 1029 62 10000 2.6 310 17:18 12.01.2020
4744 Clear 14 1028 58 10000 3.1 300 16:55 12.01.2020
4745 Clear 14 1028 58 10000 3.6 310 16:37 12.01.2020
4746 Clouds 15 1027 55 10000 1.5 80 16:18 12.01.2020
4747 Clear 15 1028 54 10000 2.1 0 15:42 12.01.2020
4748 Clear 15 1028 54 10000 2.1 0 15:24 12.01.2020
4749 Clear 15 1028 54 10000 2.1 0 15:24 12.01.2020
4750 Clear 15 1028 54 10000 2.1 190 14:57 12.01.2020
4751 Clear 15 1028 54 10000 1 200 14:38 12.01.2020
4752 Clear 15 1028 54 10000 1 200 14:19 12.01.2020
4753 Clouds 15 1028 54 10000 0.5 110 13:43 12.01.2020
4754 Clear 14 1029 54 10000 1 0 13:24 12.01.2020
4755 Clear 14 1030 58 10000 1 210 12:58 12.01.2020
4756 Clouds 14 1029 62 10000 0.5 20 12:39 12.01.2020
4757 Clouds 14 1029 58 10000 3.05 331 12:20 12.01.2020
4758 Clear 13 1031 58 10000 1 0 11:58 12.01.2020
4759 Clouds 13 1030 66 10000 1 0 11:38 12.01.2020
4760 Clear 12 1031 66 10000 1 0 11:19 12.01.2020
4761 Clouds 10 1030 87 10000 1.6 13 10:41 12.01.2020
4762 Clouds 10 1030 87 10000 1.6 13 10:41 12.01.2020
4763 Clear 9 1031 81 10000 0.5 0 10:22 12.01.2020
4764 Clear 7 1030 87 10000 1 0 09:57 12.01.2020
4765 Clear 6 1030 93 10000 2.1 40 09:38 12.01.2020
4766 Clear 5 1030 93 10000 2.1 40 09:19 12.01.2020
4767 Clouds 4 1029 67 10000 1.5 70 08:45 12.01.2020
4768 Clear 5 1030 93 10000 2.1 10 08:20 12.01.2020
4769 Clouds 5 1029 100 10000 1.68 20 07:41 12.01.2020
4770 Clear 5 1030 86 10000 1 10 07:23 12.01.2020
4771 Clear 5 1029 93 10000 1 350 06:48 12.01.2020
4772 Clear 5 1029 86 10000 1.5 10 06:30 12.01.2020
4773 Clear 5 1030 93 10000 1.5 350 05:32 12.01.2020
4774 Clear 5 1030 86 10000 0.5 0 04:30 12.01.2020
4775 Clear 5 1030 86 10000 1 0 03:25 12.01.2020
4776 Clear 6 1030 86 10000 2.1 30 02:34 12.01.2020
4777 Clear 6 1030 86 10000 1.5 40 01:55 12.01.2020
4778 Clear 6 1030 86 10000 1.5 20 01:29 12.01.2020
4779 Clouds 6 1029 100 10000 2.01 25 00:42 12.01.2020
4780 Clear 6 1030 86 10000 1.5 310 00:20 12.01.2020
4781 Clear 7 1031 86 10000 1 0 23:55 11.01.2020
4782 Clear 7 1031 81 10000 1.5 350 23:37 11.01.2020
4783 Clear 7 1031 81 10000 1.5 350 23:18 11.01.2020
4784 Clouds 7 1030 93 10000 0.5 0 22:42 11.01.2020
4785 Clear 7 1031 87 10000 1.5 10 22:21 11.01.2020
4786 Clear 7 1031 87 10000 1 0 21:59 11.01.2020
4787 Clouds 8 1030 86 10000 1 80 21:41 11.01.2020
4788 Clear 8 1031 81 10000 1 0 21:18 11.01.2020
4789 Clear 8 1030 81 10000 1 100 20:55 11.01.2020
4790 Clear 8 1030 75 10000 1 140 20:36 11.01.2020
4791 Clear 9 1030 75 10000 0.5 0 20:18 11.01.2020
4792 Clear 9 1030 75 10000 0.5 0 19:54 11.01.2020
4793 Clear 10 1030 70 10000 1.5 80 19:36 11.01.2020
4794 Clear 10 1030 70 10000 1.5 80 19:18 11.01.2020
4795 Clear 10 1030 66 10000 3.1 340 18:54 11.01.2020
4796 Clear 11 1029 62 10000 4.1 340 18:36 11.01.2020
4797 Clear 11 1029 62 10000 4.1 340 18:18 11.01.2020
4798 Clear 11 1029 62 10000 4.1 350 17:54 11.01.2020
4799 Clear 12 1029 58 10000 4.6 340 17:36 11.01.2020
4800 Clouds 12 1028 58 10000 3.1 50 17:18 11.01.2020
4801 Clouds 13 1028 54 10000 3.1 60 16:41 11.01.2020
4802 Clear 13 1029 54 10000 4.1 350 16:22 11.01.2020
4803 Clear 13 1029 54 10000 4.1 350 16:22 11.01.2020
4804 Clear 14 1029 50 10000 2.6 10 15:42 11.01.2020
4805 Clear 13 1029 50 10000 2.6 10 15:24 11.01.2020
4806 Clear 13 1029 50 10000 4.6 40 14:58 11.01.2020
4807 Clouds 13 1028 58 10000 8.2 60 14:40 11.01.2020
4808 Clear 13 1029 50 10000 6.2 60 14:22 11.01.2020
4809 Clear 13 1029 50 10000 6.7 60 13:55 11.01.2020
4810 Clear 13 1030 50 10000 7.2 70 13:37 11.01.2020
4811 Clear 13 1030 50 10000 7.2 70 13:18 11.01.2020
4812 Clouds 14 1029 54 10000 8.2 50 12:44 11.01.2020
4813 Clear 14 1031 58 10000 6.7 60 12:25 11.01.2020
4814 Clear 13 1031 58 10000 7.7 60 11:55 11.01.2020
4815 Clear 13 1031 62 10000 6.7 60 11:37 11.01.2020
4816 Clouds 13 1030 62 10000 7.7 50 11:18 11.01.2020
4817 Clear 13 1031 62 10000 6.7 60 11:18 11.01.2020
4818 Clouds 12 1030 66 10000 5.1 50 10:43 11.01.2020
4819 Clear 12 1030 66 10000 6.2 60 10:24 11.01.2020
4820 Clouds 12 1029 71 10000 5.1 50 09:40 11.01.2020
4821 Clear 12 1030 71 10000 4.6 60 09:21 11.01.2020
4822 Clouds 11 1029 76 10000 6.2 50 08:43 11.01.2020
4823 Clear 11 1029 76 10000 3.1 40 08:23 11.01.2020
4824 Clear 11 1029 76 10000 4.6 50 07:45 11.01.2020
4825 Clear 11 1029 71 10000 4.6 50 07:26 11.01.2020
4826 Clouds 11 1028 76 10000 4.6 30 06:56 11.01.2020
4827 Clear 11 1028 76 10000 3.1 40 06:37 11.01.2020
4828 Clear 11 1028 76 10000 4.6 50 05:18 11.01.2020
4829 Clouds 11 1027 76 10000 4.6 50 04:37 11.01.2020
4830 Clear 12 1028 76 10000 4.1 50 04:19 11.01.2020
4831 Clear 11 1028 66 10000 2.6 50 02:45 11.01.2020
4832 Clouds 12 1027 71 10000 6.2 50 01:45 11.01.2020
4833 Clouds 12 1028 62 10000 4.6 50 01:22 11.01.2020
4834 Clouds 12 1028 62 10000 4.1 50 00:51 11.01.2020
4835 Clouds 12 1028 71 10000 3.6 50 00:24 11.01.2020
4836 Clouds 12 1028 71 10000 3.6 50 23:58 10.01.2020
4837 Clouds 12 1027 76 10000 6.2 50 23:38 10.01.2020
4838 Clouds 12 1028 76 10000 3.6 50 23:20 10.01.2020
4839 Clouds 12 1026 76 10000 4.1 50 22:41 10.01.2020
4840 Rain 12 1027 71 10000 5.1 50 22:22 10.01.2020
4841 Rain 13 1027 71 10000 6.7 40 21:59 10.01.2020
4842 Rain 13 1027 71 10000 4.6 50 21:41 10.01.2020
4843 Clouds 12 1026 71 10000 5.7 40 21:20 10.01.2020
4844 Clouds 13 1027 71 10000 3.6 40 20:57 10.01.2020
4845 Clouds 12 1026 71 10000 4.1 50 20:38 10.01.2020
4846 Clouds 12 1026 71 10000 4.1 50 20:38 10.01.2020
4847 Rain 12 1026 71 10000 4.1 50 20:20 10.01.2020
4848 Rain 12 1026 71 10000 4.1 50 19:41 10.01.2020
4849 Rain 12 1026 71 10000 4.1 50 19:21 10.01.2020
4850 Rain 12 1025 71 10000 4.1 40 18:57 10.01.2020
4851 Rain 12 1025 81 10000 4.1 30 18:39 10.01.2020
4852 Rain 12 1025 81 10000 4.1 30 18:18 10.01.2020
4853 Rain 12 1025 81 10000 3.6 30 17:56 10.01.2020
4854 Rain 12 1024 87 7000 4.6 60 17:38 10.01.2020
4855 Drizzle 12 1025 93 10000 3.6 40 17:19 10.01.2020
4856 Rain 12 1025 87 10000 1.5 80 16:55 10.01.2020
4857 Rain 13 1024 87 10000 3.6 40 16:36 10.01.2020
4858 Rain 13 1024 87 10000 3.6 40 16:18 10.01.2020
4859 Rain 13 1024 93 10000 2.6 20 15:55 10.01.2020
4860 Rain 13 1024 93 2200 4.6 30 15:36 10.01.2020
4861 Rain 13 1024 93 2200 4.6 30 15:18 10.01.2020
4862 Rain 13 1023 76 10000 4.6 80 14:42 10.01.2020
4863 Rain 14 1024 76 10000 6.7 60 14:20 10.01.2020
4864 Rain 14 1024 76 10000 4.6 60 13:59 10.01.2020
4865 Clouds 14 1023 76 10000 4.1 60 13:41 10.01.2020
4866 Rain 13 1024 76 10000 2.1 50 13:23 10.01.2020
4867 Rain 13 1025 81 10000 1 0 12:58 10.01.2020
4868 Rain 13 1025 87 10000 1 0 12:38 10.01.2020
4869 Rain 13 1025 87 10000 1 0 12:19 10.01.2020
4870 Rain 13 1026 76 10000 0.5 0 11:55 10.01.2020
4871 Rain 12 1026 87 10000 0.5 0 11:37 10.01.2020
4872 Rain 12 1026 87 10000 0.5 0 11:18 10.01.2020
4873 Clouds 11 1024 93 10000 0.5 0 10:42 10.01.2020
4874 Rain 10 1025 87 10000 1.5 10 10:24 10.01.2020
4875 Rain 11 1025 93 10000 2.6 350 09:56 10.01.2020
4876 Clouds 10 1024 93 10000 1.5 50 09:38 10.01.2020
4877 Rain 10 1025 87 10000 3.1 10 09:20 10.01.2020
4878 Clouds 10 1024 100 10000 1.5 360 08:42 10.01.2020
4879 Clouds 8 1025 93 10000 2.6 350 08:23 10.01.2020
4880 Clouds 8 1025 93 10000 2.6 350 08:23 10.01.2020
4881 Clouds 9 1025 87 10000 1.5 360 07:46 10.01.2020
4882 Clouds 8 1024 93 10000 2.6 330 07:26 10.01.2020
4883 Clouds 9 1024 93 10000 2.6 360 06:46 10.01.2020
4884 Clouds 10 1024 93 10000 3.1 10 06:26 10.01.2020
4885 Clouds 10 1024 93 10000 2.1 330 05:51 10.01.2020
4886 Clouds 10 1024 93 10000 1.5 60 03:46 10.01.2020
4887 Clouds 9 1024 93 10000 2.1 10 03:27 10.01.2020
4888 Clouds 10 1024 93 10000 0.9 63 02:50 10.01.2020
4889 Clouds 9 1024 100 10000 4.1 320 01:49 10.01.2020
4890 Clear 8 1025 93 10000 3.1 340 01:28 10.01.2020
4891 Clouds 8 1024 93 10000 2.1 50 00:47 10.01.2020
4892 Clear 8 1026 93 10000 3.1 350 00:29 10.01.2020
4893 Clouds 9 1025 93 10000 2.1 100 23:39 09.01.2020
4894 Clear 9 1027 93 10000 1.5 40 23:39 09.01.2020
4895 Clear 9 1027 93 10000 1.5 40 23:39 09.01.2020
4896 Clouds 9 1025 93 10000 2.1 100 23:39 09.01.2020
4897 Clouds 9 1025 93 10000 2.1 100 23:39 09.01.2020
4898 Clouds 9 1026 93 10000 1 0 23:21 09.01.2020
4899 Clear 9 1027 93 10000 2.6 340 22:58 09.01.2020
4900 Clouds 9 1026 100 10000 1.5 50 22:39 09.01.2020
4901 Clear 9 1027 93 10000 2.1 330 22:19 09.01.2020
4902 Clear 9 1027 87 10000 1 0 21:57 09.01.2020
4903 Clear 10 1027 87 10000 2.1 360 21:38 09.01.2020
4904 Clouds 10 1026 93 10000 1 0 21:20 09.01.2020
4905 Clear 10 1027 87 10000 2.6 350 20:58 09.01.2020
4906 Clear 10 1027 87 10000 2.6 350 20:39 09.01.2020
4907 Clouds 10 1027 87 10000 2.1 20 20:20 09.01.2020
4908 Clouds 10 1027 87 10000 2.1 20 20:20 09.01.2020
4909 Clouds 11 1027 81 10000 2.1 330 19:59 09.01.2020
4910 Clouds 12 1027 76 10000 1 10 19:39 09.01.2020
4911 Clouds 12 1027 76 10000 1 10 19:20 09.01.2020
4912 Clouds 12 1027 76 10000 1.5 340 18:56 09.01.2020
4913 Clouds 13 1027 71 10000 2.1 340 18:38 09.01.2020
4914 Clouds 13 1027 71 10000 2.1 340 18:20 09.01.2020
4915 Clouds 14 1027 67 10000 2.1 220 17:41 09.01.2020
4916 Clouds 15 1027 67 10000 2.1 220 17:19 09.01.2020
4917 Clouds 15 1027 67 10000 3.1 210 16:56 09.01.2020
4918 Clouds 15 1026 62 10000 3.1 210 16:38 09.01.2020
4919 Clouds 15 1026 62 10000 3.1 210 16:20 09.01.2020
4920 Clouds 15 1027 62 10000 1 0 15:43 09.01.2020
4921 Clouds 15 1027 62 10000 1 0 15:22 09.01.2020
4922 Clouds 16 1027 59 10000 1 0 14:58 09.01.2020
4923 Clouds 16 1027 51 10000 1 110 14:39 09.01.2020
4924 Clear 17 1027 51 10000 1 110 14:19 09.01.2020
4925 Clear 16 1027 59 10000 0.5 210 13:55 09.01.2020
4926 Clear 16 1028 58 10000 2.1 180 13:37 09.01.2020
4927 Clear 16 1028 58 10000 2.1 180 13:18 09.01.2020
4928 Clear 16 1028 59 10000 1.5 220 12:55 09.01.2020
4929 Clear 16 1029 63 10000 1 0 12:37 09.01.2020
4930 Clear 15 1029 67 10000 2.6 80 12:18 09.01.2020
4931 Clear 14 1029 71 10000 3.1 60 11:42 09.01.2020
4932 Clear 13 1029 71 10000 3.1 60 11:24 09.01.2020
4933 Clear 12 1029 76 10000 2.1 20 10:58 09.01.2020
4934 Clear 10 1029 76 10000 2.1 350 10:39 09.01.2020
4935 Clear 10 1029 76 10000 2.1 350 10:20 09.01.2020
4936 Clear 9 1029 81 10000 1.5 360 09:45 09.01.2020
4937 Clear 8 1029 81 10000 1.5 360 09:23 09.01.2020
4938 Clear 8 1029 87 10000 2.1 360 08:58 09.01.2020
4939 Clear 9 1029 93 10000 2.6 360 08:39 09.01.2020
4940 Clear 7 1029 93 10000 2.6 360 08:20 09.01.2020
4941 Clear 8 1029 86 10000 2.1 360 07:48 09.01.2020
4942 Clear 8 1029 87 10000 3.1 360 07:30 09.01.2020
4943 Clear 7 1029 86 10000 3.1 350 06:40 09.01.2020
4944 Clear 7 1029 86 10000 3.1 350 06:22 09.01.2020
4945 Clear 8 1029 87 10000 2.6 10 05:51 09.01.2020
4946 Clear 7 1029 81 10000 2.6 360 05:20 09.01.2020
4947 Clear 7 1030 93 10000 3.1 350 04:39 09.01.2020
4948 Clear 7 1030 87 10000 3.1 360 03:27 09.01.2020
4949 Clear 8 1030 87 10000 1.5 360 02:46 09.01.2020
4950 Clear 8 1030 93 10000 2.1 350 01:42 09.01.2020
4951 Clouds 8 1030 87 10000 2.1 340 01:18 09.01.2020
4952 Clouds 8 1031 87 10000 1.5 320 00:38 09.01.2020
4953 Clouds 8 1031 87 10000 1.5 320 00:19 09.01.2020
4954 Clouds 9 1031 87 10000 2.6 350 23:40 08.01.2020
4955 Clouds 9 1031 87 10000 2.6 350 23:22 08.01.2020
4956 Clouds 9 1031 93 10000 3.1 360 22:56 08.01.2020
4957 Clouds 9 1031 93 10000 2.6 350 22:37 08.01.2020
4958 Clouds 9 1031 93 10000 2.6 350 22:18 08.01.2020
4959 Clouds 10 1031 87 10000 2.1 360 21:55 08.01.2020
4960 Clouds 10 1031 87 10000 2.1 350 21:37 08.01.2020
4961 Clouds 10 1031 87 10000 2.1 350 21:18 08.01.2020
4962 Clouds 11 1031 81 10000 3.6 40 20:41 08.01.2020
4963 Clouds 11 1031 81 10000 3.6 40 20:21 08.01.2020
4964 Clouds 12 1031 87 10000 3.1 40 19:59 08.01.2020
4965 Clouds 12 1031 81 10000 2.6 50 19:38 08.01.2020
4966 Clouds 13 1031 81 10000 2.6 50 19:20 08.01.2020
4967 Clouds 13 1031 76 10000 3.1 60 18:58 08.01.2020
4968 Clouds 13 1030 76 10000 3.6 60 18:39 08.01.2020
4969 Clouds 13 1030 76 10000 3.6 60 18:19 08.01.2020
4970 Clouds 13 1030 71 10000 3.1 60 17:57 08.01.2020
4971 Clouds 14 1030 67 10000 3.6 80 17:38 08.01.2020
4972 Clear 14 1030 67 10000 3.6 80 17:19 08.01.2020
4973 Clear 15 1029 62 10000 4.6 70 16:56 08.01.2020
4974 Clear 15 1029 67 10000 5.7 70 16:38 08.01.2020
4975 Clear 15 1029 67 10000 5.7 70 16:19 08.01.2020
4976 Clear 16 1029 59 10000 5.7 80 15:45 08.01.2020
4977 Clear 16 1029 59 10000 5.7 80 15:22 08.01.2020
4978 Clear 16 1029 59 10000 5.7 80 15:22 08.01.2020
4979 Clear 15 1029 59 10000 6.2 80 14:59 08.01.2020
4980 Clear 16 1029 63 10000 4.6 80 14:40 08.01.2020
4981 Clear 16 1029 63 10000 4.6 70 14:21 08.01.2020
4982 Clear 15 1030 59 10000 3.6 70 13:42 08.01.2020
4983 Clear 15 1030 59 10000 3.6 70 13:22 08.01.2020
4984 Clear 16 1030 59 10000 2.1 150 12:55 08.01.2020
4985 Clear 15 1030 59 10000 2.1 60 12:37 08.01.2020
4986 Clear 15 1030 59 10000 2.1 60 12:18 08.01.2020
4987 Clear 16 1031 51 10000 0.5 230 12:18 08.01.2020
4988 Clear 15 1031 51 10000 0.5 230 11:48 08.01.2020
4989 Clear 13 1031 62 10000 1.5 280 11:19 08.01.2020
4990 Clear 14 1031 66 10000 1.5 110 10:59 08.01.2020
4991 Clear 12 1030 71 10000 0.5 50 10:40 08.01.2020
4992 Clear 12 1030 71 10000 0.5 50 10:21 08.01.2020
4993 Clear 10 1030 81 10000 2.1 350 09:57 08.01.2020
4994 Clear 9 1030 81 10000 1 0 09:36 08.01.2020
4995 Clear 9 1030 81 10000 1 0 09:18 08.01.2020
4996 Clear 8 1029 86 10000 2.1 20 08:41 08.01.2020
4997 Clouds 8 1029 86 10000 2.1 20 08:22 08.01.2020
4998 Clouds 7 1029 86 10000 2.1 360 07:59 08.01.2020
4999 Clouds 7 1029 80 10000 2.1 20 07:40 08.01.2020
5000 Clouds 7 1029 80 10000 2.1 20 07:19 08.01.2020
5001 Clouds 8 1029 75 10000 2.6 20 06:42 08.01.2020
5002 Clouds 8 1029 75 10000 3.1 20 05:56 08.01.2020
5003 Clouds 8 1029 75 10000 3.1 10 05:26 08.01.2020
5004 Clouds 8 1029 81 10000 3.1 10 04:37 08.01.2020
5005 Clouds 8 1028 93 10000 2.1 350 02:46 08.01.2020
5006 Clouds 8 1028 93 10000 1.5 70 02:28 08.01.2020
5007 Clouds 8 1028 87 10000 1 0 01:58 08.01.2020
5008 Clouds 8 1028 87 10000 1.5 20 01:32 08.01.2020
5009 Clouds 8 1029 87 10000 1 0 00:52 08.01.2020
5010 Clouds 9 1029 93 10000 0.5 0 00:24 08.01.2020
5011 Clouds 9 1029 93 10000 0.5 0 23:46 07.01.2020
5012 Clear 9 1029 93 10000 0.5 0 23:21 07.01.2020
5013 Clear 9 1029 87 10000 1.5 10 22:57 07.01.2020
5014 Clear 9 1029 87 10000 1 0 22:38 07.01.2020
5015 Clear 9 1029 87 10000 1 0 22:19 07.01.2020
5016 Clear 9 1030 87 10000 2.6 350 21:42 07.01.2020
5017 Clear 10 1030 87 10000 2.6 350 21:23 07.01.2020
5018 Clear 10 1030 76 10000 2.1 330 20:59 07.01.2020
5019 Clear 10 1030 81 10000 2.6 340 20:41 07.01.2020
5020 Clouds 10 1030 81 10000 2.6 340 20:22 07.01.2020
5021 Clouds 11 1030 81 10000 2.6 340 19:58 07.01.2020
5022 Clouds 12 1030 76 10000 2.1 320 19:38 07.01.2020
5023 Clouds 12 1030 76 10000 2.1 320 19:19 07.01.2020
5024 Clouds 12 1030 81 10000 2.1 310 18:56 07.01.2020
5025 Clouds 12 1030 76 10000 2.1 310 18:38 07.01.2020
5026 Clouds 13 1030 76 10000 2.1 310 18:18 07.01.2020
5027 Clouds 13 1029 71 10000 2.1 320 17:57 07.01.2020
5028 Clouds 14 1029 67 10000 3.1 320 17:37 07.01.2020
5029 Clouds 15 1029 71 10000 3.1 320 17:19 07.01.2020
5030 Clouds 15 1029 71 10000 3.1 320 16:55 07.01.2020
5031 Clouds 16 1029 67 10000 3.6 310 16:37 07.01.2020
5032 Clouds 16 1029 67 10000 3.6 310 16:18 07.01.2020
5033 Clouds 17 1029 63 10000 3.1 230 15:43 07.01.2020
5034 Clouds 17 1029 63 10000 3.1 230 15:24 07.01.2020
5035 Clouds 17 1029 63 10000 2.6 230 14:59 07.01.2020
5036 Clouds 16 1029 67 10000 2.6 220 14:40 07.01.2020
5037 Clouds 16 1029 67 10000 2.6 220 14:22 07.01.2020
5038 Clouds 16 1030 67 10000 1.5 290 13:55 07.01.2020
5039 Clouds 16 1030 67 10000 2.6 290 13:37 07.01.2020
5040 Clouds 15 1030 67 10000 2.6 290 13:18 07.01.2020
5041 Clouds 16 1031 72 10000 3.1 290 12:40 07.01.2020
5042 Clouds 16 1031 72 10000 3.1 290 12:19 07.01.2020
5043 Clouds 15 1032 76 10000 1 0 11:42 07.01.2020
5044 Clouds 14 1032 76 10000 1 0 11:23 07.01.2020
5045 Clouds 13 1031 71 10000 1.5 150 10:58 07.01.2020
5046 Clouds 13 1031 76 10000 1 0 10:39 07.01.2020
5047 Clouds 12 1031 76 10000 1 0 10:21 07.01.2020
5048 Clouds 10 1031 87 10000 1 0 09:55 07.01.2020
5049 Clouds 9 1031 87 10000 1 10 09:37 07.01.2020
5050 Clouds 9 1031 87 10000 1 10 09:19 07.01.2020
5051 Clouds 9 1031 87 10000 2.1 340 08:41 07.01.2020
5052 Clouds 10 1031 87 10000 2.1 340 08:20 07.01.2020
5053 Clear 9 1030 87 10000 2.1 360 07:49 07.01.2020
5054 Clear 9 1030 87 10000 2.6 340 07:25 07.01.2020
5055 Clear 9 1030 93 10000 2.1 350 06:52 07.01.2020
5056 Clear 9 1030 93 10000 1 0 06:32 07.01.2020
5057 Clear 10 1030 87 10000 1 0 05:42 07.01.2020
5058 Clear 11 1031 87 10000 1 20 03:52 07.01.2020
5059 Clear 11 1031 87 10000 1 0 03:25 07.01.2020
5060 Clear 11 1030 87 10000 0.5 0 02:21 07.01.2020
5061 Clear 11 1030 87 10000 0.5 0 01:45 07.01.2020
5062 Clear 11 1030 93 10000 1 0 01:21 07.01.2020
5063 Clear 11 1030 87 10000 1 0 00:22 07.01.2020
5064 Clear 11 1030 87 10000 1 0 23:58 06.01.2020
5065 Clear 10 1030 93 10000 1.5 340 23:39 06.01.2020
5066 Clear 10 1030 93 10000 1.5 340 23:21 06.01.2020
5067 Clear 10 1030 87 10000 1.5 350 22:56 06.01.2020
5068 Clear 10 1030 93 10000 1 20 22:37 06.01.2020
5069 Clear 10 1030 93 10000 1 20 22:19 06.01.2020
5070 Clear 10 1030 87 10000 1.5 360 21:55 06.01.2020
5071 Clear 11 1029 87 10000 1.5 330 21:37 06.01.2020
5072 Clear 11 1029 87 10000 1.5 330 21:18 06.01.2020
5073 Clear 11 1029 87 10000 1 0 20:55 06.01.2020
5074 Clear 11 1029 87 10000 1 0 20:37 06.01.2020
5075 Clouds 12 1029 87 10000 1 0 20:19 06.01.2020
5076 Clear 12 1029 81 10000 2.1 360 19:55 06.01.2020
5077 Clear 12 1029 81 10000 1.5 360 19:36 06.01.2020
5078 Clear 12 1029 81 10000 1.5 360 19:36 06.01.2020
5079 Clear 13 1029 81 10000 1.5 360 19:18 06.01.2020
5080 Clear 13 1028 71 10000 1 320 18:44 06.01.2020
5081 Clear 14 1028 71 10000 1 320 18:20 06.01.2020
5082 Clear 14 1028 71 10000 1 0 17:40 06.01.2020
5083 Clouds 14 1028 71 10000 1 0 17:20 06.01.2020
5084 Clouds 14 1028 71 10000 1 0 17:20 06.01.2020
5085 Clouds 14 1028 67 10000 1.5 330 16:57 06.01.2020
5086 Clouds 14 1028 67 10000 2.6 320 16:39 06.01.2020
5087 Clouds 14 1028 67 10000 2.6 320 16:21 06.01.2020
5088 Clouds 14 1028 67 10000 2.6 330 15:59 06.01.2020
5089 Clouds 15 1028 67 10000 1.5 300 15:36 06.01.2020
5090 Clouds 15 1028 67 10000 1.5 300 15:18 06.01.2020
5091 Clouds 14 1028 71 10000 0.5 0 14:41 06.01.2020
5092 Clouds 14 1028 71 10000 0.5 0 14:41 06.01.2020
5093 Clouds 14 1028 71 10000 0.5 0 14:22 06.01.2020
5094 Clouds 14 1029 71 10000 0.5 140 13:59 06.01.2020
5095 Clouds 14 1029 76 10000 1 0 13:39 06.01.2020
5096 Clouds 14 1029 76 10000 1 0 13:21 06.01.2020
5097 Clouds 14 1029 76 10000 0.5 0 12:56 06.01.2020
5098 Clouds 14 1029 76 10000 0.5 0 12:37 06.01.2020
5099 Clouds 13 1029 76 10000 0.5 0 12:19 06.01.2020
5100 Clouds 12 1030 76 10000 0.5 110 11:42 06.01.2020
5101 Clouds 12 1030 76 10000 0.5 110 11:24 06.01.2020
5102 Clouds 11 1030 81 10000 0.5 0 10:59 06.01.2020
5103 Clouds 10 1030 81 10000 1 60 10:41 06.01.2020
5104 Clouds 10 1030 81 10000 1 60 10:21 06.01.2020
5105 Clouds 9 1029 87 10000 1 100 09:42 06.01.2020
5106 Clouds 9 1029 87 10000 1 0 09:23 06.01.2020
5107 Clouds 8 1029 87 10000 0.5 0 08:55 06.01.2020
5108 Clouds 8 1029 87 10000 0.5 0 08:37 06.01.2020
5109 Clear 7 1029 87 10000 1 0 07:58 06.01.2020
5110 Clear 7 1028 86 10000 1 0 07:39 06.01.2020
5111 Clear 6 1028 86 10000 1 0 06:53 06.01.2020
5112 Clear 6 1028 86 10000 1 0 06:34 06.01.2020
5113 Clear 6 1028 80 10000 2.1 20 05:48 06.01.2020
5114 Clear 6 1028 80 10000 2.1 20 05:23 06.01.2020
5115 Clear 6 1028 86 10000 2.6 350 04:23 06.01.2020
5116 Clear 6 1029 86 10000 1 0 03:51 06.01.2020
5117 Clear 7 1029 80 10000 2.1 30 02:28 06.01.2020
5118 Clear 7 1029 75 10000 2.1 20 01:53 06.01.2020
5119 Clear 6 1029 81 10000 0.5 0 01:30 06.01.2020
5120 Clear 7 1029 81 10000 2.1 360 00:46 06.01.2020
5121 Clear 7 1029 81 10000 2.1 40 00:28 06.01.2020
5122 Clear 7 1029 75 10000 1 20 23:58 05.01.2020
5123 Clear 8 1029 75 10000 2.1 350 23:39 05.01.2020
5124 Clear 7 1029 75 10000 2.1 350 23:21 05.01.2020
5125 Clear 9 1029 70 10000 2.1 360 22:40 05.01.2020
5126 Clear 9 1029 70 10000 2.1 360 22:21 05.01.2020
5127 Clear 9 1029 61 10000 2.6 10 21:58 05.01.2020
5128 Clear 9 1029 61 10000 3.1 360 21:40 05.01.2020
5129 Clear 9 1029 61 10000 3.1 360 21:20 05.01.2020
5130 Clear 10 1029 61 10000 2.6 350 20:58 05.01.2020
5131 Clear 10 1029 66 10000 2.1 340 20:39 05.01.2020
5132 Clear 10 1029 66 10000 2.1 340 20:39 05.01.2020
5133 Clear 10 1029 66 10000 2.1 340 20:19 05.01.2020
5134 Clear 10 1028 61 10000 1.5 350 19:58 05.01.2020
5135 Clear 11 1028 57 10000 2.1 10 19:39 05.01.2020
5136 Clear 11 1028 57 10000 2.1 10 19:39 05.01.2020
5137 Clear 11 1028 57 10000 2.1 10 19:20 05.01.2020
5138 Clear 12 1028 47 10000 3.1 330 18:56 05.01.2020
5139 Clear 12 1028 54 10000 3.1 330 18:37 05.01.2020
5140 Clear 13 1028 54 10000 3.1 330 18:19 05.01.2020
5141 Clear 14 1028 47 10000 3.6 320 17:58 05.01.2020
5142 Clear 15 1028 47 10000 3.1 310 17:39 05.01.2020
5143 Clear 15 1028 47 10000 3.1 310 17:20 05.01.2020
5144 Clear 16 1028 41 10000 3.1 310 16:57 05.01.2020
5145 Clear 16 1028 41 10000 3.1 310 16:57 05.01.2020
5146 Clear 16 1027 44 10000 4.1 320 16:39 05.01.2020
5147 Clear 17 1027 44 10000 4.1 320 16:19 05.01.2020
5148 Clear 17 1027 45 10000 4.6 320 15:40 05.01.2020
5149 Clear 17 1027 45 10000 4.6 320 15:20 05.01.2020
5150 Clear 17 1027 45 10000 4.1 320 14:56 05.01.2020
5151 Clear 16 1028 44 10000 4.6 320 14:38 05.01.2020
5152 Clear 17 1028 44 10000 4.6 320 14:20 05.01.2020
5153 Clear 17 1028 44 10000 4.6 310 13:57 05.01.2020
5154 Clear 17 1028 48 10000 4.6 320 13:38 05.01.2020
5155 Clear 16 1028 48 10000 4.6 320 13:19 05.01.2020
5156 Clear 16 1028 48 10000 4.6 320 13:19 05.01.2020
5157 Clear 16 1029 48 10000 4.1 320 12:56 05.01.2020
5158 Clear 15 1029 58 10000 4.1 330 12:37 05.01.2020
5159 Clear 16 1029 58 10000 4.1 330 12:19 05.01.2020
5160 Clear 14 1029 58 10000 4.1 320 11:44 05.01.2020
5161 Clear 13 1029 67 10000 3.6 320 11:20 05.01.2020
5162 Clear 13 1029 67 10000 3.6 320 11:00 05.01.2020
5163 Clear 12 1029 76 10000 1.5 280 10:40 05.01.2020
5164 Clear 11 1029 81 10000 1.5 270 10:20 05.01.2020
5165 Clear 8 1029 87 10000 1.5 70 09:42 05.01.2020
5166 Clear 7 1029 87 10000 1.5 70 09:22 05.01.2020
5167 Clear 6 1029 86 10000 1.5 10 08:56 05.01.2020
5168 Clear 6 1029 93 10000 1 0 08:38 05.01.2020
5169 Clear 6 1029 93 10000 1 0 08:20 05.01.2020
5170 Clear 7 1029 93 10000 1.5 360 07:39 05.01.2020
5171 Clear 7 1029 93 10000 1.5 360 07:21 05.01.2020
5172 Clear 6 1029 86 10000 1.5 10 06:47 05.01.2020
5173 Clear 6 1029 86 10000 1 0 05:41 05.01.2020
5174 Clear 7 1030 86 10000 1.5 40 04:56 05.01.2020
5175 Clear 7 1030 86 10000 1.5 30 04:19 05.01.2020
5176 Clear 7 1030 93 10000 1.5 20 03:31 05.01.2020
5177 Clear 7 1030 87 10000 1.5 20 02:33 05.01.2020
5178 Clear 8 1030 87 10000 1 50 01:49 05.01.2020
5179 Clear 8 1031 87 10000 1.5 40 01:20 05.01.2020
5180 Clear 9 1031 81 10000 1 0 00:57 05.01.2020
5181 Clear 9 1031 76 10000 1 0 00:39 05.01.2020
5182 Clear 9 1031 76 10000 1 0 00:19 05.01.2020
5183 Clear 10 1031 81 10000 2.1 300 23:41 04.01.2020
5184 Clear 10 1031 81 10000 2.1 300 23:21 04.01.2020
5185 Clear 10 1031 81 10000 3.1 290 22:59 04.01.2020
5186 Clear 11 1031 81 10000 2.6 290 22:39 04.01.2020
5187 Clear 11 1031 81 10000 2.6 290 22:20 04.01.2020
5188 Clear 11 1031 81 10000 2.6 290 21:56 04.01.2020
5189 Clear 11 1031 87 10000 2.6 290 21:37 04.01.2020
5190 Clear 11 1032 81 10000 2.6 290 21:19 04.01.2020
5191 Clear 11 1032 81 10000 2.6 290 20:55 04.01.2020
5192 Clear 11 1032 81 10000 2.6 290 20:36 04.01.2020
5193 Clouds 11 1032 81 10000 2.6 290 20:18 04.01.2020
5194 Clouds 11 1031 81 10000 1.5 310 19:41 04.01.2020
5195 Clouds 12 1031 81 10000 1.5 310 19:41 04.01.2020
5196 Clouds 11 1031 81 10000 1.5 310 19:41 04.01.2020
5197 Clouds 12 1031 81 10000 1.5 310 19:23 04.01.2020
5198 Clouds 12 1032 81 10000 1.5 310 18:58 04.01.2020
5199 Clouds 13 1032 76 10000 2.1 350 18:39 04.01.2020
5200 Clouds 13 1032 76 10000 2.1 350 18:20 04.01.2020
5201 Clouds 14 1031 67 10000 1 0 17:57 04.01.2020
5202 Clouds 14 1031 67 10000 1.5 300 17:39 04.01.2020
5203 Clouds 15 1031 67 10000 1.5 300 17:21 04.01.2020
5204 Clouds 15 1032 71 10000 2.1 300 16:42 04.01.2020
5205 Clouds 15 1032 71 10000 2.1 300 16:24 04.01.2020
5206 Clouds 15 1032 62 10000 3.1 310 15:57 04.01.2020
5207 Clouds 15 1032 62 10000 2.6 310 15:39 04.01.2020
5208 Clouds 16 1032 62 10000 2.6 310 15:19 04.01.2020
5209 Clouds 16 1032 59 10000 3.6 310 14:57 04.01.2020
5210 Clouds 16 1032 59 10000 3.1 300 14:39 04.01.2020
5211 Clouds 16 1032 59 10000 3.1 300 14:19 04.01.2020
5212 Clouds 16 1032 62 10000 2.6 320 13:55 04.01.2020
5213 Clouds 16 1033 59 10000 3.6 320 13:37 04.01.2020
5214 Clouds 16 1033 59 10000 3.6 320 13:37 04.01.2020
5215 Clouds 16 1033 59 10000 3.6 320 13:18 04.01.2020
5216 Clouds 16 1033 62 10000 3.1 320 12:41 04.01.2020
5217 Clouds 16 1033 62 10000 3.1 320 12:20 04.01.2020
5218 Clouds 14 1033 71 10000 2.6 300 11:59 04.01.2020
5219 Clouds 14 1034 71 10000 1.5 320 11:40 04.01.2020
5220 Clouds 13 1034 71 10000 1.5 320 11:19 04.01.2020
5221 Clouds 13 1033 76 10000 1 0 10:55 04.01.2020
5222 Clouds 12 1033 81 10000 0.5 0 10:37 04.01.2020
5223 Clouds 12 1033 81 10000 2.1 330 10:19 04.01.2020
5224 Clouds 11 1033 87 10000 2.6 320 09:42 04.01.2020
5225 Clouds 11 1033 87 10000 2.6 320 09:23 04.01.2020
5226 Clouds 10 1033 81 10000 1 0 08:42 04.01.2020
5227 Clouds 9 1033 81 10000 1 0 08:21 04.01.2020
5228 Clouds 9 1033 81 10000 1.5 350 07:44 04.01.2020
5229 Clouds 9 1033 81 10000 3.1 20 07:26 04.01.2020
5230 Clouds 8 1032 93 10000 2.1 20 06:36 04.01.2020
5231 Clouds 9 1032 93 10000 2.1 360 05:46 04.01.2020
5232 Clouds 9 1032 87 10000 2.1 10 04:47 04.01.2020
5233 Clouds 9 1032 87 10000 1.5 350 04:27 04.01.2020
5234 Clouds 9 1032 87 10000 2.6 340 03:19 04.01.2020
5235 Clouds 9 1032 93 10000 2.1 360 02:36 04.01.2020
5236 Clouds 9 1032 87 10000 1 360 01:58 04.01.2020
5237 Clouds 9 1032 87 10000 1.5 30 01:32 04.01.2020
5238 Clouds 9 1032 87 10000 1.5 30 01:32 04.01.2020
5239 Clouds 9 1032 87 10000 1.5 30 00:58 04.01.2020
5240 Clouds 9 1032 87 10000 1.5 40 00:29 04.01.2020
5241 Clouds 10 1032 87 10000 1.5 360 23:53 03.01.2020
5242 Clouds 10 1032 87 10000 1.5 340 23:28 03.01.2020
5243 Clouds 11 1032 81 10000 2.1 340 22:55 03.01.2020
5244 Clouds 11 1032 81 10000 1.5 10 22:37 03.01.2020
5245 Clouds 11 1032 81 10000 1.5 10 22:18 03.01.2020
5246 Clouds 11 1032 87 10000 2.1 350 21:57 03.01.2020
5247 Clouds 11 1032 87 10000 2.1 350 21:37 03.01.2020
5248 Clouds 11 1032 81 10000 1.5 320 21:18 03.01.2020
5249 Clouds 12 1032 81 10000 1.5 320 20:54 03.01.2020
5250 Clouds 12 1032 81 10000 1.5 320 20:54 03.01.2020
5251 Clouds 12 1032 76 10000 1.5 320 20:36 03.01.2020
5252 Clouds 12 1032 76 10000 1.5 320 20:18 03.01.2020
5253 Clouds 13 1032 76 10000 1.5 320 19:44 03.01.2020
5254 Clouds 13 1031 71 10000 2.1 330 19:23 03.01.2020
5255 Clouds 13 1031 71 10000 1.5 320 18:57 03.01.2020
5256 Clouds 14 1031 71 10000 2.1 320 18:38 03.01.2020
5257 Clouds 14 1031 71 10000 2.1 320 18:20 03.01.2020
5258 Clouds 14 1031 71 10000 2.6 210 17:42 03.01.2020
5259 Clouds 14 1031 71 10000 2.6 210 17:22 03.01.2020
5260 Clouds 15 1031 67 10000 3.1 210 16:59 03.01.2020
5261 Clouds 15 1031 67 10000 3.1 220 16:40 03.01.2020
5262 Clouds 15 1031 67 10000 3.1 220 16:21 03.01.2020
5263 Clouds 15 1031 62 10000 4.1 220 15:42 03.01.2020
5264 Clouds 15 1031 62 10000 4.1 220 15:19 03.01.2020
5265 Clouds 15 1031 67 10000 4.1 210 14:40 03.01.2020
5266 Clouds 15 1031 67 10000 4.1 210 14:40 03.01.2020
5267 Clouds 15 1031 67 10000 4.1 210 14:21 03.01.2020
5268 Clouds 15 1031 67 10000 4.6 200 13:59 03.01.2020
5269 Clouds 15 1032 67 10000 4.6 220 13:40 03.01.2020
5270 Clouds 15 1032 67 10000 4.6 220 13:22 03.01.2020
5271 Clouds 15 1032 62 10000 4.1 220 12:56 03.01.2020
5272 Clouds 15 1032 62 10000 4.1 220 12:38 03.01.2020
5273 Clouds 15 1033 67 10000 1 0 12:19 03.01.2020
5274 Clouds 14 1033 67 10000 0.5 0 11:42 03.01.2020
5275 Clouds 14 1033 67 10000 0.5 0 11:18 03.01.2020
5276 Clouds 13 1033 71 10000 0.5 0 10:43 03.01.2020
5277 Clouds 13 1033 71 10000 0.5 0 10:24 03.01.2020
5278 Clouds 13 1032 81 10000 0.5 0 09:57 03.01.2020
5279 Clouds 12 1032 87 10000 0.5 360 09:38 03.01.2020
5280 Clouds 12 1032 87 10000 0.5 360 09:20 03.01.2020
5281 Clouds 11 1032 81 10000 0.5 0 08:54 03.01.2020
5282 Clouds 11 1032 81 10000 0.5 40 08:36 03.01.2020
5283 Clouds 11 1032 81 10000 0.5 40 08:18 03.01.2020
5284 Clouds 11 1031 81 10000 1.5 10 07:39 03.01.2020
5285 Clouds 12 1031 81 10000 1 0 07:18 03.01.2020
5286 Clouds 12 1031 81 10000 1 0 07:18 03.01.2020
5287 Clouds 12 1031 76 10000 1 10 06:42 03.01.2020
5288 Clouds 12 1031 76 10000 1.5 40 06:24 03.01.2020
5289 Clouds 12 1031 81 10000 1.5 80 05:28 03.01.2020
5290 Clouds 12 1032 76 10000 1 10 03:55 03.01.2020
5291 Clouds 12 1032 76 10000 1 0 02:55 03.01.2020
5292 Clouds 12 1032 76 10000 1 0 02:26 03.01.2020
5293 Clear 12 1032 76 10000 0.5 0 01:38 03.01.2020
5294 Clouds 12 1033 76 10000 0.5 350 00:49 03.01.2020
5295 Clouds 12 1033 76 10000 0.5 350 00:29 03.01.2020
5296 Clouds 12 1033 76 10000 1 0 23:55 02.01.2020
5297 Clouds 12 1033 76 10000 1.5 20 23:37 02.01.2020
5298 Clear 13 1033 71 10000 1 0 23:18 02.01.2020
5299 Clear 13 1033 71 10000 1 0 22:44 02.01.2020
5300 Clear 13 1033 71 10000 1 0 22:21 02.01.2020
5301 Clear 13 1033 71 10000 1 0 22:21 02.01.2020
5302 Clear 13 1033 71 10000 0.5 0 21:57 02.01.2020
5303 Clear 13 1033 66 10000 2.1 140 21:39 02.01.2020
5304 Clear 13 1033 66 10000 2.1 140 21:21 02.01.2020
5305 Clear 13 1033 71 10000 1.5 70 20:57 02.01.2020
5306 Clouds 13 1033 66 10000 1 0 20:39 02.01.2020
5307 Clear 13 1033 66 10000 1 0 20:20 02.01.2020
5308 Clouds 14 1033 62 10000 1 0 19:55 02.01.2020
5309 Clouds 14 1033 62 10000 2.1 270 19:37 02.01.2020
5310 Clouds 14 1033 62 10000 2.1 270 19:37 02.01.2020
5311 Clouds 14 1033 62 10000 2.1 270 19:19 02.01.2020
5312 Clouds 14 1032 62 10000 2.6 230 18:56 02.01.2020
5313 Clouds 14 1032 62 10000 2.1 230 18:38 02.01.2020
5314 Clouds 14 1032 62 10000 2.1 230 18:20 02.01.2020
5315 Clouds 14 1032 62 10000 1.5 240 17:56 02.01.2020
5316 Clouds 14 1032 62 10000 2.1 210 17:36 02.01.2020
5317 Clouds 14 1032 62 10000 3.6 220 17:18 02.01.2020
5318 Clouds 14 1032 62 10000 3.6 220 16:56 02.01.2020
5319 Clouds 15 1032 62 10000 3.6 210 16:38 02.01.2020
5320 Clouds 15 1032 62 10000 3.6 210 16:19 02.01.2020
5321 Clouds 15 1032 62 10000 4.6 220 15:44 02.01.2020
5322 Clouds 15 1031 63 10000 3.6 250 15:24 02.01.2020
5323 Clouds 15 1032 62 10000 4.6 210 14:58 02.01.2020
5324 Clouds 16 1032 63 10000 4.6 210 14:38 02.01.2020
5325 Clouds 16 1031 72 10000 2.6 260 14:20 02.01.2020
5326 Clouds 16 1032 67 10000 3.6 210 13:58 02.01.2020
5327 Clouds 15 1033 67 10000 3.6 210 13:40 02.01.2020
5328 Clouds 15 1033 67 10000 2.1 190 13:19 02.01.2020
5329 Clouds 15 1033 77 10000 2.63 205 12:42 02.01.2020
5330 Clouds 15 1033 77 10000 2.63 205 12:21 02.01.2020
5331 Clouds 14 1034 76 10000 0.5 0 11:42 02.01.2020
5332 Clouds 13 1034 76 10000 0.5 0 11:22 02.01.2020
5333 Clouds 12 1034 81 10000 1 0 10:46 02.01.2020
5334 Clouds 11 1034 87 10000 1 0 10:28 02.01.2020
5335 Clouds 12 1034 87 10000 1 0 09:58 02.01.2020
5336 Clouds 11 1033 87 10000 1.5 10 09:36 02.01.2020
5337 Clouds 11 1033 87 10000 2.1 360 08:59 02.01.2020
5338 Clouds 11 1033 93 10000 1.5 350 08:40 02.01.2020
5339 Clouds 11 1033 93 10000 1.5 350 08:21 02.01.2020
5340 Clouds 11 1033 87 10000 1.5 20 07:47 02.01.2020
5341 Clouds 10 1032 87 10000 1.5 20 07:27 02.01.2020
5342 Clouds 10 1032 87 10000 2.1 0 06:43 02.01.2020
5343 Clouds 11 1032 87 10000 1 0 05:54 02.01.2020
5344 Clouds 9 1032 93 10000 1.5 360 04:37 02.01.2020
5345 Clouds 8 1032 93 10000 1.5 350 03:54 02.01.2020
5346 Clouds 9 1032 93 10000 1.5 350 02:21 02.01.2020
5347 Clouds 9 1032 93 10000 1.5 350 01:57 02.01.2020
5348 Clouds 9 1032 93 10000 1.5 350 01:30 02.01.2020
5349 Clouds 9 1033 93 10000 1 0 00:52 02.01.2020
5350 Clouds 9 1033 93 10000 1.5 10 00:28 02.01.2020
5351 Clouds 10 1033 87 10000 1.5 350 23:47 01.01.2020
5352 Clouds 10 1033 87 10000 1.5 350 23:24 01.01.2020
5353 Clouds 10 1033 93 10000 1.5 360 22:39 01.01.2020
5354 Clouds 10 1033 93 10000 1.5 360 22:21 01.01.2020
5355 Clouds 11 1033 87 10000 1.5 360 21:59 01.01.2020
5356 Clouds 11 1033 87 10000 1.5 330 21:40 01.01.2020
5357 Clouds 11 1033 87 10000 1.5 330 21:21 01.01.2020
5358 Clouds 11 1033 87 10000 1.5 330 20:58 01.01.2020
5359 Clouds 11 1033 81 10000 1.5 340 20:39 01.01.2020
5360 Clouds 11 1033 81 10000 1.5 340 20:20 01.01.2020
5361 Clouds 12 1033 81 10000 1 340 19:57 01.01.2020
5362 Clouds 12 1033 76 10000 1 0 19:39 01.01.2020
5363 Clouds 12 1033 76 10000 1 0 19:20 01.01.2020
5364 Clouds 12 1032 76 10000 1.5 50 18:57 01.01.2020
5365 Clouds 12 1032 76 10000 0.5 0 18:38 01.01.2020
5366 Clouds 13 1032 76 10000 0.5 0 18:20 01.01.2020
5367 Clouds 13 1032 71 10000 2.1 200 17:59 01.01.2020
5368 Clouds 14 1032 67 10000 3.1 200 17:40 01.01.2020
5369 Clouds 14 1032 67 10000 3.1 200 17:20 01.01.2020
5370 Clouds 14 1032 67 10000 2.6 200 16:58 01.01.2020
5371 Clouds 14 1032 67 10000 2.1 170 16:38 01.01.2020
5372 Clouds 15 1032 67 10000 2.1 170 16:19 01.01.2020
5373 Clouds 15 1032 67 10000 3.1 200 15:57 01.01.2020
5374 Clouds 15 1032 67 10000 3.1 200 15:57 01.01.2020
5375 Clouds 15 1032 67 10000 2.6 200 15:37 01.01.2020
5376 Clouds 14 1032 67 10000 2.6 200 15:19 01.01.2020
5377 Clouds 15 1032 58 10000 2.6 200 14:56 01.01.2020
5378 Clouds 15 1032 67 10000 2.1 190 14:37 01.01.2020
5379 Clear 15 1032 67 10000 2.1 190 14:19 01.01.2020
5380 Clear 15 1032 62 10000 1.5 190 13:55 01.01.2020
5381 Clear 15 1033 58 10000 2.1 220 13:36 01.01.2020
5382 Clear 15 1033 58 10000 2.1 220 13:18 01.01.2020
5383 Clear 15 1033 62 10000 0.5 20 12:40 01.01.2020
5384 Clear 14 1033 62 10000 0.5 20 12:20 01.01.2020
5385 Clear 13 1034 71 10000 1.5 50 11:57 01.01.2020
5386 Clear 13 1034 71 10000 1.5 50 11:57 01.01.2020
5387 Clear 12 1034 81 10000 1 0 11:39 01.01.2020
5388 Clear 12 1034 81 10000 1.5 20 11:20 01.01.2020
5389 Clear 11 1034 81 10000 1.5 20 10:55 01.01.2020
5390 Clear 11 1034 81 10000 1.5 20 10:55 01.01.2020
5391 Clear 11 1034 87 10000 1 310 10:37 01.01.2020
5392 Clear 10 1034 87 10000 1 310 10:18 01.01.2020
5393 Clear 11 1033 87 10000 1 360 09:40 01.01.2020
5394 Clear 10 1033 87 10000 1 360 09:22 01.01.2020
5395 Clear 10 1033 87 10000 1.5 310 08:57 01.01.2020
5396 Clear 10 1033 87 10000 2.1 10 08:38 01.01.2020
5397 Clear 9 1033 87 10000 2.1 10 08:20 01.01.2020
5398 Clear 9 1032 87 10000 1.5 20 07:58 01.01.2020
5399 Clear 8 1032 93 10000 2.1 330 07:40 01.01.2020
5400 Clear 8 1032 93 10000 2.1 330 07:19 01.01.2020
5401 Clear 8 1032 93 10000 1 0 06:36 01.01.2020
5402 Clear 8 1032 93 10000 2.1 350 06:18 01.01.2020
5403 Clear 8 1032 93 10000 2.1 360 04:36 01.01.2020
5404 Clear 8 1032 93 10000 2.1 350 03:40 01.01.2020
5405 Clear 9 1032 93 10000 2.1 350 03:21 01.01.2020
5406 Clear 9 1033 87 10000 1.5 50 02:43 01.01.2020
5407 Clear 9 1033 87 10000 1.5 50 02:24 01.01.2020
5408 Clear 8 1033 87 10000 2.1 20 01:45 01.01.2020
5409 Clear 8 1033 87 10000 2.1 20 01:45 01.01.2020
5410 Clear 8 1033 87 10000 2.1 360 01:23 01.01.2020
5411 Clear 8 1033 93 7000 2.1 350 00:54 01.01.2020
5412 Clear 8 1033 87 10000 2.1 360 00:36 01.01.2020
5413 Clear 8 1033 87 10000 2.1 360 00:18 01.01.2020
5414 Clear 8 1033 87 10000 2.1 360 23:38 31.12.2019
5415 Clear 7 1033 87 10000 2.1 360 23:19 31.12.2019
5416 Clear 7 1033 93 10000 2.6 10 22:56 31.12.2019
5417 Clear 8 1033 87 10000 2.1 350 22:37 31.12.2019
5418 Clear 8 1033 87 10000 2.1 350 22:18 31.12.2019
5419 Clear 8 1033 87 10000 1.5 360 21:54 31.12.2019
5420 Clear 9 1033 87 10000 1.5 30 21:36 31.12.2019
5421 Clear 10 1033 87 10000 1.5 30 21:18 31.12.2019
5422 Clear 10 1033 87 10000 1.5 30 21:18 31.12.2019
5423 Clear 10 1033 81 10000 1.5 360 20:40 31.12.2019
5424 Clouds 10 1033 81 10000 1.5 360 20:21 31.12.2019
5425 Clouds 10 1033 81 10000 2.1 350 19:59 31.12.2019
5426 Clouds 11 1033 81 10000 0.5 0 19:40 31.12.2019
5427 Clouds 11 1033 81 10000 0.5 0 19:22 31.12.2019
5428 Clouds 12 1033 76 10000 1.5 330 18:57 31.12.2019
5429 Clouds 12 1033 71 10000 1.5 320 18:39 31.12.2019
5430 Clouds 12 1033 71 10000 1.5 320 18:19 31.12.2019
5431 Clouds 13 1032 66 10000 1.5 210 17:56 31.12.2019
5432 Clouds 14 1032 62 10000 2.6 220 17:37 31.12.2019
5433 Clouds 14 1032 62 10000 2.6 220 17:19 31.12.2019
5434 Clouds 14 1032 62 10000 2.6 220 17:19 31.12.2019
5435 Clouds 14 1032 62 10000 3.6 210 16:56 31.12.2019
5436 Clouds 14 1032 62 10000 3.6 210 16:38 31.12.2019
5437 Clouds 15 1032 62 10000 3.6 210 16:19 31.12.2019
5438 Clouds 15 1032 54 10000 3.6 220 15:56 31.12.2019
5439 Clouds 16 1032 54 10000 3.6 210 15:38 31.12.2019
5440 Clouds 16 1032 54 10000 3.6 210 15:20 31.12.2019
5441 Clouds 16 1032 54 10000 3.6 220 14:57 31.12.2019
5442 Clouds 15 1033 54 10000 2.6 190 14:38 31.12.2019
5443 Clouds 15 1033 54 10000 2.6 190 14:38 31.12.2019
5444 Clouds 15 1033 54 10000 2.6 190 14:19 31.12.2019
5445 Clouds 15 1033 54 10000 1.5 210 13:57 31.12.2019
5446 Clouds 15 1033 51 10000 1 210 13:39 31.12.2019
5447 Clouds 16 1033 51 10000 1 210 13:20 31.12.2019
5448 Clouds 16 1034 54 10000 1.5 0 12:56 31.12.2019
5449 Clouds 15 1034 54 10000 0.5 350 12:38 31.12.2019
5450 Clouds 15 1034 58 10000 1 40 12:19 31.12.2019
5451 Clouds 15 1034 54 10000 0.5 350 12:19 31.12.2019
5452 Clouds 15 1034 58 10000 1 40 11:56 31.12.2019
5453 Clouds 15 1034 58 10000 1 40 11:56 31.12.2019
5454 Clouds 14 1035 62 10000 0.5 0 11:38 31.12.2019
5455 Clouds 13 1035 62 10000 0.5 0 11:19 31.12.2019
5456 Clouds 12 1034 71 10000 1 0 10:57 31.12.2019
5457 Clouds 12 1034 71 10000 1 0 10:57 31.12.2019
5458 Clouds 11 1034 81 10000 1.5 360 10:38 31.12.2019
5459 Clouds 11 1034 81 10000 1.5 360 10:20 31.12.2019
5460 Clouds 9 1034 81 10000 2.1 350 09:58 31.12.2019
5461 Clouds 9 1034 87 10000 2.1 350 09:39 31.12.2019
5462 Clouds 9 1034 87 10000 2.1 350 09:20 31.12.2019
5463 Clouds 8 1033 87 10000 2.1 10 08:57 31.12.2019
5464 Clouds 8 1033 87 10000 2.1 10 08:57 31.12.2019
5465 Clouds 8 1033 87 10000 2.1 20 08:37 31.12.2019
5466 Clouds 8 1033 87 10000 2.1 20 08:37 31.12.2019
5467 Clear 8 1033 87 10000 2.1 20 08:18 31.12.2019
5468 Clear 7 1033 87 10000 2.6 30 07:41 31.12.2019
5469 Clear 8 1033 87 10000 2.6 30 07:19 31.12.2019
5470 Clear 8 1033 87 10000 1.5 350 06:49 31.12.2019
5471 Clear 8 1033 93 10000 3.1 350 05:57 31.12.2019
5472 Clear 7 1033 87 10000 1 0 04:28 31.12.2019
5473 Clear 7 1033 87 10000 2.6 340 03:27 31.12.2019
5474 Clear 7 1033 87 10000 2.1 350 02:54 31.12.2019
5475 Clear 8 1033 87 10000 2.1 350 02:54 31.12.2019
5476 Clear 7 1033 87 10000 2.1 350 01:58 31.12.2019
5477 Clear 7 1033 87 10000 2.1 10 01:40 31.12.2019
5478 Clear 7 1033 87 10000 2.1 10 01:22 31.12.2019
5479 Clear 7 1033 87 10000 2.1 360 00:45 31.12.2019
5480 Clear 7 1033 87 10000 2.6 350 00:22 31.12.2019
5481 Clear 8 1033 93 10000 3.1 340 23:56 30.12.2019
5482 Clear 8 1033 81 10000 2.1 350 23:38 30.12.2019
5483 Clear 8 1033 81 10000 2.1 350 23:20 30.12.2019
5484 Clear 8 1033 87 10000 3.1 350 22:57 30.12.2019
5485 Clear 8 1033 87 10000 3.1 350 22:57 30.12.2019
5486 Clear 7 1033 87 10000 1.5 330 22:38 30.12.2019
5487 Clear 8 1033 87 10000 1.5 330 22:19 30.12.2019
5488 Clear 9 1033 87 10000 2.6 340 21:56 30.12.2019
5489 Clear 9 1033 87 10000 2.6 350 21:38 30.12.2019
5490 Clear 8 1033 87 10000 2.6 350 21:18 30.12.2019
5491 Clear 9 1033 87 10000 1.5 360 20:56 30.12.2019
5492 Clear 9 1033 87 10000 1.5 30 20:38 30.12.2019
5493 Clear 9 1033 87 10000 1.5 30 20:20 30.12.2019
5494 Clear 10 1033 81 10000 2.1 360 19:57 30.12.2019
5495 Clear 10 1033 81 10000 1.5 330 19:37 30.12.2019
5496 Clear 11 1033 81 10000 1.5 330 19:19 30.12.2019
5497 Clear 11 1033 76 10000 2.1 320 18:56 30.12.2019
5498 Clear 12 1032 76 10000 1.5 320 18:38 30.12.2019
5499 Clear 12 1032 76 10000 1.5 320 18:20 30.12.2019
5500 Clear 13 1032 71 10000 1.5 210 17:55 30.12.2019
5501 Clear 13 1032 71 10000 2.6 210 17:36 30.12.2019
5502 Clouds 14 1032 71 10000 2.6 210 17:18 30.12.2019
5503 Clouds 14 1032 62 10000 3.1 210 16:55 30.12.2019
5504 Clouds 14 1032 62 10000 3.1 210 16:55 30.12.2019
5505 Clouds 14 1032 58 10000 3.6 210 16:36 30.12.2019
5506 Clouds 15 1032 58 10000 3.6 210 16:18 30.12.2019
5507 Clouds 15 1032 54 10000 3.6 210 15:55 30.12.2019
5508 Clouds 16 1032 54 10000 3.1 200 15:36 30.12.2019
5509 Clouds 15 1032 54 10000 3.1 200 15:18 30.12.2019
5510 Clouds 15 1033 54 10000 3.1 220 14:42 30.12.2019
5511 Clear 15 1033 54 10000 3.1 220 14:19 30.12.2019
5512 Clear 16 1033 54 10000 3.1 200 13:56 30.12.2019
5513 Clear 15 1033 54 10000 2.6 210 13:37 30.12.2019
5514 Clear 15 1033 54 10000 2.6 210 13:19 30.12.2019
5515 Clear 15 1034 58 10000 1 200 12:43 30.12.2019
5516 Clear 14 1034 58 10000 1.5 200 12:20 30.12.2019
5517 Clear 15 1034 62 10000 1.5 120 11:59 30.12.2019
5518 Clear 14 1034 67 10000 0.5 0 11:40 30.12.2019
5519 Clear 13 1034 67 10000 0.5 0 11:19 30.12.2019
5520 Clear 13 1034 67 10000 0.5 0 11:19 30.12.2019
5521 Clear 11 1034 81 10000 1 330 10:45 30.12.2019
5522 Clear 11 1034 81 10000 1 330 10:22 30.12.2019
5523 Clear 10 1034 81 10000 1 10 09:59 30.12.2019
5524 Clear 8 1034 81 10000 1.5 350 09:41 30.12.2019
5525 Clear 8 1034 81 10000 1.5 350 09:20 30.12.2019
5526 Clear 7 1033 87 10000 2.6 10 08:55 30.12.2019
5527 Clear 8 1033 87 10000 3.1 350 08:36 30.12.2019
5528 Clouds 8 1033 87 10000 3.1 350 08:18 30.12.2019
5529 Clouds 7 1033 87 10000 3.1 350 08:18 30.12.2019
5530 Clouds 7 1033 87 10000 3.1 350 07:40 30.12.2019
5531 Clouds 8 1033 87 10000 2.1 350 06:55 30.12.2019
5532 Clouds 9 1032 81 10000 2.1 360 06:23 30.12.2019
5533 Clouds 10 1032 87 10000 2.1 310 03:58 30.12.2019
5534 Clouds 10 1032 81 10000 1.5 330 03:32 30.12.2019
5535 Clouds 10 1032 81 10000 0.5 0 02:40 30.12.2019
5536 Clouds 10 1032 81 10000 0.5 0 02:20 30.12.2019
5537 Clouds 9 1032 81 10000 1.5 350 01:25 30.12.2019
5538 Clouds 8 1032 87 10000 2.6 350 00:46 30.12.2019
5539 Clouds 8 1032 87 10000 2.6 350 00:23 30.12.2019
5540 Clouds 9 1032 87 10000 1.5 30 23:40 29.12.2019
5541 Clouds 9 1032 87 10000 1.5 30 23:22 29.12.2019
5542 Clouds 10 1032 87 10000 2.1 20 22:56 29.12.2019
5543 Clouds 10 1032 87 10000 1.5 360 22:38 29.12.2019
5544 Clouds 10 1032 87 10000 1.5 360 22:19 29.12.2019
5545 Clouds 10 1032 87 10000 2.1 350 21:45 29.12.2019
5546 Clouds 10 1032 81 10000 1.5 340 21:21 29.12.2019
5547 Clouds 10 1032 81 10000 1.5 340 20:59 29.12.2019
5548 Clouds 11 1032 81 10000 1 320 20:40 29.12.2019
5549 Clear 11 1032 81 10000 1 320 20:22 29.12.2019
5550 Clear 11 1032 81 10000 1 320 19:59 29.12.2019
5551 Clouds 12 1031 76 10000 0.5 0 19:40 29.12.2019
5552 Clouds 12 1031 76 10000 0.5 0 19:22 29.12.2019
5553 Clear 12 1031 76 10000 2.1 320 18:59 29.12.2019
5554 Clear 12 1031 71 10000 2.1 330 18:40 29.12.2019
5555 Clear 12 1031 71 10000 2.1 330 18:21 29.12.2019
5556 Clear 13 1031 66 10000 2.1 320 17:58 29.12.2019
5557 Clear 14 1031 62 10000 3.1 310 17:39 29.12.2019
5558 Clear 14 1031 62 10000 3.1 310 17:20 29.12.2019
5559 Clear 14 1031 58 10000 3.1 320 16:57 29.12.2019
5560 Clear 15 1031 58 10000 4.1 300 16:39 29.12.2019
5561 Clear 15 1031 58 10000 4.1 300 16:39 29.12.2019
5562 Clear 15 1031 58 10000 4.1 300 16:21 29.12.2019
5563 Clear 15 1032 58 10000 3.6 310 15:59 29.12.2019
5564 Clear 15 1032 54 10000 3.6 330 15:40 29.12.2019
5565 Clear 15 1032 54 10000 3.6 330 15:20 29.12.2019
5566 Clear 15 1032 54 10000 4.1 310 14:59 29.12.2019
5567 Clear 15 1032 58 10000 4.1 320 14:41 29.12.2019
5568 Clear 15 1032 58 10000 4.1 320 14:19 29.12.2019
5569 Clear 15 1032 62 10000 4.1 290 13:59 29.12.2019
5570 Clear 14 1032 67 10000 3.6 300 13:40 29.12.2019
5571 Clear 15 1032 67 10000 3.6 300 13:22 29.12.2019
5572 Clear 14 1033 71 10000 3.6 290 12:57 29.12.2019
5573 Clear 15 1033 71 10000 2.1 300 12:38 29.12.2019
5574 Clear 15 1033 71 10000 2.1 300 12:20 29.12.2019
5575 Clear 13 1034 82 10000 2.6 270 11:41 29.12.2019
5576 Clear 12 1034 82 10000 2.6 270 11:22 29.12.2019
5577 Clear 12 1034 87 10000 1 0 10:57 29.12.2019
5578 Clear 11 1034 87 10000 1 0 10:39 29.12.2019
5579 Clear 11 1034 87 10000 1 0 10:18 29.12.2019
5580 Clear 10 1034 87 10000 0.5 0 09:47 29.12.2019
5581 Clear 8 1033 87 10000 1.5 10 09:28 29.12.2019
5582 Clear 10 1033 87 10000 1.5 10 09:28 29.12.2019
5583 Clear 9 1033 93 10000 1 20 08:59 29.12.2019
5584 Clear 9 1033 93 10000 2.1 360 08:40 29.12.2019
5585 Clear 9 1033 93 10000 2.1 360 08:40 29.12.2019
5586 Clouds 9 1033 93 10000 2.1 360 08:21 29.12.2019
5587 Clouds 9 1033 93 10000 2.6 10 07:45 29.12.2019
5588 Clouds 9 1033 93 10000 2.6 360 07:26 29.12.2019
5589 Clouds 9 1033 93 10000 1.5 10 06:52 29.12.2019
5590 Clouds 9 1033 93 10000 2.6 20 06:22 29.12.2019
5591 Clouds 9 1033 93 10000 2.1 10 05:45 29.12.2019
5592 Clouds 9 1033 87 10000 2.1 350 04:33 29.12.2019
5593 Clouds 8 1033 93 10000 2.1 40 03:40 29.12.2019
5594 Clouds 9 1033 87 10000 1.5 340 02:49 29.12.2019
5595 Clear 8 1033 87 10000 1 30 02:19 29.12.2019
5596 Clear 8 1033 93 10000 2.1 340 01:31 29.12.2019
5597 Clear 9 1033 93 10000 1.5 320 00:51 29.12.2019
5598 Clear 9 1033 93 10000 1.5 10 00:27 29.12.2019
5599 Clear 8 1032 93 10000 1.5 360 23:57 28.12.2019
5600 Clear 8 1032 93 10000 1 360 23:39 28.12.2019
5601 Clear 9 1032 93 10000 1 360 23:18 28.12.2019
5602 Clear 10 1032 87 10000 1 0 22:39 28.12.2019
5603 Clear 11 1032 87 10000 1 0 22:19 28.12.2019
5604 Clear 10 1032 93 10000 1.5 350 21:57 28.12.2019
5605 Clear 11 1032 93 10000 0.5 0 21:38 28.12.2019
5606 Clear 11 1032 87 10000 1.5 20 21:20 28.12.2019
5607 Clear 11 1032 87 10000 1.5 20 20:55 28.12.2019
5608 Clear 11 1032 87 10000 2.1 340 20:37 28.12.2019
5609 Clear 12 1032 87 10000 2.1 340 20:18 28.12.2019
5610 Clear 12 1032 87 10000 1 0 19:55 28.12.2019
5611 Clear 12 1031 81 10000 0.5 0 19:37 28.12.2019
5612 Clear 12 1031 81 10000 0.5 0 19:18 28.12.2019
5613 Clear 13 1031 76 10000 1 0 18:56 28.12.2019
5614 Clear 13 1031 76 10000 1.5 90 18:38 28.12.2019
5615 Clear 13 1031 76 10000 1.5 90 18:18 28.12.2019
5616 Clear 14 1031 71 10000 2.1 200 17:42 28.12.2019
5617 Clear 14 1031 71 10000 2.1 200 17:42 28.12.2019
5618 Clear 15 1031 71 10000 2.1 200 17:21 28.12.2019
5619 Clear 15 1030 67 10000 3.1 220 16:59 28.12.2019
5620 Clear 16 1030 63 10000 2.6 210 16:41 28.12.2019
5621 Clear 16 1030 63 10000 2.6 210 16:23 28.12.2019
5622 Clear 16 1030 67 10000 3.1 220 15:43 28.12.2019
5623 Clear 16 1030 67 10000 3.1 220 15:23 28.12.2019
5624 Clear 16 1030 67 10000 3.1 220 14:57 28.12.2019
5625 Clear 16 1030 63 10000 1.5 220 14:38 28.12.2019
5626 Clear 16 1030 63 10000 1.5 220 14:20 28.12.2019
5627 Clear 16 1031 63 10000 1.5 220 13:43 28.12.2019
5628 Clear 16 1031 67 10000 1.5 0 13:22 28.12.2019
5629 Clear 15 1031 72 10000 1.5 170 12:59 28.12.2019
5630 Clear 15 1031 67 10000 1.5 210 12:41 28.12.2019
5631 Clear 15 1031 67 10000 1.5 210 12:22 28.12.2019
5632 Clear 15 1032 67 10000 2.1 230 11:55 28.12.2019
5633 Clear 14 1032 67 10000 0.5 150 11:37 28.12.2019
5634 Clear 14 1032 67 10000 0.5 150 11:18 28.12.2019
5635 Clear 13 1031 76 10000 1.5 20 10:43 28.12.2019
5636 Clear 12 1031 76 10000 1.5 20 10:20 28.12.2019
5637 Clear 9 1031 81 10000 1.5 360 09:56 28.12.2019
5638 Clear 9 1031 87 10000 1.5 360 09:38 28.12.2019
5639 Clear 8 1031 87 10000 1.5 360 09:19 28.12.2019
5640 Clear 8 1031 87 10000 2.1 350 08:43 28.12.2019
5641 Clear 8 1031 87 10000 2.1 350 08:25 28.12.2019
5642 Clear 8 1030 87 10000 2.6 350 07:49 28.12.2019
5643 Clear 8 1030 86 10000 1.5 10 07:27 28.12.2019
5644 Clear 8 1030 87 10000 1.5 20 06:21 28.12.2019
5645 Clear 8 1030 81 10000 2.1 10 03:59 28.12.2019
5646 Clear 8 1030 87 10000 2.1 10 03:38 28.12.2019
5647 Clear 8 1029 87 10000 2.1 20 02:48 28.12.2019
5648 Clear 9 1029 81 10000 0.5 10 01:59 28.12.2019
5649 Clear 9 1029 81 10000 0.5 10 01:59 28.12.2019
5650 Clear 9 1030 87 10000 2.1 50 01:29 28.12.2019
5651 Clear 9 1029 81 10000 1.5 30 00:55 28.12.2019
5652 Clear 9 1030 87 10000 1.5 40 00:37 28.12.2019
5653 Clear 9 1030 87 10000 1.5 40 00:19 28.12.2019
5654 Clear 9 1029 81 10000 1.5 350 23:43 27.12.2019
5655 Clear 9 1029 81 10000 1.5 20 23:19 27.12.2019
5656 Clear 9 1029 87 10000 2.1 340 23:19 27.12.2019
5657 Clear 9 1029 87 10000 2.1 340 22:57 27.12.2019
5658 Clear 10 1029 93 10000 1.5 10 22:38 27.12.2019
5659 Clear 10 1029 93 10000 1.5 10 22:20 27.12.2019
5660 Clear 10 1029 93 10000 1.5 10 21:55 27.12.2019
5661 Clear 11 1029 87 10000 1 0 21:36 27.12.2019
5662 Clear 11 1029 87 10000 1 0 21:18 27.12.2019
5663 Clear 11 1029 81 10000 0.5 0 20:41 27.12.2019
5664 Clear 11 1029 81 10000 0.5 0 20:22 27.12.2019
5665 Clear 13 1029 81 10000 1.5 0 19:42 27.12.2019
5666 Clear 13 1029 81 10000 1.5 0 19:21 27.12.2019
5667 Clear 13 1029 76 10000 4.6 300 18:59 27.12.2019
5668 Clear 13 1029 76 10000 2.6 310 18:39 27.12.2019
5669 Clear 13 1029 76 10000 2.6 310 18:20 27.12.2019
5670 Clear 14 1029 76 10000 3.1 320 17:57 27.12.2019
5671 Clear 15 1028 72 10000 3.6 330 17:39 27.12.2019
5672 Clear 15 1028 72 10000 4.6 330 17:19 27.12.2019
5673 Clear 15 1028 72 10000 4.6 330 16:58 27.12.2019
5674 Clear 16 1028 72 10000 4.6 330 16:38 27.12.2019
5675 Clear 16 1028 72 10000 4.6 330 16:19 27.12.2019
5676 Clear 16 1028 67 10000 4.6 320 15:44 27.12.2019
5677 Clear 16 1028 67 10000 5.7 330 15:22 27.12.2019
5678 Clear 16 1028 67 10000 5.7 330 14:58 27.12.2019
5679 Clear 16 1029 72 10000 5.1 320 14:39 27.12.2019
5680 Clear 16 1029 72 10000 5.1 320 14:20 27.12.2019
5681 Clear 16 1029 67 10000 4.1 320 13:55 27.12.2019
5682 Clear 16 1029 63 10000 4.1 330 13:37 27.12.2019
5683 Clear 16 1029 63 10000 4.1 330 13:18 27.12.2019
5684 Clear 15 1030 72 10000 3.1 300 12:40 27.12.2019
5685 Clear 15 1030 72 10000 3.1 300 12:22 27.12.2019
5686 Clear 15 1031 82 10000 3.1 210 11:46 27.12.2019
5687 Clear 15 1031 82 10000 3.1 210 11:26 27.12.2019
5688 Clear 14 1031 87 10000 1.5 220 10:59 27.12.2019
5689 Fog 13 1031 87 350 1 0 10:40 27.12.2019
5690 Fog 11 1031 87 350 1 0 10:22 27.12.2019
5691 Clear 11 1031 93 10000 1 0 09:46 27.12.2019
5692 Clear 10 1030 93 10000 1.5 350 09:22 27.12.2019
5693 Clear 9 1030 93 10000 1.5 340 08:59 27.12.2019
5694 Clear 9 1030 93 10000 1 350 08:38 27.12.2019
5695 Clear 9 1030 93 10000 1 50 07:57 27.12.2019
5696 Clear 9 1030 100 10000 1 360 07:38 27.12.2019
5697 Clear 9 1030 93 10000 1 30 06:43 27.12.2019
5698 Clear 9 1030 93 10000 1 30 06:22 27.12.2019
5699 Clear 9 1030 93 10000 2.6 360 04:32 27.12.2019
5700 Clear 11 1030 93 10000 2.1 360 02:27 27.12.2019
5701 Clouds 11 1030 87 10000 1 360 01:42 27.12.2019
5702 Clouds 11 1030 87 10000 1 360 01:20 27.12.2019
5703 Clouds 10 1030 87 10000 1.5 350 00:46 27.12.2019
5704 Clouds 11 1030 87 10000 1.5 350 00:25 27.12.2019
5705 Clouds 10 1030 87 10000 1 340 23:54 26.12.2019
5706 Clouds 10 1030 87 10000 1.5 340 23:36 26.12.2019
5707 Clear 12 1030 81 10000 1.5 70 23:18 26.12.2019
5708 Clear 12 1029 81 10000 2.1 70 22:38 26.12.2019
5709 Clear 11 1029 81 10000 2.1 70 22:18 26.12.2019
5710 Clear 12 1029 76 10000 1.5 80 21:40 26.12.2019
5711 Clear 12 1029 76 10000 1.5 80 21:21 26.12.2019
5712 Clear 13 1029 71 10000 1.5 80 20:58 26.12.2019
5713 Clear 12 1028 76 10000 1.5 70 20:38 26.12.2019
5714 Clouds 13 1028 76 10000 1.5 70 20:20 26.12.2019
5715 Clouds 13 1028 76 10000 1 0 19:55 26.12.2019
5716 Clouds 14 1028 76 10000 2.6 60 19:37 26.12.2019
5717 Clouds 14 1028 76 10000 2.6 60 19:19 26.12.2019
5718 Clouds 14 1027 67 10000 1.5 80 18:57 26.12.2019
5719 Clouds 15 1027 59 10000 1 0 18:36 26.12.2019
5720 Clouds 16 1027 59 10000 1 0 18:18 26.12.2019
5721 Clouds 17 1027 52 10000 2.6 330 17:41 26.12.2019
5722 Clouds 17 1027 52 10000 2.6 330 17:22 26.12.2019
5723 Clouds 18 1026 45 10000 2.1 330 16:50 26.12.2019
5724 Clouds 19 1026 49 10000 2.6 40 16:28 26.12.2019
5725 Clouds 20 1025 56 10000 4.1 60 15:58 26.12.2019
5726 Clouds 21 1025 35 10000 6.2 360 15:40 26.12.2019
5727 Clouds 21 1025 35 10000 6.2 360 15:19 26.12.2019
5728 Clouds 21 1024 37 10000 5.7 350 14:42 26.12.2019
5729 Clouds 21 1024 37 10000 5.7 350 14:23 26.12.2019
5730 Clouds 21 1024 37 10000 5.7 320 13:58 26.12.2019
5731 Clouds 21 1024 40 10000 5.1 310 13:39 26.12.2019
5732 Clouds 21 1024 40 10000 5.1 310 13:18 26.12.2019
5733 Clouds 20 1024 45 10000 3.6 310 12:56 26.12.2019
5734 Clouds 20 1024 63 10000 1 0 12:36 26.12.2019
5735 Clouds 18 1024 63 10000 1 0 12:18 26.12.2019
5736 Clouds 17 1025 82 10000 1.5 120 11:42 26.12.2019
5737 Clouds 17 1025 82 10000 1.5 120 11:23 26.12.2019
5738 Clouds 15 1024 93 10000 1.5 130 10:54 26.12.2019
5739 Clouds 14 1024 93 10000 0.5 130 10:36 26.12.2019
5740 Clouds 14 1024 93 10000 0.5 130 10:18 26.12.2019
5741 Clouds 11 1023 93 10000 1 0 09:42 26.12.2019
5742 Clouds 10 1023 93 10000 1 0 09:24 26.12.2019
5743 Clouds 9 1023 100 10000 2.1 350 08:40 26.12.2019
5744 Clouds 9 1023 100 10000 2.1 350 08:22 26.12.2019
5745 Clouds 9 1022 100 10000 1 30 07:46 26.12.2019
5746 Clouds 9 1022 100 10000 1 0 07:26 26.12.2019
5747 Clouds 9 1022 93 10000 1.5 360 06:44 26.12.2019
5748 Clouds 9 1022 93 10000 1.5 360 06:25 26.12.2019
5749 Clouds 10 1022 93 10000 1 20 05:43 26.12.2019
5750 Clouds 10 1022 93 10000 1 20 05:43 26.12.2019
5751 Clouds 9 1022 100 10000 1 340 04:38 26.12.2019
5752 Rain 9 1023 100 10000 1.5 350 03:47 26.12.2019
5753 Fog 10 1023 100 150 1.5 10 02:50 26.12.2019
5754 Fog 10 1023 100 150 1.5 10 02:31 26.12.2019
5755 Fog 11 1023 100 150 1 0 01:46 26.12.2019
5756 Fog 11 1023 100 50 1 0 01:26 26.12.2019
5757 Fog 10 1024 100 200 1.5 360 00:48 26.12.2019
5758 Fog 10 1024 100 200 1.5 360 00:24 26.12.2019
5759 Fog 11 1024 100 100 1.5 340 23:58 25.12.2019
5760 Fog 11 1024 100 50 1.5 20 23:38 25.12.2019
5761 Fog 10 1024 100 50 1.5 20 23:20 25.12.2019
5762 -273 0 0 0 0 0 22:58 25.12.2019
5763 Mist 10 1024 100 4900 0.5 0 22:38 25.12.2019
5764 Mist 10 1024 100 4900 0.5 0 22:19 25.12.2019
5765 Clear 10 1024 93 5000 1.5 360 21:57 25.12.2019
5766 Fog 10 1023 100 9000 2.25 300 21:39 25.12.2019
5767 Fog 11 1023 100 9000 2.25 300 21:19 25.12.2019
5768 Clear 12 1024 93 8000 2.1 350 20:54 25.12.2019
5769 Clear 12 1024 93 8000 1 330 20:36 25.12.2019
5770 Clear 13 1024 93 8000 1 330 20:18 25.12.2019
5771 Clear 13 1023 93 9000 1 90 19:42 25.12.2019
5772 Clear 14 1023 93 9000 1 90 19:22 25.12.2019
5773 Clear 14 1024 93 10000 1.5 60 18:56 25.12.2019
5774 Clear 15 1023 87 10000 1 0 18:36 25.12.2019
5775 Clear 15 1023 87 10000 1 0 18:18 25.12.2019
5776 Clear 17 1023 82 10000 1.5 180 17:40 25.12.2019
5777 Clear 17 1023 82 10000 1.5 180 17:19 25.12.2019
5778 Clear 18 1024 82 10000 2.1 170 16:56 25.12.2019
5779 Clear 18 1024 82 10000 2.1 180 16:37 25.12.2019
5780 Clear 18 1024 82 10000 2.1 180 16:18 25.12.2019
5781 Clear 18 1024 82 10000 2.1 180 16:18 25.12.2019
5782 Clear 18 1024 82 10000 2.6 180 15:56 25.12.2019
5783 Clear 19 1024 82 10000 3.1 210 15:38 25.12.2019
5784 Clear 19 1024 82 10000 3.1 210 15:38 25.12.2019
5785 Clear 18 1024 82 10000 3.1 190 15:19 25.12.2019
5786 Clear 19 1024 82 10000 3.1 210 15:19 25.12.2019
5787 Clear 18 1024 82 10000 3.1 190 14:56 25.12.2019
5788 Clear 18 1024 87 10000 3.1 190 14:37 25.12.2019
5789 Clear 18 1024 87 10000 3.1 190 14:19 25.12.2019
5790 Clear 18 1025 93 8000 3.6 210 13:44 25.12.2019
5791 Clear 18 1025 77 10000 3.1 190 13:21 25.12.2019
5792 Clear 19 1026 72 10000 2.6 200 12:56 25.12.2019
5793 Clear 19 1026 72 10000 2.6 210 12:38 25.12.2019
5794 Clear 18 1026 72 10000 2.6 210 12:19 25.12.2019
5795 Clear 17 1026 67 10000 0.5 0 11:43 25.12.2019
5796 Clear 16 1026 67 10000 0.5 0 11:22 25.12.2019
5797 Clear 15 1026 72 10000 0.5 0 10:58 25.12.2019
5798 Clear 14 1026 81 10000 1 0 10:36 25.12.2019
5799 Clear 13 1026 81 10000 1 0 10:18 25.12.2019
5800 Clear 10 1026 87 10000 1.5 20 09:43 25.12.2019
5801 Clear 9 1026 87 10000 0.5 0 09:25 25.12.2019
5802 Clear 9 1026 87 10000 0.5 0 08:46 25.12.2019
5803 Clear 8 1025 87 10000 1 0 08:26 25.12.2019
5804 Clear 9 1025 87 10000 0.5 0 07:45 25.12.2019
5805 Clear 9 1025 93 10000 1.5 360 07:23 25.12.2019
5806 Clear 9 1025 93 10000 1 30 06:49 25.12.2019
5807 Clear 10 1025 93 10000 1 0 06:22 25.12.2019
5808 Clear 10 1026 93 10000 1 10 04:50 25.12.2019
5809 Clear 10 1026 87 10000 2.6 10 04:26 25.12.2019
5810 Clear 10 1026 93 10000 2.1 30 03:58 25.12.2019
5811 Clear 10 1026 93 10000 1 360 03:40 25.12.2019
5812 Clear 10 1026 93 10000 1.5 350 02:39 25.12.2019
5813 Clouds 10 1027 93 10000 1.5 360 01:58 25.12.2019
5814 Clouds 10 1027 93 10000 1.5 350 01:25 25.12.2019
5815 Clouds 10 1027 93 10000 1.5 20 00:50 25.12.2019
5816 Clouds 10 1027 93 10000 1.5 330 00:29 25.12.2019
5817 Clouds 11 1027 93 10000 1.5 360 23:55 24.12.2019
5818 Clouds 11 1027 93 10000 1.5 10 23:37 24.12.2019
5819 Clouds 11 1027 93 10000 1.5 10 23:19 24.12.2019
5820 Clouds 12 1027 93 10000 1.5 360 22:40 24.12.2019
5821 Clouds 12 1027 93 10000 1.5 360 22:21 24.12.2019
5822 Clouds 12 1027 93 10000 1.5 10 21:43 24.12.2019
5823 Clouds 12 1027 93 10000 1.5 10 21:22 24.12.2019
5824 Clouds 13 1027 87 10000 2.1 360 20:54 24.12.2019
5825 Clouds 13 1027 93 10000 1.5 20 20:36 24.12.2019
5826 Clouds 13 1027 93 10000 1.5 20 20:18 24.12.2019
5827 Clouds 13 1027 93 10000 2.1 60 19:43 24.12.2019
5828 Clouds 14 1027 93 10000 2.1 60 19:19 24.12.2019
5829 Clouds 15 1027 87 10000 1.5 110 18:43 24.12.2019
5830 Clouds 15 1027 87 10000 1.5 110 18:23 24.12.2019
5831 Clouds 15 1026 82 10000 2.1 120 17:58 24.12.2019
5832 Clouds 16 1026 82 10000 2.6 140 17:37 24.12.2019
5833 Clouds 17 1026 82 10000 2.6 140 17:19 24.12.2019
5834 Clouds 18 1026 77 10000 2.1 150 16:55 24.12.2019
5835 Clouds 19 1026 77 10000 2.6 170 16:36 24.12.2019
5836 Clouds 18 1026 77 10000 2.6 170 16:18 24.12.2019
5837 Clouds 18 1026 72 10000 3.1 180 15:54 24.12.2019
5838 Clouds 19 1026 72 10000 3.1 180 15:36 24.12.2019
5839 Clouds 19 1026 72 10000 3.1 180 15:18 24.12.2019
5840 Clouds 18 1026 72 10000 2.6 170 14:54 24.12.2019
5841 Clouds 19 1026 72 10000 3.1 180 14:36 24.12.2019
5842 Clear 19 1026 72 10000 3.1 180 14:18 24.12.2019
5843 Clear 19 1027 72 10000 3.1 180 13:54 24.12.2019
5844 Clear 18 1027 72 10000 2.6 170 13:36 24.12.2019
5845 Clear 18 1028 68 10000 1 0 13:18 24.12.2019
5846 Clear 20 1028 68 10000 1 0 12:54 24.12.2019
5847 Clear 19 1028 72 10000 0.5 200 12:36 24.12.2019
5848 Clear 18 1028 72 10000 0.5 200 12:18 24.12.2019
5849 Clear 18 1028 82 10000 1 0 11:54 24.12.2019
5850 Clear 17 1028 93 10000 0.5 0 11:36 24.12.2019
5851 Clouds 15 1028 93 10000 0.5 0 11:18 24.12.2019
5852 Clouds 15 1028 100 7000 0.5 0 10:54 24.12.2019
5853 Fog 14 1028 93 450 1 20 10:36 24.12.2019
5854 Fog 12 1028 100 150 1 0 10:18 24.12.2019
5855 Fog 12 1028 100 150 1 0 09:54 24.12.2019
5856 Mist 10 1028 100 4500 1.5 350 09:36 24.12.2019
5857 Mist 10 1028 100 4500 1.5 350 09:18 24.12.2019
5858 Clouds 9 1027 93 9000 2.1 360 08:42 24.12.2019
5859 Clear 9 1027 93 9000 2.1 360 08:19 24.12.2019
5860 Clear 9 1027 93 10000 1.5 340 07:44 24.12.2019
5861 Clear 9 1027 93 10000 2.6 350 07:22 24.12.2019
5862 Clear 9 1026 93 10000 2.1 10 06:41 24.12.2019
5863 Clear 9 1026 93 10000 2.1 10 06:22 24.12.2019
5864 Clear 9 1026 87 10000 1 350 05:56 24.12.2019
5865 Clear 9 1026 87 10000 1 350 05:56 24.12.2019
5866 Clear 9 1026 87 10000 2.1 10 05:20 24.12.2019
5867 Clear 10 1026 87 10000 1 0 04:33 24.12.2019
5868 Clear 10 1026 87 10000 1 0 03:50 24.12.2019
5869 Clear 10 1026 81 10000 2.1 350 02:59 24.12.2019
5870 Clear 11 1026 81 10000 2.6 350 02:18 24.12.2019
5871 Clear 11 1027 81 10000 1.5 90 01:42 24.12.2019
5872 Clear 12 1027 81 10000 1.5 90 01:19 24.12.2019
5873 Clear 12 1027 62 10000 2.6 360 00:41 24.12.2019
5874 Clear 12 1027 62 10000 2.6 360 00:22 24.12.2019
5875 Clear 12 1027 71 10000 1.5 0 23:55 23.12.2019
5876 Clear 13 1026 81 10000 3.1 230 23:37 23.12.2019
5877 Clear 13 1026 81 10000 3.1 230 23:37 23.12.2019
5878 Clear 12 1027 76 10000 2.6 340 23:19 23.12.2019
5879 Clear 13 1027 71 10000 1 0 22:54 23.12.2019
5880 Clear 12 1027 66 10000 1 0 22:36 23.12.2019
5881 Clear 12 1027 66 10000 1 0 22:18 23.12.2019
5882 Clear 12 1027 71 10000 1.5 360 21:54 23.12.2019
5883 Clear 12 1027 66 10000 1 0 21:36 23.12.2019
5884 Clear 12 1027 66 10000 1 0 21:18 23.12.2019
5885 Clear 12 1026 62 10000 1 0 20:55 23.12.2019
5886 Clear 13 1026 58 10000 1.5 240 20:37 23.12.2019
5887 Clear 13 1026 58 10000 1.5 240 20:18 23.12.2019
5888 Clear 14 1025 62 10000 2.1 270 19:54 23.12.2019
5889 Clear 13 1026 58 10000 0.5 0 19:36 23.12.2019
5890 Clear 13 1026 58 10000 0.5 0 19:18 23.12.2019
5891 Clear 14 1026 47 10000 1.5 340 18:54 23.12.2019
5892 Clear 14 1026 47 10000 2.1 320 18:36 23.12.2019
5893 Clear 15 1026 44 10000 2.6 340 18:18 23.12.2019
5894 Clear 15 1026 44 10000 2.6 340 17:55 23.12.2019
5895 Clear 15 1025 38 10000 2.6 320 17:37 23.12.2019
5896 Clear 15 1025 38 10000 2.6 320 17:37 23.12.2019
5897 Clear 16 1025 38 10000 2.6 320 17:18 23.12.2019
5898 Clear 17 1025 39 10000 3.6 320 16:42 23.12.2019
5899 Clear 16 1025 39 10000 3.6 320 16:19 23.12.2019
5900 Clear 16 1025 39 10000 3.6 320 16:19 23.12.2019
5901 Clear 17 1025 39 10000 2.6 330 15:58 23.12.2019
5902 Clear 17 1025 45 10000 2.6 320 15:38 23.12.2019
5903 Clear 17 1025 45 10000 2.6 320 15:19 23.12.2019
5904 Clear 17 1025 48 10000 3.6 320 14:58 23.12.2019
5905 Clear 17 1025 55 10000 5.7 330 14:39 23.12.2019
5906 Clear 17 1025 55 10000 5.7 330 14:21 23.12.2019
5907 Clear 17 1025 48 10000 6.2 320 13:58 23.12.2019
5908 Clear 17 1025 48 10000 4.1 300 13:40 23.12.2019
5909 Clear 17 1025 48 10000 4.1 300 13:22 23.12.2019
5910 Clear 17 1025 48 10000 6.2 300 12:56 23.12.2019
5911 Clear 17 1026 45 10000 5.1 300 12:37 23.12.2019
5912 Clear 17 1026 45 10000 5.1 300 12:19 23.12.2019
5913 Clear 16 1026 44 10000 5.1 310 11:44 23.12.2019
5914 Clear 16 1026 44 10000 5.1 310 11:26 23.12.2019
5915 Clear 16 1026 44 10000 3.6 310 10:59 23.12.2019
5916 Clear 16 1026 44 10000 4.6 320 10:40 23.12.2019
5917 Clear 15 1026 47 10000 4.1 0 10:21 23.12.2019
5918 Clear 15 1026 47 10000 4.1 0 09:59 23.12.2019
5919 Clear 15 1025 47 10000 5.1 310 09:40 23.12.2019
5920 Clear 15 1025 47 10000 5.1 310 09:21 23.12.2019
5921 Clear 15 1024 47 10000 3.6 330 08:56 23.12.2019
5922 Clear 14 1024 50 10000 4.1 340 08:38 23.12.2019
5923 Clear 14 1024 50 10000 4.1 340 08:20 23.12.2019
5924 Clear 15 1023 47 10000 6.2 310 07:43 23.12.2019
5925 Clear 15 1023 47 10000 6.2 310 07:20 23.12.2019
5926 Clear 15 1022 51 10000 3.6 300 06:53 23.12.2019
5927 Clear 15 1022 51 10000 3.6 300 06:53 23.12.2019
5928 Clear 15 1021 47 10000 5.7 300 06:26 23.12.2019
5929 Clear 16 1021 47 10000 5.1 290 05:53 23.12.2019
5930 Clear 16 1021 51 10000 7.2 280 05:29 23.12.2019
5931 Clear 16 1020 44 10000 7.2 300 04:31 23.12.2019
5932 Clear 16 1019 48 10000 9.8 320 03:24 23.12.2019
5933 Clear 16 1019 48 10000 8.7 310 02:41 23.12.2019
5934 Clouds 16 1019 48 10000 8.7 310 02:19 23.12.2019
5935 Clouds 16 1018 55 10000 6.7 310 01:43 23.12.2019
5936 Clouds 17 1018 59 10000 4.6 320 01:25 23.12.2019
5937 Clouds 17 1017 63 10000 5.7 300 00:44 23.12.2019
5938 Clouds 17 1017 63 10000 5.7 300 00:23 23.12.2019
5939 Clouds 18 1016 55 10000 9.8 290 23:40 22.12.2019
5940 Clouds 18 1016 55 10000 9.8 290 23:22 22.12.2019
5941 Clouds 18 1015 48 10000 8.7 280 22:58 22.12.2019
5942 Clouds 18 1014 52 10000 8.2 260 22:40 22.12.2019
5943 Clouds 18 1014 52 10000 8.2 260 22:40 22.12.2019
5944 Clouds 18 1014 52 10000 8.2 260 22:22 22.12.2019
5945 Clouds 18 1014 52 10000 10.3 260 21:59 22.12.2019
5946 Clouds 18 1014 48 10000 10.3 260 21:40 22.12.2019
5947 Clouds 19 1014 48 10000 10.3 260 21:21 22.12.2019
5948 Clouds 19 1013 48 10000 10.8 260 20:59 22.12.2019
5949 Clouds 19 1013 48 10000 10.3 260 20:39 22.12.2019
5950 Clouds 19 1013 48 10000 10.3 260 20:19 22.12.2019
5951 Clouds 18 1013 52 10000 9.3 250 19:57 22.12.2019
5952 Clouds 18 1013 52 10000 8.2 250 19:39 22.12.2019
5953 Clouds 18 1013 52 10000 8.2 250 19:20 22.12.2019
5954 Clouds 17 1013 59 10000 8.7 240 18:42 22.12.2019
5955 Clouds 18 1013 52 10000 8.7 240 18:24 22.12.2019
5956 Clouds 17 1013 52 10000 8.7 240 17:57 22.12.2019
5957 Clouds 18 1013 52 10000 7.7 250 17:39 22.12.2019
5958 Clear 18 1013 52 10000 8.7 250 17:19 22.12.2019
5959 Clear 18 1013 52 10000 8.7 250 16:58 22.12.2019
5960 Clear 18 1012 52 10000 6.7 260 16:40 22.12.2019
5961 Clear 18 1012 52 10000 6.7 260 16:40 22.12.2019
5962 Clear 18 1012 52 10000 6.7 260 16:22 22.12.2019
5963 Clear 18 1013 52 10000 8.2 250 15:57 22.12.2019
5964 Clear 18 1013 48 10000 6.2 270 15:38 22.12.2019
5965 Clear 19 1013 48 10000 6.2 270 15:20 22.12.2019
5966 Clear 19 1013 45 10000 8.7 280 14:55 22.12.2019
5967 Clear 18 1013 45 10000 8.2 260 14:37 22.12.2019
5968 Clear 18 1013 45 10000 8.2 260 14:18 22.12.2019
5969 Clear 19 1013 45 10000 6.2 260 13:55 22.12.2019
5970 Clear 19 1013 45 10000 5.1 270 13:37 22.12.2019
5971 Clear 19 1013 45 10000 5.1 270 13:19 22.12.2019
5972 Clear 19 1014 42 10000 7.2 280 12:56 22.12.2019
5973 Clear 18 1014 39 10000 10.8 290 12:37 22.12.2019
5974 Clear 18 1014 39 10000 10.8 290 12:19 22.12.2019
5975 Clear 18 1014 45 10000 10.8 290 11:56 22.12.2019
5976 Clear 18 1013 42 10000 10.3 290 11:38 22.12.2019
5977 Clear 18 1013 42 10000 10.3 290 11:19 22.12.2019
5978 Clear 18 1013 42 10000 10.3 290 10:55 22.12.2019
5979 Clear 18 1012 45 10000 11.8 290 10:37 22.12.2019
5980 Clear 18 1012 45 10000 11.8 290 10:18 22.12.2019
5981 Clear 18 1011 42 10000 13.4 290 09:57 22.12.2019
5982 Clear 18 1010 45 10000 11.8 290 09:39 22.12.2019
5983 Clear 18 1010 45 10000 11.8 290 09:20 22.12.2019
5984 Clear 18 1010 51 10000 6.2 260 08:42 22.12.2019
5985 Clear 17 1010 51 10000 6.2 260 08:22 22.12.2019
5986 Clear 17 1009 51 10000 7.7 260 07:43 22.12.2019
5987 Clear 17 1009 51 10000 7.7 260 07:21 22.12.2019
5988 Clear 17 1008 55 10000 9.3 270 06:52 22.12.2019
5989 Clear 17 1008 55 10000 9.3 270 06:25 22.12.2019
5990 Rain 17 1008 55 10000 9.8 270 05:32 22.12.2019
5991 Rain 17 1007 51 10000 9.8 270 04:46 22.12.2019
5992 Clear 17 1007 48 10000 10.8 270 04:25 22.12.2019
5993 Clear 18 1005 42 10000 10.3 270 02:45 22.12.2019
5994 Clouds 19 1005 42 10000 10.3 270 02:20 22.12.2019
5995 Clouds 19 1004 48 10000 10.8 270 01:31 22.12.2019
5996 Clear 19 1004 45 10000 12.3 260 00:56 22.12.2019
5997 Clear 19 1004 55 10000 11.3 260 00:36 22.12.2019
5998 Rain 19 1004 55 10000 11.3 260 00:18 22.12.2019
5999 Clear 19 1004 63 10000 11.3 250 23:40 21.12.2019
6000 Clouds 18 1004 63 10000 11.3 250 23:21 21.12.2019
6001 Clouds 18 1004 77 10000 4.6 260 22:57 21.12.2019
6002 Clouds 18 1003 77 10000 7.2 250 22:37 21.12.2019
6003 Clouds 18 1003 77 10000 7.2 250 22:18 21.12.2019
6004 Clouds 18 1004 72 10000 5.1 250 21:54 21.12.2019
6005 Clouds 18 1004 72 10000 4.1 260 21:36 21.12.2019
6006 Clouds 18 1004 72 10000 4.1 260 21:18 21.12.2019
6007 Clouds 18 1004 72 10000 3.1 260 20:56 21.12.2019
6008 Clouds 19 1004 77 10000 4.6 240 20:37 21.12.2019
6009 Clouds 19 1004 77 10000 4.6 240 20:19 21.12.2019
6010 Clouds 18 1004 72 10000 4.6 240 19:55 21.12.2019
6011 Clouds 18 1004 82 10000 3.6 200 19:36 21.12.2019
6012 Clouds 18 1004 82 10000 3.6 200 19:18 21.12.2019
6013 Clouds 18 1003 77 10000 4.1 210 18:41 21.12.2019
6014 Clouds 18 1003 77 10000 4.1 210 18:23 21.12.2019
6015 Clouds 18 1004 77 10000 5.1 200 17:56 21.12.2019
6016 Clouds 18 1003 77 10000 5.7 200 17:38 21.12.2019
6017 Clouds 18 1003 77 10000 5.7 200 17:20 21.12.2019
6018 Clouds 18 1004 77 10000 5.7 210 16:57 21.12.2019
6019 Clouds 18 1004 82 10000 5.7 190 16:39 21.12.2019
6020 Clouds 19 1004 82 10000 5.7 190 16:18 21.12.2019
6021 Clouds 19 1004 82 10000 2.6 170 15:56 21.12.2019
6022 Clouds 19 1004 77 10000 5.1 200 15:37 21.12.2019
6023 Clouds 19 1004 77 10000 5.1 200 15:18 21.12.2019
6024 Clouds 19 1005 77 10000 5.7 200 14:43 21.12.2019
6025 Rain 19 1005 77 10000 5.7 200 14:24 21.12.2019
6026 Rain 19 1005 82 10000 6.2 220 13:59 21.12.2019
6027 Rain 18 1005 82 10000 6.2 210 13:40 21.12.2019
6028 Rain 19 1005 82 10000 6.2 210 13:20 21.12.2019
6029 Rain 19 1005 82 10000 6.2 210 13:20 21.12.2019
6030 Clouds 19 1005 88 10000 6.7 200 12:57 21.12.2019
6031 Clouds 19 1006 77 10000 5.7 190 12:39 21.12.2019
6032 Clouds 19 1006 77 10000 5.7 190 12:21 21.12.2019
6033 Clouds 19 1006 77 10000 4.6 180 11:57 21.12.2019
6034 Clouds 20 1007 64 10000 5.7 240 11:39 21.12.2019
6035 Clear 20 1007 64 10000 5.7 240 11:21 21.12.2019
6036 Clear 19 1006 72 10000 2.1 170 10:41 21.12.2019
6037 Clear 19 1006 72 10000 2.1 170 10:23 21.12.2019
6038 Clear 19 1006 68 10000 3.1 230 09:59 21.12.2019
6039 Clear 18 1006 82 10000 2.6 190 09:41 21.12.2019
6040 Clear 18 1006 82 10000 2.6 190 09:20 21.12.2019
6041 Clear 18 1006 68 10000 3.6 250 08:55 21.12.2019
6042 Clear 18 1005 68 10000 5.7 260 08:36 21.12.2019
6043 Clouds 18 1005 68 10000 5.7 260 08:18 21.12.2019
6044 Clouds 18 1004 72 10000 6.2 260 07:41 21.12.2019
6045 Clouds 18 1004 72 10000 6.2 260 07:21 21.12.2019
6046 Clouds 18 1003 82 10000 6.2 240 06:42 21.12.2019
6047 Clouds 17 1003 82 10000 6.2 240 06:24 21.12.2019
6048 Clouds 17 1003 82 10000 4.6 250 05:45 21.12.2019
6049 Rain 17 1003 82 10000 4.6 250 04:56 21.12.2019
6050 Rain 17 1003 88 10000 6.2 250 03:56 21.12.2019
6051 Rain 18 1002 88 4600 9.3 240 02:40 21.12.2019
6052 Rain 17 1002 88 10000 10.3 250 01:55 21.12.2019
6053 Rain 17 1002 88 9000 9.3 240 01:27 21.12.2019
6054 Rain 17 1003 88 9000 9.3 240 00:51 21.12.2019
6055 Rain 18 1003 88 10000 7.2 230 00:31 21.12.2019
6056 Rain 18 1003 88 10000 6.7 230 23:56 20.12.2019
6057 Rain 17 1003 93 10000 6.7 220 23:37 20.12.2019
6058 Rain 17 1004 93 9000 7.2 230 23:18 20.12.2019
6059 Rain 16 1004 93 9000 5.7 230 22:40 20.12.2019
6060 Rain 16 1004 93 9000 5.7 230 22:21 20.12.2019
6061 Rain 16 1004 93 9000 6.7 230 21:57 20.12.2019
6062 Drizzle 17 1005 93 5000 9.8 220 21:39 20.12.2019
6063 Drizzle 17 1005 93 5000 9.8 220 21:19 20.12.2019
6064 Drizzle 17 1005 82 8000 8.2 230 20:39 20.12.2019
6065 Drizzle 17 1005 82 8000 8.2 230 20:20 20.12.2019
6066 Rain 17 1005 82 10000 8.2 230 19:58 20.12.2019
6067 Rain 17 1005 82 9000 6.7 230 19:40 20.12.2019
6068 Rain 17 1005 82 9000 6.7 230 19:19 20.12.2019
6069 Rain 17 1005 87 10000 5.1 240 18:54 20.12.2019
6070 Rain 17 1005 93 8000 6.7 230 18:36 20.12.2019
6071 Rain 17 1005 93 8000 6.7 230 18:18 20.12.2019
6072 Rain 17 1005 82 10000 5.1 230 17:42 20.12.2019
6073 Rain 17 1005 82 10000 5.1 230 17:42 20.12.2019
6074 Clouds 17 1004 93 6000 8.2 250 17:21 20.12.2019
6075 Rain 17 1005 82 10000 7.2 230 16:59 20.12.2019
6076 Clouds 17 1004 93 6000 7.2 260 16:39 20.12.2019
6077 Clouds 17 1004 93 6000 9.8 250 16:20 20.12.2019
6078 Rain 17 1005 82 10000 5.7 230 15:57 20.12.2019
6079 Clouds 18 1004 93 8000 9.3 260 15:38 20.12.2019
6080 Rain 18 1005 77 10000 6.2 220 15:19 20.12.2019
6081 Rain 18 1004 77 10000 6.7 220 14:57 20.12.2019
6082 Rain 18 1004 77 10000 6.7 220 14:57 20.12.2019
6083 Clouds 18 1003 82 9000 7.7 260 14:39 20.12.2019
6084 Rain 18 1004 77 10000 8.7 230 14:20 20.12.2019
6085 Clouds 18 1004 82 9000 6.7 260 13:42 20.12.2019
6086 Rain 18 1005 77 10000 10.3 230 13:21 20.12.2019
6087 Rain 18 1006 82 10000 8.7 230 12:59 20.12.2019
6088 Rain 18 1005 82 9000 7.7 250 12:41 20.12.2019
6089 Rain 17 1005 88 9000 6.7 240 12:19 20.12.2019
6090 Rain 17 1006 82 10000 8.2 230 11:59 20.12.2019
6091 Rain 17 1006 88 9000 6.7 240 11:40 20.12.2019
6092 Rain 17 1007 82 10000 7.2 220 11:21 20.12.2019
6093 Drizzle 17 1007 82 9000 7.7 230 10:59 20.12.2019
6094 Rain 17 1006 88 9000 5.7 240 10:41 20.12.2019
6095 Rain 17 1006 77 9000 6.7 230 10:20 20.12.2019
6096 Rain 17 1006 82 7000 5.7 200 09:56 20.12.2019
6097 Rain 17 1007 82 10000 5.7 200 09:38 20.12.2019
6098 Rain 17 1006 77 9000 6.2 220 09:19 20.12.2019
6099 Rain 17 1006 72 10000 7.2 220 08:43 20.12.2019
6100 Clouds 17 1007 77 10000 6.2 190 08:25 20.12.2019
6101 Clouds 17 1007 82 10000 5.1 200 07:59 20.12.2019
6102 Clouds 17 1008 82 10000 5.1 200 07:41 20.12.2019
6103 Clouds 17 1007 77 10000 6.2 200 07:19 20.12.2019
6104 Clouds 17 1008 72 10000 6.2 200 06:52 20.12.2019
6105 Clouds 17 1008 77 10000 4.6 210 06:33 20.12.2019
6106 Clouds 16 1008 77 10000 5.7 180 05:55 20.12.2019
6107 Clouds 17 1009 77 10000 4.6 180 05:36 20.12.2019
6108 Clouds 17 1010 77 10000 5.7 190 04:33 20.12.2019
6109 Clouds 16 1011 77 10000 4.1 190 03:30 20.12.2019
6110 Clouds 16 1010 77 10000 5.7 200 02:44 20.12.2019
6111 Clouds 16 1012 82 10000 5.7 190 01:54 20.12.2019
6112 Clouds 16 1013 77 10000 5.7 200 01:33 20.12.2019
6113 Clouds 16 1014 82 10000 3.1 180 00:48 20.12.2019
6114 Clouds 16 1014 87 10000 2.1 150 00:29 20.12.2019
6115 Clouds 15 1014 87 10000 1.5 150 23:56 19.12.2019
6116 Clouds 15 1014 87 10000 2.1 100 23:38 19.12.2019
6117 Clouds 15 1014 87 10000 2.1 100 23:18 19.12.2019
6118 Clouds 15 1014 82 10000 1.5 170 22:37 19.12.2019
6119 Clouds 15 1015 82 10000 2.6 190 22:19 19.12.2019
6120 Clouds 15 1016 82 10000 3.6 200 21:56 19.12.2019
6121 Clouds 15 1015 82 10000 2.6 180 21:37 19.12.2019
6122 Clouds 16 1015 82 10000 4.1 200 21:19 19.12.2019
6123 Clouds 16 1016 82 10000 5.1 190 20:56 19.12.2019
6124 Clouds 16 1016 82 10000 5.1 200 20:37 19.12.2019
6125 Clouds 16 1016 82 10000 5.1 200 20:18 19.12.2019
6126 Clouds 16 1016 82 10000 4.1 200 19:57 19.12.2019
6127 Clouds 16 1016 82 10000 4.1 200 19:57 19.12.2019
6128 Clouds 15 1015 82 10000 3.6 200 19:39 19.12.2019
6129 Clouds 15 1016 87 10000 3.6 200 19:19 19.12.2019
6130 Clouds 15 1016 82 10000 3.1 200 18:55 19.12.2019
6131 Clouds 15 1016 82 10000 2.6 220 18:37 19.12.2019
6132 Clouds 15 1016 82 10000 2.6 220 18:18 19.12.2019
6133 Clouds 15 1016 82 10000 2.6 210 17:54 19.12.2019
6134 Clouds 16 1016 82 10000 2.6 200 17:36 19.12.2019
6135 Clouds 16 1016 82 10000 2.6 200 17:18 19.12.2019
6136 Clouds 16 1016 82 10000 4.6 230 16:54 19.12.2019
6137 Clouds 16 1017 82 10000 4.1 210 16:36 19.12.2019
6138 Clouds 16 1017 82 10000 4.1 210 16:18 19.12.2019
6139 Clouds 16 1017 77 10000 6.7 230 15:54 19.12.2019
6140 Clouds 16 1017 67 10000 5.7 230 15:36 19.12.2019
6141 Clouds 16 1017 67 10000 5.7 230 15:18 19.12.2019
6142 Clouds 16 1016 72 10000 5.7 240 14:42 19.12.2019
6143 Clouds 16 1017 77 10000 3.6 220 14:20 19.12.2019
6144 Clouds 16 1018 72 10000 3.6 230 13:58 19.12.2019
6145 Clouds 16 1016 77 10000 4.1 230 13:38 19.12.2019
6146 Clouds 16 1016 72 10000 4.1 210 13:19 19.12.2019
6147 Clouds 16 1017 67 10000 4.1 210 12:57 19.12.2019
6148 Clouds 16 1018 67 10000 4.1 200 12:38 19.12.2019
6149 Clouds 16 1018 67 10000 4.1 200 12:19 19.12.2019
6150 Clouds 16 1018 67 10000 4.1 200 12:19 19.12.2019
6151 Clouds 16 1018 67 10000 4.1 200 12:19 19.12.2019
6152 Clouds 16 1018 77 10000 4.1 200 11:58 19.12.2019
6153 Clouds 15 1019 82 10000 1.5 200 11:39 19.12.2019
6154 Clouds 14 1019 82 10000 1.5 200 11:18 19.12.2019
6155 Clouds 14 1019 82 10000 1.5 200 11:18 19.12.2019
6156 Clouds 13 1019 93 10000 1 0 10:56 19.12.2019
6157 Clouds 12 1019 93 10000 0.5 0 10:37 19.12.2019
6158 Clouds 11 1019 93 10000 0.5 0 10:19 19.12.2019
6159 Clouds 13 1019 93 10000 0.5 0 09:54 19.12.2019
6160 Clouds 11 1019 100 10000 1 0 09:36 19.12.2019
6161 Fog 11 1018 100 9000 3.04 248 09:18 19.12.2019
6162 Fog 11 1018 100 3000 1 0 08:41 19.12.2019
6163 Clouds 10 1018 100 10000 1 0 08:19 19.12.2019
6164 Fog 10 1017 100 3000 3.9 282 07:58 19.12.2019
6165 Fog 10 1017 100 3000 1 60 07:38 19.12.2019
6166 Rain 10 1017 100 3000 1 60 07:20 19.12.2019
6167 Rain 12 1017 93 1800 1.5 80 06:50 19.12.2019
6168 Rain 10 1017 100 10000 1 0 06:30 19.12.2019
6169 Clouds 12 1017 100 10000 1.5 320 05:55 19.12.2019
6170 Clouds 11 1017 93 10000 1 0 05:36 19.12.2019
6171 Clouds 11 1017 93 8000 0.5 0 04:52 19.12.2019
6172 Fog 11 1016 100 3000 3.12 310 03:45 19.12.2019
6173 Clouds 12 1018 93 10000 2.1 290 02:24 19.12.2019
6174 Clear 11 1018 93 10000 2.1 50 01:23 19.12.2019
6175 Clouds 11 1018 100 10000 3.27 321 00:44 19.12.2019
6176 Clear 11 1019 93 10000 1 0 00:25 19.12.2019
6177 Clear 11 1019 93 10000 1.5 340 23:59 18.12.2019
6178 Clear 11 1018 93 10000 1.5 350 23:41 18.12.2019
6179 Clouds 11 1017 100 10000 2.28 298 23:19 18.12.2019
6180 Clear 12 1018 93 10000 1 10 22:56 18.12.2019
6181 Clear 12 1018 87 10000 1.5 350 22:38 18.12.2019
6182 Clouds 13 1017 100 10000 0.5 0 22:20 18.12.2019
6183 Clear 12 1018 87 10000 2.1 10 21:57 18.12.2019
6184 Clear 12 1018 93 10000 1.5 330 21:39 18.12.2019
6185 Clear 12 1018 93 10000 1.5 330 21:20 18.12.2019
6186 Clear 12 1018 93 10000 1.5 30 20:56 18.12.2019
6187 Clear 13 1018 93 9000 1 0 20:38 18.12.2019
6188 Clouds 13 1017 93 10000 0.5 40 20:19 18.12.2019
6189 Clouds 15 1017 93 10000 0.5 0 19:56 18.12.2019
6190 Clouds 15 1017 87 10000 1 290 19:37 18.12.2019
6191 Clouds 15 1016 87 10000 2.85 342 19:18 18.12.2019
6192 Clouds 15 1016 87 10000 1 0 18:45 18.12.2019
6193 Clouds 16 1017 82 10000 3.1 290 18:25 18.12.2019
6194 Clouds 16 1016 82 10000 2.6 300 17:58 18.12.2019
6195 Clouds 16 1015 82 10000 2.85 342 17:40 18.12.2019
6196 Clouds 16 1015 77 10000 3.1 310 17:20 18.12.2019
6197 Clouds 17 1016 72 10000 3.1 300 16:58 18.12.2019
6198 Clouds 17 1016 72 10000 3.6 310 16:40 18.12.2019
6199 Clouds 17 1016 72 10000 3.6 310 16:22 18.12.2019
6200 Clouds 17 1016 72 10000 5.7 320 15:57 18.12.2019
6201 Clouds 18 1016 72 10000 4.6 310 15:38 18.12.2019
6202 Clouds 18 1016 72 10000 4.6 310 15:20 18.12.2019
6203 Clouds 18 1015 72 10000 3.1 310 14:43 18.12.2019
6204 Clouds 18 1015 72 10000 3.1 310 14:22 18.12.2019
6205 Clouds 18 1016 72 10000 1.5 340 13:58 18.12.2019
6206 Clouds 17 1016 77 10000 0.5 240 13:39 18.12.2019
6207 Clouds 17 1016 77 10000 0.5 240 13:21 18.12.2019
6208 Clear 17 1016 72 10000 1 0 12:59 18.12.2019
6209 Clear 17 1016 77 10000 1 0 12:40 18.12.2019
6210 Clear 16 1016 77 10000 1 0 12:21 18.12.2019
6211 Clear 16 1016 82 10000 1 0 11:57 18.12.2019
6212 Clear 17 1016 72 10000 1.5 140 11:39 18.12.2019
6213 Clear 16 1016 77 10000 0.5 80 11:20 18.12.2019
6214 Clear 15 1016 77 10000 0.5 80 10:57 18.12.2019
6215 Clear 15 1015 87 10000 1.5 20 10:39 18.12.2019
6216 Clear 14 1015 87 10000 1.5 20 10:20 18.12.2019
6217 Clear 14 1015 87 10000 1.5 20 10:20 18.12.2019
6218 Clear 14 1015 81 10000 2.1 330 09:57 18.12.2019
6219 Clear 14 1015 87 10000 1.5 340 09:20 18.12.2019
6220 Clear 12 1014 76 10000 2.6 80 08:43 18.12.2019
6221 Clear 12 1014 76 10000 2.6 80 08:24 18.12.2019
6222 Clouds 12 1014 71 10000 1.5 20 07:57 18.12.2019
6223 Clouds 12 1014 66 10000 1.5 90 07:39 18.12.2019
6224 Clouds 12 1014 66 10000 1.5 90 07:20 18.12.2019
6225 Clouds 13 1013 66 10000 2.1 30 06:52 18.12.2019
6226 Clouds 13 1013 59 10000 4.1 320 06:24 18.12.2019
6227 Clouds 12 1013 81 10000 2.1 320 05:35 18.12.2019
6228 Clouds 12 1013 81 10000 2.1 320 05:35 18.12.2019
6229 Clouds 12 1013 81 10000 2.6 350 04:31 18.12.2019
6230 Clouds 13 1012 71 10000 1 0 02:47 18.12.2019
6231 Clouds 13 1012 71 10000 1 0 02:28 18.12.2019
6232 Clouds 14 1012 66 10000 2.6 340 01:45 18.12.2019
6233 Clouds 13 1012 66 10000 2.6 340 01:27 18.12.2019
6234 Clouds 13 1012 71 10000 3.1 350 00:55 18.12.2019
6235 Clouds 14 1012 71 10000 2.1 20 00:37 18.12.2019
6236 Clouds 14 1012 71 10000 2.1 20 00:19 18.12.2019
6237 Clouds 14 1012 76 10000 2.1 30 23:43 17.12.2019
6238 Clouds 14 1012 76 10000 2.1 30 23:24 17.12.2019
6239 Clouds 14 1012 76 10000 1.5 350 22:57 17.12.2019
6240 Clouds 13 1012 76 10000 3.1 350 22:39 17.12.2019
6241 Clouds 13 1012 76 10000 3.1 350 22:20 17.12.2019
6242 Clouds 14 1012 76 10000 1.5 30 21:57 17.12.2019
6243 Clouds 14 1012 71 10000 3.1 20 21:39 17.12.2019
6244 Clouds 14 1012 71 10000 3.1 20 21:20 17.12.2019
6245 Clouds 14 1012 71 10000 3.1 20 21:20 17.12.2019
6246 Clouds 15 1012 71 10000 2.6 350 20:59 17.12.2019
6247 Clouds 15 1011 76 10000 2.6 350 20:40 17.12.2019
6248 Clouds 15 1011 76 10000 2.6 350 20:19 17.12.2019
6249 Rain 15 1011 82 10000 2.1 330 19:57 17.12.2019
6250 Rain 15 1011 72 10000 2.1 70 19:39 17.12.2019
6251 Rain 15 1011 72 10000 2.1 70 19:20 17.12.2019
6252 Rain 16 1010 72 10000 2.1 70 18:57 17.12.2019
6253 Rain 16 1010 67 10000 3.1 60 18:38 17.12.2019
6254 Rain 16 1009 77 10000 3.1 90 18:20 17.12.2019
6255 Rain 16 1009 77 10000 3.1 90 17:55 17.12.2019
6256 Rain 17 1009 72 10000 1 60 17:37 17.12.2019
6257 Clouds 17 1008 67 10000 2.1 20 17:18 17.12.2019
6258 Clouds 17 1008 67 10000 2.1 20 16:55 17.12.2019
6259 Clouds 18 1008 67 10000 1.5 360 16:37 17.12.2019
6260 Clouds 18 1008 67 10000 1.5 360 16:18 17.12.2019
6261 Clouds 18 1008 63 10000 1.5 110 15:38 17.12.2019
6262 Clouds 18 1008 63 10000 1.5 110 15:20 17.12.2019
6263 Clouds 18 1008 63 10000 1.5 170 14:57 17.12.2019
6264 Clouds 18 1008 63 10000 1.5 140 14:39 17.12.2019
6265 Clouds 18 1008 63 10000 1.5 140 14:19 17.12.2019
6266 Clouds 19 1008 63 10000 1.5 190 13:59 17.12.2019
6267 Clouds 18 1008 63 10000 1 190 13:41 17.12.2019
6268 Clouds 18 1008 63 10000 1 190 13:19 17.12.2019
6269 Clouds 18 1008 68 10000 1 0 12:59 17.12.2019
6270 Clouds 18 1008 68 10000 1 0 12:59 17.12.2019
6271 Clouds 18 1008 72 9000 1 80 12:39 17.12.2019
6272 Clouds 17 1008 77 8000 1 0 12:18 17.12.2019
6273 Clouds 17 1007 68 7000 0.5 0 12:18 17.12.2019
6274 Clouds 18 1008 77 8000 1 0 11:58 17.12.2019
6275 Clouds 18 1008 77 8000 1.5 140 11:37 17.12.2019
6276 Clouds 17 1007 72 8000 1.5 190 11:19 17.12.2019
6277 Clouds 17 1008 82 7000 2.6 190 10:58 17.12.2019
6278 Clouds 17 1007 77 8000 3.1 180 10:40 17.12.2019
6279 Clouds 17 1007 77 8000 3.1 180 10:21 17.12.2019
6280 Clouds 17 1007 77 8000 1 180 09:59 17.12.2019
6281 Clouds 17 1007 77 8000 1.5 180 09:40 17.12.2019
6282 Clouds 17 1007 77 8000 1.5 180 09:19 17.12.2019
6283 Clouds 17 1007 72 9000 1 0 08:56 17.12.2019
6284 Clouds 17 1006 67 10000 1.5 10 08:38 17.12.2019
6285 Clouds 17 1006 67 10000 1.5 10 08:19 17.12.2019
6286 Clouds 16 1006 72 9000 1 0 07:45 17.12.2019
6287 Clouds 16 1006 72 9000 1 0 07:26 17.12.2019
6288 Clouds 16 1005 77 9000 4.1 190 06:56 17.12.2019
6289 Clouds 16 1005 63 10000 4.6 190 06:34 17.12.2019
6290 Clouds 15 1004 82 10000 0.5 40 05:52 17.12.2019
6291 Clouds 15 1005 76 10000 2.1 30 05:34 17.12.2019
6292 Clouds 15 1005 76 10000 1.5 50 04:30 17.12.2019
6293 Clouds 15 1006 76 10000 1.5 30 02:33 17.12.2019
6294 Clouds 16 1006 72 10000 2.6 10 01:54 17.12.2019
6295 Clouds 15 1006 72 10000 2.1 60 00:58 17.12.2019
6296 Clouds 15 1006 82 10000 2.6 60 00:37 17.12.2019
6297 Clouds 15 1006 82 10000 2.6 60 00:19 17.12.2019
6298 Clouds 15 1007 82 10000 2.1 50 23:41 16.12.2019
6299 Clouds 15 1007 77 10000 3.1 50 23:19 16.12.2019
6300 Clouds 15 1007 77 10000 3.1 50 23:19 16.12.2019
6301 Clouds 15 1007 77 10000 3.1 50 22:56 16.12.2019
6302 Clouds 15 1007 72 10000 2.6 50 22:37 16.12.2019
6303 Clouds 15 1007 72 10000 2.6 50 22:19 16.12.2019
6304 Clouds 15 1007 72 10000 3.1 50 21:55 16.12.2019
6305 Clouds 15 1007 76 10000 2.1 40 21:37 16.12.2019
6306 Clouds 15 1007 76 10000 3.1 50 21:19 16.12.2019
6307 Clouds 15 1007 76 10000 3.1 50 20:57 16.12.2019
6308 Clouds 15 1007 76 10000 3.6 70 20:37 16.12.2019
6309 Clouds 15 1007 76 10000 3.6 70 20:19 16.12.2019
6310 Clouds 15 1008 72 10000 3.1 60 19:55 16.12.2019
6311 Clouds 15 1008 76 10000 3.1 70 19:37 16.12.2019
6312 Clouds 15 1008 76 10000 2.6 70 19:18 16.12.2019
6313 Clouds 15 1008 76 10000 2.6 70 19:18 16.12.2019
6314 Clouds 16 1007 77 10000 2.1 70 18:56 16.12.2019
6315 Clouds 16 1008 77 10000 2.6 60 18:37 16.12.2019
6316 Clouds 16 1007 72 10000 1 0 18:19 16.12.2019
6317 Clouds 16 1007 72 10000 1 0 18:19 16.12.2019
6318 Clouds 16 1008 72 10000 1.5 70 17:57 16.12.2019
6319 Clouds 17 1008 67 10000 2.1 100 17:37 16.12.2019
6320 Clouds 17 1008 67 10000 2.1 150 17:19 16.12.2019
6321 Clouds 17 1008 67 10000 2.1 150 16:55 16.12.2019
6322 Clouds 18 1009 63 10000 2.6 170 16:37 16.12.2019
6323 Clouds 18 1009 63 10000 2.6 170 16:18 16.12.2019
6324 Clouds 18 1009 68 10000 3.1 200 15:57 16.12.2019
6325 Clouds 18 1009 68 10000 1.5 180 15:38 16.12.2019
6326 Clouds 18 1009 68 10000 1.5 180 15:19 16.12.2019
6327 Clouds 18 1009 68 10000 2.6 140 14:55 16.12.2019
6328 Clouds 19 1009 72 10000 1.5 90 14:36 16.12.2019
6329 Clouds 19 1009 72 10000 1.5 90 14:18 16.12.2019
6330 Clouds 18 1010 72 10000 1.5 110 13:55 16.12.2019
6331 Clouds 19 1010 68 10000 3.1 110 13:37 16.12.2019
6332 Clouds 18 1011 72 10000 2.6 90 13:19 16.12.2019
6333 Clouds 18 1011 72 10000 2.6 90 12:56 16.12.2019
6334 Clouds 18 1012 72 10000 2.1 80 12:38 16.12.2019
6335 Clouds 18 1012 72 10000 2.1 90 12:18 16.12.2019
6336 Clouds 17 1012 72 10000 2.1 90 11:57 16.12.2019
6337 Clouds 17 1012 72 10000 3.1 70 11:38 16.12.2019
6338 Clouds 16 1013 82 5000 2.1 50 11:19 16.12.2019
6339 Clouds 15 1013 82 5000 2.1 50 10:54 16.12.2019
6340 Clouds 15 1013 87 10000 1.5 360 10:36 16.12.2019
6341 Clouds 14 1013 87 10000 1.5 360 10:18 16.12.2019
6342 Clouds 14 1013 87 10000 2.1 20 09:43 16.12.2019
6343 Clouds 13 1013 87 10000 2.1 20 09:24 16.12.2019
6344 Clouds 14 1013 93 10000 2.1 70 08:40 16.12.2019
6345 Clouds 14 1013 93 10000 2.1 70 08:40 16.12.2019
6346 Clouds 13 1013 93 10000 2.1 70 08:20 16.12.2019
6347 Clouds 13 1013 93 10000 2.1 70 08:20 16.12.2019
6348 Clouds 13 1013 87 10000 2.1 60 07:53 16.12.2019
6349 Clouds 13 1013 87 10000 2.1 70 07:31 16.12.2019
6350 Clouds 13 1013 87 10000 2.1 70 07:31 16.12.2019
6351 Clouds 13 1013 93 10000 2.1 80 06:58 16.12.2019
6352 Clouds 13 1013 87 10000 1.5 80 06:40 16.12.2019
6353 Clouds 13 1013 87 10000 1.5 60 06:20 16.12.2019
6354 Clouds 13 1013 87 10000 1 0 05:41 16.12.2019
6355 Clouds 13 1013 87 10000 1 0 05:22 16.12.2019
6356 Clouds 13 1014 87 10000 1 40 03:28 16.12.2019
6357 Clouds 12 1015 87 10000 1 0 01:51 16.12.2019
6358 Clouds 12 1015 87 10000 1 0 01:33 16.12.2019
6359 Clouds 12 1015 93 10000 0.5 310 00:39 16.12.2019
6360 Clouds 12 1015 87 10000 1 0 00:20 16.12.2019
6361 Clouds 12 1015 87 10000 1 0 23:57 15.12.2019
6362 Clouds 12 1015 93 10000 0.5 0 23:37 15.12.2019
6363 Clouds 12 1015 87 10000 1 360 23:19 15.12.2019
6364 Clouds 12 1015 93 10000 1.5 350 22:54 15.12.2019
6365 Clouds 11 1015 93 10000 1.5 350 22:36 15.12.2019
6366 Clouds 12 1015 93 10000 1.5 350 22:18 15.12.2019
6367 Clouds 12 1015 93 10000 1 350 21:54 15.12.2019
6368 Clouds 12 1015 93 10000 1.5 350 21:36 15.12.2019
6369 Clouds 12 1015 93 10000 1.5 350 21:18 15.12.2019
6370 Clouds 13 1015 87 10000 1 350 20:54 15.12.2019
6371 Clouds 13 1015 87 10000 1.5 350 20:36 15.12.2019
6372 Clouds 13 1015 87 10000 1.5 350 20:18 15.12.2019
6373 Clouds 13 1015 87 10000 1.5 20 19:54 15.12.2019
6374 Clouds 14 1015 82 10000 2.6 230 19:36 15.12.2019
6375 Clouds 14 1015 82 10000 3.1 220 19:18 15.12.2019
6376 Clouds 14 1015 82 10000 3.1 220 18:54 15.12.2019
6377 Clouds 14 1015 82 10000 3.1 220 18:36 15.12.2019
6378 Clouds 14 1015 82 10000 2.6 220 18:18 15.12.2019
6379 Clouds 15 1015 77 10000 2.6 210 17:54 15.12.2019
6380 Clouds 15 1015 77 10000 2.6 210 17:36 15.12.2019
6381 Clouds 15 1015 67 10000 3.6 210 17:18 15.12.2019
6382 Clouds 16 1015 67 10000 4.6 220 16:42 15.12.2019
6383 Clouds 16 1015 67 10000 4.6 220 16:22 15.12.2019
6384 Clouds 16 1015 67 10000 5.1 210 15:57 15.12.2019
6385 Clouds 17 1015 63 10000 5.1 210 15:39 15.12.2019
6386 Clouds 17 1015 63 10000 5.1 210 15:19 15.12.2019
6387 Clouds 17 1015 59 10000 5.7 220 14:56 15.12.2019
6388 Clouds 17 1015 55 10000 6.7 210 14:37 15.12.2019
6389 Clouds 17 1015 55 10000 6.7 210 14:19 15.12.2019
6390 Clouds 17 1016 55 10000 5.1 240 13:58 15.12.2019
6391 Clouds 17 1016 63 10000 5.7 220 13:39 15.12.2019
6392 Clouds 17 1016 63 10000 5.7 220 13:20 15.12.2019
6393 Clouds 17 1016 67 10000 4.6 210 12:57 15.12.2019
6394 Clouds 17 1016 63 10000 3.6 210 12:39 15.12.2019
6395 Clouds 17 1015 77 10000 5.1 240 12:21 15.12.2019
6396 Clouds 17 1016 63 10000 4.1 230 11:59 15.12.2019
6397 Clouds 16 1017 72 10000 3.1 230 11:37 15.12.2019
6398 Clouds 16 1016 77 10000 1.5 250 11:19 15.12.2019
6399 Clouds 15 1016 77 10000 1.5 250 10:55 15.12.2019
6400 Clouds 15 1016 87 10000 1 50 10:37 15.12.2019
6401 Clouds 13 1016 93 10000 1 0 10:19 15.12.2019
6402 Clouds 13 1016 93 10000 1 0 09:56 15.12.2019
6403 Clouds 13 1016 93 10000 2.1 340 09:37 15.12.2019
6404 Clouds 13 1016 93 10000 2.1 340 09:18 15.12.2019
6405 Clouds 12 1015 93 10000 1.5 350 08:41 15.12.2019
6406 Clouds 11 1015 93 10000 1.5 350 08:22 15.12.2019
6407 Clouds 11 1015 93 10000 1.5 360 07:57 15.12.2019
6408 Clouds 13 1015 87 10000 1 340 07:37 15.12.2019
6409 Clouds 12 1015 87 10000 2.1 20 06:57 15.12.2019
6410 Clouds 11 1014 100 10000 1.5 60 06:23 15.12.2019
6411 Clouds 11 1015 93 10000 1.5 10 05:39 15.12.2019
6412 Clouds 11 1015 93 10000 0.5 0 05:19 15.12.2019
6413 Clouds 12 1016 87 10000 1 0 04:18 15.12.2019
6414 Clouds 13 1016 87 10000 1 0 02:35 15.12.2019
6415 Clouds 13 1016 87 10000 1.5 10 01:57 15.12.2019
6416 Clouds 13 1017 87 10000 1 0 01:39 15.12.2019
6417 Clouds 13 1017 87 10000 1 0 01:18 15.12.2019
6418 Clouds 13 1017 81 10000 2.1 300 00:44 15.12.2019
6419 Clouds 13 1017 81 10000 2.1 300 00:44 15.12.2019
6420 Clouds 13 1017 81 10000 2.1 300 00:25 15.12.2019
6421 Clouds 14 1017 82 10000 3.6 240 23:41 14.12.2019
6422 Clouds 14 1016 87 10000 2.6 250 23:22 14.12.2019
6423 Clouds 14 1017 82 10000 2.1 250 22:59 14.12.2019
6424 Clouds 14 1016 82 10000 3.6 270 22:41 14.12.2019
6425 Clouds 14 1016 82 10000 3.6 270 22:22 14.12.2019
6426 Clouds 15 1016 82 10000 3.6 260 21:56 14.12.2019
6427 Clouds 15 1016 87 10000 3.6 240 21:38 14.12.2019
6428 Clouds 15 1016 87 10000 4.1 240 21:19 14.12.2019
6429 Clouds 15 1016 87 10000 4.1 240 21:19 14.12.2019
6430 Clouds 14 1017 87 8000 2.1 90 20:59 14.12.2019
6431 Clouds 14 1017 93 7000 1.5 70 20:40 14.12.2019
6432 Clouds 14 1017 87 10000 1 0 20:20 14.12.2019
6433 Clouds 14 1017 87 10000 1 0 19:57 14.12.2019
6434 Clouds 15 1016 82 10000 1.5 320 19:38 14.12.2019
6435 Clouds 14 1016 82 10000 1.5 320 19:20 14.12.2019
6436 Clouds 15 1016 77 10000 1.5 200 18:56 14.12.2019
6437 Clouds 15 1016 67 10000 0.5 0 18:38 14.12.2019
6438 Clouds 16 1016 82 10000 2.6 210 18:19 14.12.2019
6439 Clouds 16 1015 77 10000 2.6 120 17:44 14.12.2019
6440 Clouds 16 1015 77 10000 2.6 120 17:24 14.12.2019
6441 Clouds 17 1015 72 10000 3.1 200 16:59 14.12.2019
6442 Clouds 18 1015 72 10000 4.1 210 16:40 14.12.2019
6443 Clouds 18 1015 72 10000 4.1 210 16:19 14.12.2019
6444 Clouds 18 1015 72 10000 4.1 210 16:19 14.12.2019
6445 Clouds 18 1015 68 10000 3.6 210 15:43 14.12.2019
6446 Clouds 19 1015 68 10000 3.6 210 15:25 14.12.2019
6447 Clouds 19 1015 59 10000 3.1 220 14:59 14.12.2019
6448 Clouds 19 1015 40 10000 4.6 300 14:39 14.12.2019
6449 Clouds 20 1015 40 10000 4.6 300 14:21 14.12.2019
6450 Clouds 20 1015 42 10000 4.1 290 13:59 14.12.2019
6451 Clouds 20 1015 59 10000 4.1 220 13:41 14.12.2019
6452 Clouds 20 1015 59 10000 4.1 220 13:19 14.12.2019
6453 Clouds 20 1015 59 10000 4.1 220 13:19 14.12.2019
6454 Clouds 20 1016 42 10000 4.1 310 12:56 14.12.2019
6455 Clouds 19 1016 45 10000 3.6 310 12:37 14.12.2019
6456 Clouds 19 1016 42 10000 3.6 340 12:19 14.12.2019
6457 Clouds 19 1016 42 10000 3.6 340 11:56 14.12.2019
6458 Clouds 19 1016 48 10000 3.1 280 11:37 14.12.2019
6459 Clouds 18 1016 48 10000 2.6 260 11:18 14.12.2019
6460 Clouds 18 1016 48 10000 2.6 260 10:56 14.12.2019
6461 Clouds 18 1015 52 10000 2.6 280 10:38 14.12.2019
6462 Clouds 17 1015 52 10000 2.6 280 10:19 14.12.2019
6463 Clouds 16 1015 67 10000 2.1 270 09:43 14.12.2019
6464 Clouds 16 1015 67 10000 2.1 270 09:23 14.12.2019
6465 Clouds 16 1014 62 10000 1.5 310 08:57 14.12.2019
6466 Clouds 16 1014 62 10000 1 0 08:38 14.12.2019
6467 Clear 16 1014 62 10000 1 0 08:19 14.12.2019
6468 Clear 16 1013 67 10000 0.5 270 07:40 14.12.2019
6469 Clear 16 1013 67 10000 0.5 270 07:21 14.12.2019
6470 Clear 16 1013 67 10000 0.5 270 07:21 14.12.2019
6471 Clouds 16 1012 59 10000 4.1 230 06:48 14.12.2019
6472 Clear 16 1013 63 10000 3.1 270 06:30 14.12.2019
6473 Clouds 17 1011 52 10000 6.2 300 05:50 14.12.2019
6474 Clear 17 1011 63 10000 7.7 330 03:44 14.12.2019
6475 Clear 18 1011 59 10000 4.1 320 02:24 14.12.2019
6476 Clouds 18 1011 59 10000 5.7 220 01:44 14.12.2019
6477 Clouds 18 1011 59 10000 5.7 220 01:20 14.12.2019
6478 Clouds 18 1011 59 10000 9.8 230 00:43 14.12.2019
6479 Clouds 18 1011 59 10000 9.8 230 00:22 14.12.2019
6480 Clouds 18 1010 63 10000 8.7 230 23:41 13.12.2019
6481 Clouds 18 1010 63 10000 8.2 220 23:20 13.12.2019
6482 Clouds 18 1010 63 10000 8.2 220 22:59 13.12.2019
6483 Clouds 19 1010 63 10000 2.6 170 22:40 13.12.2019
6484 Clouds 19 1010 63 10000 2.6 170 22:18 13.12.2019
6485 Clouds 19 1009 63 10000 8.2 230 21:46 13.12.2019
6486 Clouds 19 1009 63 10000 8.2 230 21:22 13.12.2019
6487 Clouds 19 1008 72 10000 8.2 240 20:59 13.12.2019
6488 Clouds 18 1008 72 10000 8.2 240 20:40 13.12.2019
6489 Clouds 18 1008 72 10000 8.2 240 20:21 13.12.2019
6490 Clouds 19 1009 45 10000 3.1 0 19:58 13.12.2019
6491 Clouds 19 1007 68 10000 7.7 230 19:40 13.12.2019
6492 Clouds 19 1008 55 10000 3.1 200 19:20 13.12.2019
6493 Clouds 19 1007 45 10000 3.1 180 18:57 13.12.2019
6494 Clouds 19 1006 63 10000 8.2 220 18:39 13.12.2019
6495 Clouds 19 1006 63 10000 8.2 220 18:18 13.12.2019
6496 Clouds 19 1006 45 10000 6.7 280 17:41 13.12.2019
6497 Clouds 19 1006 45 10000 6.7 280 17:19 13.12.2019
6498 Clouds 19 1005 63 10000 9.8 230 17:19 13.12.2019
6499 Clouds 19 1005 45 10000 7.7 280 16:59 13.12.2019
6500 Clouds 19 1005 45 10000 5.7 270 16:39 13.12.2019
6501 Clouds 19 1005 59 10000 11.3 240 16:20 13.12.2019
6502 Clouds 19 1004 63 10000 12.3 240 15:43 13.12.2019
6503 Clouds 19 1005 52 10000 6.7 260 15:23 13.12.2019
6504 Clouds 19 1005 52 10000 6.2 260 14:58 13.12.2019
6505 Clouds 19 1004 63 10000 13.4 250 14:40 13.12.2019
6506 Clouds 19 1004 55 10000 5.1 250 14:20 13.12.2019
6507 Clouds 19 1004 55 10000 5.1 250 14:20 13.12.2019
6508 Clouds 19 1004 63 10000 10.3 250 13:56 13.12.2019
6509 Clouds 19 1006 52 10000 4.6 260 13:37 13.12.2019
6510 Clouds 19 1006 52 10000 4.6 260 13:19 13.12.2019
6511 Clouds 19 1005 63 10000 11.8 260 12:42 13.12.2019
6512 Clouds 19 1006 63 10000 7.2 240 12:20 13.12.2019
6513 Clouds 18 1005 68 10000 11.8 260 12:20 13.12.2019
6514 Clouds 18 1006 63 10000 8.2 260 11:57 13.12.2019
6515 Clouds 18 1006 63 10000 7.7 250 11:39 13.12.2019
6516 Clouds 18 1005 72 10000 12.3 260 11:19 13.12.2019
6517 Clouds 18 1005 72 10000 12.3 270 10:41 13.12.2019
6518 Clouds 18 1006 63 10000 8.7 250 10:22 13.12.2019
6519 Clouds 18 1004 72 10000 13.4 270 09:54 13.12.2019
6520 Clouds 17 1004 67 10000 8.2 250 09:36 13.12.2019
6521 Clouds 17 1003 77 10000 12.3 260 09:18 13.12.2019
6522 Clouds 17 1003 77 10000 12.3 260 09:18 13.12.2019
6523 Clouds 17 1004 72 10000 8.7 250 08:40 13.12.2019
6524 Clouds 17 1004 72 10000 8.7 250 08:22 13.12.2019
6525 Clouds 17 1004 72 10000 12.9 260 07:44 13.12.2019
6526 Clouds 17 1005 67 10000 8.7 250 07:20 13.12.2019
6527 Clouds 16 1005 67 10000 8.7 250 06:50 13.12.2019
6528 Clouds 16 1005 67 10000 7.7 240 06:28 13.12.2019
6529 Clouds 16 1004 77 10000 11.8 260 05:44 13.12.2019
6530 Clouds 16 1005 72 10000 8.2 220 05:24 13.12.2019
6531 Clouds 16 1006 72 10000 8.7 230 04:35 13.12.2019
6532 Clouds 16 1007 67 10000 6.7 250 03:31 13.12.2019
6533 Clouds 15 1007 67 10000 6.7 260 02:32 13.12.2019
6534 Clouds 15 1006 67 10000 12.3 260 01:43 13.12.2019
6535 Clouds 15 1008 62 10000 7.2 270 00:55 13.12.2019
6536 Clouds 14 1008 67 10000 7.2 260 00:36 13.12.2019
6537 Clouds 14 1008 62 10000 7.2 260 23:57 12.12.2019
6538 Clouds 14 1009 62 10000 7.2 260 23:37 12.12.2019
6539 Clouds 14 1007 67 10000 9.8 260 23:19 12.12.2019
6540 Clouds 14 1009 62 10000 6.2 260 22:54 12.12.2019
6541 Clouds 14 1009 62 10000 6.7 260 22:36 12.12.2019
6542 Clouds 14 1008 62 10000 7.2 250 22:18 12.12.2019
6543 Clouds 14 1009 62 10000 5.7 280 21:54 12.12.2019
6544 Clouds 14 1009 62 10000 5.1 290 21:36 12.12.2019
6545 Clouds 14 1009 71 10000 5.7 270 21:18 12.12.2019
6546 Clouds 14 1010 71 10000 2.1 240 20:55 12.12.2019
6547 Clouds 14 1010 67 10000 4.6 240 20:37 12.12.2019
6548 Clouds 14 1010 67 10000 4.6 240 20:19 12.12.2019
6549 Clouds 13 1011 71 10000 3.6 230 19:42 12.12.2019
6550 Clouds 13 1011 71 10000 3.6 230 19:22 12.12.2019
6551 Clouds 13 1011 71 10000 2.1 210 18:58 12.12.2019
6552 Clouds 13 1011 71 10000 1 0 18:39 12.12.2019
6553 Clouds 13 1011 71 10000 1 0 18:20 12.12.2019
6554 Clouds 13 1012 71 10000 3.6 250 17:57 12.12.2019
6555 Clouds 14 1012 67 10000 4.1 250 17:39 12.12.2019
6556 Clouds 14 1012 67 10000 4.1 250 17:20 12.12.2019
6557 Clouds 14 1013 62 10000 3.1 250 16:57 12.12.2019
6558 Clouds 14 1013 62 10000 2.6 260 16:39 12.12.2019
6559 Clouds 14 1013 62 10000 2.6 260 16:20 12.12.2019
6560 Clouds 15 1013 54 10000 3.1 0 15:56 12.12.2019
6561 Clouds 15 1013 54 10000 3.1 0 15:56 12.12.2019
6562 Clouds 15 1012 67 10000 5.7 240 15:38 12.12.2019
6563 Clouds 15 1012 67 10000 5.7 260 15:18 12.12.2019
6564 Clouds 15 1013 63 10000 6.2 260 14:38 12.12.2019
6565 Clouds 15 1013 63 10000 6.2 260 14:38 12.12.2019
6566 Clouds 15 1014 51 10000 4.1 270 14:20 12.12.2019
6567 Clouds 16 1015 48 10000 5.1 290 13:58 12.12.2019
6568 Clouds 16 1016 44 10000 5.7 280 13:40 12.12.2019
6569 Clouds 16 1016 44 10000 5.7 280 13:21 12.12.2019
6570 Clouds 16 1016 44 10000 4.6 280 12:59 12.12.2019
6571 Clouds 16 1016 48 10000 4.6 280 12:40 12.12.2019
6572 Clouds 15 1016 51 10000 4.1 290 12:22 12.12.2019
6573 Clouds 15 1017 47 10000 5.1 300 11:57 12.12.2019
6574 Clouds 15 1018 51 10000 4.1 290 11:38 12.12.2019
6575 Clouds 15 1018 51 10000 4.1 290 11:38 12.12.2019
6576 Clouds 15 1018 51 10000 4.1 290 11:20 12.12.2019
6577 Clouds 15 1018 47 10000 5.1 290 10:57 12.12.2019
6578 Clouds 15 1017 51 10000 3.6 290 10:39 12.12.2019
6579 Clouds 14 1018 50 10000 4.1 290 10:21 12.12.2019
6580 Clouds 14 1017 50 10000 3.1 280 09:55 12.12.2019
6581 Clouds 14 1017 50 10000 3.1 280 09:55 12.12.2019
6582 Clouds 14 1017 54 10000 4.6 290 09:37 12.12.2019
6583 Clouds 14 1017 54 10000 4.6 290 09:19 12.12.2019
6584 Clouds 14 1016 54 10000 4.6 290 08:46 12.12.2019
6585 Clouds 14 1018 50 10000 4.1 300 08:27 12.12.2019
6586 Clear 13 1018 54 10000 4.6 300 07:50 12.12.2019
6587 Clear 13 1017 54 10000 5.1 300 07:28 12.12.2019
6588 Clear 13 1017 54 10000 6.2 300 06:57 12.12.2019
6589 Clear 13 1017 54 10000 5.1 300 06:36 12.12.2019
6590 Clear 13 1018 54 10000 5.1 300 05:49 12.12.2019
6591 Clear 14 1018 50 10000 5.1 310 05:25 12.12.2019
6592 Clear 14 1018 54 10000 5.1 300 04:31 12.12.2019
6593 Clouds 13 1018 54 10000 2.6 190 02:41 12.12.2019
6594 Clear 13 1019 54 10000 5.1 310 02:23 12.12.2019
6595 Clear 13 1019 54 10000 5.7 320 01:58 12.12.2019
6596 Clear 13 1019 58 10000 3.6 310 01:35 12.12.2019
6597 Clouds 13 1019 54 10000 3.6 270 00:49 12.12.2019
6598 Clouds 13 1020 54 10000 5.7 310 00:22 12.12.2019
6599 Clouds 13 1020 58 10000 5.7 310 23:58 11.12.2019
6600 Clouds 13 1019 76 10000 0.5 280 23:37 11.12.2019
6601 Clouds 13 1020 62 10000 3.6 310 23:18 11.12.2019
6602 Clouds 13 1019 66 10000 4.6 310 22:56 11.12.2019
6603 Clouds 14 1019 58 10000 3.1 320 22:38 11.12.2019
6604 Clouds 14 1018 67 10000 3.6 30 22:18 11.12.2019
6605 Clouds 14 1018 67 10000 3.6 30 22:18 11.12.2019
6606 Clouds 14 1019 66 10000 2.6 10 21:54 11.12.2019
6607 Clouds 14 1019 62 10000 2.6 340 21:36 11.12.2019
6608 Clouds 14 1017 67 10000 7.2 350 21:18 11.12.2019
6609 Clouds 14 1018 62 10000 4.1 350 20:55 11.12.2019
6610 Clouds 14 1018 62 10000 5.1 340 20:36 11.12.2019
6611 Clouds 14 1017 67 10000 9.3 330 20:18 11.12.2019
6612 Clouds 14 1016 62 10000 7.7 330 19:42 11.12.2019
6613 Clouds 14 1017 62 10000 8.7 330 19:23 11.12.2019
6614 Clouds 14 1017 62 10000 6.2 330 18:59 11.12.2019
6615 Clouds 14 1016 62 10000 6.2 350 18:40 11.12.2019
6616 Clouds 14 1015 67 10000 5.7 330 18:19 11.12.2019
6617 Clouds 15 1016 67 10000 3.1 320 17:56 11.12.2019
6618 Clouds 15 1016 62 10000 5.7 340 17:38 11.12.2019
6619 Clouds 15 1016 62 10000 5.7 340 17:38 11.12.2019
6620 Clouds 15 1016 62 10000 5.7 340 17:18 11.12.2019
6621 Clouds 15 1016 55 10000 2.6 350 16:55 11.12.2019
6622 Clouds 16 1015 63 10000 3.1 250 16:37 11.12.2019
6623 Clouds 16 1014 67 10000 5.1 240 16:18 11.12.2019
6624 Clouds 16 1015 59 10000 4.6 240 15:56 11.12.2019
6625 Clouds 16 1014 72 10000 5.7 240 15:37 11.12.2019
6626 Clouds 16 1016 55 10000 6.7 230 15:19 11.12.2019
6627 Clouds 16 1016 67 10000 4.6 230 14:55 11.12.2019
6628 Clouds 16 1016 67 10000 6.2 220 14:36 11.12.2019
6629 Clouds 17 1016 67 10000 6.2 220 14:18 11.12.2019
6630 Clouds 16 1017 77 10000 3.1 210 13:43 11.12.2019
6631 Clouds 16 1017 77 10000 3.1 210 13:23 11.12.2019
6632 Clouds 16 1018 72 10000 1.5 180 12:59 11.12.2019
6633 Clouds 15 1019 76 10000 2.1 160 12:39 11.12.2019
6634 Clouds 15 1019 76 10000 2.1 160 12:21 11.12.2019
6635 Clouds 14 1020 71 10000 1 0 11:58 11.12.2019
6636 Clouds 13 1020 66 10000 0.5 100 11:39 11.12.2019
6637 Clouds 13 1019 87 10000 4.18 224 11:19 11.12.2019
6638 Clouds 11 1020 71 10000 0.5 110 10:59 11.12.2019
6639 Clouds 10 1020 71 10000 1 0 10:40 11.12.2019
6640 Clouds 10 1019 93 10000 4.18 224 10:21 11.12.2019
6641 Clouds 10 1019 93 10000 4.18 224 10:21 11.12.2019
6642 Clouds 9 1020 70 10000 1.5 360 09:57 11.12.2019
6643 Clouds 8 1020 75 10000 2.1 350 09:38 11.12.2019
6644 Clouds 7 1019 93 10000 0.5 50 09:19 11.12.2019
6645 Clouds 6 1020 75 10000 2.1 10 08:55 11.12.2019
6646 Clouds 6 1020 75 10000 1.5 360 08:36 11.12.2019
6647 Clouds 6 1019 100 10000 1 60 08:18 11.12.2019
6648 Clouds 6 1020 100 10000 3.19 214 07:43 11.12.2019
6649 Clouds 6 1021 80 10000 2.1 360 07:24 11.12.2019
6650 Clouds 6 1020 93 10000 1 0 06:46 11.12.2019
6651 Clouds 6 1021 80 10000 1.5 70 06:25 11.12.2019
6652 Clouds 6 1021 80 10000 1.5 20 05:56 11.12.2019
6653 Clouds 6 1022 81 10000 1 0 05:36 11.12.2019
6654 Clouds 6 1022 81 10000 2.1 20 04:53 11.12.2019
6655 Clouds 6 1023 87 10000 2.6 350 03:37 11.12.2019
6656 Clouds 7 1022 100 10000 0.5 70 02:38 11.12.2019
6657 Clear 9 1024 87 10000 1 0 01:22 11.12.2019
6658 Clouds 9 1023 93 10000 1 70 00:45 11.12.2019
6659 Clouds 9 1023 93 10000 2.12 106 00:19 11.12.2019
6660 Clear 9 1024 81 10000 1.5 330 23:46 10.12.2019
6661 Clear 9 1024 76 10000 1 0 23:27 10.12.2019
6662 Clear 10 1024 81 10000 2.6 240 22:57 10.12.2019
6663 Clouds 10 1023 93 10000 1.5 70 22:39 10.12.2019
6664 Clear 11 1024 76 10000 1.5 0 22:21 10.12.2019
6665 Clear 10 1024 76 10000 1.5 310 21:55 10.12.2019
6666 Clear 11 1024 71 10000 3.6 330 21:37 10.12.2019
6667 Clear 11 1024 71 10000 3.6 330 21:18 10.12.2019
6668 Clear 11 1024 81 10000 3.1 230 20:56 10.12.2019
6669 Clear 12 1024 71 10000 2.6 330 20:37 10.12.2019
6670 Clear 12 1024 71 10000 2.6 330 20:19 10.12.2019
6671 Clouds 13 1024 71 10000 2.6 290 19:54 10.12.2019
6672 Clouds 12 1024 71 10000 4.1 270 19:36 10.12.2019
6673 Clouds 12 1024 71 10000 4.1 270 19:18 10.12.2019
6674 Clouds 12 1022 66 10000 3.6 260 18:40 10.12.2019
6675 Clouds 13 1022 62 10000 1.5 310 18:20 10.12.2019
6676 Clouds 13 1023 62 10000 3.6 260 17:58 10.12.2019
6677 Clouds 14 1023 58 10000 2.1 270 17:39 10.12.2019
6678 Clouds 14 1022 71 10000 3.6 230 17:20 10.12.2019
6679 Clouds 14 1022 67 10000 3.1 230 16:43 10.12.2019
6680 Clouds 15 1023 58 10000 3.6 210 16:21 10.12.2019
6681 Clouds 15 1023 58 10000 4.6 200 15:59 10.12.2019
6682 Clouds 16 1023 58 10000 4.6 210 15:38 10.12.2019
6683 Clouds 16 1022 59 10000 3.6 220 15:18 10.12.2019
6684 Clouds 16 1022 59 10000 3.6 220 15:18 10.12.2019
6685 Clouds 16 1024 58 10000 4.1 200 14:56 10.12.2019
6686 Clouds 16 1024 54 10000 3.1 220 14:37 10.12.2019
6687 Clouds 16 1024 54 10000 3.1 220 14:37 10.12.2019
6688 Clear 15 1024 54 10000 3.1 220 14:19 10.12.2019
6689 Clear 15 1025 54 10000 4.1 220 13:56 10.12.2019
6690 Clear 15 1025 54 10000 4.1 220 13:56 10.12.2019
6691 Clouds 15 1024 59 10000 1.5 180 13:38 10.12.2019
6692 Clouds 16 1025 54 10000 2.1 0 13:19 10.12.2019
6693 Clouds 15 1024 55 10000 1 0 12:47 10.12.2019
6694 Clouds 15 1026 54 10000